<?xml version="1.0" encoding="UTF-8"?>
<gpx version="1.1" creator="https://www.youtrack.es" xsi:schemaLocation="http://www.topografix.com/GPX/1/1 http://www.topografix.com/GPX/1/1/gpx.xsd http://www.garmin.com/xmlschemas/GpxExtensions/v3 http://www.garmin.com/xmlschemas/GpxExtensionsv3.xsd http://www.garmin.com/xmlschemas/TrackPointExtension/v1 http://www.garmin.com/xmlschemas/TrackPointExtensionv1.xsd" xmlns:gpxtpx="http://www.garmin.com/xmlschemas/TrackPointExtension/v1" xmlns:gpxx="http://www.garmin.com/xmlschemas/GpxExtensions/v3" xmlns:xsi="http://www.w3.org/2001/XMLSchema-instance">
  <metadata>
    <link href="https://www.youtrack.es">
      <text>YouTrack.es</text>
    </link>
    <time>2026-05-09T01:35:54Z</time>
  </metadata>
  <trk>
    <src>https://www.youtrack.es</src>
    <link href="https://www.youtrack.es/ruta/21874-tajo">
      <text>YouTrack.es</text>
    </link>
    <trkseg>
      <trkpt lat="40.50564" lon="-1.58973">
        <ele>1615.892</ele>
        <time>2020-02-25T02:29:19Z</time>
      </trkpt>
      <trkpt lat="40.50564" lon="-1.58964">
        <ele>1615.565</ele>
        <time>2020-02-25T02:29:39Z</time>
      </trkpt>
      <trkpt lat="40.5056" lon="-1.58961">
        <ele>1616.519</ele>
        <time>2020-02-25T02:29:59Z</time>
      </trkpt>
      <trkpt lat="40.50556" lon="-1.58953">
        <ele>1617.228</ele>
        <time>2020-02-25T02:30:19Z</time>
      </trkpt>
      <trkpt lat="40.5051" lon="-1.58804">
        <ele>1616.714</ele>
        <time>2020-02-25T02:30:39Z</time>
      </trkpt>
      <trkpt lat="40.50482" lon="-1.58756">
        <ele>1617.875</ele>
        <time>2020-02-25T02:30:59Z</time>
      </trkpt>
      <trkpt lat="40.50391" lon="-1.58707">
        <ele>1624.925</ele>
        <time>2020-02-25T02:31:19Z</time>
      </trkpt>
      <trkpt lat="40.50369" lon="-1.58705">
        <ele>1625.925</ele>
        <time>2020-02-25T02:31:39Z</time>
      </trkpt>
      <trkpt lat="40.5028" lon="-1.58782">
        <ele>1646.427</ele>
        <time>2020-02-25T02:31:59Z</time>
      </trkpt>
      <trkpt lat="40.50191" lon="-1.58816">
        <ele>1654.668</ele>
        <time>2020-02-25T02:32:19Z</time>
      </trkpt>
      <trkpt lat="40.50163" lon="-1.58849">
        <ele>1659.414</ele>
        <time>2020-02-25T02:32:39Z</time>
      </trkpt>
      <trkpt lat="40.50059" lon="-1.59053">
        <ele>1682.208</ele>
        <time>2020-02-25T02:32:59Z</time>
      </trkpt>
      <trkpt lat="40.50059" lon="-1.59054">
        <ele>1682.426</ele>
        <time>2020-02-25T02:33:19Z</time>
      </trkpt>
      <trkpt lat="40.49966" lon="-1.59234">
        <ele>1696.649</ele>
        <time>2020-02-25T02:33:39Z</time>
      </trkpt>
      <trkpt lat="40.4992" lon="-1.59304">
        <ele>1702.683</ele>
        <time>2020-02-25T02:33:59Z</time>
      </trkpt>
      <trkpt lat="40.49848" lon="-1.59337">
        <ele>1709.872</ele>
        <time>2020-02-25T02:34:19Z</time>
      </trkpt>
      <trkpt lat="40.49789" lon="-1.59353">
        <ele>1713.668</ele>
        <time>2020-02-25T02:34:39Z</time>
      </trkpt>
      <trkpt lat="40.49748" lon="-1.5939">
        <ele>1719.449</ele>
        <time>2020-02-25T02:34:59Z</time>
      </trkpt>
      <trkpt lat="40.49752" lon="-1.59417">
        <ele>1721.979</ele>
        <time>2020-02-25T02:35:19Z</time>
      </trkpt>
      <trkpt lat="40.49795" lon="-1.59438">
        <ele>1722.179</ele>
        <time>2020-02-25T02:35:39Z</time>
      </trkpt>
      <trkpt lat="40.49892" lon="-1.59451">
        <ele>1718.218</ele>
        <time>2020-02-25T02:35:59Z</time>
      </trkpt>
      <trkpt lat="40.49951" lon="-1.59451">
        <ele>1717.298</ele>
        <time>2020-02-25T02:36:19Z</time>
      </trkpt>
      <trkpt lat="40.49997" lon="-1.59468">
        <ele>1718.517</ele>
        <time>2020-02-25T02:36:39Z</time>
      </trkpt>
      <trkpt lat="40.50016" lon="-1.59533">
        <ele>1720.508</ele>
        <time>2020-02-25T02:36:59Z</time>
      </trkpt>
      <trkpt lat="40.5" lon="-1.59578">
        <ele>1722.825</ele>
        <time>2020-02-25T02:37:19Z</time>
      </trkpt>
      <trkpt lat="40.49966" lon="-1.59595">
        <ele>1725.298</ele>
        <time>2020-02-25T02:37:39Z</time>
      </trkpt>
      <trkpt lat="40.49686" lon="-1.59537">
        <ele>1735.822</ele>
        <time>2020-02-25T02:37:59Z</time>
      </trkpt>
      <trkpt lat="40.49668" lon="-1.59537">
        <ele>1736.571</ele>
        <time>2020-02-25T02:38:19Z</time>
      </trkpt>
      <trkpt lat="40.49641" lon="-1.59539">
        <ele>1737.447</ele>
        <time>2020-02-25T02:38:39Z</time>
      </trkpt>
      <trkpt lat="40.49524" lon="-1.59566">
        <ele>1741.628</ele>
        <time>2020-02-25T02:38:59Z</time>
      </trkpt>
      <trkpt lat="40.49469" lon="-1.59589">
        <ele>1741.548</ele>
        <time>2020-02-25T02:39:19Z</time>
      </trkpt>
      <trkpt lat="40.49438" lon="-1.59607">
        <ele>1739.398</ele>
        <time>2020-02-25T02:39:39Z</time>
      </trkpt>
      <trkpt lat="40.49412" lon="-1.59625">
        <ele>1737.695</ele>
        <time>2020-02-25T02:39:59Z</time>
      </trkpt>
      <trkpt lat="40.49375" lon="-1.59662">
        <ele>1736.749</ele>
        <time>2020-02-25T02:40:19Z</time>
      </trkpt>
      <trkpt lat="40.49354" lon="-1.59691">
        <ele>1736.223</ele>
        <time>2020-02-25T02:40:39Z</time>
      </trkpt>
      <trkpt lat="40.4931" lon="-1.59762">
        <ele>1732.708</ele>
        <time>2020-02-25T02:40:59Z</time>
      </trkpt>
      <trkpt lat="40.49286" lon="-1.5981">
        <ele>1730.223</ele>
        <time>2020-02-25T02:41:19Z</time>
      </trkpt>
      <trkpt lat="40.49271" lon="-1.59849">
        <ele>1729.446</ele>
        <time>2020-02-25T02:41:39Z</time>
      </trkpt>
      <trkpt lat="40.49246" lon="-1.59926">
        <ele>1729.46</ele>
        <time>2020-02-25T02:41:59Z</time>
      </trkpt>
      <trkpt lat="40.49247" lon="-1.59952">
        <ele>1730.019</ele>
        <time>2020-02-25T02:42:19Z</time>
      </trkpt>
      <trkpt lat="40.49254" lon="-1.59976">
        <ele>1730.355</ele>
        <time>2020-02-25T02:42:39Z</time>
      </trkpt>
      <trkpt lat="40.49282" lon="-1.60031">
        <ele>1730.826</ele>
        <time>2020-02-25T02:42:59Z</time>
      </trkpt>
      <trkpt lat="40.49302" lon="-1.60066">
        <ele>1729.666</ele>
        <time>2020-02-25T02:43:19Z</time>
      </trkpt>
      <trkpt lat="40.49306" lon="-1.60074">
        <ele>1729.266</ele>
        <time>2020-02-25T02:43:39Z</time>
      </trkpt>
      <trkpt lat="40.49313" lon="-1.60097">
        <ele>1729.291</ele>
        <time>2020-02-25T02:43:59Z</time>
      </trkpt>
      <trkpt lat="40.49317" lon="-1.60125">
        <ele>1730.681</ele>
        <time>2020-02-25T02:44:19Z</time>
      </trkpt>
      <trkpt lat="40.49324" lon="-1.60153">
        <ele>1731.619</ele>
        <time>2020-02-25T02:44:39Z</time>
      </trkpt>
      <trkpt lat="40.49334" lon="-1.60183">
        <ele>1732.308</ele>
        <time>2020-02-25T02:44:59Z</time>
      </trkpt>
      <trkpt lat="40.4935" lon="-1.60208">
        <ele>1731.693</ele>
        <time>2020-02-25T02:45:19Z</time>
      </trkpt>
      <trkpt lat="40.49381" lon="-1.60252">
        <ele>1729.636</ele>
        <time>2020-02-25T02:45:39Z</time>
      </trkpt>
      <trkpt lat="40.49421" lon="-1.60346">
        <ele>1729.96</ele>
        <time>2020-02-25T02:45:59Z</time>
      </trkpt>
      <trkpt lat="40.49428" lon="-1.60359">
        <ele>1730.499</ele>
        <time>2020-02-25T02:46:19Z</time>
      </trkpt>
      <trkpt lat="40.49444" lon="-1.60367">
        <ele>1729.035</ele>
        <time>2020-02-25T02:46:39Z</time>
      </trkpt>
      <trkpt lat="40.49464" lon="-1.60373">
        <ele>1726.726</ele>
        <time>2020-02-25T02:46:59Z</time>
      </trkpt>
      <trkpt lat="40.49476" lon="-1.60379">
        <ele>1725.516</ele>
        <time>2020-02-25T02:47:19Z</time>
      </trkpt>
      <trkpt lat="40.4949" lon="-1.60387">
        <ele>1724.336</ele>
        <time>2020-02-25T02:47:39Z</time>
      </trkpt>
      <trkpt lat="40.49507" lon="-1.60399">
        <ele>1723.073</ele>
        <time>2020-02-25T02:47:59Z</time>
      </trkpt>
      <trkpt lat="40.49585" lon="-1.60501">
        <ele>1722.185</ele>
        <time>2020-02-25T02:48:19Z</time>
      </trkpt>
      <trkpt lat="40.49603" lon="-1.60514">
        <ele>1723.113</ele>
        <time>2020-02-25T02:48:39Z</time>
      </trkpt>
      <trkpt lat="40.49625" lon="-1.6052">
        <ele>1723.008</ele>
        <time>2020-02-25T02:48:59Z</time>
      </trkpt>
      <trkpt lat="40.49644" lon="-1.60521">
        <ele>1722.391</ele>
        <time>2020-02-25T02:49:19Z</time>
      </trkpt>
      <trkpt lat="40.49684" lon="-1.60511">
        <ele>1719.184</ele>
        <time>2020-02-25T02:49:39Z</time>
      </trkpt>
      <trkpt lat="40.49718" lon="-1.60508">
        <ele>1717.468</ele>
        <time>2020-02-25T02:49:59Z</time>
      </trkpt>
      <trkpt lat="40.49747" lon="-1.60514">
        <ele>1717.357</ele>
        <time>2020-02-25T02:50:19Z</time>
      </trkpt>
      <trkpt lat="40.49806" lon="-1.60532">
        <ele>1716.993</ele>
        <time>2020-02-25T02:50:39Z</time>
      </trkpt>
      <trkpt lat="40.49873" lon="-1.60567">
        <ele>1715.974</ele>
        <time>2020-02-25T02:50:59Z</time>
      </trkpt>
      <trkpt lat="40.49884" lon="-1.6058">
        <ele>1715.944</ele>
        <time>2020-02-25T02:51:19Z</time>
      </trkpt>
      <trkpt lat="40.49891" lon="-1.60595">
        <ele>1716.194</ele>
        <time>2020-02-25T02:51:39Z</time>
      </trkpt>
      <trkpt lat="40.49892" lon="-1.60611">
        <ele>1716.815</ele>
        <time>2020-02-25T02:51:59Z</time>
      </trkpt>
      <trkpt lat="40.49891" lon="-1.60626">
        <ele>1717.765</ele>
        <time>2020-02-25T02:52:19Z</time>
      </trkpt>
      <trkpt lat="40.49878" lon="-1.60662">
        <ele>1720.911</ele>
        <time>2020-02-25T02:52:39Z</time>
      </trkpt>
      <trkpt lat="40.49863" lon="-1.60715">
        <ele>1722.908</ele>
        <time>2020-02-25T02:52:59Z</time>
      </trkpt>
      <trkpt lat="40.49856" lon="-1.60749">
        <ele>1724.285</ele>
        <time>2020-02-25T02:53:19Z</time>
      </trkpt>
      <trkpt lat="40.49852" lon="-1.6077">
        <ele>1725.268</ele>
        <time>2020-02-25T02:53:39Z</time>
      </trkpt>
      <trkpt lat="40.49854" lon="-1.60784">
        <ele>1725.092</ele>
        <time>2020-02-25T02:53:59Z</time>
      </trkpt>
      <trkpt lat="40.49857" lon="-1.60796">
        <ele>1724.791</ele>
        <time>2020-02-25T02:54:19Z</time>
      </trkpt>
      <trkpt lat="40.49884" lon="-1.60828">
        <ele>1721.067</ele>
        <time>2020-02-25T02:54:39Z</time>
      </trkpt>
      <trkpt lat="40.49896" lon="-1.60845">
        <ele>1720.098</ele>
        <time>2020-02-25T02:54:59Z</time>
      </trkpt>
      <trkpt lat="40.49902" lon="-1.60857">
        <ele>1719.928</ele>
        <time>2020-02-25T02:55:19Z</time>
      </trkpt>
      <trkpt lat="40.49908" lon="-1.6087">
        <ele>1719.928</ele>
        <time>2020-02-25T02:55:39Z</time>
      </trkpt>
      <trkpt lat="40.49912" lon="-1.60903">
        <ele>1721.792</ele>
        <time>2020-02-25T02:55:59Z</time>
      </trkpt>
      <trkpt lat="40.49923" lon="-1.60929">
        <ele>1722.073</ele>
        <time>2020-02-25T02:56:19Z</time>
      </trkpt>
      <trkpt lat="40.49947" lon="-1.6096">
        <ele>1721.12</ele>
        <time>2020-02-25T02:56:39Z</time>
      </trkpt>
      <trkpt lat="40.49956" lon="-1.60976">
        <ele>1721.508</ele>
        <time>2020-02-25T02:56:59Z</time>
      </trkpt>
      <trkpt lat="40.49977" lon="-1.61">
        <ele>1721.323</ele>
        <time>2020-02-25T02:57:19Z</time>
      </trkpt>
      <trkpt lat="40.49996" lon="-1.61015">
        <ele>1719.846</ele>
        <time>2020-02-25T02:57:39Z</time>
      </trkpt>
      <trkpt lat="40.50011" lon="-1.61039">
        <ele>1720.25</ele>
        <time>2020-02-25T02:57:59Z</time>
      </trkpt>
      <trkpt lat="40.50035" lon="-1.61136">
        <ele>1721.199</ele>
        <time>2020-02-25T02:58:19Z</time>
      </trkpt>
      <trkpt lat="40.50037" lon="-1.61163">
        <ele>1721.565</ele>
        <time>2020-02-25T02:58:39Z</time>
      </trkpt>
      <trkpt lat="40.50035" lon="-1.61189">
        <ele>1721.486</ele>
        <time>2020-02-25T02:58:59Z</time>
      </trkpt>
      <trkpt lat="40.50031" lon="-1.61215">
        <ele>1721.386</ele>
        <time>2020-02-25T02:59:19Z</time>
      </trkpt>
      <trkpt lat="40.50026" lon="-1.61234">
        <ele>1721.256</ele>
        <time>2020-02-25T02:59:39Z</time>
      </trkpt>
      <trkpt lat="40.5002" lon="-1.61248">
        <ele>1721.116</ele>
        <time>2020-02-25T02:59:59Z</time>
      </trkpt>
      <trkpt lat="40.49942" lon="-1.61328">
        <ele>1723.276</ele>
        <time>2020-02-25T03:00:19Z</time>
      </trkpt>
      <trkpt lat="40.49929" lon="-1.6135">
        <ele>1723.113</ele>
        <time>2020-02-25T03:00:39Z</time>
      </trkpt>
      <trkpt lat="40.49922" lon="-1.61372">
        <ele>1722.608</ele>
        <time>2020-02-25T03:00:59Z</time>
      </trkpt>
      <trkpt lat="40.49918" lon="-1.614">
        <ele>1721.795</ele>
        <time>2020-02-25T03:01:19Z</time>
      </trkpt>
      <trkpt lat="40.49908" lon="-1.61439">
        <ele>1720.458</ele>
        <time>2020-02-25T03:01:39Z</time>
      </trkpt>
      <trkpt lat="40.49897" lon="-1.61462">
        <ele>1719.962</ele>
        <time>2020-02-25T03:01:59Z</time>
      </trkpt>
      <trkpt lat="40.4988" lon="-1.61494">
        <ele>1719.191</ele>
        <time>2020-02-25T03:02:19Z</time>
      </trkpt>
      <trkpt lat="40.49859" lon="-1.61519">
        <ele>1718.437</ele>
        <time>2020-02-25T03:02:39Z</time>
      </trkpt>
      <trkpt lat="40.498528" lon="-1.615254">
        <ele>1718.198</ele>
        <time>2020-02-25T03:02:59Z</time>
      </trkpt>
      <trkpt lat="40.49852" lon="-1.61526">
        <ele>1718.138</ele>
        <time>2020-02-25T03:03:19Z</time>
      </trkpt>
      <trkpt lat="40.49835" lon="-1.61544">
        <ele>1717.388</ele>
        <time>2020-02-25T03:03:39Z</time>
      </trkpt>
      <trkpt lat="40.49816" lon="-1.6157">
        <ele>1715.678</ele>
        <time>2020-02-25T03:03:59Z</time>
      </trkpt>
      <trkpt lat="40.49801" lon="-1.61596">
        <ele>1714.433</ele>
        <time>2020-02-25T03:04:19Z</time>
      </trkpt>
      <trkpt lat="40.49791" lon="-1.61625">
        <ele>1713.526</ele>
        <time>2020-02-25T03:04:39Z</time>
      </trkpt>
      <trkpt lat="40.49785" lon="-1.61655">
        <ele>1712.408</ele>
        <time>2020-02-25T03:04:59Z</time>
      </trkpt>
      <trkpt lat="40.49783" lon="-1.61681">
        <ele>1712.261</ele>
        <time>2020-02-25T03:05:19Z</time>
      </trkpt>
      <trkpt lat="40.49776" lon="-1.61712">
        <ele>1712.784</ele>
        <time>2020-02-25T03:05:39Z</time>
      </trkpt>
      <trkpt lat="40.49762" lon="-1.61742">
        <ele>1713.528</ele>
        <time>2020-02-25T03:05:59Z</time>
      </trkpt>
      <trkpt lat="40.49839" lon="-1.61739">
        <ele>1711.427</ele>
        <time>2020-02-25T03:06:19Z</time>
      </trkpt>
      <trkpt lat="40.49902" lon="-1.61763">
        <ele>1706.643</ele>
        <time>2020-02-25T03:06:39Z</time>
      </trkpt>
      <trkpt lat="40.49987" lon="-1.61806">
        <ele>1702.264</ele>
        <time>2020-02-25T03:06:59Z</time>
      </trkpt>
      <trkpt lat="40.50021" lon="-1.61833">
        <ele>1703.064</ele>
        <time>2020-02-25T03:07:19Z</time>
      </trkpt>
      <trkpt lat="40.50098" lon="-1.61812">
        <ele>1699.084</ele>
        <time>2020-02-25T03:07:39Z</time>
      </trkpt>
      <trkpt lat="40.50183" lon="-1.61793">
        <ele>1702.585</ele>
        <time>2020-02-25T03:07:59Z</time>
      </trkpt>
      <trkpt lat="40.5027" lon="-1.61831">
        <ele>1709.189</ele>
        <time>2020-02-25T03:08:19Z</time>
      </trkpt>
      <trkpt lat="40.50365" lon="-1.61838">
        <ele>1712.317</ele>
        <time>2020-02-25T03:08:39Z</time>
      </trkpt>
      <trkpt lat="40.50461" lon="-1.61864">
        <ele>1717.908</ele>
        <time>2020-02-25T03:08:59Z</time>
      </trkpt>
      <trkpt lat="40.5054" lon="-1.61933">
        <ele>1720.732</ele>
        <time>2020-02-25T03:09:19Z</time>
      </trkpt>
      <trkpt lat="40.50587" lon="-1.62002">
        <ele>1720.725</ele>
        <time>2020-02-25T03:09:39Z</time>
      </trkpt>
      <trkpt lat="40.50615" lon="-1.62042">
        <ele>1719.249</ele>
        <time>2020-02-25T03:09:59Z</time>
      </trkpt>
      <trkpt lat="40.50652" lon="-1.62114">
        <ele>1718.048</ele>
        <time>2020-02-25T03:10:19Z</time>
      </trkpt>
      <trkpt lat="40.507" lon="-1.62267">
        <ele>1716.634</ele>
        <time>2020-02-25T03:10:39Z</time>
      </trkpt>
      <trkpt lat="40.50717" lon="-1.62288">
        <ele>1716.655</ele>
        <time>2020-02-25T03:10:59Z</time>
      </trkpt>
      <trkpt lat="40.50742" lon="-1.62308">
        <ele>1715.475</ele>
        <time>2020-02-25T03:11:19Z</time>
      </trkpt>
      <trkpt lat="40.5077" lon="-1.62356">
        <ele>1715.325</ele>
        <time>2020-02-25T03:11:39Z</time>
      </trkpt>
      <trkpt lat="40.50798" lon="-1.62425">
        <ele>1713.098</ele>
        <time>2020-02-25T03:11:59Z</time>
      </trkpt>
      <trkpt lat="40.50825" lon="-1.62486">
        <ele>1711.615</ele>
        <time>2020-02-25T03:12:19Z</time>
      </trkpt>
      <trkpt lat="40.5085" lon="-1.62552">
        <ele>1710.226</ele>
        <time>2020-02-25T03:12:39Z</time>
      </trkpt>
      <trkpt lat="40.5088" lon="-1.62607">
        <ele>1709.608</ele>
        <time>2020-02-25T03:12:59Z</time>
      </trkpt>
      <trkpt lat="40.5092" lon="-1.62656">
        <ele>1709.543</ele>
        <time>2020-02-25T03:13:19Z</time>
      </trkpt>
      <trkpt lat="40.50958" lon="-1.62675">
        <ele>1712.776</ele>
        <time>2020-02-25T03:13:39Z</time>
      </trkpt>
      <trkpt lat="40.51019" lon="-1.62679">
        <ele>1716.89</ele>
        <time>2020-02-25T03:13:59Z</time>
      </trkpt>
      <trkpt lat="40.51068" lon="-1.62676">
        <ele>1719.679</ele>
        <time>2020-02-25T03:14:19Z</time>
      </trkpt>
      <trkpt lat="40.51091" lon="-1.62678">
        <ele>1721.435</ele>
        <time>2020-02-25T03:14:39Z</time>
      </trkpt>
      <trkpt lat="40.51114" lon="-1.6267">
        <ele>1723.166</ele>
        <time>2020-02-25T03:14:59Z</time>
      </trkpt>
      <trkpt lat="40.51132" lon="-1.6264">
        <ele>1723.436</ele>
        <time>2020-02-25T03:15:19Z</time>
      </trkpt>
      <trkpt lat="40.51154" lon="-1.62607">
        <ele>1724.496</ele>
        <time>2020-02-25T03:15:39Z</time>
      </trkpt>
      <trkpt lat="40.51191" lon="-1.62579">
        <ele>1726.248</ele>
        <time>2020-02-25T03:15:59Z</time>
      </trkpt>
      <trkpt lat="40.51198" lon="-1.62575">
        <ele>1726.361</ele>
        <time>2020-02-25T03:16:19Z</time>
      </trkpt>
      <trkpt lat="40.511988" lon="-1.625755">
        <ele>1726.417</ele>
        <time>2020-02-25T03:16:39Z</time>
      </trkpt>
      <trkpt lat="40.51276" lon="-1.62541">
        <ele>1729.008</ele>
        <time>2020-02-25T03:16:59Z</time>
      </trkpt>
      <trkpt lat="40.51334" lon="-1.6252">
        <ele>1729.738</ele>
        <time>2020-02-25T03:17:19Z</time>
      </trkpt>
      <trkpt lat="40.51405" lon="-1.62513">
        <ele>1734.011</ele>
        <time>2020-02-25T03:17:39Z</time>
      </trkpt>
      <trkpt lat="40.51483" lon="-1.62503">
        <ele>1732.715</ele>
        <time>2020-02-25T03:17:59Z</time>
      </trkpt>
      <trkpt lat="40.51575" lon="-1.62503">
        <ele>1726.634</ele>
        <time>2020-02-25T03:18:19Z</time>
      </trkpt>
      <trkpt lat="40.51637" lon="-1.62524">
        <ele>1727.21</ele>
        <time>2020-02-25T03:18:39Z</time>
      </trkpt>
      <trkpt lat="40.51682" lon="-1.62497">
        <ele>1716.681</ele>
        <time>2020-02-25T03:18:59Z</time>
      </trkpt>
      <trkpt lat="40.51718" lon="-1.62442">
        <ele>1702.951</ele>
        <time>2020-02-25T03:19:19Z</time>
      </trkpt>
      <trkpt lat="40.51764" lon="-1.62424">
        <ele>1697.131</ele>
        <time>2020-02-25T03:19:39Z</time>
      </trkpt>
      <trkpt lat="40.51827" lon="-1.62456">
        <ele>1696.342</ele>
        <time>2020-02-25T03:19:59Z</time>
      </trkpt>
      <trkpt lat="40.51909" lon="-1.62485">
        <ele>1693.222</ele>
        <time>2020-02-25T03:20:19Z</time>
      </trkpt>
      <trkpt lat="40.52006" lon="-1.62426">
        <ele>1683.914</ele>
        <time>2020-02-25T03:20:39Z</time>
      </trkpt>
      <trkpt lat="40.52051" lon="-1.62395">
        <ele>1684.208</ele>
        <time>2020-02-25T03:20:59Z</time>
      </trkpt>
      <trkpt lat="40.52073" lon="-1.62355">
        <ele>1678.548</ele>
        <time>2020-02-25T03:21:19Z</time>
      </trkpt>
      <trkpt lat="40.52099" lon="-1.62288">
        <ele>1670.081</ele>
        <time>2020-02-25T03:21:39Z</time>
      </trkpt>
      <trkpt lat="40.52152" lon="-1.62249">
        <ele>1665.445</ele>
        <time>2020-02-25T03:21:59Z</time>
      </trkpt>
      <trkpt lat="40.52204" lon="-1.62235">
        <ele>1661.634</ele>
        <time>2020-02-25T03:22:19Z</time>
      </trkpt>
      <trkpt lat="40.52276" lon="-1.62201">
        <ele>1650.03</ele>
        <time>2020-02-25T03:22:39Z</time>
      </trkpt>
      <trkpt lat="40.52312" lon="-1.62228">
        <ele>1648.891</ele>
        <time>2020-02-25T03:22:59Z</time>
      </trkpt>
      <trkpt lat="40.52384" lon="-1.62251">
        <ele>1635.111</ele>
        <time>2020-02-25T03:23:19Z</time>
      </trkpt>
      <trkpt lat="40.5242" lon="-1.62314">
        <ele>1640.671</ele>
        <time>2020-02-25T03:23:39Z</time>
      </trkpt>
      <trkpt lat="40.52433" lon="-1.62317">
        <ele>1640.487</ele>
        <time>2020-02-25T03:23:59Z</time>
      </trkpt>
      <trkpt lat="40.52476" lon="-1.62306">
        <ele>1635.142</ele>
        <time>2020-02-25T03:24:19Z</time>
      </trkpt>
      <trkpt lat="40.52506" lon="-1.62322">
        <ele>1637.326</ele>
        <time>2020-02-25T03:24:39Z</time>
      </trkpt>
      <trkpt lat="40.52543" lon="-1.62292">
        <ele>1630.108</ele>
        <time>2020-02-25T03:24:59Z</time>
      </trkpt>
      <trkpt lat="40.52596" lon="-1.62293">
        <ele>1628.682</ele>
        <time>2020-02-25T03:25:19Z</time>
      </trkpt>
      <trkpt lat="40.52683" lon="-1.62329">
        <ele>1625.285</ele>
        <time>2020-02-25T03:25:39Z</time>
      </trkpt>
      <trkpt lat="40.52699" lon="-1.62364">
        <ele>1624.869</ele>
        <time>2020-02-25T03:25:59Z</time>
      </trkpt>
      <trkpt lat="40.52695" lon="-1.62471">
        <ele>1632.198</ele>
        <time>2020-02-25T03:26:19Z</time>
      </trkpt>
      <trkpt lat="40.52712" lon="-1.62507">
        <ele>1629.264</ele>
        <time>2020-02-25T03:26:39Z</time>
      </trkpt>
      <trkpt lat="40.52759" lon="-1.62527">
        <ele>1617.665</ele>
        <time>2020-02-25T03:26:59Z</time>
      </trkpt>
      <trkpt lat="40.52816" lon="-1.62592">
        <ele>1612.285</ele>
        <time>2020-02-25T03:27:19Z</time>
      </trkpt>
      <trkpt lat="40.52867" lon="-1.62673">
        <ele>1611.295</ele>
        <time>2020-02-25T03:27:39Z</time>
      </trkpt>
      <trkpt lat="40.52973" lon="-1.62753">
        <ele>1602.885</ele>
        <time>2020-02-25T03:27:59Z</time>
      </trkpt>
      <trkpt lat="40.53004" lon="-1.62738">
        <ele>1595.689</ele>
        <time>2020-02-25T03:28:19Z</time>
      </trkpt>
      <trkpt lat="40.53037" lon="-1.62677">
        <ele>1583.017</ele>
        <time>2020-02-25T03:28:39Z</time>
      </trkpt>
      <trkpt lat="40.5309" lon="-1.62663">
        <ele>1579.508</ele>
        <time>2020-02-25T03:28:59Z</time>
      </trkpt>
      <trkpt lat="40.53112" lon="-1.62627">
        <ele>1574.032</ele>
        <time>2020-02-25T03:29:19Z</time>
      </trkpt>
      <trkpt lat="40.53119" lon="-1.62548">
        <ele>1560.195</ele>
        <time>2020-02-25T03:29:39Z</time>
      </trkpt>
      <trkpt lat="40.5314" lon="-1.6252">
        <ele>1556.029</ele>
        <time>2020-02-25T03:29:59Z</time>
      </trkpt>
      <trkpt lat="40.53193" lon="-1.62485">
        <ele>1549.448</ele>
        <time>2020-02-25T03:30:19Z</time>
      </trkpt>
      <trkpt lat="40.53295" lon="-1.625">
        <ele>1545.184</ele>
        <time>2020-02-25T03:30:39Z</time>
      </trkpt>
      <trkpt lat="40.5333" lon="-1.62516">
        <ele>1544.375</ele>
        <time>2020-02-25T03:30:59Z</time>
      </trkpt>
      <trkpt lat="40.53368" lon="-1.6252">
        <ele>1540.695</ele>
        <time>2020-02-25T03:31:19Z</time>
      </trkpt>
      <trkpt lat="40.53428" lon="-1.6254">
        <ele>1537.915</ele>
        <time>2020-02-25T03:31:39Z</time>
      </trkpt>
      <trkpt lat="40.53502" lon="-1.62558">
        <ele>1530.987</ele>
        <time>2020-02-25T03:31:59Z</time>
      </trkpt>
      <trkpt lat="40.53558" lon="-1.62579">
        <ele>1527.142</ele>
        <time>2020-02-25T03:32:19Z</time>
      </trkpt>
      <trkpt lat="40.53591" lon="-1.62592">
        <ele>1524.826</ele>
        <time>2020-02-25T03:32:39Z</time>
      </trkpt>
      <trkpt lat="40.5367" lon="-1.62644">
        <ele>1522.408</ele>
        <time>2020-02-25T03:32:59Z</time>
      </trkpt>
      <trkpt lat="40.5375" lon="-1.62678">
        <ele>1518.252</ele>
        <time>2020-02-25T03:33:19Z</time>
      </trkpt>
      <trkpt lat="40.53799" lon="-1.62718">
        <ele>1514.975</ele>
        <time>2020-02-25T03:33:39Z</time>
      </trkpt>
      <trkpt lat="40.53889" lon="-1.62814">
        <ele>1505.179</ele>
        <time>2020-02-25T03:33:59Z</time>
      </trkpt>
      <trkpt lat="40.53966" lon="-1.62906">
        <ele>1495.588</ele>
        <time>2020-02-25T03:34:19Z</time>
      </trkpt>
      <trkpt lat="40.53997" lon="-1.62959">
        <ele>1491.614</ele>
        <time>2020-02-25T03:34:39Z</time>
      </trkpt>
      <trkpt lat="40.54015" lon="-1.63058">
        <ele>1489.595</ele>
        <time>2020-02-25T03:34:59Z</time>
      </trkpt>
      <trkpt lat="40.5404" lon="-1.6313">
        <ele>1485.185</ele>
        <time>2020-02-25T03:35:19Z</time>
      </trkpt>
      <trkpt lat="40.54099" lon="-1.63236">
        <ele>1478.145</ele>
        <time>2020-02-25T03:35:39Z</time>
      </trkpt>
      <trkpt lat="40.54127" lon="-1.63302">
        <ele>1476.672</ele>
        <time>2020-02-25T03:35:59Z</time>
      </trkpt>
      <trkpt lat="40.54154" lon="-1.63387">
        <ele>1474.013</ele>
        <time>2020-02-25T03:36:19Z</time>
      </trkpt>
      <trkpt lat="40.5417" lon="-1.63482">
        <ele>1467.814</ele>
        <time>2020-02-25T03:36:39Z</time>
      </trkpt>
      <trkpt lat="40.54261" lon="-1.63666">
        <ele>1450.008</ele>
        <time>2020-02-25T03:36:59Z</time>
      </trkpt>
      <trkpt lat="40.54281" lon="-1.63678">
        <ele>1447.431</ele>
        <time>2020-02-25T03:37:19Z</time>
      </trkpt>
      <trkpt lat="40.54379" lon="-1.63701">
        <ele>1439.354</ele>
        <time>2020-02-25T03:37:39Z</time>
      </trkpt>
      <trkpt lat="40.54433" lon="-1.63689">
        <ele>1436.898</ele>
        <time>2020-02-25T03:37:59Z</time>
      </trkpt>
      <trkpt lat="40.54495" lon="-1.63687">
        <ele>1434.237</ele>
        <time>2020-02-25T03:38:19Z</time>
      </trkpt>
      <trkpt lat="40.54585" lon="-1.63712">
        <ele>1428.983</ele>
        <time>2020-02-25T03:38:39Z</time>
      </trkpt>
      <trkpt lat="40.54747" lon="-1.63728">
        <ele>1419.294</ele>
        <time>2020-02-25T03:38:59Z</time>
      </trkpt>
      <trkpt lat="40.54774" lon="-1.63746">
        <ele>1416.764</ele>
        <time>2020-02-25T03:39:19Z</time>
      </trkpt>
      <trkpt lat="40.54799" lon="-1.63777">
        <ele>1414.494</ele>
        <time>2020-02-25T03:39:39Z</time>
      </trkpt>
      <trkpt lat="40.54829" lon="-1.63802">
        <ele>1412.522</ele>
        <time>2020-02-25T03:39:59Z</time>
      </trkpt>
      <trkpt lat="40.54915" lon="-1.63865">
        <ele>1410.762</ele>
        <time>2020-02-25T03:40:19Z</time>
      </trkpt>
      <trkpt lat="40.54942" lon="-1.63902">
        <ele>1409.408</ele>
        <time>2020-02-25T03:40:39Z</time>
      </trkpt>
      <trkpt lat="40.54968" lon="-1.63929">
        <ele>1409.108</ele>
        <time>2020-02-25T03:40:59Z</time>
      </trkpt>
      <trkpt lat="40.54999" lon="-1.63971">
        <ele>1410.066</ele>
        <time>2020-02-25T03:41:19Z</time>
      </trkpt>
      <trkpt lat="40.55023" lon="-1.63997">
        <ele>1411.289</ele>
        <time>2020-02-25T03:41:39Z</time>
      </trkpt>
      <trkpt lat="40.55082" lon="-1.64044">
        <ele>1412.513</ele>
        <time>2020-02-25T03:41:59Z</time>
      </trkpt>
      <trkpt lat="40.55112" lon="-1.6406">
        <ele>1420.022</ele>
        <time>2020-02-25T03:42:19Z</time>
      </trkpt>
      <trkpt lat="40.55148" lon="-1.64216">
        <ele>1426.178</ele>
        <time>2020-02-25T03:42:39Z</time>
      </trkpt>
      <trkpt lat="40.55151" lon="-1.64242">
        <ele>1426.349</ele>
        <time>2020-02-25T03:42:59Z</time>
      </trkpt>
      <trkpt lat="40.55151" lon="-1.64262">
        <ele>1425.969</ele>
        <time>2020-02-25T03:43:19Z</time>
      </trkpt>
      <trkpt lat="40.55101" lon="-1.6458">
        <ele>1425.969</ele>
        <time>2020-02-25T03:43:39Z</time>
      </trkpt>
      <trkpt lat="40.55099" lon="-1.64621">
        <ele>1426.574</ele>
        <time>2020-02-25T03:43:59Z</time>
      </trkpt>
      <trkpt lat="40.55101" lon="-1.64689">
        <ele>1429.256</ele>
        <time>2020-02-25T03:44:19Z</time>
      </trkpt>
      <trkpt lat="40.55098" lon="-1.6472">
        <ele>1430.221</ele>
        <time>2020-02-25T03:44:39Z</time>
      </trkpt>
      <trkpt lat="40.55078" lon="-1.64756">
        <ele>1428.908</ele>
        <time>2020-02-25T03:44:59Z</time>
      </trkpt>
      <trkpt lat="40.550334" lon="-1.648289">
        <ele>1429.061</ele>
        <time>2020-02-25T03:45:19Z</time>
      </trkpt>
      <trkpt lat="40.55033" lon="-1.64829">
        <ele>1428.964</ele>
        <time>2020-02-25T03:45:39Z</time>
      </trkpt>
      <trkpt lat="40.54961" lon="-1.64918">
        <ele>1429.188</ele>
        <time>2020-02-25T03:45:59Z</time>
      </trkpt>
      <trkpt lat="40.54952" lon="-1.6492">
        <ele>1429.027</ele>
        <time>2020-02-25T03:46:19Z</time>
      </trkpt>
      <trkpt lat="40.54944" lon="-1.64953">
        <ele>1429.923</ele>
        <time>2020-02-25T03:46:39Z</time>
      </trkpt>
      <trkpt lat="40.54965" lon="-1.64962">
        <ele>1432.074</ele>
        <time>2020-02-25T03:46:59Z</time>
      </trkpt>
      <trkpt lat="40.54965" lon="-1.65007">
        <ele>1434.574</ele>
        <time>2020-02-25T03:47:19Z</time>
      </trkpt>
      <trkpt lat="40.54974" lon="-1.65067">
        <ele>1437.084</ele>
        <time>2020-02-25T03:47:39Z</time>
      </trkpt>
      <trkpt lat="40.54978" lon="-1.65146">
        <ele>1437.182</ele>
        <time>2020-02-25T03:47:59Z</time>
      </trkpt>
      <trkpt lat="40.54987" lon="-1.65208">
        <ele>1439.043</ele>
        <time>2020-02-25T03:48:19Z</time>
      </trkpt>
      <trkpt lat="40.54998" lon="-1.65231">
        <ele>1441.217</ele>
        <time>2020-02-25T03:48:39Z</time>
      </trkpt>
      <trkpt lat="40.55" lon="-1.65246">
        <ele>1441.908</ele>
        <time>2020-02-25T03:48:59Z</time>
      </trkpt>
      <trkpt lat="40.5498" lon="-1.6536">
        <ele>1439.062</ele>
        <time>2020-02-25T03:49:19Z</time>
      </trkpt>
      <trkpt lat="40.54967" lon="-1.65421">
        <ele>1436.915</ele>
        <time>2020-02-25T03:49:39Z</time>
      </trkpt>
      <trkpt lat="40.5497" lon="-1.6548">
        <ele>1438.279</ele>
        <time>2020-02-25T03:49:59Z</time>
      </trkpt>
      <trkpt lat="40.54971" lon="-1.65507">
        <ele>1438.838</ele>
        <time>2020-02-25T03:50:19Z</time>
      </trkpt>
      <trkpt lat="40.54968" lon="-1.65537">
        <ele>1439.284</ele>
        <time>2020-02-25T03:50:39Z</time>
      </trkpt>
      <trkpt lat="40.54953" lon="-1.65566">
        <ele>1439.425</ele>
        <time>2020-02-25T03:50:59Z</time>
      </trkpt>
      <trkpt lat="40.54899" lon="-1.6574">
        <ele>1441.325</ele>
        <time>2020-02-25T03:51:19Z</time>
      </trkpt>
      <trkpt lat="40.54891" lon="-1.65923">
        <ele>1445.165</ele>
        <time>2020-02-25T03:51:39Z</time>
      </trkpt>
      <trkpt lat="40.54818" lon="-1.66047">
        <ele>1446.187</ele>
        <time>2020-02-25T03:51:59Z</time>
      </trkpt>
      <trkpt lat="40.54811" lon="-1.66074">
        <ele>1446.642</ele>
        <time>2020-02-25T03:52:19Z</time>
      </trkpt>
      <trkpt lat="40.54787" lon="-1.66186">
        <ele>1449.826</ele>
        <time>2020-02-25T03:52:39Z</time>
      </trkpt>
      <trkpt lat="40.54778" lon="-1.66333">
        <ele>1456.708</ele>
        <time>2020-02-25T03:52:59Z</time>
      </trkpt>
      <trkpt lat="40.547785" lon="-1.663326">
        <ele>1456.712</ele>
        <time>2020-02-25T03:53:19Z</time>
      </trkpt>
      <trkpt lat="40.54777" lon="-1.66361">
        <ele>1457.545</ele>
        <time>2020-02-25T03:53:39Z</time>
      </trkpt>
      <trkpt lat="40.54771" lon="-1.66387">
        <ele>1457.539</ele>
        <time>2020-02-25T03:53:59Z</time>
      </trkpt>
      <trkpt lat="40.54743" lon="-1.66441">
        <ele>1456.768</ele>
        <time>2020-02-25T03:54:19Z</time>
      </trkpt>
      <trkpt lat="40.54738" lon="-1.66456">
        <ele>1457.694</ele>
        <time>2020-02-25T03:54:39Z</time>
      </trkpt>
      <trkpt lat="40.54736" lon="-1.66469">
        <ele>1458.385</ele>
        <time>2020-02-25T03:54:59Z</time>
      </trkpt>
      <trkpt lat="40.54739" lon="-1.66486">
        <ele>1459.645</ele>
        <time>2020-02-25T03:55:19Z</time>
      </trkpt>
      <trkpt lat="40.54822" lon="-1.66678">
        <ele>1470.545</ele>
        <time>2020-02-25T03:55:39Z</time>
      </trkpt>
      <trkpt lat="40.54825" lon="-1.66697">
        <ele>1471.563</ele>
        <time>2020-02-25T03:55:59Z</time>
      </trkpt>
      <trkpt lat="40.54825" lon="-1.66717">
        <ele>1472.044</ele>
        <time>2020-02-25T03:56:19Z</time>
      </trkpt>
      <trkpt lat="40.54822" lon="-1.66734">
        <ele>1472.018</ele>
        <time>2020-02-25T03:56:39Z</time>
      </trkpt>
      <trkpt lat="40.54796" lon="-1.66798">
        <ele>1471.808</ele>
        <time>2020-02-25T03:56:59Z</time>
      </trkpt>
      <trkpt lat="40.5479" lon="-1.66822">
        <ele>1472.51</ele>
        <time>2020-02-25T03:57:19Z</time>
      </trkpt>
      <trkpt lat="40.54789" lon="-1.66839">
        <ele>1473.013</ele>
        <time>2020-02-25T03:57:39Z</time>
      </trkpt>
      <trkpt lat="40.54791" lon="-1.66857">
        <ele>1473.147</ele>
        <time>2020-02-25T03:57:59Z</time>
      </trkpt>
      <trkpt lat="40.54796" lon="-1.66882">
        <ele>1473.396</ele>
        <time>2020-02-25T03:58:19Z</time>
      </trkpt>
      <trkpt lat="40.54842" lon="-1.67009">
        <ele>1473.122</ele>
        <time>2020-02-25T03:58:39Z</time>
      </trkpt>
      <trkpt lat="40.5483" lon="-1.6712">
        <ele>1470.583</ele>
        <time>2020-02-25T03:58:59Z</time>
      </trkpt>
      <trkpt lat="40.54833" lon="-1.67148">
        <ele>1470.223</ele>
        <time>2020-02-25T03:59:19Z</time>
      </trkpt>
      <trkpt lat="40.54841" lon="-1.67293">
        <ele>1473.273</ele>
        <time>2020-02-25T03:59:39Z</time>
      </trkpt>
      <trkpt lat="40.54846" lon="-1.6733">
        <ele>1474.625</ele>
        <time>2020-02-25T03:59:59Z</time>
      </trkpt>
      <trkpt lat="40.54846" lon="-1.67357">
        <ele>1475.426</ele>
        <time>2020-02-25T04:00:19Z</time>
      </trkpt>
      <trkpt lat="40.54843" lon="-1.67378">
        <ele>1475.708</ele>
        <time>2020-02-25T04:00:39Z</time>
      </trkpt>
      <trkpt lat="40.54817" lon="-1.6751">
        <ele>1485.208</ele>
        <time>2020-02-25T04:00:59Z</time>
      </trkpt>
      <trkpt lat="40.54777" lon="-1.67653">
        <ele>1493.286</ele>
        <time>2020-02-25T04:01:19Z</time>
      </trkpt>
      <trkpt lat="40.54741" lon="-1.67764">
        <ele>1493.399</ele>
        <time>2020-02-25T04:01:39Z</time>
      </trkpt>
      <trkpt lat="40.54706" lon="-1.67827">
        <ele>1489.693</ele>
        <time>2020-02-25T04:01:59Z</time>
      </trkpt>
      <trkpt lat="40.54665" lon="-1.67877">
        <ele>1489.282</ele>
        <time>2020-02-25T04:02:19Z</time>
      </trkpt>
      <trkpt lat="40.54609" lon="-1.67987">
        <ele>1493.958</ele>
        <time>2020-02-25T04:02:39Z</time>
      </trkpt>
      <trkpt lat="40.54575" lon="-1.68041">
        <ele>1492.929</ele>
        <time>2020-02-25T04:02:59Z</time>
      </trkpt>
      <trkpt lat="40.54541" lon="-1.68129">
        <ele>1495.899</ele>
        <time>2020-02-25T04:03:19Z</time>
      </trkpt>
      <trkpt lat="40.54523" lon="-1.68202">
        <ele>1495.229</ele>
        <time>2020-02-25T04:03:39Z</time>
      </trkpt>
      <trkpt lat="40.54506" lon="-1.68238">
        <ele>1493.529</ele>
        <time>2020-02-25T04:03:59Z</time>
      </trkpt>
      <trkpt lat="40.54472" lon="-1.68277">
        <ele>1493.7</ele>
        <time>2020-02-25T04:04:19Z</time>
      </trkpt>
      <trkpt lat="40.54416" lon="-1.68388">
        <ele>1493.72</ele>
        <time>2020-02-25T04:04:39Z</time>
      </trkpt>
      <trkpt lat="40.54366" lon="-1.68355">
        <ele>1497.208</ele>
        <time>2020-02-25T04:04:59Z</time>
      </trkpt>
      <trkpt lat="40.54326" lon="-1.68385">
        <ele>1500.476</ele>
        <time>2020-02-25T04:05:19Z</time>
      </trkpt>
      <trkpt lat="40.54263" lon="-1.68419">
        <ele>1506.589</ele>
        <time>2020-02-25T04:05:39Z</time>
      </trkpt>
      <trkpt lat="40.54175" lon="-1.68459">
        <ele>1519.433</ele>
        <time>2020-02-25T04:05:59Z</time>
      </trkpt>
      <trkpt lat="40.54111" lon="-1.68474">
        <ele>1527.852</ele>
        <time>2020-02-25T04:06:19Z</time>
      </trkpt>
      <trkpt lat="40.54082" lon="-1.68487">
        <ele>1530.078</ele>
        <time>2020-02-25T04:06:39Z</time>
      </trkpt>
      <trkpt lat="40.54025" lon="-1.68428">
        <ele>1543.829</ele>
        <time>2020-02-25T04:06:59Z</time>
      </trkpt>
      <trkpt lat="40.53984" lon="-1.68421">
        <ele>1548.819</ele>
        <time>2020-02-25T04:07:19Z</time>
      </trkpt>
      <trkpt lat="40.53931" lon="-1.68425">
        <ele>1553.639</ele>
        <time>2020-02-25T04:07:39Z</time>
      </trkpt>
      <trkpt lat="40.53869" lon="-1.68416">
        <ele>1559.596</ele>
        <time>2020-02-25T04:07:59Z</time>
      </trkpt>
      <trkpt lat="40.53821" lon="-1.68396">
        <ele>1565.131</ele>
        <time>2020-02-25T04:08:19Z</time>
      </trkpt>
      <trkpt lat="40.53786" lon="-1.68385">
        <ele>1568.024</ele>
        <time>2020-02-25T04:08:39Z</time>
      </trkpt>
      <trkpt lat="40.53747" lon="-1.68392">
        <ele>1568.108</ele>
        <time>2020-02-25T04:08:59Z</time>
      </trkpt>
      <trkpt lat="40.53713" lon="-1.68372">
        <ele>1571.363</ele>
        <time>2020-02-25T04:09:19Z</time>
      </trkpt>
      <trkpt lat="40.53665" lon="-1.68339">
        <ele>1577.086</ele>
        <time>2020-02-25T04:09:39Z</time>
      </trkpt>
      <trkpt lat="40.53629" lon="-1.68308">
        <ele>1583.77</ele>
        <time>2020-02-25T04:09:59Z</time>
      </trkpt>
      <trkpt lat="40.53551" lon="-1.68285">
        <ele>1589.029</ele>
        <time>2020-02-25T04:10:19Z</time>
      </trkpt>
      <trkpt lat="40.53499" lon="-1.68279">
        <ele>1591.495</ele>
        <time>2020-02-25T04:10:39Z</time>
      </trkpt>
      <trkpt lat="40.53452" lon="-1.68253">
        <ele>1597.966</ele>
        <time>2020-02-25T04:10:59Z</time>
      </trkpt>
      <trkpt lat="40.53376" lon="-1.68236">
        <ele>1600.336</ele>
        <time>2020-02-25T04:11:19Z</time>
      </trkpt>
      <trkpt lat="40.53316" lon="-1.68213">
        <ele>1603.046</ele>
        <time>2020-02-25T04:11:39Z</time>
      </trkpt>
      <trkpt lat="40.5328" lon="-1.68186">
        <ele>1604.961</ele>
        <time>2020-02-25T04:11:59Z</time>
      </trkpt>
      <trkpt lat="40.53203" lon="-1.68134">
        <ele>1610.121</ele>
        <time>2020-02-25T04:12:19Z</time>
      </trkpt>
      <trkpt lat="40.53141" lon="-1.68102">
        <ele>1616.313</ele>
        <time>2020-02-25T04:12:39Z</time>
      </trkpt>
      <trkpt lat="40.53112" lon="-1.68105">
        <ele>1616.408</ele>
        <time>2020-02-25T04:12:59Z</time>
      </trkpt>
      <trkpt lat="40.53081" lon="-1.68084">
        <ele>1620.97</ele>
        <time>2020-02-25T04:13:19Z</time>
      </trkpt>
      <trkpt lat="40.53026" lon="-1.6807">
        <ele>1622.713</ele>
        <time>2020-02-25T04:13:39Z</time>
      </trkpt>
      <trkpt lat="40.52979" lon="-1.68053">
        <ele>1624.857</ele>
        <time>2020-02-25T04:13:59Z</time>
      </trkpt>
      <trkpt lat="40.52937" lon="-1.68022">
        <ele>1628.416</ele>
        <time>2020-02-25T04:14:19Z</time>
      </trkpt>
      <trkpt lat="40.52864" lon="-1.67976">
        <ele>1634.372</ele>
        <time>2020-02-25T04:14:39Z</time>
      </trkpt>
      <trkpt lat="40.52797" lon="-1.67928">
        <ele>1640.363</ele>
        <time>2020-02-25T04:14:59Z</time>
      </trkpt>
      <trkpt lat="40.52722" lon="-1.67916">
        <ele>1642.423</ele>
        <time>2020-02-25T04:15:19Z</time>
      </trkpt>
      <trkpt lat="40.52671" lon="-1.67927">
        <ele>1646.673</ele>
        <time>2020-02-25T04:15:39Z</time>
      </trkpt>
      <trkpt lat="40.52627" lon="-1.67913">
        <ele>1649.246</ele>
        <time>2020-02-25T04:15:59Z</time>
      </trkpt>
      <trkpt lat="40.52566" lon="-1.67887">
        <ele>1654.488</ele>
        <time>2020-02-25T04:16:19Z</time>
      </trkpt>
      <trkpt lat="40.52503" lon="-1.67852">
        <ele>1661.416</ele>
        <time>2020-02-25T04:16:39Z</time>
      </trkpt>
      <trkpt lat="40.52458" lon="-1.67818">
        <ele>1665.908</ele>
        <time>2020-02-25T04:16:59Z</time>
      </trkpt>
      <trkpt lat="40.52427" lon="-1.67778">
        <ele>1672.588</ele>
        <time>2020-02-25T04:17:19Z</time>
      </trkpt>
      <trkpt lat="40.524" lon="-1.67772">
        <ele>1675.691</ele>
        <time>2020-02-25T04:17:39Z</time>
      </trkpt>
      <trkpt lat="40.52326" lon="-1.67771">
        <ele>1683.695</ele>
        <time>2020-02-25T04:17:59Z</time>
      </trkpt>
      <trkpt lat="40.52251" lon="-1.67776">
        <ele>1689.484</ele>
        <time>2020-02-25T04:18:19Z</time>
      </trkpt>
      <trkpt lat="40.52163" lon="-1.67776">
        <ele>1702.61</ele>
        <time>2020-02-25T04:18:39Z</time>
      </trkpt>
      <trkpt lat="40.52113" lon="-1.67793">
        <ele>1707.331</ele>
        <time>2020-02-25T04:18:59Z</time>
      </trkpt>
      <trkpt lat="40.52011" lon="-1.67845">
        <ele>1717.071</ele>
        <time>2020-02-25T04:19:19Z</time>
      </trkpt>
      <trkpt lat="40.51978" lon="-1.67893">
        <ele>1720.771</ele>
        <time>2020-02-25T04:19:39Z</time>
      </trkpt>
      <trkpt lat="40.51951" lon="-1.67851">
        <ele>1726.355</ele>
        <time>2020-02-25T04:19:59Z</time>
      </trkpt>
      <trkpt lat="40.51935" lon="-1.67787">
        <ele>1732.607</ele>
        <time>2020-02-25T04:20:19Z</time>
      </trkpt>
      <trkpt lat="40.51934" lon="-1.67728">
        <ele>1736.917</ele>
        <time>2020-02-25T04:20:39Z</time>
      </trkpt>
      <trkpt lat="40.51947" lon="-1.67663">
        <ele>1739.408</ele>
        <time>2020-02-25T04:20:59Z</time>
      </trkpt>
      <trkpt lat="40.519667" lon="-1.676117">
        <ele>1742.369</ele>
        <time>2020-02-25T04:21:19Z</time>
      </trkpt>
      <trkpt lat="40.51966" lon="-1.67612">
        <ele>1742.482</ele>
        <time>2020-02-25T04:21:39Z</time>
      </trkpt>
      <trkpt lat="40.5201" lon="-1.67499">
        <ele>1746.886</ele>
        <time>2020-02-25T04:21:59Z</time>
      </trkpt>
      <trkpt lat="40.52059" lon="-1.67447">
        <ele>1746.945</ele>
        <time>2020-02-25T04:22:19Z</time>
      </trkpt>
      <trkpt lat="40.5209" lon="-1.6739">
        <ele>1748.451</ele>
        <time>2020-02-25T04:22:39Z</time>
      </trkpt>
      <trkpt lat="40.52127" lon="-1.67315">
        <ele>1748.752</ele>
        <time>2020-02-25T04:22:59Z</time>
      </trkpt>
      <trkpt lat="40.52134" lon="-1.67294">
        <ele>1748.222</ele>
        <time>2020-02-25T04:23:19Z</time>
      </trkpt>
      <trkpt lat="40.52152" lon="-1.67268">
        <ele>1746.022</ele>
        <time>2020-02-25T04:23:39Z</time>
      </trkpt>
      <trkpt lat="40.52134" lon="-1.67294">
        <ele>1748.247</ele>
        <time>2020-02-25T04:23:59Z</time>
      </trkpt>
      <trkpt lat="40.52127" lon="-1.67315">
        <ele>1748.729</ele>
        <time>2020-02-25T04:24:19Z</time>
      </trkpt>
      <trkpt lat="40.5209" lon="-1.6739">
        <ele>1748.421</ele>
        <time>2020-02-25T04:24:39Z</time>
      </trkpt>
      <trkpt lat="40.52059" lon="-1.67447">
        <ele>1746.908</ele>
        <time>2020-02-25T04:24:59Z</time>
      </trkpt>
      <trkpt lat="40.5201" lon="-1.67499">
        <ele>1746.848</ele>
        <time>2020-02-25T04:25:19Z</time>
      </trkpt>
      <trkpt lat="40.51964" lon="-1.67505">
        <ele>1754.041</ele>
        <time>2020-02-25T04:25:39Z</time>
      </trkpt>
      <trkpt lat="40.51908" lon="-1.67561">
        <ele>1755.925</ele>
        <time>2020-02-25T04:25:59Z</time>
      </trkpt>
      <trkpt lat="40.5187" lon="-1.6757">
        <ele>1758.584</ele>
        <time>2020-02-25T04:26:19Z</time>
      </trkpt>
      <trkpt lat="40.518701" lon="-1.675694">
        <ele>1758.64</ele>
        <time>2020-02-25T04:26:39Z</time>
      </trkpt>
      <trkpt lat="40.51831" lon="-1.67578">
        <ele>1761.161</ele>
        <time>2020-02-25T04:26:59Z</time>
      </trkpt>
      <trkpt lat="40.51726" lon="-1.67576">
        <ele>1770.811</ele>
        <time>2020-02-25T04:27:19Z</time>
      </trkpt>
      <trkpt lat="40.51641" lon="-1.67568">
        <ele>1777.421</ele>
        <time>2020-02-25T04:27:39Z</time>
      </trkpt>
      <trkpt lat="40.51335" lon="-1.67573">
        <ele>1780.774</ele>
        <time>2020-02-25T04:27:59Z</time>
      </trkpt>
      <trkpt lat="40.51189" lon="-1.6759">
        <ele>1780.356</ele>
        <time>2020-02-25T04:28:19Z</time>
      </trkpt>
      <trkpt lat="40.51104" lon="-1.67582">
        <ele>1780.121</ele>
        <time>2020-02-25T04:28:39Z</time>
      </trkpt>
      <trkpt lat="40.51061" lon="-1.67608">
        <ele>1779.108</ele>
        <time>2020-02-25T04:28:59Z</time>
      </trkpt>
      <trkpt lat="40.51008" lon="-1.6763">
        <ele>1776.241</ele>
        <time>2020-02-25T04:29:19Z</time>
      </trkpt>
      <trkpt lat="40.5096" lon="-1.67671">
        <ele>1768.474</ele>
        <time>2020-02-25T04:29:39Z</time>
      </trkpt>
      <trkpt lat="40.50907" lon="-1.67722">
        <ele>1763.958</ele>
        <time>2020-02-25T04:29:59Z</time>
      </trkpt>
      <trkpt lat="40.50829" lon="-1.67766">
        <ele>1755.377</ele>
        <time>2020-02-25T04:30:19Z</time>
      </trkpt>
      <trkpt lat="40.50768" lon="-1.67808">
        <ele>1751.963</ele>
        <time>2020-02-25T04:30:39Z</time>
      </trkpt>
      <trkpt lat="40.50707" lon="-1.6783">
        <ele>1746.364</ele>
        <time>2020-02-25T04:30:59Z</time>
      </trkpt>
      <trkpt lat="40.50669" lon="-1.67861">
        <ele>1744.074</ele>
        <time>2020-02-25T04:31:19Z</time>
      </trkpt>
      <trkpt lat="40.50604" lon="-1.67929">
        <ele>1740.144</ele>
        <time>2020-02-25T04:31:39Z</time>
      </trkpt>
      <trkpt lat="40.50561" lon="-1.68">
        <ele>1737.471</ele>
        <time>2020-02-25T04:31:59Z</time>
      </trkpt>
      <trkpt lat="40.50548" lon="-1.68022">
        <ele>1736.641</ele>
        <time>2020-02-25T04:32:19Z</time>
      </trkpt>
      <trkpt lat="40.50505" lon="-1.68071">
        <ele>1732.715</ele>
        <time>2020-02-25T04:32:39Z</time>
      </trkpt>
      <trkpt lat="40.5043" lon="-1.68161">
        <ele>1726.708</ele>
        <time>2020-02-25T04:32:59Z</time>
      </trkpt>
      <trkpt lat="40.50255" lon="-1.6835">
        <ele>1715.381</ele>
        <time>2020-02-25T04:33:19Z</time>
      </trkpt>
      <trkpt lat="40.50246" lon="-1.68386">
        <ele>1714.684</ele>
        <time>2020-02-25T04:33:39Z</time>
      </trkpt>
      <trkpt lat="40.50216" lon="-1.68438">
        <ele>1711.228</ele>
        <time>2020-02-25T04:33:59Z</time>
      </trkpt>
      <trkpt lat="40.50165" lon="-1.68542">
        <ele>1703.837</ele>
        <time>2020-02-25T04:34:19Z</time>
      </trkpt>
      <trkpt lat="40.50124" lon="-1.68665">
        <ele>1696.943</ele>
        <time>2020-02-25T04:34:39Z</time>
      </trkpt>
      <trkpt lat="40.50132" lon="-1.68739">
        <ele>1691.164</ele>
        <time>2020-02-25T04:34:59Z</time>
      </trkpt>
      <trkpt lat="40.50147" lon="-1.68827">
        <ele>1687.194</ele>
        <time>2020-02-25T04:35:19Z</time>
      </trkpt>
      <trkpt lat="40.50129" lon="-1.6884">
        <ele>1684.074</ele>
        <time>2020-02-25T04:35:39Z</time>
      </trkpt>
      <trkpt lat="40.50105" lon="-1.68822">
        <ele>1682.239</ele>
        <time>2020-02-25T04:35:59Z</time>
      </trkpt>
      <trkpt lat="40.5007" lon="-1.68786">
        <ele>1679.001</ele>
        <time>2020-02-25T04:36:19Z</time>
      </trkpt>
      <trkpt lat="40.50029" lon="-1.6876">
        <ele>1673.321</ele>
        <time>2020-02-25T04:36:39Z</time>
      </trkpt>
      <trkpt lat="40.49988" lon="-1.68728">
        <ele>1668.708</ele>
        <time>2020-02-25T04:36:59Z</time>
      </trkpt>
      <trkpt lat="40.49949" lon="-1.68716">
        <ele>1664.817</ele>
        <time>2020-02-25T04:37:19Z</time>
      </trkpt>
      <trkpt lat="40.49881" lon="-1.68712">
        <ele>1659.01</ele>
        <time>2020-02-25T04:37:39Z</time>
      </trkpt>
      <trkpt lat="40.49848" lon="-1.68703">
        <ele>1657.174</ele>
        <time>2020-02-25T04:37:59Z</time>
      </trkpt>
      <trkpt lat="40.49804" lon="-1.68678">
        <ele>1653.173</ele>
        <time>2020-02-25T04:38:19Z</time>
      </trkpt>
      <trkpt lat="40.498" lon="-1.68647">
        <ele>1651.019</ele>
        <time>2020-02-25T04:38:39Z</time>
      </trkpt>
      <trkpt lat="40.49814" lon="-1.686">
        <ele>1648.42</ele>
        <time>2020-02-25T04:38:59Z</time>
      </trkpt>
      <trkpt lat="40.49837" lon="-1.68577">
        <ele>1648.48</ele>
        <time>2020-02-25T04:39:19Z</time>
      </trkpt>
      <trkpt lat="40.49855" lon="-1.68516">
        <ele>1649.44</ele>
        <time>2020-02-25T04:39:39Z</time>
      </trkpt>
      <trkpt lat="40.49844" lon="-1.6843">
        <ele>1642.385</ele>
        <time>2020-02-25T04:39:59Z</time>
      </trkpt>
      <trkpt lat="40.49853" lon="-1.68378">
        <ele>1643.689</ele>
        <time>2020-02-25T04:40:19Z</time>
      </trkpt>
      <trkpt lat="40.49846" lon="-1.68342">
        <ele>1642.317</ele>
        <time>2020-02-25T04:40:39Z</time>
      </trkpt>
      <trkpt lat="40.49829" lon="-1.68292">
        <ele>1638.408</ele>
        <time>2020-02-25T04:40:59Z</time>
      </trkpt>
      <trkpt lat="40.49811" lon="-1.68156">
        <ele>1631.772</ele>
        <time>2020-02-25T04:41:19Z</time>
      </trkpt>
      <trkpt lat="40.49772" lon="-1.68014">
        <ele>1623.875</ele>
        <time>2020-02-25T04:41:39Z</time>
      </trkpt>
      <trkpt lat="40.49756" lon="-1.6785">
        <ele>1620.119</ele>
        <time>2020-02-25T04:41:59Z</time>
      </trkpt>
      <trkpt lat="40.49734" lon="-1.67758">
        <ele>1622.148</ele>
        <time>2020-02-25T04:42:19Z</time>
      </trkpt>
      <trkpt lat="40.49682" lon="-1.67666">
        <ele>1621.164</ele>
        <time>2020-02-25T04:42:39Z</time>
      </trkpt>
      <trkpt lat="40.4961" lon="-1.67495">
        <ele>1621.815</ele>
        <time>2020-02-25T04:42:59Z</time>
      </trkpt>
      <trkpt lat="40.49597" lon="-1.67447">
        <ele>1622.415</ele>
        <time>2020-02-25T04:43:19Z</time>
      </trkpt>
      <trkpt lat="40.49595" lon="-1.6741">
        <ele>1623.795</ele>
        <time>2020-02-25T04:43:39Z</time>
      </trkpt>
      <trkpt lat="40.49587" lon="-1.67342">
        <ele>1625.998</ele>
        <time>2020-02-25T04:43:59Z</time>
      </trkpt>
      <trkpt lat="40.49571" lon="-1.67278">
        <ele>1623.115</ele>
        <time>2020-02-25T04:44:19Z</time>
      </trkpt>
      <trkpt lat="40.49566" lon="-1.67233">
        <ele>1621.426</ele>
        <time>2020-02-25T04:44:39Z</time>
      </trkpt>
      <trkpt lat="40.4956" lon="-1.672">
        <ele>1619.508</ele>
        <time>2020-02-25T04:44:59Z</time>
      </trkpt>
      <trkpt lat="40.49561" lon="-1.67167">
        <ele>1618.843</ele>
        <time>2020-02-25T04:45:19Z</time>
      </trkpt>
      <trkpt lat="40.49565" lon="-1.67127">
        <ele>1619.846</ele>
        <time>2020-02-25T04:45:39Z</time>
      </trkpt>
      <trkpt lat="40.49557" lon="-1.67056">
        <ele>1618.95</ele>
        <time>2020-02-25T04:45:59Z</time>
      </trkpt>
      <trkpt lat="40.49525" lon="-1.67007">
        <ele>1616.289</ele>
        <time>2020-02-25T04:46:19Z</time>
      </trkpt>
      <trkpt lat="40.49527" lon="-1.66985">
        <ele>1616.545</ele>
        <time>2020-02-25T04:46:39Z</time>
      </trkpt>
      <trkpt lat="40.49539" lon="-1.66963">
        <ele>1617.296</ele>
        <time>2020-02-25T04:46:59Z</time>
      </trkpt>
      <trkpt lat="40.49557" lon="-1.66959">
        <ele>1617.546</ele>
        <time>2020-02-25T04:47:19Z</time>
      </trkpt>
      <trkpt lat="40.49568" lon="-1.6696">
        <ele>1617.756</ele>
        <time>2020-02-25T04:47:39Z</time>
      </trkpt>
      <trkpt lat="40.496" lon="-1.66943">
        <ele>1618.274</ele>
        <time>2020-02-25T04:47:59Z</time>
      </trkpt>
      <trkpt lat="40.49634" lon="-1.66933">
        <ele>1619.056</ele>
        <time>2020-02-25T04:48:19Z</time>
      </trkpt>
      <trkpt lat="40.49667" lon="-1.66912">
        <ele>1619.121</ele>
        <time>2020-02-25T04:48:39Z</time>
      </trkpt>
      <trkpt lat="40.49726" lon="-1.66889">
        <ele>1622.908</ele>
        <time>2020-02-25T04:48:59Z</time>
      </trkpt>
      <trkpt lat="40.49733" lon="-1.66882">
        <ele>1623.091</ele>
        <time>2020-02-25T04:49:19Z</time>
      </trkpt>
      <trkpt lat="40.49749" lon="-1.66835">
        <ele>1621.184</ele>
        <time>2020-02-25T04:49:39Z</time>
      </trkpt>
      <trkpt lat="40.49771" lon="-1.66805">
        <ele>1621.058</ele>
        <time>2020-02-25T04:49:59Z</time>
      </trkpt>
      <trkpt lat="40.4979" lon="-1.66784">
        <ele>1620.637</ele>
        <time>2020-02-25T04:50:19Z</time>
      </trkpt>
      <trkpt lat="40.49801" lon="-1.66767">
        <ele>1619.753</ele>
        <time>2020-02-25T04:50:39Z</time>
      </trkpt>
      <trkpt lat="40.49821" lon="-1.66759">
        <ele>1619.624</ele>
        <time>2020-02-25T04:50:59Z</time>
      </trkpt>
      <trkpt lat="40.49835" lon="-1.6671">
        <ele>1618.754</ele>
        <time>2020-02-25T04:51:19Z</time>
      </trkpt>
      <trkpt lat="40.49845" lon="-1.66665">
        <ele>1618.954</ele>
        <time>2020-02-25T04:51:39Z</time>
      </trkpt>
      <trkpt lat="40.49856" lon="-1.66605">
        <ele>1618.042</ele>
        <time>2020-02-25T04:51:59Z</time>
      </trkpt>
      <trkpt lat="40.49889" lon="-1.66472">
        <ele>1620.322</ele>
        <time>2020-02-25T04:52:19Z</time>
      </trkpt>
      <trkpt lat="40.49855" lon="-1.66495">
        <ele>1619.514</ele>
        <time>2020-02-25T04:52:39Z</time>
      </trkpt>
      <trkpt lat="40.49704" lon="-1.66694">
        <ele>1619.508</ele>
        <time>2020-02-25T04:52:59Z</time>
      </trkpt>
      <trkpt lat="40.49656" lon="-1.66753">
        <ele>1620.498</ele>
        <time>2020-02-25T04:53:19Z</time>
      </trkpt>
      <trkpt lat="40.49634" lon="-1.66767">
        <ele>1621.011</ele>
        <time>2020-02-25T04:53:39Z</time>
      </trkpt>
      <trkpt lat="40.49603" lon="-1.66773">
        <ele>1621.965</ele>
        <time>2020-02-25T04:53:59Z</time>
      </trkpt>
      <trkpt lat="40.49574" lon="-1.66769">
        <ele>1622.324</ele>
        <time>2020-02-25T04:54:19Z</time>
      </trkpt>
      <trkpt lat="40.49317" lon="-1.66672">
        <ele>1616.33</ele>
        <time>2020-02-25T04:54:39Z</time>
      </trkpt>
      <trkpt lat="40.49291" lon="-1.66664">
        <ele>1616.071</ele>
        <time>2020-02-25T04:54:59Z</time>
      </trkpt>
      <trkpt lat="40.4925" lon="-1.66667">
        <ele>1616.041</ele>
        <time>2020-02-25T04:55:19Z</time>
      </trkpt>
      <trkpt lat="40.49212" lon="-1.6669">
        <ele>1620.651</ele>
        <time>2020-02-25T04:55:39Z</time>
      </trkpt>
      <trkpt lat="40.49179" lon="-1.66719">
        <ele>1622.621</ele>
        <time>2020-02-25T04:55:59Z</time>
      </trkpt>
      <trkpt lat="40.49161" lon="-1.66747">
        <ele>1622.641</ele>
        <time>2020-02-25T04:56:19Z</time>
      </trkpt>
      <trkpt lat="40.49116" lon="-1.66864">
        <ele>1627.005</ele>
        <time>2020-02-25T04:56:39Z</time>
      </trkpt>
      <trkpt lat="40.49083" lon="-1.66919">
        <ele>1627.908</ele>
        <time>2020-02-25T04:56:59Z</time>
      </trkpt>
      <trkpt lat="40.49015" lon="-1.66997">
        <ele>1623.516</ele>
        <time>2020-02-25T04:57:19Z</time>
      </trkpt>
      <trkpt lat="40.4896" lon="-1.67057">
        <ele>1624.919</ele>
        <time>2020-02-25T04:57:39Z</time>
      </trkpt>
      <trkpt lat="40.48915" lon="-1.67085">
        <ele>1626.053</ele>
        <time>2020-02-25T04:57:59Z</time>
      </trkpt>
      <trkpt lat="40.48854" lon="-1.67116">
        <ele>1625.222</ele>
        <time>2020-02-25T04:58:19Z</time>
      </trkpt>
      <trkpt lat="40.48821" lon="-1.67137">
        <ele>1625.048</ele>
        <time>2020-02-25T04:58:39Z</time>
      </trkpt>
      <trkpt lat="40.48793" lon="-1.67168">
        <ele>1624.599</ele>
        <time>2020-02-25T04:58:59Z</time>
      </trkpt>
      <trkpt lat="40.48766" lon="-1.67216">
        <ele>1625.059</ele>
        <time>2020-02-25T04:59:19Z</time>
      </trkpt>
      <trkpt lat="40.4871" lon="-1.67356">
        <ele>1630.749</ele>
        <time>2020-02-25T04:59:39Z</time>
      </trkpt>
      <trkpt lat="40.48471" lon="-1.68027">
        <ele>1653.222</ele>
        <time>2020-02-25T04:59:59Z</time>
      </trkpt>
      <trkpt lat="40.48394" lon="-1.68236">
        <ele>1660.462</ele>
        <time>2020-02-25T05:00:19Z</time>
      </trkpt>
      <trkpt lat="40.48376" lon="-1.68298">
        <ele>1662.608</ele>
        <time>2020-02-25T05:00:39Z</time>
      </trkpt>
      <trkpt lat="40.48364" lon="-1.6837">
        <ele>1664.508</ele>
        <time>2020-02-25T05:00:59Z</time>
      </trkpt>
      <trkpt lat="40.48362" lon="-1.68432">
        <ele>1665.846</ele>
        <time>2020-02-25T05:01:19Z</time>
      </trkpt>
      <trkpt lat="40.48364" lon="-1.68479">
        <ele>1666.359</ele>
        <time>2020-02-25T05:01:39Z</time>
      </trkpt>
      <trkpt lat="40.48385" lon="-1.6859">
        <ele>1668.673</ele>
        <time>2020-02-25T05:01:59Z</time>
      </trkpt>
      <trkpt lat="40.48425" lon="-1.68762">
        <ele>1666.322</ele>
        <time>2020-02-25T05:02:19Z</time>
      </trkpt>
      <trkpt lat="40.484217" lon="-1.68763">
        <ele>1666.758</ele>
        <time>2020-02-25T05:02:39Z</time>
      </trkpt>
      <trkpt lat="40.48426" lon="-1.68781">
        <ele>1666.699</ele>
        <time>2020-02-25T05:02:59Z</time>
      </trkpt>
      <trkpt lat="40.4843" lon="-1.68796">
        <ele>1666.469</ele>
        <time>2020-02-25T05:03:19Z</time>
      </trkpt>
      <trkpt lat="40.48435" lon="-1.6882">
        <ele>1666.339</ele>
        <time>2020-02-25T05:03:39Z</time>
      </trkpt>
      <trkpt lat="40.48442" lon="-1.68845">
        <ele>1666.723</ele>
        <time>2020-02-25T05:03:59Z</time>
      </trkpt>
      <trkpt lat="40.48454" lon="-1.68882">
        <ele>1668.283</ele>
        <time>2020-02-25T05:04:19Z</time>
      </trkpt>
      <trkpt lat="40.48466" lon="-1.68913">
        <ele>1669.011</ele>
        <time>2020-02-25T05:04:39Z</time>
      </trkpt>
      <trkpt lat="40.48478" lon="-1.68932">
        <ele>1668.908</ele>
        <time>2020-02-25T05:04:59Z</time>
      </trkpt>
      <trkpt lat="40.48495" lon="-1.68948">
        <ele>1667.516</ele>
        <time>2020-02-25T05:05:19Z</time>
      </trkpt>
      <trkpt lat="40.48514" lon="-1.68971">
        <ele>1666.239</ele>
        <time>2020-02-25T05:05:39Z</time>
      </trkpt>
      <trkpt lat="40.48536" lon="-1.69001">
        <ele>1665.043</ele>
        <time>2020-02-25T05:05:59Z</time>
      </trkpt>
      <trkpt lat="40.48545" lon="-1.6903">
        <ele>1664.792</ele>
        <time>2020-02-25T05:06:19Z</time>
      </trkpt>
      <trkpt lat="40.48554" lon="-1.6908">
        <ele>1664.968</ele>
        <time>2020-02-25T05:06:39Z</time>
      </trkpt>
      <trkpt lat="40.48559" lon="-1.69113">
        <ele>1664.389</ele>
        <time>2020-02-25T05:06:59Z</time>
      </trkpt>
      <trkpt lat="40.48562" lon="-1.69135">
        <ele>1664.199</ele>
        <time>2020-02-25T05:07:19Z</time>
      </trkpt>
      <trkpt lat="40.48567" lon="-1.69187">
        <ele>1664.319</ele>
        <time>2020-02-25T05:07:39Z</time>
      </trkpt>
      <trkpt lat="40.4857" lon="-1.69214">
        <ele>1664.413</ele>
        <time>2020-02-25T05:07:59Z</time>
      </trkpt>
      <trkpt lat="40.48586" lon="-1.69355">
        <ele>1663.143</ele>
        <time>2020-02-25T05:08:19Z</time>
      </trkpt>
      <trkpt lat="40.48589" lon="-1.69381">
        <ele>1662.007</ele>
        <time>2020-02-25T05:08:39Z</time>
      </trkpt>
      <trkpt lat="40.48594" lon="-1.69434">
        <ele>1660.608</ele>
        <time>2020-02-25T05:08:59Z</time>
      </trkpt>
      <trkpt lat="40.48575" lon="-1.69564">
        <ele>1661.165</ele>
        <time>2020-02-25T05:09:19Z</time>
      </trkpt>
      <trkpt lat="40.48574" lon="-1.69572">
        <ele>1661.318</ele>
        <time>2020-02-25T05:09:39Z</time>
      </trkpt>
      <trkpt lat="40.48571" lon="-1.69599">
        <ele>1661.782</ele>
        <time>2020-02-25T05:09:59Z</time>
      </trkpt>
      <trkpt lat="40.48573" lon="-1.69629">
        <ele>1661.261</ele>
        <time>2020-02-25T05:10:19Z</time>
      </trkpt>
      <trkpt lat="40.48574" lon="-1.69652">
        <ele>1660.977</ele>
        <time>2020-02-25T05:10:39Z</time>
      </trkpt>
      <trkpt lat="40.48579" lon="-1.6968">
        <ele>1659.438</ele>
        <time>2020-02-25T05:10:59Z</time>
      </trkpt>
      <trkpt lat="40.48583" lon="-1.6971">
        <ele>1657.568</ele>
        <time>2020-02-25T05:11:19Z</time>
      </trkpt>
      <trkpt lat="40.4858" lon="-1.69742">
        <ele>1656.918</ele>
        <time>2020-02-25T05:11:39Z</time>
      </trkpt>
      <trkpt lat="40.48579" lon="-1.69749">
        <ele>1656.946</ele>
        <time>2020-02-25T05:11:59Z</time>
      </trkpt>
      <trkpt lat="40.48574" lon="-1.69778">
        <ele>1656.988</ele>
        <time>2020-02-25T05:12:19Z</time>
      </trkpt>
      <trkpt lat="40.48573" lon="-1.69804">
        <ele>1656.216</ele>
        <time>2020-02-25T05:12:39Z</time>
      </trkpt>
      <trkpt lat="40.48576" lon="-1.69834">
        <ele>1654.908</ele>
        <time>2020-02-25T05:12:59Z</time>
      </trkpt>
      <trkpt lat="40.48597" lon="-1.69897">
        <ele>1651.818</ele>
        <time>2020-02-25T05:13:19Z</time>
      </trkpt>
      <trkpt lat="40.48605" lon="-1.69918">
        <ele>1650.481</ele>
        <time>2020-02-25T05:13:39Z</time>
      </trkpt>
      <trkpt lat="40.48611" lon="-1.69945">
        <ele>1648.625</ele>
        <time>2020-02-25T05:13:59Z</time>
      </trkpt>
      <trkpt lat="40.48612" lon="-1.69949">
        <ele>1648.464</ele>
        <time>2020-02-25T05:14:19Z</time>
      </trkpt>
      <trkpt lat="40.48611" lon="-1.69953">
        <ele>1648.38</ele>
        <time>2020-02-25T05:14:39Z</time>
      </trkpt>
      <trkpt lat="40.48608" lon="-1.69959">
        <ele>1648.281</ele>
        <time>2020-02-25T05:14:59Z</time>
      </trkpt>
      <trkpt lat="40.48606" lon="-1.69964">
        <ele>1648.141</ele>
        <time>2020-02-25T05:15:19Z</time>
      </trkpt>
      <trkpt lat="40.48601" lon="-1.6997">
        <ele>1648.251</ele>
        <time>2020-02-25T05:15:39Z</time>
      </trkpt>
      <trkpt lat="40.48597" lon="-1.69974">
        <ele>1648.319</ele>
        <time>2020-02-25T05:15:59Z</time>
      </trkpt>
      <trkpt lat="40.48591" lon="-1.69976">
        <ele>1648.609</ele>
        <time>2020-02-25T05:16:19Z</time>
      </trkpt>
      <trkpt lat="40.48586" lon="-1.69978">
        <ele>1648.919</ele>
        <time>2020-02-25T05:16:39Z</time>
      </trkpt>
      <trkpt lat="40.48566" lon="-1.6998">
        <ele>1648.908</ele>
        <time>2020-02-25T05:16:59Z</time>
      </trkpt>
      <trkpt lat="40.48548" lon="-1.69979">
        <ele>1649.035</ele>
        <time>2020-02-25T05:17:19Z</time>
      </trkpt>
      <trkpt lat="40.48524" lon="-1.69982">
        <ele>1648.788</ele>
        <time>2020-02-25T05:17:39Z</time>
      </trkpt>
      <trkpt lat="40.48505" lon="-1.69987">
        <ele>1647.912</ele>
        <time>2020-02-25T05:17:59Z</time>
      </trkpt>
      <trkpt lat="40.48482" lon="-1.69991">
        <ele>1647.641</ele>
        <time>2020-02-25T05:18:19Z</time>
      </trkpt>
      <trkpt lat="40.48464" lon="-1.69999">
        <ele>1646.617</ele>
        <time>2020-02-25T05:18:39Z</time>
      </trkpt>
      <trkpt lat="40.48443" lon="-1.70007">
        <ele>1646.218</ele>
        <time>2020-02-25T05:18:59Z</time>
      </trkpt>
      <trkpt lat="40.48419" lon="-1.70021">
        <ele>1645.758</ele>
        <time>2020-02-25T05:19:19Z</time>
      </trkpt>
      <trkpt lat="40.48389" lon="-1.70037">
        <ele>1643.098</ele>
        <time>2020-02-25T05:19:39Z</time>
      </trkpt>
      <trkpt lat="40.48304" lon="-1.70084">
        <ele>1634.911</ele>
        <time>2020-02-25T05:19:59Z</time>
      </trkpt>
      <trkpt lat="40.48286" lon="-1.70094">
        <ele>1633.321</ele>
        <time>2020-02-25T05:20:19Z</time>
      </trkpt>
      <trkpt lat="40.48275" lon="-1.70102">
        <ele>1632.303</ele>
        <time>2020-02-25T05:20:39Z</time>
      </trkpt>
      <trkpt lat="40.4826" lon="-1.70114">
        <ele>1630.608</ele>
        <time>2020-02-25T05:20:59Z</time>
      </trkpt>
      <trkpt lat="40.4824" lon="-1.70138">
        <ele>1629.995</ele>
        <time>2020-02-25T05:21:19Z</time>
      </trkpt>
      <trkpt lat="40.48225" lon="-1.70168">
        <ele>1630.918</ele>
        <time>2020-02-25T05:21:39Z</time>
      </trkpt>
      <trkpt lat="40.48202" lon="-1.70221">
        <ele>1632.022</ele>
        <time>2020-02-25T05:21:59Z</time>
      </trkpt>
      <trkpt lat="40.48165" lon="-1.70323">
        <ele>1625.411</ele>
        <time>2020-02-25T05:22:19Z</time>
      </trkpt>
      <trkpt lat="40.48139" lon="-1.70396">
        <ele>1627.267</ele>
        <time>2020-02-25T05:22:39Z</time>
      </trkpt>
      <trkpt lat="40.48122" lon="-1.70438">
        <ele>1626.358</ele>
        <time>2020-02-25T05:22:59Z</time>
      </trkpt>
      <trkpt lat="40.48103" lon="-1.70472">
        <ele>1626.388</ele>
        <time>2020-02-25T05:23:19Z</time>
      </trkpt>
      <trkpt lat="40.48082" lon="-1.70496">
        <ele>1624.778</ele>
        <time>2020-02-25T05:23:39Z</time>
      </trkpt>
      <trkpt lat="40.48052" lon="-1.70524">
        <ele>1625.141</ele>
        <time>2020-02-25T05:23:59Z</time>
      </trkpt>
      <trkpt lat="40.48023" lon="-1.70538">
        <ele>1623.381</ele>
        <time>2020-02-25T05:24:19Z</time>
      </trkpt>
      <trkpt lat="40.47967" lon="-1.70568">
        <ele>1620.509</ele>
        <time>2020-02-25T05:24:39Z</time>
      </trkpt>
      <trkpt lat="40.47943" lon="-1.70588">
        <ele>1619.108</ele>
        <time>2020-02-25T05:24:59Z</time>
      </trkpt>
      <trkpt lat="40.47925" lon="-1.70606">
        <ele>1618.688</ele>
        <time>2020-02-25T05:25:19Z</time>
      </trkpt>
      <trkpt lat="40.47908" lon="-1.70632">
        <ele>1618.791</ele>
        <time>2020-02-25T05:25:39Z</time>
      </trkpt>
      <trkpt lat="40.47892" lon="-1.70662">
        <ele>1618.835</ele>
        <time>2020-02-25T05:25:59Z</time>
      </trkpt>
      <trkpt lat="40.4788" lon="-1.70693">
        <ele>1619.424</ele>
        <time>2020-02-25T05:26:19Z</time>
      </trkpt>
      <trkpt lat="40.47866" lon="-1.70746">
        <ele>1622.41</ele>
        <time>2020-02-25T05:26:39Z</time>
      </trkpt>
      <trkpt lat="40.47863" lon="-1.70761">
        <ele>1623.181</ele>
        <time>2020-02-25T05:26:59Z</time>
      </trkpt>
      <trkpt lat="40.47859" lon="-1.70793">
        <ele>1624.761</ele>
        <time>2020-02-25T05:27:19Z</time>
      </trkpt>
      <trkpt lat="40.47855" lon="-1.70842">
        <ele>1627.191</ele>
        <time>2020-02-25T05:27:39Z</time>
      </trkpt>
      <trkpt lat="40.47841" lon="-1.70905">
        <ele>1626.655</ele>
        <time>2020-02-25T05:27:59Z</time>
      </trkpt>
      <trkpt lat="40.47834" lon="-1.7094">
        <ele>1624.707</ele>
        <time>2020-02-25T05:28:19Z</time>
      </trkpt>
      <trkpt lat="40.47827" lon="-1.70957">
        <ele>1625.017</ele>
        <time>2020-02-25T05:28:39Z</time>
      </trkpt>
      <trkpt lat="40.47819" lon="-1.70969">
        <ele>1626.308</ele>
        <time>2020-02-25T05:28:59Z</time>
      </trkpt>
      <trkpt lat="40.47803" lon="-1.70986">
        <ele>1629.519</ele>
        <time>2020-02-25T05:29:19Z</time>
      </trkpt>
      <trkpt lat="40.47789" lon="-1.71006">
        <ele>1632.392</ele>
        <time>2020-02-25T05:29:39Z</time>
      </trkpt>
      <trkpt lat="40.47776" lon="-1.71023">
        <ele>1634.886</ele>
        <time>2020-02-25T05:29:59Z</time>
      </trkpt>
      <trkpt lat="40.47774" lon="-1.71036">
        <ele>1634.625</ele>
        <time>2020-02-25T05:30:19Z</time>
      </trkpt>
      <trkpt lat="40.47774" lon="-1.71054">
        <ele>1633.551</ele>
        <time>2020-02-25T05:30:39Z</time>
      </trkpt>
      <trkpt lat="40.47773" lon="-1.71077">
        <ele>1632.532</ele>
        <time>2020-02-25T05:30:59Z</time>
      </trkpt>
      <trkpt lat="40.47752" lon="-1.71211">
        <ele>1635.072</ele>
        <time>2020-02-25T05:31:19Z</time>
      </trkpt>
      <trkpt lat="40.47748" lon="-1.71248">
        <ele>1634.712</ele>
        <time>2020-02-25T05:31:39Z</time>
      </trkpt>
      <trkpt lat="40.47744" lon="-1.71268">
        <ele>1634.186</ele>
        <time>2020-02-25T05:31:59Z</time>
      </trkpt>
      <trkpt lat="40.47734" lon="-1.71284">
        <ele>1635.36</ele>
        <time>2020-02-25T05:32:19Z</time>
      </trkpt>
      <trkpt lat="40.47724" lon="-1.71294">
        <ele>1636.926</ele>
        <time>2020-02-25T05:32:39Z</time>
      </trkpt>
      <trkpt lat="40.47696" lon="-1.71314">
        <ele>1641.008</ele>
        <time>2020-02-25T05:32:59Z</time>
      </trkpt>
      <trkpt lat="40.4764" lon="-1.71345">
        <ele>1650.132</ele>
        <time>2020-02-25T05:33:19Z</time>
      </trkpt>
      <trkpt lat="40.47623" lon="-1.71357">
        <ele>1653.925</ele>
        <time>2020-02-25T05:33:39Z</time>
      </trkpt>
      <trkpt lat="40.47614" lon="-1.71369">
        <ele>1655.649</ele>
        <time>2020-02-25T05:33:59Z</time>
      </trkpt>
      <trkpt lat="40.47613" lon="-1.71386">
        <ele>1654.748</ele>
        <time>2020-02-25T05:34:19Z</time>
      </trkpt>
      <trkpt lat="40.47614" lon="-1.71409">
        <ele>1652.914</ele>
        <time>2020-02-25T05:34:39Z</time>
      </trkpt>
      <trkpt lat="40.47615" lon="-1.71442">
        <ele>1652.025</ele>
        <time>2020-02-25T05:34:59Z</time>
      </trkpt>
      <trkpt lat="40.47613" lon="-1.7147">
        <ele>1652.495</ele>
        <time>2020-02-25T05:35:19Z</time>
      </trkpt>
      <trkpt lat="40.47606" lon="-1.71501">
        <ele>1654.065</ele>
        <time>2020-02-25T05:35:39Z</time>
      </trkpt>
      <trkpt lat="40.476" lon="-1.71529">
        <ele>1655.785</ele>
        <time>2020-02-25T05:35:59Z</time>
      </trkpt>
      <trkpt lat="40.47596" lon="-1.71566">
        <ele>1656.989</ele>
        <time>2020-02-25T05:36:19Z</time>
      </trkpt>
      <trkpt lat="40.47592" lon="-1.7167">
        <ele>1657.017</ele>
        <time>2020-02-25T05:36:39Z</time>
      </trkpt>
      <trkpt lat="40.47591" lon="-1.71699">
        <ele>1656.508</ele>
        <time>2020-02-25T05:36:59Z</time>
      </trkpt>
      <trkpt lat="40.4759" lon="-1.71718">
        <ele>1656.262</ele>
        <time>2020-02-25T05:37:19Z</time>
      </trkpt>
      <trkpt lat="40.47585" lon="-1.71733">
        <ele>1657.045</ele>
        <time>2020-02-25T05:37:39Z</time>
      </trkpt>
      <trkpt lat="40.4758" lon="-1.71747">
        <ele>1657.579</ele>
        <time>2020-02-25T05:37:59Z</time>
      </trkpt>
      <trkpt lat="40.47573" lon="-1.71762">
        <ele>1657.548</ele>
        <time>2020-02-25T05:38:19Z</time>
      </trkpt>
      <trkpt lat="40.47564" lon="-1.7178">
        <ele>1657.544</ele>
        <time>2020-02-25T05:38:39Z</time>
      </trkpt>
      <trkpt lat="40.47522" lon="-1.7186">
        <ele>1656.455</ele>
        <time>2020-02-25T05:38:59Z</time>
      </trkpt>
      <trkpt lat="40.47504" lon="-1.71899">
        <ele>1653.865</ele>
        <time>2020-02-25T05:39:19Z</time>
      </trkpt>
      <trkpt lat="40.47487" lon="-1.71935">
        <ele>1650.335</ele>
        <time>2020-02-25T05:39:39Z</time>
      </trkpt>
      <trkpt lat="40.47472" lon="-1.7196">
        <ele>1647.973</ele>
        <time>2020-02-25T05:39:59Z</time>
      </trkpt>
      <trkpt lat="40.47455" lon="-1.71985">
        <ele>1645.385</ele>
        <time>2020-02-25T05:40:19Z</time>
      </trkpt>
      <trkpt lat="40.47442" lon="-1.71995">
        <ele>1644.113</ele>
        <time>2020-02-25T05:40:39Z</time>
      </trkpt>
      <trkpt lat="40.4743" lon="-1.71997">
        <ele>1643.608</ele>
        <time>2020-02-25T05:40:59Z</time>
      </trkpt>
      <trkpt lat="40.47399" lon="-1.71999">
        <ele>1643.521</ele>
        <time>2020-02-25T05:41:19Z</time>
      </trkpt>
      <trkpt lat="40.47388" lon="-1.72004">
        <ele>1643.444</ele>
        <time>2020-02-25T05:41:39Z</time>
      </trkpt>
      <trkpt lat="40.47379" lon="-1.72011">
        <ele>1643.248</ele>
        <time>2020-02-25T05:41:59Z</time>
      </trkpt>
      <trkpt lat="40.47371" lon="-1.72021">
        <ele>1642.797</ele>
        <time>2020-02-25T05:42:19Z</time>
      </trkpt>
      <trkpt lat="40.47364" lon="-1.72039">
        <ele>1641.953</ele>
        <time>2020-02-25T05:42:39Z</time>
      </trkpt>
      <trkpt lat="40.47347" lon="-1.72128">
        <ele>1636.894</ele>
        <time>2020-02-25T05:42:59Z</time>
      </trkpt>
      <trkpt lat="40.47337" lon="-1.72148">
        <ele>1635.514</ele>
        <time>2020-02-25T05:43:19Z</time>
      </trkpt>
      <trkpt lat="40.47325" lon="-1.72161">
        <ele>1634.484</ele>
        <time>2020-02-25T05:43:39Z</time>
      </trkpt>
      <trkpt lat="40.47305" lon="-1.72167">
        <ele>1633.642</ele>
        <time>2020-02-25T05:43:59Z</time>
      </trkpt>
      <trkpt lat="40.47279" lon="-1.72165">
        <ele>1633.522</ele>
        <time>2020-02-25T05:44:19Z</time>
      </trkpt>
      <trkpt lat="40.47255" lon="-1.72165">
        <ele>1633.314</ele>
        <time>2020-02-25T05:44:39Z</time>
      </trkpt>
      <trkpt lat="40.47226" lon="-1.72169">
        <ele>1632.608</ele>
        <time>2020-02-25T05:44:59Z</time>
      </trkpt>
      <trkpt lat="40.47195" lon="-1.72168">
        <ele>1632.328</ele>
        <time>2020-02-25T05:45:19Z</time>
      </trkpt>
      <trkpt lat="40.47139" lon="-1.72164">
        <ele>1631.021</ele>
        <time>2020-02-25T05:45:39Z</time>
      </trkpt>
      <trkpt lat="40.47119" lon="-1.72163">
        <ele>1630.135</ele>
        <time>2020-02-25T05:45:59Z</time>
      </trkpt>
      <trkpt lat="40.47099" lon="-1.72156">
        <ele>1630.014</ele>
        <time>2020-02-25T05:46:19Z</time>
      </trkpt>
      <trkpt lat="40.47075" lon="-1.72147">
        <ele>1630.09</ele>
        <time>2020-02-25T05:46:39Z</time>
      </trkpt>
      <trkpt lat="40.47026" lon="-1.72132">
        <ele>1629.211</ele>
        <time>2020-02-25T05:46:59Z</time>
      </trkpt>
      <trkpt lat="40.46998" lon="-1.7212">
        <ele>1628.771</ele>
        <time>2020-02-25T05:47:19Z</time>
      </trkpt>
      <trkpt lat="40.46965" lon="-1.721">
        <ele>1626.761</ele>
        <time>2020-02-25T05:47:39Z</time>
      </trkpt>
      <trkpt lat="40.46907" lon="-1.72059">
        <ele>1623.257</ele>
        <time>2020-02-25T05:47:59Z</time>
      </trkpt>
      <trkpt lat="40.46781" lon="-1.71972">
        <ele>1619.9</ele>
        <time>2020-02-25T05:48:19Z</time>
      </trkpt>
      <trkpt lat="40.46769" lon="-1.71967">
        <ele>1620.12</ele>
        <time>2020-02-25T05:48:39Z</time>
      </trkpt>
      <trkpt lat="40.46759" lon="-1.71966">
        <ele>1620.008</ele>
        <time>2020-02-25T05:48:59Z</time>
      </trkpt>
      <trkpt lat="40.46744" lon="-1.71968">
        <ele>1619.839</ele>
        <time>2020-02-25T05:49:19Z</time>
      </trkpt>
      <trkpt lat="40.46717" lon="-1.71979">
        <ele>1619.482</ele>
        <time>2020-02-25T05:49:39Z</time>
      </trkpt>
      <trkpt lat="40.46698" lon="-1.71985">
        <ele>1619.376</ele>
        <time>2020-02-25T05:49:59Z</time>
      </trkpt>
      <trkpt lat="40.46685" lon="-1.71982">
        <ele>1619.755</ele>
        <time>2020-02-25T05:50:19Z</time>
      </trkpt>
      <trkpt lat="40.46671" lon="-1.71971">
        <ele>1620.761</ele>
        <time>2020-02-25T05:50:39Z</time>
      </trkpt>
      <trkpt lat="40.46661" lon="-1.71959">
        <ele>1621.872</ele>
        <time>2020-02-25T05:50:59Z</time>
      </trkpt>
      <trkpt lat="40.46646" lon="-1.71943">
        <ele>1623.262</ele>
        <time>2020-02-25T05:51:19Z</time>
      </trkpt>
      <trkpt lat="40.46588" lon="-1.71898">
        <ele>1623.932</ele>
        <time>2020-02-25T05:51:39Z</time>
      </trkpt>
      <trkpt lat="40.46471" lon="-1.71792">
        <ele>1614.351</ele>
        <time>2020-02-25T05:51:59Z</time>
      </trkpt>
      <trkpt lat="40.46455" lon="-1.71781">
        <ele>1613.201</ele>
        <time>2020-02-25T05:52:19Z</time>
      </trkpt>
      <trkpt lat="40.46439" lon="-1.71776">
        <ele>1612.411</ele>
        <time>2020-02-25T05:52:39Z</time>
      </trkpt>
      <trkpt lat="40.4642" lon="-1.71775">
        <ele>1611.708</ele>
        <time>2020-02-25T05:52:59Z</time>
      </trkpt>
      <trkpt lat="40.46398" lon="-1.71779">
        <ele>1610.769</ele>
        <time>2020-02-25T05:53:19Z</time>
      </trkpt>
      <trkpt lat="40.46364" lon="-1.71788">
        <ele>1608.952</ele>
        <time>2020-02-25T05:53:39Z</time>
      </trkpt>
      <trkpt lat="40.46198" lon="-1.71828">
        <ele>1604.066</ele>
        <time>2020-02-25T05:53:59Z</time>
      </trkpt>
      <trkpt lat="40.46086" lon="-1.71854">
        <ele>1602.525</ele>
        <time>2020-02-25T05:54:19Z</time>
      </trkpt>
      <trkpt lat="40.45995" lon="-1.71882">
        <ele>1598.981</ele>
        <time>2020-02-25T05:54:39Z</time>
      </trkpt>
      <trkpt lat="40.45959" lon="-1.71889">
        <ele>1597.582</ele>
        <time>2020-02-25T05:54:59Z</time>
      </trkpt>
      <trkpt lat="40.45943" lon="-1.71892">
        <ele>1597.052</ele>
        <time>2020-02-25T05:55:19Z</time>
      </trkpt>
      <trkpt lat="40.45845" lon="-1.71913">
        <ele>1593.512</ele>
        <time>2020-02-25T05:55:39Z</time>
      </trkpt>
      <trkpt lat="40.45834" lon="-1.71917">
        <ele>1593.093</ele>
        <time>2020-02-25T05:55:59Z</time>
      </trkpt>
      <trkpt lat="40.45827" lon="-1.71923">
        <ele>1593.765</ele>
        <time>2020-02-25T05:56:19Z</time>
      </trkpt>
      <trkpt lat="40.45818" lon="-1.71934">
        <ele>1594.621</ele>
        <time>2020-02-25T05:56:39Z</time>
      </trkpt>
      <trkpt lat="40.45813" lon="-1.71939">
        <ele>1595.108</ele>
        <time>2020-02-25T05:56:59Z</time>
      </trkpt>
      <trkpt lat="40.4581" lon="-1.71944">
        <ele>1595.423</ele>
        <time>2020-02-25T05:57:19Z</time>
      </trkpt>
      <trkpt lat="40.45808" lon="-1.7195">
        <ele>1595.666</ele>
        <time>2020-02-25T05:57:39Z</time>
      </trkpt>
      <trkpt lat="40.45805" lon="-1.71978">
        <ele>1595.83</ele>
        <time>2020-02-25T05:57:59Z</time>
      </trkpt>
      <trkpt lat="40.45806" lon="-1.72033">
        <ele>1595.229</ele>
        <time>2020-02-25T05:58:19Z</time>
      </trkpt>
      <trkpt lat="40.45808" lon="-1.72063">
        <ele>1594.755</ele>
        <time>2020-02-25T05:58:39Z</time>
      </trkpt>
      <trkpt lat="40.45808" lon="-1.72119">
        <ele>1592.716</ele>
        <time>2020-02-25T05:58:59Z</time>
      </trkpt>
      <trkpt lat="40.45808" lon="-1.72143">
        <ele>1591.446</ele>
        <time>2020-02-25T05:59:19Z</time>
      </trkpt>
      <trkpt lat="40.45806" lon="-1.72172">
        <ele>1590.066</ele>
        <time>2020-02-25T05:59:39Z</time>
      </trkpt>
      <trkpt lat="40.45805" lon="-1.7218">
        <ele>1589.759</ele>
        <time>2020-02-25T05:59:59Z</time>
      </trkpt>
      <trkpt lat="40.45802" lon="-1.72192">
        <ele>1589.103</ele>
        <time>2020-02-25T06:00:19Z</time>
      </trkpt>
      <trkpt lat="40.45799" lon="-1.722">
        <ele>1588.823</ele>
        <time>2020-02-25T06:00:39Z</time>
      </trkpt>
      <trkpt lat="40.45792" lon="-1.72212">
        <ele>1588.308</ele>
        <time>2020-02-25T06:00:59Z</time>
      </trkpt>
      <trkpt lat="40.45785" lon="-1.72222">
        <ele>1587.829</ele>
        <time>2020-02-25T06:01:19Z</time>
      </trkpt>
      <trkpt lat="40.45776" lon="-1.72232">
        <ele>1587.242</ele>
        <time>2020-02-25T06:01:39Z</time>
      </trkpt>
      <trkpt lat="40.45764" lon="-1.72239">
        <ele>1586.886</ele>
        <time>2020-02-25T06:01:59Z</time>
      </trkpt>
      <trkpt lat="40.45752" lon="-1.72241">
        <ele>1586.785</ele>
        <time>2020-02-25T06:02:19Z</time>
      </trkpt>
      <trkpt lat="40.45737" lon="-1.72241">
        <ele>1587.361</ele>
        <time>2020-02-25T06:02:39Z</time>
      </trkpt>
      <trkpt lat="40.45714" lon="-1.72241">
        <ele>1588.392</ele>
        <time>2020-02-25T06:02:59Z</time>
      </trkpt>
      <trkpt lat="40.45693" lon="-1.72239">
        <ele>1589.312</ele>
        <time>2020-02-25T06:03:19Z</time>
      </trkpt>
      <trkpt lat="40.45684" lon="-1.72236">
        <ele>1589.842</ele>
        <time>2020-02-25T06:03:39Z</time>
      </trkpt>
      <trkpt lat="40.45675" lon="-1.72233">
        <ele>1590.351</ele>
        <time>2020-02-25T06:03:59Z</time>
      </trkpt>
      <trkpt lat="40.45663" lon="-1.72223">
        <ele>1590.901</ele>
        <time>2020-02-25T06:04:19Z</time>
      </trkpt>
      <trkpt lat="40.45649" lon="-1.72209">
        <ele>1590.911</ele>
        <time>2020-02-25T06:04:39Z</time>
      </trkpt>
      <trkpt lat="40.45589" lon="-1.72131">
        <ele>1591.208</ele>
        <time>2020-02-25T06:04:59Z</time>
      </trkpt>
      <trkpt lat="40.45581" lon="-1.72122">
        <ele>1590.879</ele>
        <time>2020-02-25T06:05:19Z</time>
      </trkpt>
      <trkpt lat="40.45573" lon="-1.72112">
        <ele>1590.082</ele>
        <time>2020-02-25T06:05:39Z</time>
      </trkpt>
      <trkpt lat="40.45553" lon="-1.72098">
        <ele>1587.966</ele>
        <time>2020-02-25T06:05:59Z</time>
      </trkpt>
      <trkpt lat="40.45535" lon="-1.72088">
        <ele>1586.045</ele>
        <time>2020-02-25T06:06:19Z</time>
      </trkpt>
      <trkpt lat="40.45513" lon="-1.72081">
        <ele>1583.921</ele>
        <time>2020-02-25T06:06:39Z</time>
      </trkpt>
      <trkpt lat="40.45453" lon="-1.72066">
        <ele>1581.782</ele>
        <time>2020-02-25T06:06:59Z</time>
      </trkpt>
      <trkpt lat="40.45408" lon="-1.72055">
        <ele>1579.112</ele>
        <time>2020-02-25T06:07:19Z</time>
      </trkpt>
      <trkpt lat="40.45384" lon="-1.72049">
        <ele>1577.072</ele>
        <time>2020-02-25T06:07:39Z</time>
      </trkpt>
      <trkpt lat="40.45361" lon="-1.72043">
        <ele>1574.995</ele>
        <time>2020-02-25T06:07:59Z</time>
      </trkpt>
      <trkpt lat="40.45338" lon="-1.72038">
        <ele>1572.749</ele>
        <time>2020-02-25T06:08:19Z</time>
      </trkpt>
      <trkpt lat="40.45317" lon="-1.72031">
        <ele>1572.123</ele>
        <time>2020-02-25T06:08:39Z</time>
      </trkpt>
      <trkpt lat="40.45306" lon="-1.72031">
        <ele>1571.908</ele>
        <time>2020-02-25T06:08:59Z</time>
      </trkpt>
      <trkpt lat="40.45306" lon="-1.72032">
        <ele>1571.813</ele>
        <time>2020-02-25T06:09:19Z</time>
      </trkpt>
      <trkpt lat="40.45284" lon="-1.72035">
        <ele>1571.126</ele>
        <time>2020-02-25T06:09:39Z</time>
      </trkpt>
      <trkpt lat="40.45261" lon="-1.72042">
        <ele>1569.82</ele>
        <time>2020-02-25T06:09:59Z</time>
      </trkpt>
      <trkpt lat="40.45241" lon="-1.72041">
        <ele>1569.339</ele>
        <time>2020-02-25T06:10:19Z</time>
      </trkpt>
      <trkpt lat="40.4522" lon="-1.72039">
        <ele>1568.955</ele>
        <time>2020-02-25T06:10:39Z</time>
      </trkpt>
      <trkpt lat="40.45197" lon="-1.72037">
        <ele>1568.476</ele>
        <time>2020-02-25T06:10:59Z</time>
      </trkpt>
      <trkpt lat="40.45172" lon="-1.72035">
        <ele>1567.856</ele>
        <time>2020-02-25T06:11:19Z</time>
      </trkpt>
      <trkpt lat="40.45152" lon="-1.72033">
        <ele>1567.366</ele>
        <time>2020-02-25T06:11:39Z</time>
      </trkpt>
      <trkpt lat="40.4513" lon="-1.7203">
        <ele>1566.825</ele>
        <time>2020-02-25T06:11:59Z</time>
      </trkpt>
      <trkpt lat="40.45106" lon="-1.72029">
        <ele>1566.026</ele>
        <time>2020-02-25T06:12:19Z</time>
      </trkpt>
      <trkpt lat="40.45087" lon="-1.72027">
        <ele>1565.508</ele>
        <time>2020-02-25T06:12:39Z</time>
      </trkpt>
      <trkpt lat="40.45066" lon="-1.72025">
        <ele>1565.408</ele>
        <time>2020-02-25T06:12:59Z</time>
      </trkpt>
      <trkpt lat="40.45046" lon="-1.72025">
        <ele>1565.276</ele>
        <time>2020-02-25T06:13:19Z</time>
      </trkpt>
      <trkpt lat="40.45027" lon="-1.72025">
        <ele>1564.999</ele>
        <time>2020-02-25T06:13:39Z</time>
      </trkpt>
      <trkpt lat="40.45004" lon="-1.72029">
        <ele>1564.353</ele>
        <time>2020-02-25T06:13:59Z</time>
      </trkpt>
      <trkpt lat="40.44979" lon="-1.72033">
        <ele>1563.512</ele>
        <time>2020-02-25T06:14:19Z</time>
      </trkpt>
      <trkpt lat="40.44956" lon="-1.72039">
        <ele>1562.758</ele>
        <time>2020-02-25T06:14:39Z</time>
      </trkpt>
      <trkpt lat="40.44936" lon="-1.72055">
        <ele>1561.249</ele>
        <time>2020-02-25T06:14:59Z</time>
      </trkpt>
      <trkpt lat="40.4492" lon="-1.72073">
        <ele>1559.879</ele>
        <time>2020-02-25T06:15:19Z</time>
      </trkpt>
      <trkpt lat="40.44906" lon="-1.7209">
        <ele>1559.759</ele>
        <time>2020-02-25T06:15:39Z</time>
      </trkpt>
      <trkpt lat="40.44891" lon="-1.72108">
        <ele>1560.182</ele>
        <time>2020-02-25T06:15:59Z</time>
      </trkpt>
      <trkpt lat="40.44864" lon="-1.72145">
        <ele>1559.643</ele>
        <time>2020-02-25T06:16:19Z</time>
      </trkpt>
      <trkpt lat="40.44853" lon="-1.72158">
        <ele>1559.117</ele>
        <time>2020-02-25T06:16:39Z</time>
      </trkpt>
      <trkpt lat="40.44847" lon="-1.72166">
        <ele>1558.708</ele>
        <time>2020-02-25T06:16:59Z</time>
      </trkpt>
      <trkpt lat="40.44823" lon="-1.72189">
        <ele>1557.622</ele>
        <time>2020-02-25T06:17:19Z</time>
      </trkpt>
      <trkpt lat="40.44818" lon="-1.72193">
        <ele>1557.445</ele>
        <time>2020-02-25T06:17:39Z</time>
      </trkpt>
      <trkpt lat="40.4481" lon="-1.72197">
        <ele>1557.229</ele>
        <time>2020-02-25T06:17:59Z</time>
      </trkpt>
      <trkpt lat="40.44802" lon="-1.72199">
        <ele>1557.168</ele>
        <time>2020-02-25T06:18:19Z</time>
      </trkpt>
      <trkpt lat="40.44791" lon="-1.722">
        <ele>1557.244</ele>
        <time>2020-02-25T06:18:39Z</time>
      </trkpt>
      <trkpt lat="40.44748" lon="-1.72201">
        <ele>1557.755</ele>
        <time>2020-02-25T06:18:59Z</time>
      </trkpt>
      <trkpt lat="40.44685" lon="-1.72204">
        <ele>1558.415</ele>
        <time>2020-02-25T06:19:19Z</time>
      </trkpt>
      <trkpt lat="40.44663" lon="-1.72203">
        <ele>1558.785</ele>
        <time>2020-02-25T06:19:39Z</time>
      </trkpt>
      <trkpt lat="40.44642" lon="-1.72203">
        <ele>1558.488</ele>
        <time>2020-02-25T06:19:59Z</time>
      </trkpt>
      <trkpt lat="40.4462" lon="-1.72202">
        <ele>1558.124</ele>
        <time>2020-02-25T06:20:19Z</time>
      </trkpt>
      <trkpt lat="40.44598" lon="-1.72203">
        <ele>1557.626</ele>
        <time>2020-02-25T06:20:39Z</time>
      </trkpt>
      <trkpt lat="40.44577" lon="-1.72202">
        <ele>1557.408</ele>
        <time>2020-02-25T06:20:59Z</time>
      </trkpt>
      <trkpt lat="40.44534" lon="-1.72203">
        <ele>1556.872</ele>
        <time>2020-02-25T06:21:19Z</time>
      </trkpt>
      <trkpt lat="40.44516" lon="-1.72202">
        <ele>1556.665</ele>
        <time>2020-02-25T06:21:39Z</time>
      </trkpt>
      <trkpt lat="40.44496" lon="-1.72202">
        <ele>1556.429</ele>
        <time>2020-02-25T06:21:59Z</time>
      </trkpt>
      <trkpt lat="40.44478" lon="-1.72202">
        <ele>1556.468</ele>
        <time>2020-02-25T06:22:19Z</time>
      </trkpt>
      <trkpt lat="40.44454" lon="-1.72202">
        <ele>1556.464</ele>
        <time>2020-02-25T06:22:39Z</time>
      </trkpt>
      <trkpt lat="40.44431" lon="-1.72204">
        <ele>1556.475</ele>
        <time>2020-02-25T06:22:59Z</time>
      </trkpt>
      <trkpt lat="40.44411" lon="-1.72208">
        <ele>1556.665</ele>
        <time>2020-02-25T06:23:19Z</time>
      </trkpt>
      <trkpt lat="40.44391" lon="-1.72214">
        <ele>1557.185</ele>
        <time>2020-02-25T06:23:39Z</time>
      </trkpt>
      <trkpt lat="40.44389" lon="-1.72215">
        <ele>1557.158</ele>
        <time>2020-02-25T06:23:59Z</time>
      </trkpt>
      <trkpt lat="40.44386" lon="-1.72217">
        <ele>1557.252</ele>
        <time>2020-02-25T06:24:19Z</time>
      </trkpt>
      <trkpt lat="40.44386" lon="-1.72217">
        <ele>1557.217</ele>
        <time>2020-02-25T06:24:39Z</time>
      </trkpt>
      <trkpt lat="40.443" lon="-1.72217">
        <ele>1558.008</ele>
        <time>2020-02-25T06:24:59Z</time>
      </trkpt>
      <trkpt lat="40.44155" lon="-1.72222">
        <ele>1561.029</ele>
        <time>2020-02-25T06:25:19Z</time>
      </trkpt>
      <trkpt lat="40.44007" lon="-1.72227">
        <ele>1562.712</ele>
        <time>2020-02-25T06:25:39Z</time>
      </trkpt>
      <trkpt lat="40.43841" lon="-1.72232">
        <ele>1561.536</ele>
        <time>2020-02-25T06:25:59Z</time>
      </trkpt>
      <trkpt lat="40.43721" lon="-1.72236">
        <ele>1562.115</ele>
        <time>2020-02-25T06:26:19Z</time>
      </trkpt>
      <trkpt lat="40.43721" lon="-1.72236">
        <ele>1562.181</ele>
        <time>2020-02-25T06:26:39Z</time>
      </trkpt>
      <trkpt lat="40.43731" lon="-1.7228">
        <ele>1563.422</ele>
        <time>2020-02-25T06:26:59Z</time>
      </trkpt>
      <trkpt lat="40.43755" lon="-1.72396">
        <ele>1570.122</ele>
        <time>2020-02-25T06:27:19Z</time>
      </trkpt>
      <trkpt lat="40.43755" lon="-1.72396">
        <ele>1570.182</ele>
        <time>2020-02-25T06:27:39Z</time>
      </trkpt>
      <trkpt lat="40.43719" lon="-1.72389">
        <ele>1569.983</ele>
        <time>2020-02-25T06:27:59Z</time>
      </trkpt>
      <trkpt lat="40.43699" lon="-1.72384">
        <ele>1569.825</ele>
        <time>2020-02-25T06:28:19Z</time>
      </trkpt>
      <trkpt lat="40.43681" lon="-1.72377">
        <ele>1569.817</ele>
        <time>2020-02-25T06:28:39Z</time>
      </trkpt>
      <trkpt lat="40.43659" lon="-1.72367">
        <ele>1570.208</ele>
        <time>2020-02-25T06:28:59Z</time>
      </trkpt>
      <trkpt lat="40.43626" lon="-1.72344">
        <ele>1571.312</ele>
        <time>2020-02-25T06:29:19Z</time>
      </trkpt>
      <trkpt lat="40.43584" lon="-1.72309">
        <ele>1572.195</ele>
        <time>2020-02-25T06:29:39Z</time>
      </trkpt>
      <trkpt lat="40.43496" lon="-1.72239">
        <ele>1576.829</ele>
        <time>2020-02-25T06:29:59Z</time>
      </trkpt>
      <trkpt lat="40.43454" lon="-1.72204">
        <ele>1578.068</ele>
        <time>2020-02-25T06:30:19Z</time>
      </trkpt>
      <trkpt lat="40.43444" lon="-1.72196">
        <ele>1578.214</ele>
        <time>2020-02-25T06:30:39Z</time>
      </trkpt>
      <trkpt lat="40.43435" lon="-1.72187">
        <ele>1578.335</ele>
        <time>2020-02-25T06:30:59Z</time>
      </trkpt>
      <trkpt lat="40.43429" lon="-1.7218">
        <ele>1578.215</ele>
        <time>2020-02-25T06:31:19Z</time>
      </trkpt>
      <trkpt lat="40.43422" lon="-1.72167">
        <ele>1577.775</ele>
        <time>2020-02-25T06:31:39Z</time>
      </trkpt>
      <trkpt lat="40.43381" lon="-1.72072">
        <ele>1581.669</ele>
        <time>2020-02-25T06:31:59Z</time>
      </trkpt>
      <trkpt lat="40.43354" lon="-1.72013">
        <ele>1583.604</ele>
        <time>2020-02-25T06:32:19Z</time>
      </trkpt>
      <trkpt lat="40.43347" lon="-1.72002">
        <ele>1584.124</ele>
        <time>2020-02-25T06:32:39Z</time>
      </trkpt>
      <trkpt lat="40.43334" lon="-1.71985">
        <ele>1584.808</ele>
        <time>2020-02-25T06:32:59Z</time>
      </trkpt>
      <trkpt lat="40.43316" lon="-1.71959">
        <ele>1588.56</ele>
        <time>2020-02-25T06:33:19Z</time>
      </trkpt>
      <trkpt lat="40.4331" lon="-1.71947">
        <ele>1589.223</ele>
        <time>2020-02-25T06:33:39Z</time>
      </trkpt>
      <trkpt lat="40.43304" lon="-1.71928">
        <ele>1589.277</ele>
        <time>2020-02-25T06:33:59Z</time>
      </trkpt>
      <trkpt lat="40.43263" lon="-1.71813">
        <ele>1588.246</ele>
        <time>2020-02-25T06:34:19Z</time>
      </trkpt>
      <trkpt lat="40.43258" lon="-1.718">
        <ele>1588.562</ele>
        <time>2020-02-25T06:34:39Z</time>
      </trkpt>
      <trkpt lat="40.4325" lon="-1.71782">
        <ele>1589.313</ele>
        <time>2020-02-25T06:34:59Z</time>
      </trkpt>
      <trkpt lat="40.43246" lon="-1.71777">
        <ele>1590.283</ele>
        <time>2020-02-25T06:35:19Z</time>
      </trkpt>
      <trkpt lat="40.43234" lon="-1.71764">
        <ele>1592.623</ele>
        <time>2020-02-25T06:35:39Z</time>
      </trkpt>
      <trkpt lat="40.43212" lon="-1.71742">
        <ele>1596.129</ele>
        <time>2020-02-25T06:35:59Z</time>
      </trkpt>
      <trkpt lat="40.43208" lon="-1.71736">
        <ele>1596.1</ele>
        <time>2020-02-25T06:36:19Z</time>
      </trkpt>
      <trkpt lat="40.43202" lon="-1.71726">
        <ele>1595.82</ele>
        <time>2020-02-25T06:36:39Z</time>
      </trkpt>
      <trkpt lat="40.4316" lon="-1.71657">
        <ele>1593.008</ele>
        <time>2020-02-25T06:36:59Z</time>
      </trkpt>
      <trkpt lat="40.43151" lon="-1.71642">
        <ele>1593.946</ele>
        <time>2020-02-25T06:37:19Z</time>
      </trkpt>
      <trkpt lat="40.43145" lon="-1.71634">
        <ele>1594.689</ele>
        <time>2020-02-25T06:37:39Z</time>
      </trkpt>
      <trkpt lat="40.43138" lon="-1.71628">
        <ele>1595.633</ele>
        <time>2020-02-25T06:37:59Z</time>
      </trkpt>
      <trkpt lat="40.43085" lon="-1.71582">
        <ele>1600.832</ele>
        <time>2020-02-25T06:38:19Z</time>
      </trkpt>
      <trkpt lat="40.43078" lon="-1.71574">
        <ele>1601.788</ele>
        <time>2020-02-25T06:38:39Z</time>
      </trkpt>
      <trkpt lat="40.4307" lon="-1.71567">
        <ele>1602.499</ele>
        <time>2020-02-25T06:38:59Z</time>
      </trkpt>
      <trkpt lat="40.43063" lon="-1.71563">
        <ele>1603.089</ele>
        <time>2020-02-25T06:39:19Z</time>
      </trkpt>
      <trkpt lat="40.43051" lon="-1.71557">
        <ele>1604.049</ele>
        <time>2020-02-25T06:39:39Z</time>
      </trkpt>
      <trkpt lat="40.43029" lon="-1.71548">
        <ele>1605.842</ele>
        <time>2020-02-25T06:39:59Z</time>
      </trkpt>
      <trkpt lat="40.43027" lon="-1.71547">
        <ele>1606.022</ele>
        <time>2020-02-25T06:40:19Z</time>
      </trkpt>
      <trkpt lat="40.42989" lon="-1.71534">
        <ele>1608.814</ele>
        <time>2020-02-25T06:40:39Z</time>
      </trkpt>
      <trkpt lat="40.4298" lon="-1.71531">
        <ele>1609.308</ele>
        <time>2020-02-25T06:40:59Z</time>
      </trkpt>
      <trkpt lat="40.4298" lon="-1.71531">
        <ele>1609.378</ele>
        <time>2020-02-25T06:41:19Z</time>
      </trkpt>
      <trkpt lat="40.42954" lon="-1.71521">
        <ele>1610.841</ele>
        <time>2020-02-25T06:41:39Z</time>
      </trkpt>
      <trkpt lat="40.42906" lon="-1.71505">
        <ele>1612.765</ele>
        <time>2020-02-25T06:41:59Z</time>
      </trkpt>
      <trkpt lat="40.428966" lon="-1.715009">
        <ele>1612.744</ele>
        <time>2020-02-25T06:42:19Z</time>
      </trkpt>
      <trkpt lat="40.42897" lon="-1.71497">
        <ele>1612.81</ele>
        <time>2020-02-25T06:42:39Z</time>
      </trkpt>
      <trkpt lat="40.42849" lon="-1.71475">
        <ele>1611.821</ele>
        <time>2020-02-25T06:42:59Z</time>
      </trkpt>
      <trkpt lat="40.42773" lon="-1.71406">
        <ele>1605.721</ele>
        <time>2020-02-25T06:43:19Z</time>
      </trkpt>
      <trkpt lat="40.42761" lon="-1.71369">
        <ele>1605.191</ele>
        <time>2020-02-25T06:43:39Z</time>
      </trkpt>
      <trkpt lat="40.42721" lon="-1.71358">
        <ele>1602.996</ele>
        <time>2020-02-25T06:43:59Z</time>
      </trkpt>
      <trkpt lat="40.42699" lon="-1.71339">
        <ele>1601.831</ele>
        <time>2020-02-25T06:44:19Z</time>
      </trkpt>
      <trkpt lat="40.42687" lon="-1.71337">
        <ele>1601.124</ele>
        <time>2020-02-25T06:44:39Z</time>
      </trkpt>
      <trkpt lat="40.42673" lon="-1.71317">
        <ele>1600.608</ele>
        <time>2020-02-25T06:44:59Z</time>
      </trkpt>
      <trkpt lat="40.42653" lon="-1.7124">
        <ele>1600.633</ele>
        <time>2020-02-25T06:45:19Z</time>
      </trkpt>
      <trkpt lat="40.4264" lon="-1.71208">
        <ele>1600.416</ele>
        <time>2020-02-25T06:45:39Z</time>
      </trkpt>
      <trkpt lat="40.42624" lon="-1.71193">
        <ele>1599.35</ele>
        <time>2020-02-25T06:45:59Z</time>
      </trkpt>
      <trkpt lat="40.42613" lon="-1.71188">
        <ele>1598.369</ele>
        <time>2020-02-25T06:46:19Z</time>
      </trkpt>
      <trkpt lat="40.42581" lon="-1.71206">
        <ele>1596.175</ele>
        <time>2020-02-25T06:46:39Z</time>
      </trkpt>
      <trkpt lat="40.4255" lon="-1.71195">
        <ele>1598.126</ele>
        <time>2020-02-25T06:46:59Z</time>
      </trkpt>
      <trkpt lat="40.42514" lon="-1.71169">
        <ele>1600.066</ele>
        <time>2020-02-25T06:47:19Z</time>
      </trkpt>
      <trkpt lat="40.42497" lon="-1.71152">
        <ele>1599.846</ele>
        <time>2020-02-25T06:47:39Z</time>
      </trkpt>
      <trkpt lat="40.42484" lon="-1.71139">
        <ele>1599.669</ele>
        <time>2020-02-25T06:47:59Z</time>
      </trkpt>
      <trkpt lat="40.42483" lon="-1.71139">
        <ele>1599.704</ele>
        <time>2020-02-25T06:48:19Z</time>
      </trkpt>
      <trkpt lat="40.42484" lon="-1.71139">
        <ele>1599.624</ele>
        <time>2020-02-25T06:48:39Z</time>
      </trkpt>
      <trkpt lat="40.42448" lon="-1.7111">
        <ele>1600.808</ele>
        <time>2020-02-25T06:48:59Z</time>
      </trkpt>
      <trkpt lat="40.42438" lon="-1.71119">
        <ele>1602.38</ele>
        <time>2020-02-25T06:49:19Z</time>
      </trkpt>
      <trkpt lat="40.42427" lon="-1.71142">
        <ele>1604.373</ele>
        <time>2020-02-25T06:49:39Z</time>
      </trkpt>
      <trkpt lat="40.42416" lon="-1.7115">
        <ele>1605.347</ele>
        <time>2020-02-25T06:49:59Z</time>
      </trkpt>
      <trkpt lat="40.4242" lon="-1.7116">
        <ele>1605.516</ele>
        <time>2020-02-25T06:50:19Z</time>
      </trkpt>
      <trkpt lat="40.4237" lon="-1.71202">
        <ele>1604.652</ele>
        <time>2020-02-25T06:50:39Z</time>
      </trkpt>
      <trkpt lat="40.42343" lon="-1.71219">
        <ele>1605.023</ele>
        <time>2020-02-25T06:50:59Z</time>
      </trkpt>
      <trkpt lat="40.42317" lon="-1.71222">
        <ele>1605.063</ele>
        <time>2020-02-25T06:51:19Z</time>
      </trkpt>
      <trkpt lat="40.42276" lon="-1.71212">
        <ele>1603.693</ele>
        <time>2020-02-25T06:51:39Z</time>
      </trkpt>
      <trkpt lat="40.42227" lon="-1.71186">
        <ele>1599.061</ele>
        <time>2020-02-25T06:51:59Z</time>
      </trkpt>
      <trkpt lat="40.42154" lon="-1.7114">
        <ele>1594.221</ele>
        <time>2020-02-25T06:52:19Z</time>
      </trkpt>
      <trkpt lat="40.42101" lon="-1.71102">
        <ele>1595.213</ele>
        <time>2020-02-25T06:52:39Z</time>
      </trkpt>
      <trkpt lat="40.42049" lon="-1.71054">
        <ele>1597.308</ele>
        <time>2020-02-25T06:52:59Z</time>
      </trkpt>
      <trkpt lat="40.41998" lon="-1.71017">
        <ele>1600.54</ele>
        <time>2020-02-25T06:53:19Z</time>
      </trkpt>
      <trkpt lat="40.41891" lon="-1.70934">
        <ele>1603.593</ele>
        <time>2020-02-25T06:53:39Z</time>
      </trkpt>
      <trkpt lat="40.41871" lon="-1.70923">
        <ele>1604.237</ele>
        <time>2020-02-25T06:53:59Z</time>
      </trkpt>
      <trkpt lat="40.41829" lon="-1.70915">
        <ele>1607.266</ele>
        <time>2020-02-25T06:54:19Z</time>
      </trkpt>
      <trkpt lat="40.41802" lon="-1.70904">
        <ele>1608.142</ele>
        <time>2020-02-25T06:54:39Z</time>
      </trkpt>
      <trkpt lat="40.41768" lon="-1.70887">
        <ele>1608.043</ele>
        <time>2020-02-25T06:54:59Z</time>
      </trkpt>
      <trkpt lat="40.41732" lon="-1.70882">
        <ele>1607.713</ele>
        <time>2020-02-25T06:55:19Z</time>
      </trkpt>
      <trkpt lat="40.41687" lon="-1.70883">
        <ele>1606.773</ele>
        <time>2020-02-25T06:55:39Z</time>
      </trkpt>
      <trkpt lat="40.41656" lon="-1.70868">
        <ele>1603.027</ele>
        <time>2020-02-25T06:55:59Z</time>
      </trkpt>
      <trkpt lat="40.41623" lon="-1.70848">
        <ele>1599.168</ele>
        <time>2020-02-25T06:56:19Z</time>
      </trkpt>
      <trkpt lat="40.41506" lon="-1.70777">
        <ele>1598.014</ele>
        <time>2020-02-25T06:56:39Z</time>
      </trkpt>
      <trkpt lat="40.4129" lon="-1.70656">
        <ele>1595.208</ele>
        <time>2020-02-25T06:56:59Z</time>
      </trkpt>
      <trkpt lat="40.41273" lon="-1.70653">
        <ele>1593.586</ele>
        <time>2020-02-25T06:57:19Z</time>
      </trkpt>
      <trkpt lat="40.41254" lon="-1.70661">
        <ele>1592.769</ele>
        <time>2020-02-25T06:57:39Z</time>
      </trkpt>
      <trkpt lat="40.412" lon="-1.70725">
        <ele>1591.283</ele>
        <time>2020-02-25T06:57:59Z</time>
      </trkpt>
      <trkpt lat="40.41176" lon="-1.70738">
        <ele>1588.692</ele>
        <time>2020-02-25T06:58:19Z</time>
      </trkpt>
      <trkpt lat="40.41149" lon="-1.70743">
        <ele>1586.818</ele>
        <time>2020-02-25T06:58:39Z</time>
      </trkpt>
      <trkpt lat="40.4112" lon="-1.70742">
        <ele>1585.569</ele>
        <time>2020-02-25T06:58:59Z</time>
      </trkpt>
      <trkpt lat="40.41013" lon="-1.70734">
        <ele>1577.369</ele>
        <time>2020-02-25T06:59:19Z</time>
      </trkpt>
      <trkpt lat="40.40936" lon="-1.70713">
        <ele>1572.939</ele>
        <time>2020-02-25T06:59:39Z</time>
      </trkpt>
      <trkpt lat="40.40892" lon="-1.70691">
        <ele>1572.426</ele>
        <time>2020-02-25T06:59:59Z</time>
      </trkpt>
      <trkpt lat="40.40845" lon="-1.70662">
        <ele>1573.447</ele>
        <time>2020-02-25T07:00:19Z</time>
      </trkpt>
      <trkpt lat="40.40792" lon="-1.70622">
        <ele>1575.211</ele>
        <time>2020-02-25T07:00:39Z</time>
      </trkpt>
      <trkpt lat="40.40749" lon="-1.70579">
        <ele>1575.608</ele>
        <time>2020-02-25T07:00:59Z</time>
      </trkpt>
      <trkpt lat="40.40727" lon="-1.70561">
        <ele>1573.076</ele>
        <time>2020-02-25T07:01:19Z</time>
      </trkpt>
      <trkpt lat="40.40708" lon="-1.70564">
        <ele>1572.169</ele>
        <time>2020-02-25T07:01:39Z</time>
      </trkpt>
      <trkpt lat="40.40605" lon="-1.70651">
        <ele>1569.543</ele>
        <time>2020-02-25T07:01:59Z</time>
      </trkpt>
      <trkpt lat="40.40487" lon="-1.7074">
        <ele>1565.622</ele>
        <time>2020-02-25T07:02:19Z</time>
      </trkpt>
      <trkpt lat="40.4045" lon="-1.70759">
        <ele>1564.238</ele>
        <time>2020-02-25T07:02:39Z</time>
      </trkpt>
      <trkpt lat="40.40451" lon="-1.70759">
        <ele>1564.229</ele>
        <time>2020-02-25T07:02:59Z</time>
      </trkpt>
      <trkpt lat="40.40424" lon="-1.70767">
        <ele>1563.159</ele>
        <time>2020-02-25T07:03:19Z</time>
      </trkpt>
      <trkpt lat="40.40391" lon="-1.70765">
        <ele>1562.929</ele>
        <time>2020-02-25T07:03:39Z</time>
      </trkpt>
      <trkpt lat="40.40352" lon="-1.70759">
        <ele>1562.951</ele>
        <time>2020-02-25T07:03:59Z</time>
      </trkpt>
      <trkpt lat="40.40268" lon="-1.70734">
        <ele>1567.701</ele>
        <time>2020-02-25T07:04:19Z</time>
      </trkpt>
      <trkpt lat="40.40221" lon="-1.70729">
        <ele>1567.911</ele>
        <time>2020-02-25T07:04:39Z</time>
      </trkpt>
      <trkpt lat="40.40202" lon="-1.70732">
        <ele>1567.708</ele>
        <time>2020-02-25T07:04:59Z</time>
      </trkpt>
      <trkpt lat="40.40189" lon="-1.70737">
        <ele>1568.079</ele>
        <time>2020-02-25T07:05:19Z</time>
      </trkpt>
      <trkpt lat="40.40156" lon="-1.70766">
        <ele>1570.532</ele>
        <time>2020-02-25T07:05:39Z</time>
      </trkpt>
      <trkpt lat="40.40128" lon="-1.70785">
        <ele>1570.696</ele>
        <time>2020-02-25T07:05:59Z</time>
      </trkpt>
      <trkpt lat="40.40105" lon="-1.70835">
        <ele>1569.945</ele>
        <time>2020-02-25T07:06:19Z</time>
      </trkpt>
      <trkpt lat="40.40081" lon="-1.70877">
        <ele>1568.041</ele>
        <time>2020-02-25T07:06:39Z</time>
      </trkpt>
      <trkpt lat="40.40069" lon="-1.70891">
        <ele>1568.462</ele>
        <time>2020-02-25T07:06:59Z</time>
      </trkpt>
      <trkpt lat="40.40057" lon="-1.70901">
        <ele>1569.082</ele>
        <time>2020-02-25T07:07:19Z</time>
      </trkpt>
      <trkpt lat="40.40042" lon="-1.70901">
        <ele>1569.222</ele>
        <time>2020-02-25T07:07:39Z</time>
      </trkpt>
      <trkpt lat="40.40028" lon="-1.70897">
        <ele>1569.036</ele>
        <time>2020-02-25T07:07:59Z</time>
      </trkpt>
      <trkpt lat="40.4001" lon="-1.7089">
        <ele>1568.217</ele>
        <time>2020-02-25T07:08:19Z</time>
      </trkpt>
      <trkpt lat="40.39989" lon="-1.70885">
        <ele>1567.318</ele>
        <time>2020-02-25T07:08:39Z</time>
      </trkpt>
      <trkpt lat="40.39947" lon="-1.7088">
        <ele>1566.108</ele>
        <time>2020-02-25T07:08:59Z</time>
      </trkpt>
      <trkpt lat="40.39918" lon="-1.70886">
        <ele>1566.647</ele>
        <time>2020-02-25T07:09:19Z</time>
      </trkpt>
      <trkpt lat="40.39907" lon="-1.70894">
        <ele>1567.18</ele>
        <time>2020-02-25T07:09:39Z</time>
      </trkpt>
      <trkpt lat="40.39897" lon="-1.70905">
        <ele>1567.834</ele>
        <time>2020-02-25T07:09:59Z</time>
      </trkpt>
      <trkpt lat="40.39887" lon="-1.70924">
        <ele>1568.793</ele>
        <time>2020-02-25T07:10:19Z</time>
      </trkpt>
      <trkpt lat="40.39864" lon="-1.71022">
        <ele>1574.779</ele>
        <time>2020-02-25T07:10:39Z</time>
      </trkpt>
      <trkpt lat="40.3986" lon="-1.71033">
        <ele>1575.88</ele>
        <time>2020-02-25T07:10:59Z</time>
      </trkpt>
      <trkpt lat="40.39851" lon="-1.71038">
        <ele>1576.27</ele>
        <time>2020-02-25T07:11:19Z</time>
      </trkpt>
      <trkpt lat="40.398" lon="-1.71036">
        <ele>1574.51</ele>
        <time>2020-02-25T07:11:39Z</time>
      </trkpt>
      <trkpt lat="40.3978" lon="-1.7104">
        <ele>1574.412</ele>
        <time>2020-02-25T07:11:59Z</time>
      </trkpt>
      <trkpt lat="40.39762" lon="-1.71048">
        <ele>1574.732</ele>
        <time>2020-02-25T07:12:19Z</time>
      </trkpt>
      <trkpt lat="40.39672" lon="-1.71115">
        <ele>1570.205</ele>
        <time>2020-02-25T07:12:39Z</time>
      </trkpt>
      <trkpt lat="40.39654" lon="-1.71126">
        <ele>1571.108</ele>
        <time>2020-02-25T07:12:59Z</time>
      </trkpt>
      <trkpt lat="40.39637" lon="-1.71132">
        <ele>1572.675</ele>
        <time>2020-02-25T07:13:19Z</time>
      </trkpt>
      <trkpt lat="40.39621" lon="-1.71133">
        <ele>1573.518</ele>
        <time>2020-02-25T07:13:39Z</time>
      </trkpt>
      <trkpt lat="40.3959" lon="-1.71124">
        <ele>1573.622</ele>
        <time>2020-02-25T07:13:59Z</time>
      </trkpt>
      <trkpt lat="40.39568" lon="-1.71114">
        <ele>1572.581</ele>
        <time>2020-02-25T07:14:19Z</time>
      </trkpt>
      <trkpt lat="40.39512" lon="-1.71108">
        <ele>1572.647</ele>
        <time>2020-02-25T07:14:39Z</time>
      </trkpt>
      <trkpt lat="40.39497" lon="-1.71111">
        <ele>1573.138</ele>
        <time>2020-02-25T07:14:59Z</time>
      </trkpt>
      <trkpt lat="40.39486" lon="-1.71121">
        <ele>1573.918</ele>
        <time>2020-02-25T07:15:19Z</time>
      </trkpt>
      <trkpt lat="40.39461" lon="-1.7116">
        <ele>1575.878</ele>
        <time>2020-02-25T07:15:39Z</time>
      </trkpt>
      <trkpt lat="40.39453" lon="-1.71183">
        <ele>1576.376</ele>
        <time>2020-02-25T07:15:59Z</time>
      </trkpt>
      <trkpt lat="40.39438" lon="-1.71288">
        <ele>1578.49</ele>
        <time>2020-02-25T07:16:19Z</time>
      </trkpt>
      <trkpt lat="40.39429" lon="-1.71312">
        <ele>1577.519</ele>
        <time>2020-02-25T07:16:39Z</time>
      </trkpt>
      <trkpt lat="40.39416" lon="-1.71331">
        <ele>1575.808</ele>
        <time>2020-02-25T07:16:59Z</time>
      </trkpt>
      <trkpt lat="40.39396" lon="-1.71351">
        <ele>1576.191</ele>
        <time>2020-02-25T07:17:19Z</time>
      </trkpt>
      <trkpt lat="40.39375" lon="-1.71359">
        <ele>1575.284</ele>
        <time>2020-02-25T07:17:39Z</time>
      </trkpt>
      <trkpt lat="40.39316" lon="-1.71371">
        <ele>1572.118</ele>
        <time>2020-02-25T07:17:59Z</time>
      </trkpt>
      <trkpt lat="40.3928" lon="-1.71377">
        <ele>1570.867</ele>
        <time>2020-02-25T07:18:19Z</time>
      </trkpt>
      <trkpt lat="40.39257" lon="-1.71378">
        <ele>1569.483</ele>
        <time>2020-02-25T07:18:39Z</time>
      </trkpt>
      <trkpt lat="40.39235" lon="-1.71383">
        <ele>1568.284</ele>
        <time>2020-02-25T07:18:59Z</time>
      </trkpt>
      <trkpt lat="40.39218" lon="-1.71389">
        <ele>1567.214</ele>
        <time>2020-02-25T07:19:19Z</time>
      </trkpt>
      <trkpt lat="40.39207" lon="-1.71402">
        <ele>1567.644</ele>
        <time>2020-02-25T07:19:39Z</time>
      </trkpt>
      <trkpt lat="40.39185" lon="-1.71432">
        <ele>1567.875</ele>
        <time>2020-02-25T07:19:59Z</time>
      </trkpt>
      <trkpt lat="40.39111" lon="-1.71523">
        <ele>1562.428</ele>
        <time>2020-02-25T07:20:19Z</time>
      </trkpt>
      <trkpt lat="40.39073" lon="-1.71583">
        <ele>1559.22</ele>
        <time>2020-02-25T07:20:39Z</time>
      </trkpt>
      <trkpt lat="40.39047" lon="-1.71633">
        <ele>1556.208</ele>
        <time>2020-02-25T07:20:59Z</time>
      </trkpt>
      <trkpt lat="40.39036" lon="-1.71647">
        <ele>1555.171</ele>
        <time>2020-02-25T07:21:19Z</time>
      </trkpt>
      <trkpt lat="40.39006" lon="-1.71662">
        <ele>1552.594</ele>
        <time>2020-02-25T07:21:39Z</time>
      </trkpt>
      <trkpt lat="40.38981" lon="-1.71678">
        <ele>1548.988</ele>
        <time>2020-02-25T07:21:59Z</time>
      </trkpt>
      <trkpt lat="40.38976" lon="-1.71684">
        <ele>1547.777</ele>
        <time>2020-02-25T07:22:19Z</time>
      </trkpt>
      <trkpt lat="40.38976" lon="-1.71701">
        <ele>1546.153</ele>
        <time>2020-02-25T07:22:39Z</time>
      </trkpt>
      <trkpt lat="40.38978" lon="-1.71708">
        <ele>1545.714</ele>
        <time>2020-02-25T07:22:59Z</time>
      </trkpt>
      <trkpt lat="40.38995" lon="-1.71734">
        <ele>1545.034</ele>
        <time>2020-02-25T07:23:19Z</time>
      </trkpt>
      <trkpt lat="40.39002" lon="-1.71751">
        <ele>1544.214</ele>
        <time>2020-02-25T07:23:39Z</time>
      </trkpt>
      <trkpt lat="40.39037" lon="-1.71878">
        <ele>1548.921</ele>
        <time>2020-02-25T07:23:59Z</time>
      </trkpt>
      <trkpt lat="40.39048" lon="-1.71974">
        <ele>1551.941</ele>
        <time>2020-02-25T07:24:19Z</time>
      </trkpt>
      <trkpt lat="40.39051" lon="-1.71988">
        <ele>1552.705</ele>
        <time>2020-02-25T07:24:39Z</time>
      </trkpt>
      <trkpt lat="40.39065" lon="-1.72036">
        <ele>1554.108</ele>
        <time>2020-02-25T07:24:59Z</time>
      </trkpt>
      <trkpt lat="40.39066" lon="-1.72045">
        <ele>1554.166</ele>
        <time>2020-02-25T07:25:19Z</time>
      </trkpt>
      <trkpt lat="40.39066" lon="-1.72056">
        <ele>1553.939</ele>
        <time>2020-02-25T07:25:39Z</time>
      </trkpt>
      <trkpt lat="40.39063" lon="-1.72064">
        <ele>1553.413</ele>
        <time>2020-02-25T07:25:59Z</time>
      </trkpt>
      <trkpt lat="40.39045" lon="-1.72094">
        <ele>1550.622</ele>
        <time>2020-02-25T07:26:19Z</time>
      </trkpt>
      <trkpt lat="40.39027" lon="-1.72111">
        <ele>1547.768</ele>
        <time>2020-02-25T07:26:39Z</time>
      </trkpt>
      <trkpt lat="40.39014" lon="-1.72117">
        <ele>1546.039</ele>
        <time>2020-02-25T07:26:59Z</time>
      </trkpt>
      <trkpt lat="40.38992" lon="-1.72119">
        <ele>1543.939</ele>
        <time>2020-02-25T07:27:19Z</time>
      </trkpt>
      <trkpt lat="40.38967" lon="-1.72112">
        <ele>1542.889</ele>
        <time>2020-02-25T07:27:39Z</time>
      </trkpt>
      <trkpt lat="40.3894" lon="-1.72114">
        <ele>1541.052</ele>
        <time>2020-02-25T07:27:59Z</time>
      </trkpt>
      <trkpt lat="40.38911" lon="-1.72109">
        <ele>1539.153</ele>
        <time>2020-02-25T07:28:19Z</time>
      </trkpt>
      <trkpt lat="40.38876" lon="-1.72091">
        <ele>1535.408</ele>
        <time>2020-02-25T07:28:39Z</time>
      </trkpt>
      <trkpt lat="40.38854" lon="-1.72077">
        <ele>1532.908</ele>
        <time>2020-02-25T07:28:59Z</time>
      </trkpt>
      <trkpt lat="40.38848" lon="-1.72079">
        <ele>1532.189</ele>
        <time>2020-02-25T07:29:19Z</time>
      </trkpt>
      <trkpt lat="40.38838" lon="-1.72086">
        <ele>1530.632</ele>
        <time>2020-02-25T07:29:39Z</time>
      </trkpt>
      <trkpt lat="40.38835" lon="-1.72098">
        <ele>1530.046</ele>
        <time>2020-02-25T07:29:59Z</time>
      </trkpt>
      <trkpt lat="40.38846" lon="-1.72192">
        <ele>1530.925</ele>
        <time>2020-02-25T07:30:19Z</time>
      </trkpt>
      <trkpt lat="40.38891" lon="-1.7241">
        <ele>1535.581</ele>
        <time>2020-02-25T07:30:39Z</time>
      </trkpt>
      <trkpt lat="40.38888" lon="-1.72442">
        <ele>1537.922</ele>
        <time>2020-02-25T07:30:59Z</time>
      </trkpt>
      <trkpt lat="40.38854" lon="-1.72567">
        <ele>1547.582</ele>
        <time>2020-02-25T07:31:19Z</time>
      </trkpt>
      <trkpt lat="40.38834" lon="-1.72605">
        <ele>1549.792</ele>
        <time>2020-02-25T07:31:39Z</time>
      </trkpt>
      <trkpt lat="40.38795" lon="-1.72659">
        <ele>1550.717</ele>
        <time>2020-02-25T07:31:59Z</time>
      </trkpt>
      <trkpt lat="40.38736" lon="-1.72724">
        <ele>1557.187</ele>
        <time>2020-02-25T07:32:19Z</time>
      </trkpt>
      <trkpt lat="40.38719" lon="-1.72768">
        <ele>1559.915</ele>
        <time>2020-02-25T07:32:39Z</time>
      </trkpt>
      <trkpt lat="40.38719" lon="-1.72827">
        <ele>1564.208</ele>
        <time>2020-02-25T07:32:59Z</time>
      </trkpt>
      <trkpt lat="40.38727" lon="-1.72876">
        <ele>1567.185</ele>
        <time>2020-02-25T07:33:19Z</time>
      </trkpt>
      <trkpt lat="40.38774" lon="-1.73043">
        <ele>1568.218</ele>
        <time>2020-02-25T07:33:39Z</time>
      </trkpt>
      <trkpt lat="40.38774" lon="-1.73082">
        <ele>1566.662</ele>
        <time>2020-02-25T07:33:59Z</time>
      </trkpt>
      <trkpt lat="40.38761" lon="-1.73166">
        <ele>1571.541</ele>
        <time>2020-02-25T07:34:19Z</time>
      </trkpt>
      <trkpt lat="40.38761" lon="-1.73214">
        <ele>1574.727</ele>
        <time>2020-02-25T07:34:39Z</time>
      </trkpt>
      <trkpt lat="40.38774" lon="-1.7328">
        <ele>1581.448</ele>
        <time>2020-02-25T07:34:59Z</time>
      </trkpt>
      <trkpt lat="40.38772" lon="-1.73327">
        <ele>1586.288</ele>
        <time>2020-02-25T07:35:19Z</time>
      </trkpt>
      <trkpt lat="40.38763" lon="-1.73363">
        <ele>1588.848</ele>
        <time>2020-02-25T07:35:39Z</time>
      </trkpt>
      <trkpt lat="40.38743" lon="-1.73385">
        <ele>1590.819</ele>
        <time>2020-02-25T07:35:59Z</time>
      </trkpt>
      <trkpt lat="40.3872" lon="-1.73389">
        <ele>1594.109</ele>
        <time>2020-02-25T07:36:19Z</time>
      </trkpt>
      <trkpt lat="40.38706" lon="-1.7337">
        <ele>1593.719</ele>
        <time>2020-02-25T07:36:39Z</time>
      </trkpt>
      <trkpt lat="40.38682" lon="-1.73348">
        <ele>1594.008</ele>
        <time>2020-02-25T07:36:59Z</time>
      </trkpt>
      <trkpt lat="40.38606" lon="-1.73301">
        <ele>1597.515</ele>
        <time>2020-02-25T07:37:19Z</time>
      </trkpt>
      <trkpt lat="40.3857" lon="-1.73284">
        <ele>1598.258</ele>
        <time>2020-02-25T07:37:39Z</time>
      </trkpt>
      <trkpt lat="40.38537" lon="-1.73294">
        <ele>1600.732</ele>
        <time>2020-02-25T07:37:59Z</time>
      </trkpt>
      <trkpt lat="40.38455" lon="-1.73337">
        <ele>1604.511</ele>
        <time>2020-02-25T07:38:19Z</time>
      </trkpt>
      <trkpt lat="40.38272" lon="-1.73135">
        <ele>1606.247</ele>
        <time>2020-02-25T07:38:39Z</time>
      </trkpt>
      <trkpt lat="40.38217" lon="-1.73045">
        <ele>1609.398</ele>
        <time>2020-02-25T07:38:59Z</time>
      </trkpt>
      <trkpt lat="40.38146" lon="-1.72886">
        <ele>1614.578</ele>
        <time>2020-02-25T07:39:19Z</time>
      </trkpt>
      <trkpt lat="40.3811" lon="-1.72815">
        <ele>1613.268</ele>
        <time>2020-02-25T07:39:39Z</time>
      </trkpt>
      <trkpt lat="40.38018" lon="-1.72683">
        <ele>1612.479</ele>
        <time>2020-02-25T07:39:59Z</time>
      </trkpt>
      <trkpt lat="40.37962" lon="-1.72607">
        <ele>1610.905</ele>
        <time>2020-02-25T07:40:19Z</time>
      </trkpt>
      <trkpt lat="40.37927" lon="-1.72574">
        <ele>1610.225</ele>
        <time>2020-02-25T07:40:39Z</time>
      </trkpt>
      <trkpt lat="40.37806" lon="-1.72515">
        <ele>1613.408</ele>
        <time>2020-02-25T07:40:59Z</time>
      </trkpt>
      <trkpt lat="40.37779" lon="-1.72481">
        <ele>1615.471</ele>
        <time>2020-02-25T07:41:19Z</time>
      </trkpt>
      <trkpt lat="40.37742" lon="-1.72419">
        <ele>1617.284</ele>
        <time>2020-02-25T07:41:39Z</time>
      </trkpt>
      <trkpt lat="40.37721" lon="-1.72356">
        <ele>1619.488</ele>
        <time>2020-02-25T07:41:59Z</time>
      </trkpt>
      <trkpt lat="40.37706" lon="-1.72278">
        <ele>1619.687</ele>
        <time>2020-02-25T07:42:19Z</time>
      </trkpt>
      <trkpt lat="40.37708" lon="-1.72219">
        <ele>1620.513</ele>
        <time>2020-02-25T07:42:39Z</time>
      </trkpt>
      <trkpt lat="40.37697" lon="-1.72174">
        <ele>1620.484</ele>
        <time>2020-02-25T07:42:59Z</time>
      </trkpt>
      <trkpt lat="40.37645" lon="-1.72136">
        <ele>1618.374</ele>
        <time>2020-02-25T07:43:19Z</time>
      </trkpt>
      <trkpt lat="40.37511" lon="-1.72028">
        <ele>1621.354</ele>
        <time>2020-02-25T07:43:39Z</time>
      </trkpt>
      <trkpt lat="40.37406" lon="-1.71916">
        <ele>1623.445</ele>
        <time>2020-02-25T07:43:59Z</time>
      </trkpt>
      <trkpt lat="40.37298" lon="-1.71806">
        <ele>1624.147</ele>
        <time>2020-02-25T07:44:19Z</time>
      </trkpt>
      <trkpt lat="40.37256" lon="-1.7177">
        <ele>1622.011</ele>
        <time>2020-02-25T07:44:39Z</time>
      </trkpt>
      <trkpt lat="40.37191" lon="-1.7174">
        <ele>1625.308</ele>
        <time>2020-02-25T07:44:59Z</time>
      </trkpt>
      <trkpt lat="40.37081" lon="-1.71697">
        <ele>1629.068</ele>
        <time>2020-02-25T07:45:19Z</time>
      </trkpt>
      <trkpt lat="40.37059" lon="-1.71679">
        <ele>1630.781</ele>
        <time>2020-02-25T07:45:39Z</time>
      </trkpt>
      <trkpt lat="40.37036" lon="-1.71646">
        <ele>1632.375</ele>
        <time>2020-02-25T07:45:59Z</time>
      </trkpt>
      <trkpt lat="40.36955" lon="-1.71569">
        <ele>1635.714</ele>
        <time>2020-02-25T07:46:19Z</time>
      </trkpt>
      <trkpt lat="40.36785" lon="-1.71397">
        <ele>1648.74</ele>
        <time>2020-02-25T07:46:39Z</time>
      </trkpt>
      <trkpt lat="40.36749" lon="-1.71374">
        <ele>1652.711</ele>
        <time>2020-02-25T07:46:59Z</time>
      </trkpt>
      <trkpt lat="40.36726" lon="-1.71378">
        <ele>1655.611</ele>
        <time>2020-02-25T07:47:19Z</time>
      </trkpt>
      <trkpt lat="40.36649" lon="-1.71443">
        <ele>1660.221</ele>
        <time>2020-02-25T07:47:39Z</time>
      </trkpt>
      <trkpt lat="40.36615" lon="-1.71462">
        <ele>1661.259</ele>
        <time>2020-02-25T07:47:59Z</time>
      </trkpt>
      <trkpt lat="40.3656" lon="-1.71482">
        <ele>1662.203</ele>
        <time>2020-02-25T07:48:19Z</time>
      </trkpt>
      <trkpt lat="40.36519" lon="-1.71481">
        <ele>1662.623</ele>
        <time>2020-02-25T07:48:39Z</time>
      </trkpt>
      <trkpt lat="40.3649" lon="-1.71455">
        <ele>1663.308</ele>
        <time>2020-02-25T07:48:59Z</time>
      </trkpt>
      <trkpt lat="40.36454" lon="-1.7141">
        <ele>1663.319</ele>
        <time>2020-02-25T07:49:19Z</time>
      </trkpt>
      <trkpt lat="40.36404" lon="-1.71375">
        <ele>1663.062</ele>
        <time>2020-02-25T07:49:39Z</time>
      </trkpt>
      <trkpt lat="40.36351" lon="-1.71363">
        <ele>1661.936</ele>
        <time>2020-02-25T07:49:59Z</time>
      </trkpt>
      <trkpt lat="40.363" lon="-1.71373">
        <ele>1659.535</ele>
        <time>2020-02-25T07:50:19Z</time>
      </trkpt>
      <trkpt lat="40.36255" lon="-1.71365">
        <ele>1658.771</ele>
        <time>2020-02-25T07:50:39Z</time>
      </trkpt>
      <trkpt lat="40.36208" lon="-1.71354">
        <ele>1657.092</ele>
        <time>2020-02-25T07:50:59Z</time>
      </trkpt>
      <trkpt lat="40.36146" lon="-1.71333">
        <ele>1653.892</ele>
        <time>2020-02-25T07:51:19Z</time>
      </trkpt>
      <trkpt lat="40.36095" lon="-1.71319">
        <ele>1653.472</ele>
        <time>2020-02-25T07:51:39Z</time>
      </trkpt>
      <trkpt lat="40.35966" lon="-1.71298">
        <ele>1654.692</ele>
        <time>2020-02-25T07:51:59Z</time>
      </trkpt>
      <trkpt lat="40.35924" lon="-1.71272">
        <ele>1653.673</ele>
        <time>2020-02-25T07:52:19Z</time>
      </trkpt>
      <trkpt lat="40.35862" lon="-1.71214">
        <ele>1651.92</ele>
        <time>2020-02-25T07:52:39Z</time>
      </trkpt>
      <trkpt lat="40.35786" lon="-1.71112">
        <ele>1648.908</ele>
        <time>2020-02-25T07:52:59Z</time>
      </trkpt>
      <trkpt lat="40.35749" lon="-1.71019">
        <ele>1646.593</ele>
        <time>2020-02-25T07:53:19Z</time>
      </trkpt>
      <trkpt lat="40.35721" lon="-1.70936">
        <ele>1644.626</ele>
        <time>2020-02-25T07:53:39Z</time>
      </trkpt>
      <trkpt lat="40.35694" lon="-1.70875">
        <ele>1641.16</ele>
        <time>2020-02-25T07:53:59Z</time>
      </trkpt>
      <trkpt lat="40.35667" lon="-1.70858">
        <ele>1636.919</ele>
        <time>2020-02-25T07:54:19Z</time>
      </trkpt>
      <trkpt lat="40.35618" lon="-1.70854">
        <ele>1634.795</ele>
        <time>2020-02-25T07:54:39Z</time>
      </trkpt>
      <trkpt lat="40.35549" lon="-1.70827">
        <ele>1630.816</ele>
        <time>2020-02-25T07:54:59Z</time>
      </trkpt>
      <trkpt lat="40.35482" lon="-1.70789">
        <ele>1627.126</ele>
        <time>2020-02-25T07:55:19Z</time>
      </trkpt>
      <trkpt lat="40.3533" lon="-1.70743">
        <ele>1629.356</ele>
        <time>2020-02-25T07:55:39Z</time>
      </trkpt>
      <trkpt lat="40.35271" lon="-1.70728">
        <ele>1626.651</ele>
        <time>2020-02-25T07:55:59Z</time>
      </trkpt>
      <trkpt lat="40.35207" lon="-1.70683">
        <ele>1625.701</ele>
        <time>2020-02-25T07:56:19Z</time>
      </trkpt>
      <trkpt lat="40.35147" lon="-1.70634">
        <ele>1621.511</ele>
        <time>2020-02-25T07:56:39Z</time>
      </trkpt>
      <trkpt lat="40.35041" lon="-1.70683">
        <ele>1624.608</ele>
        <time>2020-02-25T07:56:59Z</time>
      </trkpt>
      <trkpt lat="40.34998" lon="-1.70688">
        <ele>1625.759</ele>
        <time>2020-02-25T07:57:19Z</time>
      </trkpt>
      <trkpt lat="40.34905" lon="-1.70688">
        <ele>1622.832</ele>
        <time>2020-02-25T07:57:39Z</time>
      </trkpt>
      <trkpt lat="40.34906" lon="-1.706837">
        <ele>1622.386</ele>
        <time>2020-02-25T07:57:59Z</time>
      </trkpt>
      <trkpt lat="40.34876" lon="-1.70682">
        <ele>1623.475</ele>
        <time>2020-02-25T07:58:19Z</time>
      </trkpt>
      <trkpt lat="40.34851" lon="-1.70682">
        <ele>1624.581</ele>
        <time>2020-02-25T07:58:39Z</time>
      </trkpt>
      <trkpt lat="40.34828" lon="-1.70684">
        <ele>1625.512</ele>
        <time>2020-02-25T07:58:59Z</time>
      </trkpt>
      <trkpt lat="40.34803" lon="-1.70684">
        <ele>1625.872</ele>
        <time>2020-02-25T07:59:19Z</time>
      </trkpt>
      <trkpt lat="40.34765" lon="-1.70685">
        <ele>1626.312</ele>
        <time>2020-02-25T07:59:39Z</time>
      </trkpt>
      <trkpt lat="40.34716" lon="-1.70687">
        <ele>1627.774</ele>
        <time>2020-02-25T07:59:59Z</time>
      </trkpt>
      <trkpt lat="40.34698" lon="-1.70687">
        <ele>1628.256</ele>
        <time>2020-02-25T08:00:19Z</time>
      </trkpt>
      <trkpt lat="40.34681" lon="-1.70689">
        <ele>1629.021</ele>
        <time>2020-02-25T08:00:39Z</time>
      </trkpt>
      <trkpt lat="40.34672" lon="-1.7069">
        <ele>1629.508</ele>
        <time>2020-02-25T08:00:59Z</time>
      </trkpt>
      <trkpt lat="40.34653" lon="-1.70694">
        <ele>1631.381</ele>
        <time>2020-02-25T08:01:19Z</time>
      </trkpt>
      <trkpt lat="40.34639" lon="-1.70699">
        <ele>1632.914</ele>
        <time>2020-02-25T08:01:39Z</time>
      </trkpt>
      <trkpt lat="40.34633" lon="-1.70704">
        <ele>1634.028</ele>
        <time>2020-02-25T08:01:59Z</time>
      </trkpt>
      <trkpt lat="40.34623" lon="-1.70711">
        <ele>1635.467</ele>
        <time>2020-02-25T08:02:19Z</time>
      </trkpt>
      <trkpt lat="40.34579" lon="-1.70733">
        <ele>1639.883</ele>
        <time>2020-02-25T08:02:39Z</time>
      </trkpt>
      <trkpt lat="40.34566" lon="-1.7074">
        <ele>1640.994</ele>
        <time>2020-02-25T08:02:59Z</time>
      </trkpt>
      <trkpt lat="40.34559" lon="-1.70745">
        <ele>1641.544</ele>
        <time>2020-02-25T08:03:19Z</time>
      </trkpt>
      <trkpt lat="40.34549" lon="-1.70749">
        <ele>1642.274</ele>
        <time>2020-02-25T08:03:39Z</time>
      </trkpt>
      <trkpt lat="40.34535" lon="-1.70754">
        <ele>1643.817</ele>
        <time>2020-02-25T08:03:59Z</time>
      </trkpt>
      <trkpt lat="40.34518" lon="-1.70761">
        <ele>1646.287</ele>
        <time>2020-02-25T08:04:19Z</time>
      </trkpt>
      <trkpt lat="40.34506" lon="-1.70764">
        <ele>1647.215</ele>
        <time>2020-02-25T08:04:39Z</time>
      </trkpt>
      <trkpt lat="40.34493" lon="-1.70767">
        <ele>1648.408</ele>
        <time>2020-02-25T08:04:59Z</time>
      </trkpt>
      <trkpt lat="40.34484" lon="-1.70768">
        <ele>1649.175</ele>
        <time>2020-02-25T08:05:19Z</time>
      </trkpt>
      <trkpt lat="40.34478" lon="-1.70768">
        <ele>1649.428</ele>
        <time>2020-02-25T08:05:39Z</time>
      </trkpt>
      <trkpt lat="40.34472" lon="-1.70768">
        <ele>1649.782</ele>
        <time>2020-02-25T08:05:59Z</time>
      </trkpt>
      <trkpt lat="40.34465" lon="-1.70767">
        <ele>1649.811</ele>
        <time>2020-02-25T08:06:19Z</time>
      </trkpt>
      <trkpt lat="40.34458" lon="-1.70765">
        <ele>1649.847</ele>
        <time>2020-02-25T08:06:39Z</time>
      </trkpt>
      <trkpt lat="40.3444" lon="-1.70759">
        <ele>1649.878</ele>
        <time>2020-02-25T08:06:59Z</time>
      </trkpt>
      <trkpt lat="40.34409" lon="-1.70742">
        <ele>1649.248</ele>
        <time>2020-02-25T08:07:19Z</time>
      </trkpt>
      <trkpt lat="40.3438" lon="-1.70723">
        <ele>1646.878</ele>
        <time>2020-02-25T08:07:39Z</time>
      </trkpt>
      <trkpt lat="40.34335" lon="-1.70697">
        <ele>1643.555</ele>
        <time>2020-02-25T08:07:59Z</time>
      </trkpt>
      <trkpt lat="40.34271" lon="-1.70657">
        <ele>1644.807</ele>
        <time>2020-02-25T08:08:19Z</time>
      </trkpt>
      <trkpt lat="40.34222" lon="-1.70625">
        <ele>1649.517</ele>
        <time>2020-02-25T08:08:39Z</time>
      </trkpt>
      <trkpt lat="40.34148" lon="-1.7058">
        <ele>1651.608</ele>
        <time>2020-02-25T08:08:59Z</time>
      </trkpt>
      <trkpt lat="40.34065" lon="-1.70528">
        <ele>1650.129</ele>
        <time>2020-02-25T08:09:19Z</time>
      </trkpt>
      <trkpt lat="40.34049" lon="-1.70519">
        <ele>1649.352</ele>
        <time>2020-02-25T08:09:39Z</time>
      </trkpt>
      <trkpt lat="40.34031" lon="-1.7051">
        <ele>1648.436</ele>
        <time>2020-02-25T08:09:59Z</time>
      </trkpt>
      <trkpt lat="40.34022" lon="-1.70505">
        <ele>1647.835</ele>
        <time>2020-02-25T08:10:19Z</time>
      </trkpt>
      <trkpt lat="40.34014" lon="-1.705">
        <ele>1647.291</ele>
        <time>2020-02-25T08:10:39Z</time>
      </trkpt>
      <trkpt lat="40.34009" lon="-1.70496">
        <ele>1646.972</ele>
        <time>2020-02-25T08:10:59Z</time>
      </trkpt>
      <trkpt lat="40.34005" lon="-1.70491">
        <ele>1646.752</ele>
        <time>2020-02-25T08:11:19Z</time>
      </trkpt>
      <trkpt lat="40.34" lon="-1.70485">
        <ele>1646.312</ele>
        <time>2020-02-25T08:11:39Z</time>
      </trkpt>
      <trkpt lat="40.33957" lon="-1.70422">
        <ele>1645.591</ele>
        <time>2020-02-25T08:11:59Z</time>
      </trkpt>
      <trkpt lat="40.33923" lon="-1.70366">
        <ele>1643.881</ele>
        <time>2020-02-25T08:12:19Z</time>
      </trkpt>
      <trkpt lat="40.33871" lon="-1.70272">
        <ele>1642.019</ele>
        <time>2020-02-25T08:12:39Z</time>
      </trkpt>
      <trkpt lat="40.33835" lon="-1.70213">
        <ele>1642.108</ele>
        <time>2020-02-25T08:12:59Z</time>
      </trkpt>
      <trkpt lat="40.33785" lon="-1.70131">
        <ele>1640.383</ele>
        <time>2020-02-25T08:13:19Z</time>
      </trkpt>
      <trkpt lat="40.33717" lon="-1.70018">
        <ele>1640.296</ele>
        <time>2020-02-25T08:13:39Z</time>
      </trkpt>
      <trkpt lat="40.3371" lon="-1.70006">
        <ele>1640.12</ele>
        <time>2020-02-25T08:13:59Z</time>
      </trkpt>
      <trkpt lat="40.33705" lon="-1.69996">
        <ele>1640.189</ele>
        <time>2020-02-25T08:14:19Z</time>
      </trkpt>
      <trkpt lat="40.33702" lon="-1.6999">
        <ele>1640.145</ele>
        <time>2020-02-25T08:14:39Z</time>
      </trkpt>
      <trkpt lat="40.33699" lon="-1.69987">
        <ele>1640.296</ele>
        <time>2020-02-25T08:14:59Z</time>
      </trkpt>
      <trkpt lat="40.33698" lon="-1.69986">
        <ele>1640.276</ele>
        <time>2020-02-25T08:15:19Z</time>
      </trkpt>
      <trkpt lat="40.33661" lon="-1.69946">
        <ele>1640.196</ele>
        <time>2020-02-25T08:15:39Z</time>
      </trkpt>
      <trkpt lat="40.33629" lon="-1.69907">
        <ele>1637.731</ele>
        <time>2020-02-25T08:15:59Z</time>
      </trkpt>
      <trkpt lat="40.33602" lon="-1.69876">
        <ele>1634.861</ele>
        <time>2020-02-25T08:16:19Z</time>
      </trkpt>
      <trkpt lat="40.33588" lon="-1.69859">
        <ele>1633.407</ele>
        <time>2020-02-25T08:16:39Z</time>
      </trkpt>
      <trkpt lat="40.33583" lon="-1.69854">
        <ele>1633.008</ele>
        <time>2020-02-25T08:16:59Z</time>
      </trkpt>
      <trkpt lat="40.3358" lon="-1.69852">
        <ele>1632.957</ele>
        <time>2020-02-25T08:17:19Z</time>
      </trkpt>
      <trkpt lat="40.33575" lon="-1.69849">
        <ele>1632.78</ele>
        <time>2020-02-25T08:17:39Z</time>
      </trkpt>
      <trkpt lat="40.33571" lon="-1.69846">
        <ele>1632.564</ele>
        <time>2020-02-25T08:17:59Z</time>
      </trkpt>
      <trkpt lat="40.33567" lon="-1.69843">
        <ele>1632.333</ele>
        <time>2020-02-25T08:18:19Z</time>
      </trkpt>
      <trkpt lat="40.33563" lon="-1.69842">
        <ele>1632.229</ele>
        <time>2020-02-25T08:18:39Z</time>
      </trkpt>
      <trkpt lat="40.33556" lon="-1.69839">
        <ele>1631.94</ele>
        <time>2020-02-25T08:18:59Z</time>
      </trkpt>
      <trkpt lat="40.33549" lon="-1.69838">
        <ele>1631.83</ele>
        <time>2020-02-25T08:19:19Z</time>
      </trkpt>
      <trkpt lat="40.33467" lon="-1.69832">
        <ele>1629.71</ele>
        <time>2020-02-25T08:19:39Z</time>
      </trkpt>
      <trkpt lat="40.33411" lon="-1.69826">
        <ele>1627.774</ele>
        <time>2020-02-25T08:19:59Z</time>
      </trkpt>
      <trkpt lat="40.33341" lon="-1.6982">
        <ele>1626.856</ele>
        <time>2020-02-25T08:20:19Z</time>
      </trkpt>
      <trkpt lat="40.33271" lon="-1.69813">
        <ele>1626.321</ele>
        <time>2020-02-25T08:20:39Z</time>
      </trkpt>
      <trkpt lat="40.33195" lon="-1.69804">
        <ele>1626.208</ele>
        <time>2020-02-25T08:20:59Z</time>
      </trkpt>
      <trkpt lat="40.33174" lon="-1.69801">
        <ele>1626.221</ele>
        <time>2020-02-25T08:21:19Z</time>
      </trkpt>
      <trkpt lat="40.3317" lon="-1.69802">
        <ele>1626.294</ele>
        <time>2020-02-25T08:21:39Z</time>
      </trkpt>
      <trkpt lat="40.33165" lon="-1.69803">
        <ele>1626.278</ele>
        <time>2020-02-25T08:21:59Z</time>
      </trkpt>
      <trkpt lat="40.33159" lon="-1.69804">
        <ele>1625.877</ele>
        <time>2020-02-25T08:22:19Z</time>
      </trkpt>
      <trkpt lat="40.3315" lon="-1.69807">
        <ele>1625.323</ele>
        <time>2020-02-25T08:22:39Z</time>
      </trkpt>
      <trkpt lat="40.33142" lon="-1.69811">
        <ele>1624.874</ele>
        <time>2020-02-25T08:22:59Z</time>
      </trkpt>
      <trkpt lat="40.33133" lon="-1.69816">
        <ele>1624.354</ele>
        <time>2020-02-25T08:23:19Z</time>
      </trkpt>
      <trkpt lat="40.33125" lon="-1.6982">
        <ele>1623.844</ele>
        <time>2020-02-25T08:23:39Z</time>
      </trkpt>
      <trkpt lat="40.3311" lon="-1.69825">
        <ele>1622.992</ele>
        <time>2020-02-25T08:23:59Z</time>
      </trkpt>
      <trkpt lat="40.33103" lon="-1.69828">
        <ele>1622.473</ele>
        <time>2020-02-25T08:24:19Z</time>
      </trkpt>
      <trkpt lat="40.33097" lon="-1.69831">
        <ele>1622.02</ele>
        <time>2020-02-25T08:24:39Z</time>
      </trkpt>
      <trkpt lat="40.3309" lon="-1.69834">
        <ele>1621.508</ele>
        <time>2020-02-25T08:24:59Z</time>
      </trkpt>
      <trkpt lat="40.33083" lon="-1.69835">
        <ele>1621.133</ele>
        <time>2020-02-25T08:25:19Z</time>
      </trkpt>
      <trkpt lat="40.33073" lon="-1.69836">
        <ele>1621.596</ele>
        <time>2020-02-25T08:25:39Z</time>
      </trkpt>
      <trkpt lat="40.33065" lon="-1.69839">
        <ele>1622.08</ele>
        <time>2020-02-25T08:25:59Z</time>
      </trkpt>
      <trkpt lat="40.33061" lon="-1.6984">
        <ele>1622.299</ele>
        <time>2020-02-25T08:26:19Z</time>
      </trkpt>
      <trkpt lat="40.33056" lon="-1.6984">
        <ele>1622.495</ele>
        <time>2020-02-25T08:26:39Z</time>
      </trkpt>
      <trkpt lat="40.33052" lon="-1.6984">
        <ele>1622.586</ele>
        <time>2020-02-25T08:26:59Z</time>
      </trkpt>
      <trkpt lat="40.33048" lon="-1.69839">
        <ele>1622.636</ele>
        <time>2020-02-25T08:27:19Z</time>
      </trkpt>
      <trkpt lat="40.33045" lon="-1.69837">
        <ele>1622.676</ele>
        <time>2020-02-25T08:27:39Z</time>
      </trkpt>
      <trkpt lat="40.33041" lon="-1.69835">
        <ele>1622.682</ele>
        <time>2020-02-25T08:27:59Z</time>
      </trkpt>
      <trkpt lat="40.33038" lon="-1.69832">
        <ele>1622.643</ele>
        <time>2020-02-25T08:28:19Z</time>
      </trkpt>
      <trkpt lat="40.33024" lon="-1.69816">
        <ele>1622.117</ele>
        <time>2020-02-25T08:28:39Z</time>
      </trkpt>
      <trkpt lat="40.32997" lon="-1.69772">
        <ele>1619.008</ele>
        <time>2020-02-25T08:28:59Z</time>
      </trkpt>
      <trkpt lat="40.3297" lon="-1.69723">
        <ele>1616.292</ele>
        <time>2020-02-25T08:29:19Z</time>
      </trkpt>
      <trkpt lat="40.32928" lon="-1.69643">
        <ele>1608.335</ele>
        <time>2020-02-25T08:29:39Z</time>
      </trkpt>
      <trkpt lat="40.32907" lon="-1.69604">
        <ele>1603.679</ele>
        <time>2020-02-25T08:29:59Z</time>
      </trkpt>
      <trkpt lat="40.32879" lon="-1.69554">
        <ele>1600.858</ele>
        <time>2020-02-25T08:30:19Z</time>
      </trkpt>
      <trkpt lat="40.32864" lon="-1.69523">
        <ele>1599.364</ele>
        <time>2020-02-25T08:30:39Z</time>
      </trkpt>
      <trkpt lat="40.32851" lon="-1.69486">
        <ele>1596.815</ele>
        <time>2020-02-25T08:30:59Z</time>
      </trkpt>
      <trkpt lat="40.32838" lon="-1.69439">
        <ele>1592.515</ele>
        <time>2020-02-25T08:31:19Z</time>
      </trkpt>
      <trkpt lat="40.32827" lon="-1.694">
        <ele>1589.785</ele>
        <time>2020-02-25T08:31:39Z</time>
      </trkpt>
      <trkpt lat="40.32812" lon="-1.69341">
        <ele>1586.633</ele>
        <time>2020-02-25T08:31:59Z</time>
      </trkpt>
      <trkpt lat="40.32806" lon="-1.69317">
        <ele>1585.023</ele>
        <time>2020-02-25T08:32:19Z</time>
      </trkpt>
      <trkpt lat="40.32802" lon="-1.69305">
        <ele>1584.315</ele>
        <time>2020-02-25T08:32:39Z</time>
      </trkpt>
      <trkpt lat="40.328" lon="-1.693">
        <ele>1583.908</ele>
        <time>2020-02-25T08:32:59Z</time>
      </trkpt>
      <trkpt lat="40.32797" lon="-1.69294">
        <ele>1583.597</ele>
        <time>2020-02-25T08:33:19Z</time>
      </trkpt>
      <trkpt lat="40.32793" lon="-1.69292">
        <ele>1583.32</ele>
        <time>2020-02-25T08:33:39Z</time>
      </trkpt>
      <trkpt lat="40.32787" lon="-1.6929">
        <ele>1583.144</ele>
        <time>2020-02-25T08:33:59Z</time>
      </trkpt>
      <trkpt lat="40.32781" lon="-1.69289">
        <ele>1582.983</ele>
        <time>2020-02-25T08:34:19Z</time>
      </trkpt>
      <trkpt lat="40.32777" lon="-1.69289">
        <ele>1582.819</ele>
        <time>2020-02-25T08:34:39Z</time>
      </trkpt>
      <trkpt lat="40.32772" lon="-1.6929">
        <ele>1582.83</ele>
        <time>2020-02-25T08:34:59Z</time>
      </trkpt>
      <trkpt lat="40.32751" lon="-1.69309">
        <ele>1584.07</ele>
        <time>2020-02-25T08:35:19Z</time>
      </trkpt>
      <trkpt lat="40.32703" lon="-1.6935">
        <ele>1587.68</ele>
        <time>2020-02-25T08:35:39Z</time>
      </trkpt>
      <trkpt lat="40.3268" lon="-1.69366">
        <ele>1588.183</ele>
        <time>2020-02-25T08:35:59Z</time>
      </trkpt>
      <trkpt lat="40.32662" lon="-1.69379">
        <ele>1588.025</ele>
        <time>2020-02-25T08:36:19Z</time>
      </trkpt>
      <trkpt lat="40.32628" lon="-1.69397">
        <ele>1586.217</ele>
        <time>2020-02-25T08:36:39Z</time>
      </trkpt>
      <trkpt lat="40.3259" lon="-1.69415">
        <ele>1581.908</ele>
        <time>2020-02-25T08:36:59Z</time>
      </trkpt>
      <trkpt lat="40.32539" lon="-1.69434">
        <ele>1581.462</ele>
        <time>2020-02-25T08:37:19Z</time>
      </trkpt>
      <trkpt lat="40.32506" lon="-1.69448">
        <ele>1580.725</ele>
        <time>2020-02-25T08:37:39Z</time>
      </trkpt>
      <trkpt lat="40.32473" lon="-1.69461">
        <ele>1580.949</ele>
        <time>2020-02-25T08:37:59Z</time>
      </trkpt>
      <trkpt lat="40.32436" lon="-1.69481">
        <ele>1580.418</ele>
        <time>2020-02-25T08:38:19Z</time>
      </trkpt>
      <trkpt lat="40.32405" lon="-1.695">
        <ele>1579.644</ele>
        <time>2020-02-25T08:38:39Z</time>
      </trkpt>
      <trkpt lat="40.32382" lon="-1.6951">
        <ele>1581.575</ele>
        <time>2020-02-25T08:38:59Z</time>
      </trkpt>
      <trkpt lat="40.32352" lon="-1.69521">
        <ele>1583.715</ele>
        <time>2020-02-25T08:39:19Z</time>
      </trkpt>
      <trkpt lat="40.32335" lon="-1.69526">
        <ele>1584.835</ele>
        <time>2020-02-25T08:39:39Z</time>
      </trkpt>
      <trkpt lat="40.32322" lon="-1.69529">
        <ele>1584.685</ele>
        <time>2020-02-25T08:39:59Z</time>
      </trkpt>
      <trkpt lat="40.32312" lon="-1.69531">
        <ele>1584.389</ele>
        <time>2020-02-25T08:40:19Z</time>
      </trkpt>
      <trkpt lat="40.32305" lon="-1.69533">
        <ele>1584.217</ele>
        <time>2020-02-25T08:40:39Z</time>
      </trkpt>
      <trkpt lat="40.32297" lon="-1.69534">
        <ele>1583.908</ele>
        <time>2020-02-25T08:40:59Z</time>
      </trkpt>
      <trkpt lat="40.32289" lon="-1.69534">
        <ele>1583.582</ele>
        <time>2020-02-25T08:41:19Z</time>
      </trkpt>
      <trkpt lat="40.32283" lon="-1.69533">
        <ele>1583.295</ele>
        <time>2020-02-25T08:41:39Z</time>
      </trkpt>
      <trkpt lat="40.32278" lon="-1.69532">
        <ele>1583.049</ele>
        <time>2020-02-25T08:41:59Z</time>
      </trkpt>
      <trkpt lat="40.32274" lon="-1.69531">
        <ele>1582.768</ele>
        <time>2020-02-25T08:42:19Z</time>
      </trkpt>
      <trkpt lat="40.32269" lon="-1.69529">
        <ele>1582.584</ele>
        <time>2020-02-25T08:42:39Z</time>
      </trkpt>
      <trkpt lat="40.32266" lon="-1.69529">
        <ele>1582.345</ele>
        <time>2020-02-25T08:42:59Z</time>
      </trkpt>
      <trkpt lat="40.32262" lon="-1.6953">
        <ele>1582.285</ele>
        <time>2020-02-25T08:43:19Z</time>
      </trkpt>
      <trkpt lat="40.32258" lon="-1.69533">
        <ele>1582.125</ele>
        <time>2020-02-25T08:43:39Z</time>
      </trkpt>
      <trkpt lat="40.32255" lon="-1.69537">
        <ele>1582.113</ele>
        <time>2020-02-25T08:43:59Z</time>
      </trkpt>
      <trkpt lat="40.32253" lon="-1.69541">
        <ele>1582.143</ele>
        <time>2020-02-25T08:44:19Z</time>
      </trkpt>
      <trkpt lat="40.32251" lon="-1.69545">
        <ele>1582.107</ele>
        <time>2020-02-25T08:44:39Z</time>
      </trkpt>
      <trkpt lat="40.32249" lon="-1.6955">
        <ele>1582.308</ele>
        <time>2020-02-25T08:44:59Z</time>
      </trkpt>
      <trkpt lat="40.32246" lon="-1.69556">
        <ele>1582.875</ele>
        <time>2020-02-25T08:45:19Z</time>
      </trkpt>
      <trkpt lat="40.32242" lon="-1.69573">
        <ele>1583.678</ele>
        <time>2020-02-25T08:45:39Z</time>
      </trkpt>
      <trkpt lat="40.32238" lon="-1.69593">
        <ele>1584.332</ele>
        <time>2020-02-25T08:45:59Z</time>
      </trkpt>
      <trkpt lat="40.32233" lon="-1.69608">
        <ele>1584.771</ele>
        <time>2020-02-25T08:46:19Z</time>
      </trkpt>
      <trkpt lat="40.32228" lon="-1.6962">
        <ele>1584.757</ele>
        <time>2020-02-25T08:46:39Z</time>
      </trkpt>
      <trkpt lat="40.32222" lon="-1.69636">
        <ele>1584.238</ele>
        <time>2020-02-25T08:46:59Z</time>
      </trkpt>
      <trkpt lat="40.32211" lon="-1.69655">
        <ele>1582.558</ele>
        <time>2020-02-25T08:47:19Z</time>
      </trkpt>
      <trkpt lat="40.32204" lon="-1.69666">
        <ele>1581.098</ele>
        <time>2020-02-25T08:47:39Z</time>
      </trkpt>
      <trkpt lat="40.32195" lon="-1.69678">
        <ele>1580.394</ele>
        <time>2020-02-25T08:47:59Z</time>
      </trkpt>
      <trkpt lat="40.32185" lon="-1.6969">
        <ele>1579.457</ele>
        <time>2020-02-25T08:48:19Z</time>
      </trkpt>
      <trkpt lat="40.3217" lon="-1.69707">
        <ele>1577.922</ele>
        <time>2020-02-25T08:48:39Z</time>
      </trkpt>
      <trkpt lat="40.32157" lon="-1.69717">
        <ele>1577.308</ele>
        <time>2020-02-25T08:48:59Z</time>
      </trkpt>
      <trkpt lat="40.32146" lon="-1.69722">
        <ele>1576.793</ele>
        <time>2020-02-25T08:49:19Z</time>
      </trkpt>
      <trkpt lat="40.32135" lon="-1.69726">
        <ele>1576.026</ele>
        <time>2020-02-25T08:49:39Z</time>
      </trkpt>
      <trkpt lat="40.32119" lon="-1.69732">
        <ele>1574.85</ele>
        <time>2020-02-25T08:49:59Z</time>
      </trkpt>
      <trkpt lat="40.32109" lon="-1.69737">
        <ele>1573.949</ele>
        <time>2020-02-25T08:50:19Z</time>
      </trkpt>
      <trkpt lat="40.32098" lon="-1.69739">
        <ele>1572.915</ele>
        <time>2020-02-25T08:50:39Z</time>
      </trkpt>
      <trkpt lat="40.32098" lon="-1.6974">
        <ele>1572.856</ele>
        <time>2020-02-25T08:50:59Z</time>
      </trkpt>
      <trkpt lat="40.32089" lon="-1.69741">
        <ele>1572.096</ele>
        <time>2020-02-25T08:51:19Z</time>
      </trkpt>
      <trkpt lat="40.32044" lon="-1.69753">
        <ele>1572.186</ele>
        <time>2020-02-25T08:51:39Z</time>
      </trkpt>
      <trkpt lat="40.32013" lon="-1.69761">
        <ele>1573.175</ele>
        <time>2020-02-25T08:51:59Z</time>
      </trkpt>
      <trkpt lat="40.348720" lon="-1.746400">
        <ele>1551.945</ele>
      </trkpt>
      <trkpt lat="40.348740" lon="-1.746510">
        <ele>1552.379</ele>
      </trkpt>
      <trkpt lat="40.348740" lon="-1.746640">
        <ele>1553.021</ele>
      </trkpt>
      <trkpt lat="40.348740" lon="-1.746740">
        <ele>1553.250</ele>
      </trkpt>
      <trkpt lat="40.348730" lon="-1.746810">
        <ele>1553.591</ele>
      </trkpt>
      <trkpt lat="40.348720" lon="-1.746810">
        <ele>1553.608</ele>
      </trkpt>
      <trkpt lat="40.348690" lon="-1.746980">
        <ele>1554.117</ele>
      </trkpt>
      <trkpt lat="40.348590" lon="-1.747240">
        <ele>1555.061</ele>
      </trkpt>
      <trkpt lat="40.348460" lon="-1.747410">
        <ele>1555.681</ele>
      </trkpt>
      <trkpt lat="40.348310" lon="-1.747580">
        <ele>1556.284</ele>
      </trkpt>
      <trkpt lat="40.348110" lon="-1.747680">
        <ele>1557.898</ele>
      </trkpt>
      <trkpt lat="40.347790" lon="-1.747720">
        <ele>1560.486</ele>
      </trkpt>
      <trkpt lat="40.347400" lon="-1.747680">
        <ele>1563.766</ele>
      </trkpt>
      <trkpt lat="40.347100" lon="-1.747680">
        <ele>1567.020</ele>
      </trkpt>
      <trkpt lat="40.346780" lon="-1.747740">
        <ele>1570.642</ele>
      </trkpt>
      <trkpt lat="40.346450" lon="-1.747880">
        <ele>1572.391</ele>
      </trkpt>
      <trkpt lat="40.346210" lon="-1.748050">
        <ele>1572.462</ele>
      </trkpt>
      <trkpt lat="40.345920" lon="-1.748300">
        <ele>1572.208</ele>
      </trkpt>
      <trkpt lat="40.345450" lon="-1.748880">
        <ele>1575.827</ele>
      </trkpt>
      <trkpt lat="40.345050" lon="-1.749460">
        <ele>1580.207</ele>
      </trkpt>
      <trkpt lat="40.344830" lon="-1.749850">
        <ele>1587.899</ele>
      </trkpt>
      <trkpt lat="40.344670" lon="-1.750260">
        <ele>1594.746</ele>
      </trkpt>
      <trkpt lat="40.344490" lon="-1.750890">
        <ele>1601.580</ele>
      </trkpt>
      <trkpt lat="40.344340" lon="-1.751490">
        <ele>1603.278</ele>
      </trkpt>
      <trkpt lat="40.344230" lon="-1.751750">
        <ele>1603.558</ele>
      </trkpt>
      <trkpt lat="40.344000" lon="-1.752130">
        <ele>1606.092</ele>
      </trkpt>
      <trkpt lat="40.343640" lon="-1.752480">
        <ele>1606.244</ele>
      </trkpt>
      <trkpt lat="40.342780" lon="-1.753170">
        <ele>1606.963</ele>
      </trkpt>
      <trkpt lat="40.342270" lon="-1.753500">
        <ele>1609.124</ele>
      </trkpt>
      <trkpt lat="40.341550" lon="-1.753720">
        <ele>1613.708</ele>
      </trkpt>
      <trkpt lat="40.341210" lon="-1.753650">
        <ele>1615.417</ele>
      </trkpt>
      <trkpt lat="40.340720" lon="-1.753370">
        <ele>1617.598</ele>
      </trkpt>
      <trkpt lat="40.340200" lon="-1.753240">
        <ele>1621.918</ele>
      </trkpt>
      <trkpt lat="40.339220" lon="-1.753250">
        <ele>1623.330</ele>
      </trkpt>
      <trkpt lat="40.338700" lon="-1.753280">
        <ele>1622.164</ele>
      </trkpt>
      <trkpt lat="40.338520" lon="-1.753420">
        <ele>1621.192</ele>
      </trkpt>
      <trkpt lat="40.338390" lon="-1.753710">
        <ele>1620.342</ele>
      </trkpt>
      <trkpt lat="40.338370" lon="-1.753990">
        <ele>1619.686</ele>
      </trkpt>
      <trkpt lat="40.338660" lon="-1.755250">
        <ele>1615.988</ele>
      </trkpt>
      <trkpt lat="40.338820" lon="-1.755760">
        <ele>1613.997</ele>
      </trkpt>
      <trkpt lat="40.338910" lon="-1.755910">
        <ele>1613.568</ele>
      </trkpt>
      <trkpt lat="40.339540" lon="-1.756560">
        <ele>1613.508</ele>
      </trkpt>
      <trkpt lat="40.340050" lon="-1.757510">
        <ele>1609.914</ele>
      </trkpt>
      <trkpt lat="40.340850" lon="-1.758900">
        <ele>1611.604</ele>
      </trkpt>
      <trkpt lat="40.340880" lon="-1.759000">
        <ele>1612.053</ele>
      </trkpt>
      <trkpt lat="40.340890" lon="-1.759100">
        <ele>1612.094</ele>
      </trkpt>
      <trkpt lat="40.340880" lon="-1.759180">
        <ele>1611.988</ele>
      </trkpt>
      <trkpt lat="40.340830" lon="-1.759280">
        <ele>1612.876</ele>
      </trkpt>
      <trkpt lat="40.340780" lon="-1.759320">
        <ele>1613.866</ele>
      </trkpt>
      <trkpt lat="40.340700" lon="-1.759340">
        <ele>1614.830</ele>
      </trkpt>
      <trkpt lat="40.340440" lon="-1.759170">
        <ele>1613.452</ele>
      </trkpt>
      <trkpt lat="40.339310" lon="-1.758330">
        <ele>1607.311</ele>
      </trkpt>
      <trkpt lat="40.338660" lon="-1.757770">
        <ele>1609.022</ele>
      </trkpt>
      <trkpt lat="40.338540" lon="-1.757640">
        <ele>1608.008</ele>
      </trkpt>
      <trkpt lat="40.338020" lon="-1.757280">
        <ele>1609.322</ele>
      </trkpt>
      <trkpt lat="40.337160" lon="-1.756730">
        <ele>1610.457</ele>
      </trkpt>
      <trkpt lat="40.337040" lon="-1.756570">
        <ele>1610.294</ele>
      </trkpt>
      <trkpt lat="40.336990" lon="-1.756450">
        <ele>1609.666</ele>
      </trkpt>
      <trkpt lat="40.336860" lon="-1.756300">
        <ele>1609.260</ele>
      </trkpt>
      <trkpt lat="40.336420" lon="-1.756050">
        <ele>1608.788</ele>
      </trkpt>
      <trkpt lat="40.336110" lon="-1.755830">
        <ele>1608.098</ele>
      </trkpt>
      <trkpt lat="40.335720" lon="-1.755630">
        <ele>1608.252</ele>
      </trkpt>
      <trkpt lat="40.335550" lon="-1.755530">
        <ele>1607.824</ele>
      </trkpt>
      <trkpt lat="40.335170" lon="-1.755440">
        <ele>1608.513</ele>
      </trkpt>
      <trkpt lat="40.334800" lon="-1.755260">
        <ele>1608.824</ele>
      </trkpt>
      <trkpt lat="40.334570" lon="-1.755190">
        <ele>1610.308</ele>
      </trkpt>
      <trkpt lat="40.334520" lon="-1.755180">
        <ele>1610.705</ele>
      </trkpt>
      <trkpt lat="40.334450" lon="-1.755210">
        <ele>1611.832</ele>
      </trkpt>
      <trkpt lat="40.334380" lon="-1.755330">
        <ele>1613.712</ele>
      </trkpt>
      <trkpt lat="40.334370" lon="-1.755440">
        <ele>1614.967</ele>
      </trkpt>
      <trkpt lat="40.334380" lon="-1.755560">
        <ele>1616.091</ele>
      </trkpt>
      <trkpt lat="40.334420" lon="-1.755700">
        <ele>1617.149</ele>
      </trkpt>
      <trkpt lat="40.334700" lon="-1.756330">
        <ele>1616.499</ele>
      </trkpt>
      <trkpt lat="40.334790" lon="-1.756630">
        <ele>1615.843</ele>
      </trkpt>
      <trkpt lat="40.334810" lon="-1.756840">
        <ele>1615.935</ele>
      </trkpt>
      <trkpt lat="40.334810" lon="-1.757000">
        <ele>1616.064</ele>
      </trkpt>
      <trkpt lat="40.334740" lon="-1.757740">
        <ele>1616.015</ele>
      </trkpt>
      <trkpt lat="40.334770" lon="-1.757930">
        <ele>1615.908</ele>
      </trkpt>
      <trkpt lat="40.334880" lon="-1.758410">
        <ele>1616.111</ele>
      </trkpt>
      <trkpt lat="40.334980" lon="-1.758670">
        <ele>1616.883</ele>
      </trkpt>
      <trkpt lat="40.335070" lon="-1.758880">
        <ele>1617.623</ele>
      </trkpt>
      <trkpt lat="40.335470" lon="-1.759490">
        <ele>1619.639</ele>
      </trkpt>
      <trkpt lat="40.335590" lon="-1.759720">
        <ele>1619.593</ele>
      </trkpt>
      <trkpt lat="40.336400" lon="-1.761520">
        <ele>1620.461</ele>
      </trkpt>
      <trkpt lat="40.336540" lon="-1.761900">
        <ele>1621.521</ele>
      </trkpt>
      <trkpt lat="40.336620" lon="-1.762270">
        <ele>1623.025</ele>
      </trkpt>
      <trkpt lat="40.336630" lon="-1.762470">
        <ele>1623.527</ele>
      </trkpt>
      <trkpt lat="40.336620" lon="-1.762870">
        <ele>1624.876</ele>
      </trkpt>
      <trkpt lat="40.336550" lon="-1.763490">
        <ele>1624.717</ele>
      </trkpt>
      <trkpt lat="40.336590" lon="-1.763610">
        <ele>1624.208</ele>
      </trkpt>
      <trkpt lat="40.336770" lon="-1.763770">
        <ele>1624.822</ele>
      </trkpt>
      <trkpt lat="40.336980" lon="-1.763890">
        <ele>1625.502</ele>
      </trkpt>
      <trkpt lat="40.337480" lon="-1.764100">
        <ele>1626.849</ele>
      </trkpt>
      <trkpt lat="40.337640" lon="-1.764230">
        <ele>1628.037</ele>
      </trkpt>
      <trkpt lat="40.337680" lon="-1.764310">
        <ele>1629.441</ele>
      </trkpt>
      <trkpt lat="40.337670" lon="-1.764400">
        <ele>1630.599</ele>
      </trkpt>
      <trkpt lat="40.337630" lon="-1.764500">
        <ele>1631.529</ele>
      </trkpt>
      <trkpt lat="40.337120" lon="-1.764730">
        <ele>1629.973</ele>
      </trkpt>
      <trkpt lat="40.336740" lon="-1.764870">
        <ele>1627.665</ele>
      </trkpt>
      <trkpt lat="40.336570" lon="-1.764970">
        <ele>1626.454</ele>
      </trkpt>
      <trkpt lat="40.336470" lon="-1.765050">
        <ele>1626.085</ele>
      </trkpt>
      <trkpt lat="40.335830" lon="-1.765970">
        <ele>1629.208</ele>
      </trkpt>
      <trkpt lat="40.335630" lon="-1.766220">
        <ele>1630.908</ele>
      </trkpt>
      <trkpt lat="40.335420" lon="-1.766400">
        <ele>1631.662</ele>
      </trkpt>
      <trkpt lat="40.334980" lon="-1.766710">
        <ele>1632.722</ele>
      </trkpt>
      <trkpt lat="40.334690" lon="-1.766780">
        <ele>1633.632</ele>
      </trkpt>
      <trkpt lat="40.334390" lon="-1.766770">
        <ele>1633.246</ele>
      </trkpt>
      <trkpt lat="40.333700" lon="-1.766670">
        <ele>1626.024</ele>
      </trkpt>
      <trkpt lat="40.333610" lon="-1.766680">
        <ele>1625.064</ele>
      </trkpt>
      <trkpt lat="40.333520" lon="-1.766730">
        <ele>1623.998</ele>
      </trkpt>
      <trkpt lat="40.333390" lon="-1.766870">
        <ele>1621.370</ele>
      </trkpt>
      <trkpt lat="40.333360" lon="-1.766950">
        <ele>1620.249</ele>
      </trkpt>
      <trkpt lat="40.333370" lon="-1.767110">
        <ele>1619.230</ele>
      </trkpt>
      <trkpt lat="40.333500" lon="-1.767660">
        <ele>1621.908</ele>
      </trkpt>
      <trkpt lat="40.333580" lon="-1.768140">
        <ele>1626.819</ele>
      </trkpt>
      <trkpt lat="40.333590" lon="-1.768290">
        <ele>1627.890</ele>
      </trkpt>
      <trkpt lat="40.333570" lon="-1.768760">
        <ele>1627.876</ele>
      </trkpt>
      <trkpt lat="40.333590" lon="-1.769280">
        <ele>1629.298</ele>
      </trkpt>
      <trkpt lat="40.333720" lon="-1.770230">
        <ele>1635.782</ele>
      </trkpt>
      <trkpt lat="40.333710" lon="-1.770420">
        <ele>1637.450</ele>
      </trkpt>
      <trkpt lat="40.333670" lon="-1.770520">
        <ele>1637.430</ele>
      </trkpt>
      <trkpt lat="40.333590" lon="-1.770600">
        <ele>1636.494</ele>
      </trkpt>
      <trkpt lat="40.333420" lon="-1.770690">
        <ele>1634.066</ele>
      </trkpt>
      <trkpt lat="40.333240" lon="-1.770740">
        <ele>1630.955</ele>
      </trkpt>
      <trkpt lat="40.332890" lon="-1.770740">
        <ele>1622.646</ele>
      </trkpt>
      <trkpt lat="40.332820" lon="-1.770790">
        <ele>1622.208</ele>
      </trkpt>
      <trkpt lat="40.332700" lon="-1.770910">
        <ele>1621.313</ele>
      </trkpt>
      <trkpt lat="40.332640" lon="-1.771040">
        <ele>1621.349</ele>
      </trkpt>
      <trkpt lat="40.332500" lon="-1.771430">
        <ele>1622.437</ele>
      </trkpt>
      <trkpt lat="40.332340" lon="-1.771730">
        <ele>1620.710</ele>
      </trkpt>
      <trkpt lat="40.332120" lon="-1.772050">
        <ele>1618.354</ele>
      </trkpt>
      <trkpt lat="40.332020" lon="-1.772260">
        <ele>1619.342</ele>
      </trkpt>
      <trkpt lat="40.332030" lon="-1.772460">
        <ele>1622.392</ele>
      </trkpt>
      <trkpt lat="40.332140" lon="-1.772730">
        <ele>1622.376</ele>
      </trkpt>
      <trkpt lat="40.332170" lon="-1.772860">
        <ele>1621.548</ele>
      </trkpt>
      <trkpt lat="40.332160" lon="-1.772960">
        <ele>1620.667</ele>
      </trkpt>
      <trkpt lat="40.332110" lon="-1.773060">
        <ele>1619.668</ele>
      </trkpt>
      <trkpt lat="40.331840" lon="-1.773390">
        <ele>1616.408</ele>
      </trkpt>
      <trkpt lat="40.331650" lon="-1.773530">
        <ele>1614.111</ele>
      </trkpt>
      <trkpt lat="40.331340" lon="-1.773610">
        <ele>1607.601</ele>
      </trkpt>
      <trkpt lat="40.331120" lon="-1.773720">
        <ele>1603.651</ele>
      </trkpt>
      <trkpt lat="40.330950" lon="-1.773790">
        <ele>1601.313</ele>
      </trkpt>
      <trkpt lat="40.330720" lon="-1.773780">
        <ele>1594.737</ele>
      </trkpt>
      <trkpt lat="40.330640" lon="-1.773790">
        <ele>1591.395</ele>
      </trkpt>
      <trkpt lat="40.330580" lon="-1.773850">
        <ele>1588.915</ele>
      </trkpt>
      <trkpt lat="40.330560" lon="-1.773950">
        <ele>1588.329</ele>
      </trkpt>
      <trkpt lat="40.330580" lon="-1.774150">
        <ele>1589.891</ele>
      </trkpt>
      <trkpt lat="40.330640" lon="-1.774240">
        <ele>1591.530</ele>
      </trkpt>
      <trkpt lat="40.330770" lon="-1.774360">
        <ele>1595.771</ele>
      </trkpt>
      <trkpt lat="40.331070" lon="-1.774560">
        <ele>1596.508</ele>
      </trkpt>
      <trkpt lat="40.331210" lon="-1.774610">
        <ele>1596.417</ele>
      </trkpt>
      <trkpt lat="40.331800" lon="-1.774610">
        <ele>1597.589</ele>
      </trkpt>
      <trkpt lat="40.332160" lon="-1.774520">
        <ele>1596.485</ele>
      </trkpt>
      <trkpt lat="40.332290" lon="-1.774510">
        <ele>1595.790</ele>
      </trkpt>
      <trkpt lat="40.332580" lon="-1.774530">
        <ele>1593.834</ele>
      </trkpt>
      <trkpt lat="40.333440" lon="-1.774920">
        <ele>1586.312</ele>
      </trkpt>
      <trkpt lat="40.333610" lon="-1.775040">
        <ele>1586.612</ele>
      </trkpt>
      <trkpt lat="40.333680" lon="-1.775190">
        <ele>1587.426</ele>
      </trkpt>
      <trkpt lat="40.333660" lon="-1.775270">
        <ele>1587.198</ele>
      </trkpt>
      <trkpt lat="40.333610" lon="-1.775330">
        <ele>1586.487</ele>
      </trkpt>
      <trkpt lat="40.333550" lon="-1.775370">
        <ele>1585.628</ele>
      </trkpt>
      <trkpt lat="40.333440" lon="-1.775400">
        <ele>1584.308</ele>
      </trkpt>
      <trkpt lat="40.333240" lon="-1.775390">
        <ele>1582.514</ele>
      </trkpt>
      <trkpt lat="40.333150" lon="-1.775390">
        <ele>1582.059</ele>
      </trkpt>
      <trkpt lat="40.333050" lon="-1.775430">
        <ele>1581.256</ele>
      </trkpt>
      <trkpt lat="40.332430" lon="-1.775940">
        <ele>1572.439</ele>
      </trkpt>
      <trkpt lat="40.332210" lon="-1.776180">
        <ele>1568.743</ele>
      </trkpt>
      <trkpt lat="40.332000" lon="-1.776650">
        <ele>1561.551</ele>
      </trkpt>
      <trkpt lat="40.331590" lon="-1.777240">
        <ele>1555.051</ele>
      </trkpt>
      <trkpt lat="40.331540" lon="-1.777460">
        <ele>1555.915</ele>
      </trkpt>
      <trkpt lat="40.331520" lon="-1.777710">
        <ele>1554.117</ele>
      </trkpt>
      <trkpt lat="40.331520" lon="-1.777960">
        <ele>1552.186</ele>
      </trkpt>
      <trkpt lat="40.331490" lon="-1.778310">
        <ele>1548.557</ele>
      </trkpt>
      <trkpt lat="40.331490" lon="-1.778300">
        <ele>1548.608</ele>
      </trkpt>
      <trkpt lat="40.331450" lon="-1.778760">
        <ele>1541.014</ele>
      </trkpt>
      <trkpt lat="40.331450" lon="-1.779350">
        <ele>1535.322</ele>
      </trkpt>
      <trkpt lat="40.331410" lon="-1.779570">
        <ele>1534.942</ele>
      </trkpt>
      <trkpt lat="40.331310" lon="-1.779770">
        <ele>1533.474</ele>
      </trkpt>
      <trkpt lat="40.331230" lon="-1.779860">
        <ele>1532.258</ele>
      </trkpt>
      <trkpt lat="40.330920" lon="-1.780120">
        <ele>1526.576</ele>
      </trkpt>
      <trkpt lat="40.330900" lon="-1.780180">
        <ele>1525.876</ele>
      </trkpt>
      <trkpt lat="40.330920" lon="-1.780250">
        <ele>1525.510</ele>
      </trkpt>
      <trkpt lat="40.330950" lon="-1.780320">
        <ele>1525.242</ele>
      </trkpt>
      <trkpt lat="40.331030" lon="-1.780410">
        <ele>1525.031</ele>
      </trkpt>
      <trkpt lat="40.331830" lon="-1.780770">
        <ele>1519.622</ele>
      </trkpt>
      <trkpt lat="40.332010" lon="-1.780780">
        <ele>1518.308</ele>
      </trkpt>
      <trkpt lat="40.332080" lon="-1.780760">
        <ele>1518.324</ele>
      </trkpt>
      <trkpt lat="40.332170" lon="-1.780660">
        <ele>1519.231</ele>
      </trkpt>
      <trkpt lat="40.332230" lon="-1.780530">
        <ele>1520.596</ele>
      </trkpt>
      <trkpt lat="40.332250" lon="-1.780400">
        <ele>1522.096</ele>
      </trkpt>
      <trkpt lat="40.332240" lon="-1.780150">
        <ele>1525.650</ele>
      </trkpt>
      <trkpt lat="40.332270" lon="-1.779940">
        <ele>1528.068</ele>
      </trkpt>
      <trkpt lat="40.332280" lon="-1.779870">
        <ele>1528.938</ele>
      </trkpt>
      <trkpt lat="40.332330" lon="-1.779810">
        <ele>1529.122</ele>
      </trkpt>
      <trkpt lat="40.332400" lon="-1.779780">
        <ele>1528.684</ele>
      </trkpt>
      <trkpt lat="40.332480" lon="-1.779770">
        <ele>1527.683</ele>
      </trkpt>
      <trkpt lat="40.332960" lon="-1.779820">
        <ele>1519.354</ele>
      </trkpt>
      <trkpt lat="40.333200" lon="-1.779800">
        <ele>1516.408</ele>
      </trkpt>
      <trkpt lat="40.333360" lon="-1.779740">
        <ele>1515.817</ele>
      </trkpt>
      <trkpt lat="40.333560" lon="-1.779630">
        <ele>1514.698</ele>
      </trkpt>
      <trkpt lat="40.333830" lon="-1.779560">
        <ele>1510.318</ele>
      </trkpt>
      <trkpt lat="40.333940" lon="-1.779480">
        <ele>1509.984</ele>
      </trkpt>
      <trkpt lat="40.334140" lon="-1.779250">
        <ele>1511.428</ele>
      </trkpt>
      <trkpt lat="40.334450" lon="-1.779080">
        <ele>1514.666</ele>
      </trkpt>
      <trkpt lat="40.334520" lon="-1.779080">
        <ele>1514.236</ele>
      </trkpt>
      <trkpt lat="40.334580" lon="-1.779110">
        <ele>1512.940</ele>
      </trkpt>
      <trkpt lat="40.334800" lon="-1.779350">
        <ele>1507.752</ele>
      </trkpt>
      <trkpt lat="40.334970" lon="-1.779470">
        <ele>1506.711</ele>
      </trkpt>
      <trkpt lat="40.335030" lon="-1.779590">
        <ele>1506.472</ele>
      </trkpt>
      <trkpt lat="40.335030" lon="-1.779710">
        <ele>1505.608</ele>
      </trkpt>
      <trkpt lat="40.335010" lon="-1.779760">
        <ele>1504.927</ele>
      </trkpt>
      <trkpt lat="40.334990" lon="-1.779810">
        <ele>1504.307</ele>
      </trkpt>
      <trkpt lat="40.334940" lon="-1.779840">
        <ele>1503.599</ele>
      </trkpt>
      <trkpt lat="40.334720" lon="-1.779850">
        <ele>1500.731</ele>
      </trkpt>
      <trkpt lat="40.334650" lon="-1.779890">
        <ele>1499.355</ele>
      </trkpt>
      <trkpt lat="40.334590" lon="-1.779960">
        <ele>1497.363</ele>
      </trkpt>
      <trkpt lat="40.334560" lon="-1.780060">
        <ele>1496.363</ele>
      </trkpt>
      <trkpt lat="40.334510" lon="-1.780410">
        <ele>1496.217</ele>
      </trkpt>
      <trkpt lat="40.334420" lon="-1.780650">
        <ele>1493.579</ele>
      </trkpt>
      <trkpt lat="40.334350" lon="-1.780760">
        <ele>1490.728</ele>
      </trkpt>
      <trkpt lat="40.334130" lon="-1.780930">
        <ele>1484.569</ele>
      </trkpt>
      <trkpt lat="40.334050" lon="-1.781120">
        <ele>1486.508</ele>
      </trkpt>
      <trkpt lat="40.333990" lon="-1.781390">
        <ele>1487.821</ele>
      </trkpt>
      <trkpt lat="40.333860" lon="-1.781690">
        <ele>1486.229</ele>
      </trkpt>
      <trkpt lat="40.333720" lon="-1.781880">
        <ele>1484.666</ele>
      </trkpt>
      <trkpt lat="40.333520" lon="-1.782000">
        <ele>1478.931</ele>
      </trkpt>
      <trkpt lat="40.333450" lon="-1.782070">
        <ele>1476.875</ele>
      </trkpt>
      <trkpt lat="40.333400" lon="-1.782190">
        <ele>1475.333</ele>
      </trkpt>
      <trkpt lat="40.333310" lon="-1.782630">
        <ele>1474.323</ele>
      </trkpt>
      <trkpt lat="40.333260" lon="-1.782760">
        <ele>1474.967</ele>
      </trkpt>
      <trkpt lat="40.333120" lon="-1.782950">
        <ele>1473.759</ele>
      </trkpt>
      <trkpt lat="40.332880" lon="-1.783120">
        <ele>1468.118</ele>
      </trkpt>
      <trkpt lat="40.332380" lon="-1.783600">
        <ele>1461.069</ele>
      </trkpt>
      <trkpt lat="40.332170" lon="-1.783770">
        <ele>1462.108</ele>
      </trkpt>
      <trkpt lat="40.332010" lon="-1.783800">
        <ele>1460.014</ele>
      </trkpt>
      <trkpt lat="40.331760" lon="-1.783670">
        <ele>1452.368</ele>
      </trkpt>
      <trkpt lat="40.331640" lon="-1.783670">
        <ele>1450.465</ele>
      </trkpt>
      <trkpt lat="40.331090" lon="-1.783940">
        <ele>1445.298</ele>
      </trkpt>
      <trkpt lat="40.330980" lon="-1.784030">
        <ele>1443.032</ele>
      </trkpt>
      <trkpt lat="40.330780" lon="-1.784350">
        <ele>1441.870</ele>
      </trkpt>
      <trkpt lat="40.330700" lon="-1.784420">
        <ele>1441.440</ele>
      </trkpt>
      <trkpt lat="40.330620" lon="-1.784470">
        <ele>1440.324</ele>
      </trkpt>
      <trkpt lat="40.330510" lon="-1.784510">
        <ele>1438.066</ele>
      </trkpt>
      <trkpt lat="40.330430" lon="-1.784590">
        <ele>1436.715</ele>
      </trkpt>
      <trkpt lat="40.330310" lon="-1.784800">
        <ele>1434.516</ele>
      </trkpt>
      <trkpt lat="40.329740" lon="-1.785390">
        <ele>1418.808</ele>
      </trkpt>
      <trkpt lat="40.329680" lon="-1.785500">
        <ele>1417.107</ele>
      </trkpt>
      <trkpt lat="40.329660" lon="-1.785630">
        <ele>1416.361</ele>
      </trkpt>
      <trkpt lat="40.329660" lon="-1.785780">
        <ele>1416.231</ele>
      </trkpt>
      <trkpt lat="40.329730" lon="-1.786410">
        <ele>1411.650</ele>
      </trkpt>
      <trkpt lat="40.329770" lon="-1.786650">
        <ele>1410.394</ele>
      </trkpt>
      <trkpt lat="40.329880" lon="-1.786930">
        <ele>1409.072</ele>
      </trkpt>
      <trkpt lat="40.330270" lon="-1.787590">
        <ele>1418.132</ele>
      </trkpt>
      <trkpt lat="40.330320" lon="-1.787760">
        <ele>1417.736</ele>
      </trkpt>
      <trkpt lat="40.330360" lon="-1.788220">
        <ele>1409.728</ele>
      </trkpt>
      <trkpt lat="40.330360" lon="-1.788580">
        <ele>1405.487</ele>
      </trkpt>
      <trkpt lat="40.330310" lon="-1.789060">
        <ele>1399.848</ele>
      </trkpt>
      <trkpt lat="40.330270" lon="-1.789330">
        <ele>1397.208</ele>
      </trkpt>
      <trkpt lat="40.330200" lon="-1.789610">
        <ele>1394.008</ele>
      </trkpt>
      <trkpt lat="40.330180" lon="-1.789900">
        <ele>1393.053</ele>
      </trkpt>
      <trkpt lat="40.330140" lon="-1.790040">
        <ele>1391.952</ele>
      </trkpt>
      <trkpt lat="40.330060" lon="-1.790140">
        <ele>1390.358</ele>
      </trkpt>
      <trkpt lat="40.329870" lon="-1.790240">
        <ele>1385.742</ele>
      </trkpt>
      <trkpt lat="40.329750" lon="-1.790330">
        <ele>1383.560</ele>
      </trkpt>
      <trkpt lat="40.329440" lon="-1.790640">
        <ele>1378.570</ele>
      </trkpt>
      <trkpt lat="40.329300" lon="-1.790850">
        <ele>1377.124</ele>
      </trkpt>
      <trkpt lat="40.329010" lon="-1.791170">
        <ele>1370.396</ele>
      </trkpt>
      <trkpt lat="40.328910" lon="-1.791350">
        <ele>1367.675</ele>
      </trkpt>
      <trkpt lat="40.328810" lon="-1.791620">
        <ele>1364.936</ele>
      </trkpt>
      <trkpt lat="40.328790" lon="-1.791800">
        <ele>1361.908</ele>
      </trkpt>
      <trkpt lat="40.328830" lon="-1.791950">
        <ele>1361.313</ele>
      </trkpt>
      <trkpt lat="40.328910" lon="-1.792070">
        <ele>1363.449</ele>
      </trkpt>
      <trkpt lat="40.329010" lon="-1.792140">
        <ele>1367.237</ele>
      </trkpt>
      <trkpt lat="40.329240" lon="-1.792230">
        <ele>1376.722</ele>
      </trkpt>
      <trkpt lat="40.329360" lon="-1.792330">
        <ele>1380.026</ele>
      </trkpt>
      <trkpt lat="40.329420" lon="-1.792450">
        <ele>1380.494</ele>
      </trkpt>
      <trkpt lat="40.329460" lon="-1.792570">
        <ele>1383.024</ele>
      </trkpt>
      <trkpt lat="40.329420" lon="-1.792690">
        <ele>1383.988</ele>
      </trkpt>
      <trkpt lat="40.329360" lon="-1.792790">
        <ele>1383.450</ele>
      </trkpt>
      <trkpt lat="40.329050" lon="-1.793160">
        <ele>1375.529</ele>
      </trkpt>
      <trkpt lat="40.328630" lon="-1.793520">
        <ele>1357.760</ele>
      </trkpt>
      <trkpt lat="40.328560" lon="-1.793640">
        <ele>1355.808</ele>
      </trkpt>
      <trkpt lat="40.328360" lon="-1.794080">
        <ele>1351.225</ele>
      </trkpt>
      <trkpt lat="40.328300" lon="-1.794480">
        <ele>1353.405</ele>
      </trkpt>
      <trkpt lat="40.328170" lon="-1.794930">
        <ele>1352.179</ele>
      </trkpt>
      <trkpt lat="40.328040" lon="-1.795930">
        <ele>1346.294</ele>
      </trkpt>
      <trkpt lat="40.328030" lon="-1.796570">
        <ele>1344.918</ele>
      </trkpt>
      <trkpt lat="40.328090" lon="-1.797230">
        <ele>1348.536</ele>
      </trkpt>
      <trkpt lat="40.328020" lon="-1.797420">
        <ele>1345.656</ele>
      </trkpt>
      <trkpt lat="40.327530" lon="-1.798100">
        <ele>1327.930</ele>
      </trkpt>
      <trkpt lat="40.327450" lon="-1.798230">
        <ele>1325.352</ele>
      </trkpt>
      <trkpt lat="40.327380" lon="-1.798420">
        <ele>1323.711</ele>
      </trkpt>
      <trkpt lat="40.327380" lon="-1.798750">
        <ele>1325.372</ele>
      </trkpt>
      <trkpt lat="40.327280" lon="-1.799550">
        <ele>1327.608</ele>
      </trkpt>
      <trkpt lat="40.327080" lon="-1.799960">
        <ele>1322.422</ele>
      </trkpt>
      <trkpt lat="40.326930" lon="-1.800380">
        <ele>1320.957</ele>
      </trkpt>
      <trkpt lat="40.326660" lon="-1.801040">
        <ele>1318.394</ele>
      </trkpt>
      <trkpt lat="40.326530" lon="-1.801260">
        <ele>1317.891</ele>
      </trkpt>
      <trkpt lat="40.326040" lon="-1.801830">
        <ele>1310.985</ele>
      </trkpt>
      <trkpt lat="40.325800" lon="-1.802140">
        <ele>1306.463</ele>
      </trkpt>
      <trkpt lat="40.324070" lon="-1.804870">
        <ele>1290.093</ele>
      </trkpt>
      <trkpt lat="40.323780" lon="-1.805170">
        <ele>1286.397</ele>
      </trkpt>
      <trkpt lat="40.323500" lon="-1.805540">
        <ele>1283.439</ele>
      </trkpt>
      <trkpt lat="40.322640" lon="-1.807700">
        <ele>1276.458</ele>
      </trkpt>
      <trkpt lat="40.322450" lon="-1.807990">
        <ele>1275.199</ele>
      </trkpt>
      <trkpt lat="40.322000" lon="-1.808300">
        <ele>1270.508</ele>
      </trkpt>
      <trkpt lat="40.321760" lon="-1.808730">
        <ele>1267.424</ele>
      </trkpt>
      <trkpt lat="40.321700" lon="-1.809040">
        <ele>1267.204</ele>
      </trkpt>
      <trkpt lat="40.321630" lon="-1.809900">
        <ele>1262.569</ele>
      </trkpt>
      <trkpt lat="40.321550" lon="-1.810200">
        <ele>1262.392</ele>
      </trkpt>
      <trkpt lat="40.321380" lon="-1.810470">
        <ele>1262.466</ele>
      </trkpt>
      <trkpt lat="40.320890" lon="-1.810740">
        <ele>1260.334</ele>
      </trkpt>
      <trkpt lat="40.320720" lon="-1.810890">
        <ele>1259.564</ele>
      </trkpt>
      <trkpt lat="40.320540" lon="-1.811190">
        <ele>1257.788</ele>
      </trkpt>
      <trkpt lat="40.320330" lon="-1.811730">
        <ele>1255.180</ele>
      </trkpt>
      <trkpt lat="40.320140" lon="-1.812250">
        <ele>1252.469</ele>
      </trkpt>
      <trkpt lat="40.321150" lon="-1.812660">
        <ele>1251.770</ele>
      </trkpt>
      <trkpt lat="40.324810" lon="-1.814040">
        <ele>1252.508</ele>
      </trkpt>
      <trkpt lat="40.325510" lon="-1.814320">
        <ele>1253.627</ele>
      </trkpt>
      <trkpt lat="40.325860" lon="-1.814530">
        <ele>1253.561</ele>
      </trkpt>
      <trkpt lat="40.326160" lon="-1.814720">
        <ele>1255.277</ele>
      </trkpt>
      <trkpt lat="40.326500" lon="-1.815130">
        <ele>1253.368</ele>
      </trkpt>
      <trkpt lat="40.327430" lon="-1.816510">
        <ele>1252.572</ele>
      </trkpt>
      <trkpt lat="40.328390" lon="-1.818010">
        <ele>1253.540</ele>
      </trkpt>
      <trkpt lat="40.328970" lon="-1.819130">
        <ele>1252.580</ele>
      </trkpt>
      <trkpt lat="40.330530" lon="-1.822270">
        <ele>1251.954</ele>
      </trkpt>
      <trkpt lat="40.330830" lon="-1.822740">
        <ele>1251.746</ele>
      </trkpt>
      <trkpt lat="40.331180" lon="-1.823170">
        <ele>1252.475</ele>
      </trkpt>
      <trkpt lat="40.332640" lon="-1.824830">
        <ele>1253.216</ele>
      </trkpt>
      <trkpt lat="40.333290" lon="-1.825520">
        <ele>1254.008</ele>
      </trkpt>
      <trkpt lat="40.333720" lon="-1.825850">
        <ele>1255.307</ele>
      </trkpt>
      <trkpt lat="40.334150" lon="-1.826000">
        <ele>1257.361</ele>
      </trkpt>
      <trkpt lat="40.335280" lon="-1.826220">
        <ele>1254.631</ele>
      </trkpt>
      <trkpt lat="40.335750" lon="-1.826340">
        <ele>1254.322</ele>
      </trkpt>
      <trkpt lat="40.336170" lon="-1.826580">
        <ele>1255.376</ele>
      </trkpt>
      <trkpt lat="40.336580" lon="-1.826930">
        <ele>1255.874</ele>
      </trkpt>
      <trkpt lat="40.336970" lon="-1.827410">
        <ele>1255.144</ele>
      </trkpt>
      <trkpt lat="40.343340" lon="-1.835770">
        <ele>1269.838</ele>
      </trkpt>
      <trkpt lat="40.343670" lon="-1.836260">
        <ele>1270.970</ele>
      </trkpt>
      <trkpt lat="40.343940" lon="-1.836820">
        <ele>1271.159</ele>
      </trkpt>
      <trkpt lat="40.344830" lon="-1.839860">
        <ele>1270.290</ele>
      </trkpt>
      <trkpt lat="40.345040" lon="-1.840450">
        <ele>1270.908</ele>
      </trkpt>
      <trkpt lat="40.345330" lon="-1.841060">
        <ele>1273.925</ele>
      </trkpt>
      <trkpt lat="40.348000" lon="-1.846280">
        <ele>1277.705</ele>
      </trkpt>
      <trkpt lat="40.348870" lon="-1.848070">
        <ele>1276.579</ele>
      </trkpt>
      <trkpt lat="40.348840" lon="-1.848240">
        <ele>1276.368</ele>
      </trkpt>
      <trkpt lat="40.348820" lon="-1.848490">
        <ele>1276.532</ele>
      </trkpt>
      <trkpt lat="40.348760" lon="-1.848730">
        <ele>1277.020</ele>
      </trkpt>
      <trkpt lat="40.348510" lon="-1.849740">
        <ele>1278.730</ele>
      </trkpt>
      <trkpt lat="40.348650" lon="-1.849730">
        <ele>1278.964</ele>
      </trkpt>
      <trkpt lat="40.348960" lon="-1.849690">
        <ele>1279.316</ele>
      </trkpt>
      <trkpt lat="40.349060" lon="-1.849740">
        <ele>1279.595</ele>
      </trkpt>
      <trkpt lat="40.349380" lon="-1.849910">
        <ele>1280.146</ele>
      </trkpt>
      <trkpt lat="40.349540" lon="-1.849980">
        <ele>1280.408</ele>
      </trkpt>
      <trkpt lat="40.349710" lon="-1.850070">
        <ele>1280.814</ele>
      </trkpt>
      <trkpt lat="40.349780" lon="-1.850040">
        <ele>1280.886</ele>
      </trkpt>
      <trkpt lat="40.349830" lon="-1.850090">
        <ele>1281.035</ele>
      </trkpt>
      <trkpt lat="40.349860" lon="-1.850130">
        <ele>1281.178</ele>
      </trkpt>
      <trkpt lat="40.349880" lon="-1.850380">
        <ele>1281.842</ele>
      </trkpt>
      <trkpt lat="40.349900" lon="-1.850440">
        <ele>1281.910</ele>
      </trkpt>
      <trkpt lat="40.349960" lon="-1.850470">
        <ele>1282.160</ele>
      </trkpt>
      <trkpt lat="40.349950" lon="-1.850590">
        <ele>1282.444</ele>
      </trkpt>
      <trkpt lat="40.349930" lon="-1.850690">
        <ele>1282.656</ele>
      </trkpt>
      <trkpt lat="40.349970" lon="-1.851010">
        <ele>1284.295</ele>
      </trkpt>
      <trkpt lat="40.350080" lon="-1.851050">
        <ele>1284.786</ele>
      </trkpt>
      <trkpt lat="40.350160" lon="-1.851100">
        <ele>1285.208</ele>
      </trkpt>
      <trkpt lat="40.350280" lon="-1.851200">
        <ele>1286.118</ele>
      </trkpt>
      <trkpt lat="40.350450" lon="-1.851330">
        <ele>1287.417</ele>
      </trkpt>
      <trkpt lat="40.350770" lon="-1.851540">
        <ele>1289.836</ele>
      </trkpt>
      <trkpt lat="40.351000" lon="-1.851720">
        <ele>1290.392</ele>
      </trkpt>
      <trkpt lat="40.351140" lon="-1.851860">
        <ele>1289.986</ele>
      </trkpt>
      <trkpt lat="40.351270" lon="-1.852060">
        <ele>1289.924</ele>
      </trkpt>
      <trkpt lat="40.351390" lon="-1.852380">
        <ele>1290.394</ele>
      </trkpt>
      <trkpt lat="40.351480" lon="-1.852520">
        <ele>1290.498</ele>
      </trkpt>
      <trkpt lat="40.351570" lon="-1.852570">
        <ele>1290.130</ele>
      </trkpt>
      <trkpt lat="40.352060" lon="-1.852830">
        <ele>1289.229</ele>
      </trkpt>
      <trkpt lat="40.352080" lon="-1.852930">
        <ele>1289.340</ele>
      </trkpt>
      <trkpt lat="40.352240" lon="-1.853300">
        <ele>1290.008</ele>
      </trkpt>
      <trkpt lat="40.352360" lon="-1.853500">
        <ele>1291.215</ele>
      </trkpt>
      <trkpt lat="40.352510" lon="-1.853670">
        <ele>1292.341</ele>
      </trkpt>
      <trkpt lat="40.352890" lon="-1.854070">
        <ele>1295.971</ele>
      </trkpt>
      <trkpt lat="40.353030" lon="-1.854230">
        <ele>1297.351</ele>
      </trkpt>
      <trkpt lat="40.353160" lon="-1.854410">
        <ele>1298.345</ele>
      </trkpt>
      <trkpt lat="40.353660" lon="-1.855590">
        <ele>1301.463</ele>
      </trkpt>
      <trkpt lat="40.353670" lon="-1.855630">
        <ele>1301.593</ele>
      </trkpt>
      <trkpt lat="40.354190" lon="-1.856960">
        <ele>1301.347</ele>
      </trkpt>
      <trkpt lat="40.354310" lon="-1.857240">
        <ele>1301.889</ele>
      </trkpt>
      <trkpt lat="40.354470" lon="-1.857490">
        <ele>1302.358</ele>
      </trkpt>
      <trkpt lat="40.356220" lon="-1.859410">
        <ele>1310.869</ele>
      </trkpt>
      <trkpt lat="40.356460" lon="-1.859620">
        <ele>1312.508</ele>
      </trkpt>
      <trkpt lat="40.356620" lon="-1.859730">
        <ele>1313.414</ele>
      </trkpt>
      <trkpt lat="40.358020" lon="-1.860290">
        <ele>1311.768</ele>
      </trkpt>
      <trkpt lat="40.360350" lon="-1.861180">
        <ele>1317.565</ele>
      </trkpt>
      <trkpt lat="40.363660" lon="-1.862630">
        <ele>1315.376</ele>
      </trkpt>
      <trkpt lat="40.364060" lon="-1.862810">
        <ele>1316.870</ele>
      </trkpt>
      <trkpt lat="40.364610" lon="-1.863110">
        <ele>1317.668</ele>
      </trkpt>
      <trkpt lat="40.365290" lon="-1.863530">
        <ele>1321.458</ele>
      </trkpt>
      <trkpt lat="40.365930" lon="-1.863880">
        <ele>1322.912</ele>
      </trkpt>
      <trkpt lat="40.366420" lon="-1.864270">
        <ele>1323.954</ele>
      </trkpt>
      <trkpt lat="40.367410" lon="-1.865120">
        <ele>1328.433</ele>
      </trkpt>
      <trkpt lat="40.367720" lon="-1.865330">
        <ele>1332.294</ele>
      </trkpt>
      <trkpt lat="40.367980" lon="-1.865450">
        <ele>1333.308</ele>
      </trkpt>
      <trkpt lat="40.368200" lon="-1.865520">
        <ele>1332.907</ele>
      </trkpt>
      <trkpt lat="40.370280" lon="-1.866130">
        <ele>1344.643</ele>
      </trkpt>
      <trkpt lat="40.370480" lon="-1.866220">
        <ele>1344.413</ele>
      </trkpt>
      <trkpt lat="40.370740" lon="-1.866370">
        <ele>1343.584</ele>
      </trkpt>
      <trkpt lat="40.371060" lon="-1.866630">
        <ele>1342.288</ele>
      </trkpt>
      <trkpt lat="40.371680" lon="-1.867240">
        <ele>1345.916</ele>
      </trkpt>
      <trkpt lat="40.371920" lon="-1.867500">
        <ele>1347.136</ele>
      </trkpt>
      <trkpt lat="40.372150" lon="-1.867820">
        <ele>1349.690</ele>
      </trkpt>
      <trkpt lat="40.372390" lon="-1.868280">
        <ele>1349.192</ele>
      </trkpt>
      <trkpt lat="40.372540" lon="-1.868720">
        <ele>1351.691</ele>
      </trkpt>
      <trkpt lat="40.372720" lon="-1.869650">
        <ele>1361.432</ele>
      </trkpt>
      <trkpt lat="40.372770" lon="-1.870140">
        <ele>1364.108</ele>
      </trkpt>
      <trkpt lat="40.372780" lon="-1.871030">
        <ele>1370.323</ele>
      </trkpt>
      <trkpt lat="40.372850" lon="-1.871360">
        <ele>1373.249</ele>
      </trkpt>
      <trkpt lat="40.372950" lon="-1.871560">
        <ele>1374.395</ele>
      </trkpt>
      <trkpt lat="40.373040" lon="-1.871700">
        <ele>1374.743</ele>
      </trkpt>
      <trkpt lat="40.373390" lon="-1.872030">
        <ele>1374.287</ele>
      </trkpt>
      <trkpt lat="40.373510" lon="-1.872180">
        <ele>1376.745</ele>
      </trkpt>
      <trkpt lat="40.374000" lon="-1.873020">
        <ele>1386.885</ele>
      </trkpt>
      <trkpt lat="40.374110" lon="-1.873160">
        <ele>1385.779</ele>
      </trkpt>
      <trkpt lat="40.374310" lon="-1.873290">
        <ele>1387.641</ele>
      </trkpt>
      <trkpt lat="40.374720" lon="-1.873450">
        <ele>1397.520</ele>
      </trkpt>
      <trkpt lat="40.374830" lon="-1.873520">
        <ele>1399.861</ele>
      </trkpt>
      <trkpt lat="40.374870" lon="-1.873570">
        <ele>1400.608</ele>
      </trkpt>
      <trkpt lat="40.374960" lon="-1.873700">
        <ele>1401.726</ele>
      </trkpt>
      <trkpt lat="40.375190" lon="-1.874120">
        <ele>1406.024</ele>
      </trkpt>
      <trkpt lat="40.375630" lon="-1.874680">
        <ele>1411.788</ele>
      </trkpt>
      <trkpt lat="40.375760" lon="-1.874900">
        <ele>1407.931</ele>
      </trkpt>
      <trkpt lat="40.375810" lon="-1.875090">
        <ele>1406.335</ele>
      </trkpt>
      <trkpt lat="40.375820" lon="-1.875260">
        <ele>1407.743</ele>
      </trkpt>
      <trkpt lat="40.375790" lon="-1.875530">
        <ele>1410.973</ele>
      </trkpt>
      <trkpt lat="40.375660" lon="-1.876010">
        <ele>1418.457</ele>
      </trkpt>
      <trkpt lat="40.375640" lon="-1.876210">
        <ele>1421.219</ele>
      </trkpt>
      <trkpt lat="40.375660" lon="-1.877070">
        <ele>1426.038</ele>
      </trkpt>
      <trkpt lat="40.375600" lon="-1.877390">
        <ele>1426.069</ele>
      </trkpt>
      <trkpt lat="40.375500" lon="-1.877750">
        <ele>1424.408</ele>
      </trkpt>
      <trkpt lat="40.375460" lon="-1.878070">
        <ele>1421.913</ele>
      </trkpt>
      <trkpt lat="40.375480" lon="-1.878280">
        <ele>1420.421</ele>
      </trkpt>
      <trkpt lat="40.375530" lon="-1.878540">
        <ele>1420.161</ele>
      </trkpt>
      <trkpt lat="40.375610" lon="-1.878730">
        <ele>1420.452</ele>
      </trkpt>
      <trkpt lat="40.375780" lon="-1.879050">
        <ele>1420.986</ele>
      </trkpt>
      <trkpt lat="40.376020" lon="-1.879430">
        <ele>1425.724</ele>
      </trkpt>
      <trkpt lat="40.376600" lon="-1.880130">
        <ele>1429.594</ele>
      </trkpt>
      <trkpt lat="40.376990" lon="-1.880460">
        <ele>1434.478</ele>
      </trkpt>
      <trkpt lat="40.377440" lon="-1.880770">
        <ele>1436.410</ele>
      </trkpt>
      <trkpt lat="40.377830" lon="-1.881070">
        <ele>1441.769</ele>
      </trkpt>
      <trkpt lat="40.378070" lon="-1.881290">
        <ele>1444.580</ele>
      </trkpt>
      <trkpt lat="40.379090" lon="-1.882350">
        <ele>1453.308</ele>
      </trkpt>
      <trkpt lat="40.379410" lon="-1.882820">
        <ele>1457.419</ele>
      </trkpt>
      <trkpt lat="40.379620" lon="-1.883180">
        <ele>1460.290</ele>
      </trkpt>
      <trkpt lat="40.380210" lon="-1.884350">
        <ele>1464.076</ele>
      </trkpt>
      <trkpt lat="40.380510" lon="-1.884870">
        <ele>1468.046</ele>
      </trkpt>
      <trkpt lat="40.380830" lon="-1.885320">
        <ele>1469.960</ele>
      </trkpt>
      <trkpt lat="40.381310" lon="-1.885910">
        <ele>1473.618</ele>
      </trkpt>
      <trkpt lat="40.381530" lon="-1.886150">
        <ele>1475.368</ele>
      </trkpt>
      <trkpt lat="40.381700" lon="-1.886300">
        <ele>1476.222</ele>
      </trkpt>
      <trkpt lat="40.381850" lon="-1.886410">
        <ele>1477.284</ele>
      </trkpt>
      <trkpt lat="40.382270" lon="-1.886620">
        <ele>1482.093</ele>
      </trkpt>
      <trkpt lat="40.382270" lon="-1.886630">
        <ele>1481.924</ele>
      </trkpt>
      <trkpt lat="40.382340" lon="-1.886660">
        <ele>1482.808</ele>
      </trkpt>
      <trkpt lat="40.382810" lon="-1.886830">
        <ele>1486.907</ele>
      </trkpt>
      <trkpt lat="40.383200" lon="-1.886880">
        <ele>1490.943</ele>
      </trkpt>
      <trkpt lat="40.383750" lon="-1.886850">
        <ele>1492.713</ele>
      </trkpt>
      <trkpt lat="40.383750" lon="-1.886930">
        <ele>1492.546</ele>
      </trkpt>
      <trkpt lat="40.383700" lon="-1.887230">
        <ele>1491.920</ele>
      </trkpt>
      <trkpt lat="40.383620" lon="-1.887450">
        <ele>1491.498</ele>
      </trkpt>
      <trkpt lat="40.383580" lon="-1.887620">
        <ele>1491.288</ele>
      </trkpt>
      <trkpt lat="40.383590" lon="-1.887900">
        <ele>1491.122</ele>
      </trkpt>
      <trkpt lat="40.383650" lon="-1.888100">
        <ele>1491.444</ele>
      </trkpt>
      <trkpt lat="40.383710" lon="-1.888300">
        <ele>1492.093</ele>
      </trkpt>
      <trkpt lat="40.384280" lon="-1.889620">
        <ele>1502.844</ele>
      </trkpt>
      <trkpt lat="40.385070" lon="-1.891100">
        <ele>1518.808</ele>
      </trkpt>
      <trkpt lat="40.385440" lon="-1.891690">
        <ele>1524.017</ele>
      </trkpt>
      <trkpt lat="40.385530" lon="-1.891960">
        <ele>1524.098</ele>
      </trkpt>
      <trkpt lat="40.385590" lon="-1.892270">
        <ele>1522.718</ele>
      </trkpt>
      <trkpt lat="40.385790" lon="-1.892970">
        <ele>1521.668</ele>
      </trkpt>
      <trkpt lat="40.386060" lon="-1.893770">
        <ele>1518.342</ele>
      </trkpt>
      <trkpt lat="40.386120" lon="-1.894010">
        <ele>1517.990</ele>
      </trkpt>
      <trkpt lat="40.386160" lon="-1.894150">
        <ele>1517.850</ele>
      </trkpt>
      <trkpt lat="40.386190" lon="-1.894450">
        <ele>1517.854</ele>
      </trkpt>
      <trkpt lat="40.386180" lon="-1.894850">
        <ele>1517.246</ele>
      </trkpt>
      <trkpt lat="40.386220" lon="-1.895510">
        <ele>1518.265</ele>
      </trkpt>
      <trkpt lat="40.386290" lon="-1.896200">
        <ele>1522.856</ele>
      </trkpt>
      <trkpt lat="40.386130" lon="-1.897280">
        <ele>1516.508</ele>
      </trkpt>
      <trkpt lat="40.386000" lon="-1.897760">
        <ele>1508.721</ele>
      </trkpt>
      <trkpt lat="40.385680" lon="-1.898730">
        <ele>1502.101</ele>
      </trkpt>
      <trkpt lat="40.385690" lon="-1.898760">
        <ele>1502.139</ele>
      </trkpt>
      <trkpt lat="40.3857" lon="-1.89873">
        <ele>1501.844</ele>
      </trkpt>
      <trkpt lat="40.3857" lon="-1.89873">
        <ele>1501.82</ele>
      </trkpt>
      <trkpt lat="40.3861" lon="-1.89929">
        <ele>1505.172</ele>
      </trkpt>
      <trkpt lat="40.38619" lon="-1.89943">
        <ele>1505.973</ele>
      </trkpt>
      <trkpt lat="40.38643" lon="-1.8998">
        <ele>1506.757</ele>
      </trkpt>
      <trkpt lat="40.38666" lon="-1.90031">
        <ele>1504.419</ele>
      </trkpt>
      <trkpt lat="40.38692" lon="-1.90079">
        <ele>1503.638</ele>
      </trkpt>
      <trkpt lat="40.38714" lon="-1.90119">
        <ele>1501.449</ele>
      </trkpt>
      <trkpt lat="40.38723" lon="-1.90141">
        <ele>1499.108</ele>
      </trkpt>
      <trkpt lat="40.3875" lon="-1.9021">
        <ele>1489.216</ele>
      </trkpt>
      <trkpt lat="40.38774" lon="-1.90268">
        <ele>1483.706</ele>
      </trkpt>
      <trkpt lat="40.38791" lon="-1.90293">
        <ele>1482.464</ele>
      </trkpt>
      <trkpt lat="40.38803" lon="-1.90307">
        <ele>1481.216</ele>
      </trkpt>
      <trkpt lat="40.38808" lon="-1.90312">
        <ele>1480.842</ele>
      </trkpt>
      <trkpt lat="40.38819" lon="-1.90319">
        <ele>1480.084</ele>
      </trkpt>
      <trkpt lat="40.38831" lon="-1.90323">
        <ele>1479.545</ele>
      </trkpt>
      <trkpt lat="40.38839" lon="-1.90329">
        <ele>1479.539</ele>
      </trkpt>
      <trkpt lat="40.38845" lon="-1.90343">
        <ele>1478.151</ele>
      </trkpt>
      <trkpt lat="40.38883" lon="-1.90414">
        <ele>1470.57</ele>
      </trkpt>
      <trkpt lat="40.38947" lon="-1.9053">
        <ele>1464.951</ele>
      </trkpt>
      <trkpt lat="40.38968" lon="-1.90566">
        <ele>1461.808</ele>
      </trkpt>
      <trkpt lat="40.38999" lon="-1.90597">
        <ele>1458.326</ele>
      </trkpt>
      <trkpt lat="40.39025" lon="-1.90627">
        <ele>1457.706</ele>
      </trkpt>
      <trkpt lat="40.3905" lon="-1.90652">
        <ele>1456.589</ele>
      </trkpt>
      <trkpt lat="40.39063" lon="-1.90668">
        <ele>1454.719</ele>
      </trkpt>
      <trkpt lat="40.39079" lon="-1.90695">
        <ele>1452.885</ele>
      </trkpt>
      <trkpt lat="40.39098" lon="-1.90725">
        <ele>1452.117</ele>
      </trkpt>
      <trkpt lat="40.39168" lon="-1.90845">
        <ele>1444.978</ele>
      </trkpt>
      <trkpt lat="40.39199" lon="-1.90894">
        <ele>1442.632</ele>
      </trkpt>
      <trkpt lat="40.39237" lon="-1.9093">
        <ele>1440.794</ele>
      </trkpt>
      <trkpt lat="40.39283" lon="-1.90975">
        <ele>1434.473</ele>
      </trkpt>
      <trkpt lat="40.393" lon="-1.90987">
        <ele>1432.434</ele>
      </trkpt>
      <trkpt lat="40.39306" lon="-1.90992">
        <ele>1431.608</ele>
      </trkpt>
      <trkpt lat="40.39314" lon="-1.90994">
        <ele>1431.205</ele>
      </trkpt>
      <trkpt lat="40.39322" lon="-1.90995">
        <ele>1430.932</ele>
      </trkpt>
      <trkpt lat="40.39332" lon="-1.90998">
        <ele>1430.312</ele>
      </trkpt>
      <trkpt lat="40.39336" lon="-1.90999">
        <ele>1430.639</ele>
      </trkpt>
      <trkpt lat="40.3934" lon="-1.91">
        <ele>1431.315</ele>
      </trkpt>
      <trkpt lat="40.39344" lon="-1.91001">
        <ele>1432.047</ele>
      </trkpt>
      <trkpt lat="40.39349" lon="-1.91002">
        <ele>1433.098</ele>
      </trkpt>
      <trkpt lat="40.39354" lon="-1.91005">
        <ele>1433.812</ele>
      </trkpt>
      <trkpt lat="40.39359" lon="-1.91007">
        <ele>1434.594</ele>
      </trkpt>
      <trkpt lat="40.39366" lon="-1.9101">
        <ele>1435.533</ele>
      </trkpt>
      <trkpt lat="40.39373" lon="-1.91013">
        <ele>1436.474</ele>
      </trkpt>
      <trkpt lat="40.3938" lon="-1.91018">
        <ele>1437.008</ele>
      </trkpt>
      <trkpt lat="40.39386" lon="-1.91023">
        <ele>1437.203</ele>
      </trkpt>
      <trkpt lat="40.3939" lon="-1.91028">
        <ele>1437.121</ele>
      </trkpt>
      <trkpt lat="40.39395" lon="-1.91033">
        <ele>1437.011</ele>
      </trkpt>
      <trkpt lat="40.394" lon="-1.91041">
        <ele>1436.24</ele>
      </trkpt>
      <trkpt lat="40.39466" lon="-1.91124">
        <ele>1435.556</ele>
      </trkpt>
      <trkpt lat="40.39485" lon="-1.91147">
        <ele>1433.188</ele>
      </trkpt>
      <trkpt lat="40.39493" lon="-1.91157">
        <ele>1431.369</ele>
      </trkpt>
      <trkpt lat="40.39501" lon="-1.91165">
        <ele>1429.553</ele>
      </trkpt>
      <trkpt lat="40.39503" lon="-1.91166">
        <ele>1429.625</ele>
      </trkpt>
      <trkpt lat="40.39504" lon="-1.91166">
        <ele>1429.784</ele>
      </trkpt>
      <trkpt lat="40.39506" lon="-1.91167">
        <ele>1429.875</ele>
      </trkpt>
      <trkpt lat="40.39507" lon="-1.91168">
        <ele>1429.908</ele>
      </trkpt>
      <trkpt lat="40.39509" lon="-1.91171">
        <ele>1430.105</ele>
      </trkpt>
      <trkpt lat="40.3951" lon="-1.91173">
        <ele>1430.141</ele>
      </trkpt>
      <trkpt lat="40.39512" lon="-1.91177">
        <ele>1430.221</ele>
      </trkpt>
      <trkpt lat="40.39513" lon="-1.91183">
        <ele>1430.01</ele>
      </trkpt>
      <trkpt lat="40.39515" lon="-1.91186">
        <ele>1430.026</ele>
      </trkpt>
      <trkpt lat="40.39517" lon="-1.91188">
        <ele>1430.228</ele>
      </trkpt>
      <trkpt lat="40.3952" lon="-1.91189">
        <ele>1430.449</ele>
      </trkpt>
      <trkpt lat="40.39522" lon="-1.91189">
        <ele>1430.773</ele>
      </trkpt>
      <trkpt lat="40.39526" lon="-1.9119">
        <ele>1431.065</ele>
      </trkpt>
      <trkpt lat="40.3953" lon="-1.91191">
        <ele>1431.484</ele>
      </trkpt>
      <trkpt lat="40.39533" lon="-1.91193">
        <ele>1431.665</ele>
      </trkpt>
      <trkpt lat="40.39537" lon="-1.91195">
        <ele>1431.808</ele>
      </trkpt>
      <trkpt lat="40.3954" lon="-1.91198">
        <ele>1431.817</ele>
      </trkpt>
      <trkpt lat="40.39542" lon="-1.91201">
        <ele>1431.789</ele>
      </trkpt>
      <trkpt lat="40.39549" lon="-1.91209">
        <ele>1431.528</ele>
      </trkpt>
      <trkpt lat="40.39555" lon="-1.91219">
        <ele>1430.98</ele>
      </trkpt>
      <trkpt lat="40.39563" lon="-1.91231">
        <ele>1429.956</ele>
      </trkpt>
      <trkpt lat="40.39566" lon="-1.91239">
        <ele>1429.088</ele>
      </trkpt>
      <trkpt lat="40.39571" lon="-1.91254">
        <ele>1427.839</ele>
      </trkpt>
      <trkpt lat="40.39578" lon="-1.91273">
        <ele>1428.283</ele>
      </trkpt>
      <trkpt lat="40.39584" lon="-1.91287">
        <ele>1428.545</ele>
      </trkpt>
      <trkpt lat="40.39588" lon="-1.913">
        <ele>1429.174</ele>
      </trkpt>
      <trkpt lat="40.39595" lon="-1.91321">
        <ele>1430.455</ele>
      </trkpt>
      <trkpt lat="40.39599" lon="-1.91331">
        <ele>1431.208</ele>
      </trkpt>
      <trkpt lat="40.39602" lon="-1.91337">
        <ele>1431.82</ele>
      </trkpt>
      <trkpt lat="40.39606" lon="-1.91344">
        <ele>1432.6</ele>
      </trkpt>
      <trkpt lat="40.39609" lon="-1.9135">
        <ele>1433.229</ele>
      </trkpt>
      <trkpt lat="40.39612" lon="-1.91355">
        <ele>1433.87</ele>
      </trkpt>
      <trkpt lat="40.39616" lon="-1.91359">
        <ele>1434.516</ele>
      </trkpt>
      <trkpt lat="40.39619" lon="-1.91363">
        <ele>1435.038</ele>
      </trkpt>
      <trkpt lat="40.39623" lon="-1.91367">
        <ele>1435.669</ele>
      </trkpt>
      <trkpt lat="40.39628" lon="-1.9137">
        <ele>1436.263</ele>
      </trkpt>
      <trkpt lat="40.39635" lon="-1.91374">
        <ele>1437.285</ele>
      </trkpt>
      <trkpt lat="40.39642" lon="-1.91379">
        <ele>1438.114</ele>
      </trkpt>
      <trkpt lat="40.39647" lon="-1.91382">
        <ele>1438.715</ele>
      </trkpt>
      <trkpt lat="40.39652" lon="-1.91385">
        <ele>1439.308</ele>
      </trkpt>
      <trkpt lat="40.39655" lon="-1.91388">
        <ele>1439.708</ele>
      </trkpt>
      <trkpt lat="40.39658" lon="-1.91392">
        <ele>1440.026</ele>
      </trkpt>
      <trkpt lat="40.3966" lon="-1.91396">
        <ele>1440.325</ele>
      </trkpt>
      <trkpt lat="40.39662" lon="-1.91402">
        <ele>1440.54</ele>
      </trkpt>
      <trkpt lat="40.39665" lon="-1.9141">
        <ele>1440.896</ele>
      </trkpt>
      <trkpt lat="40.3967" lon="-1.91438">
        <ele>1441.368</ele>
      </trkpt>
      <trkpt lat="40.39677" lon="-1.91476">
        <ele>1442.129</ele>
      </trkpt>
      <trkpt lat="40.39686" lon="-1.91516">
        <ele>1443.333</ele>
      </trkpt>
      <trkpt lat="40.39688" lon="-1.91528">
        <ele>1443.515</ele>
      </trkpt>
      <trkpt lat="40.3969" lon="-1.91536">
        <ele>1443.664</ele>
      </trkpt>
      <trkpt lat="40.39693" lon="-1.91544">
        <ele>1443.965</ele>
      </trkpt>
      <trkpt lat="40.39696" lon="-1.91551">
        <ele>1444.108</ele>
      </trkpt>
      <trkpt lat="40.397" lon="-1.91558">
        <ele>1444.308</ele>
      </trkpt>
      <trkpt lat="40.39709" lon="-1.91574">
        <ele>1444.726</ele>
      </trkpt>
      <trkpt lat="40.3973" lon="-1.9161">
        <ele>1443.925</ele>
      </trkpt>
      <trkpt lat="40.3976" lon="-1.91659">
        <ele>1440.945</ele>
      </trkpt>
      <trkpt lat="40.39767" lon="-1.91671">
        <ele>1440.761</ele>
      </trkpt>
      <trkpt lat="40.39774" lon="-1.91679">
        <ele>1440.993</ele>
      </trkpt>
      <trkpt lat="40.39777" lon="-1.91683">
        <ele>1440.974</ele>
      </trkpt>
      <trkpt lat="40.39779" lon="-1.91688">
        <ele>1440.768</ele>
      </trkpt>
      <trkpt lat="40.39781" lon="-1.91693">
        <ele>1440.48</ele>
      </trkpt>
      <trkpt lat="40.39784" lon="-1.91701">
        <ele>1440.029</ele>
      </trkpt>
      <trkpt lat="40.39787" lon="-1.91708">
        <ele>1439.65</ele>
      </trkpt>
      <trkpt lat="40.39793" lon="-1.91722">
        <ele>1438.808</ele>
      </trkpt>
      <trkpt lat="40.39799" lon="-1.91737">
        <ele>1437.715</ele>
      </trkpt>
      <trkpt lat="40.3982" lon="-1.91795">
        <ele>1434.941</ele>
      </trkpt>
      <trkpt lat="40.39847" lon="-1.91861">
        <ele>1431.871</ele>
      </trkpt>
      <trkpt lat="40.39859" lon="-1.91889">
        <ele>1431.069</ele>
      </trkpt>
      <trkpt lat="40.39865" lon="-1.91903">
        <ele>1430.495</ele>
      </trkpt>
      <trkpt lat="40.39873" lon="-1.91915">
        <ele>1430.057</ele>
      </trkpt>
      <trkpt lat="40.39885" lon="-1.9194">
        <ele>1429.868</ele>
      </trkpt>
      <trkpt lat="40.39913" lon="-1.91986">
        <ele>1427.232</ele>
      </trkpt>
      <trkpt lat="40.39929" lon="-1.92007">
        <ele>1425.734</ele>
      </trkpt>
      <trkpt lat="40.39954" lon="-1.92045">
        <ele>1424.393</ele>
      </trkpt>
      <trkpt lat="40.39962" lon="-1.92058">
        <ele>1423.624</ele>
      </trkpt>
      <trkpt lat="40.39968" lon="-1.92069">
        <ele>1423.008</ele>
      </trkpt>
      <trkpt lat="40.39975" lon="-1.92081">
        <ele>1422.315</ele>
      </trkpt>
      <trkpt lat="40.39985" lon="-1.92102">
        <ele>1421.587</ele>
      </trkpt>
      <trkpt lat="40.39994" lon="-1.9212">
        <ele>1420.617</ele>
      </trkpt>
      <trkpt lat="40.40004" lon="-1.92137">
        <ele>1419.796</ele>
      </trkpt>
      <trkpt lat="40.4001" lon="-1.92149">
        <ele>1419.452</ele>
      </trkpt>
      <trkpt lat="40.40022" lon="-1.92179">
        <ele>1418.754</ele>
      </trkpt>
      <trkpt lat="40.40034" lon="-1.92204">
        <ele>1417.835</ele>
      </trkpt>
      <trkpt lat="40.40044" lon="-1.92222">
        <ele>1416.649</ele>
      </trkpt>
      <trkpt lat="40.40051" lon="-1.92236">
        <ele>1415.521</ele>
      </trkpt>
      <trkpt lat="40.40057" lon="-1.92245">
        <ele>1414.49</ele>
      </trkpt>
      <trkpt lat="40.40061" lon="-1.92254">
        <ele>1413.951</ele>
      </trkpt>
      <trkpt lat="40.40065" lon="-1.92262">
        <ele>1413.808</ele>
      </trkpt>
      <trkpt lat="40.40068" lon="-1.92268">
        <ele>1413.717</ele>
      </trkpt>
      <trkpt lat="40.40071" lon="-1.92274">
        <ele>1413.643</ele>
      </trkpt>
      <trkpt lat="40.40074" lon="-1.92278">
        <ele>1413.582</ele>
      </trkpt>
      <trkpt lat="40.40078" lon="-1.9228">
        <ele>1413.146</ele>
      </trkpt>
      <trkpt lat="40.40081" lon="-1.92282">
        <ele>1412.862</ele>
      </trkpt>
      <trkpt lat="40.40085" lon="-1.92283">
        <ele>1412.544</ele>
      </trkpt>
      <trkpt lat="40.40089" lon="-1.92284">
        <ele>1412.345</ele>
      </trkpt>
      <trkpt lat="40.40093" lon="-1.92285">
        <ele>1412.189</ele>
      </trkpt>
      <trkpt lat="40.40097" lon="-1.92284">
        <ele>1411.841</ele>
      </trkpt>
      <trkpt lat="40.40102" lon="-1.92282">
        <ele>1411.54</ele>
      </trkpt>
      <trkpt lat="40.40106" lon="-1.92279">
        <ele>1411.211</ele>
      </trkpt>
      <trkpt lat="40.40111" lon="-1.92276">
        <ele>1410.908</ele>
      </trkpt>
      <trkpt lat="40.40117" lon="-1.92273">
        <ele>1410.517</ele>
      </trkpt>
      <trkpt lat="40.40123" lon="-1.92271">
        <ele>1410.207</ele>
      </trkpt>
      <trkpt lat="40.40127" lon="-1.92269">
        <ele>1410.084</ele>
      </trkpt>
      <trkpt lat="40.40132" lon="-1.92268">
        <ele>1409.859</ele>
      </trkpt>
      <trkpt lat="40.40138" lon="-1.92267">
        <ele>1409.635</ele>
      </trkpt>
      <trkpt lat="40.40143" lon="-1.92268">
        <ele>1409.377</ele>
      </trkpt>
      <trkpt lat="40.40149" lon="-1.92269">
        <ele>1409.188</ele>
      </trkpt>
      <trkpt lat="40.40156" lon="-1.92271">
        <ele>1408.762</ele>
      </trkpt>
      <trkpt lat="40.40164" lon="-1.92273">
        <ele>1408.374</ele>
      </trkpt>
      <trkpt lat="40.40178" lon="-1.92279">
        <ele>1408.193</ele>
      </trkpt>
      <trkpt lat="40.40187" lon="-1.92282">
        <ele>1407.954</ele>
      </trkpt>
      <trkpt lat="40.40194" lon="-1.92285">
        <ele>1407.708</ele>
      </trkpt>
      <trkpt lat="40.40209" lon="-1.92289">
        <ele>1407.319</ele>
      </trkpt>
      <trkpt lat="40.40226" lon="-1.92295">
        <ele>1406.309</ele>
      </trkpt>
      <trkpt lat="40.40237" lon="-1.92299">
        <ele>1405.519</ele>
      </trkpt>
      <trkpt lat="40.40248" lon="-1.92302">
        <ele>1404.779</ele>
      </trkpt>
      <trkpt lat="40.40256" lon="-1.92305">
        <ele>1404.235</ele>
      </trkpt>
      <trkpt lat="40.40266" lon="-1.92307">
        <ele>1404.087</ele>
      </trkpt>
      <trkpt lat="40.40272" lon="-1.92309">
        <ele>1403.778</ele>
      </trkpt>
      <trkpt lat="40.40279" lon="-1.92312">
        <ele>1403.462</ele>
      </trkpt>
      <trkpt lat="40.40285" lon="-1.92315">
        <ele>1403.284</ele>
      </trkpt>
      <trkpt lat="40.4029" lon="-1.92318">
        <ele>1402.993</ele>
      </trkpt>
      <trkpt lat="40.40294" lon="-1.92321">
        <ele>1402.634</ele>
      </trkpt>
      <trkpt lat="40.40298" lon="-1.92323">
        <ele>1402.508</ele>
      </trkpt>
      <trkpt lat="40.40302" lon="-1.92326">
        <ele>1402.313</ele>
      </trkpt>
      <trkpt lat="40.40307" lon="-1.92328">
        <ele>1402.376</ele>
      </trkpt>
      <trkpt lat="40.40311" lon="-1.92329">
        <ele>1402.416</ele>
      </trkpt>
      <trkpt lat="40.40313" lon="-1.92329">
        <ele>1402.567</ele>
      </trkpt>
      <trkpt lat="40.40314" lon="-1.92329">
        <ele>1402.573</ele>
      </trkpt>
      <trkpt lat="40.40317" lon="-1.92328">
        <ele>1402.785</ele>
      </trkpt>
      <trkpt lat="40.4032" lon="-1.92326">
        <ele>1403.086</ele>
      </trkpt>
      <trkpt lat="40.40323" lon="-1.92322">
        <ele>1403.58</ele>
      </trkpt>
      <trkpt lat="40.40327" lon="-1.92319">
        <ele>1403.842</ele>
      </trkpt>
      <trkpt lat="40.4033" lon="-1.92315">
        <ele>1404.261</ele>
      </trkpt>
      <trkpt lat="40.40335" lon="-1.92307">
        <ele>1405.092</ele>
      </trkpt>
      <trkpt lat="40.40345" lon="-1.92286">
        <ele>1407.308</ele>
      </trkpt>
      <trkpt lat="40.40354" lon="-1.92272">
        <ele>1409.325</ele>
      </trkpt>
      <trkpt lat="40.40354" lon="-1.92272">
        <ele>1409.323</ele>
      </trkpt>
      <trkpt lat="40.40363" lon="-1.92283">
        <ele>1409.097</ele>
      </trkpt>
      <trkpt lat="40.40385" lon="-1.92306">
        <ele>1408.054</ele>
      </trkpt>
      <trkpt lat="40.40416" lon="-1.92334">
        <ele>1406.04</ele>
      </trkpt>
      <trkpt lat="40.4043" lon="-1.92347">
        <ele>1409.882</ele>
      </trkpt>
      <trkpt lat="40.40435" lon="-1.92352">
        <ele>1410.973</ele>
      </trkpt>
      <trkpt lat="40.40441" lon="-1.92357">
        <ele>1412.137</ele>
      </trkpt>
      <trkpt lat="40.40444" lon="-1.92363">
        <ele>1412.719</ele>
      </trkpt>
      <trkpt lat="40.40446" lon="-1.92369">
        <ele>1413.048</ele>
      </trkpt>
      <trkpt lat="40.40451" lon="-1.92381">
        <ele>1413.669</ele>
      </trkpt>
      <trkpt lat="40.40457" lon="-1.9239">
        <ele>1413.908</ele>
      </trkpt>
      <trkpt lat="40.40465" lon="-1.92402">
        <ele>1413.814</ele>
      </trkpt>
      <trkpt lat="40.40475" lon="-1.92414">
        <ele>1413.168</ele>
      </trkpt>
      <trkpt lat="40.40485" lon="-1.92428">
        <ele>1412.565</ele>
      </trkpt>
      <trkpt lat="40.40504" lon="-1.92447">
        <ele>1412.055</ele>
      </trkpt>
      <trkpt lat="40.40518" lon="-1.92461">
        <ele>1413.321</ele>
      </trkpt>
      <trkpt lat="40.4053" lon="-1.92471">
        <ele>1413.783</ele>
      </trkpt>
      <trkpt lat="40.40545" lon="-1.92482">
        <ele>1413.484</ele>
      </trkpt>
      <trkpt lat="40.40556" lon="-1.92487">
        <ele>1413.238</ele>
      </trkpt>
      <trkpt lat="40.40563" lon="-1.92491">
        <ele>1412.77</ele>
      </trkpt>
      <trkpt lat="40.40568" lon="-1.92494">
        <ele>1412.289</ele>
      </trkpt>
      <trkpt lat="40.40577" lon="-1.92503">
        <ele>1411.13</ele>
      </trkpt>
      <trkpt lat="40.40583" lon="-1.92506">
        <ele>1411.308</ele>
      </trkpt>
      <trkpt lat="40.40588" lon="-1.92507">
        <ele>1411.313</ele>
      </trkpt>
      <trkpt lat="40.40592" lon="-1.92507">
        <ele>1411.385</ele>
      </trkpt>
      <trkpt lat="40.40597" lon="-1.92505">
        <ele>1411.173</ele>
      </trkpt>
      <trkpt lat="40.40603" lon="-1.92503">
        <ele>1411.095</ele>
      </trkpt>
      <trkpt lat="40.40615" lon="-1.92496">
        <ele>1411.821</ele>
      </trkpt>
      <trkpt lat="40.40624" lon="-1.92491">
        <ele>1413.393</ele>
      </trkpt>
      <trkpt lat="40.40633" lon="-1.92487">
        <ele>1414.644</ele>
      </trkpt>
      <trkpt lat="40.40649" lon="-1.92481">
        <ele>1416.578</ele>
      </trkpt>
      <trkpt lat="40.40661" lon="-1.92478">
        <ele>1417.63</ele>
      </trkpt>
      <trkpt lat="40.40671" lon="-1.92478">
        <ele>1417.669</ele>
      </trkpt>
      <trkpt lat="40.4068" lon="-1.92479">
        <ele>1417.35</ele>
      </trkpt>
      <trkpt lat="40.40689" lon="-1.92479">
        <ele>1417.208</ele>
      </trkpt>
      <trkpt lat="40.40705" lon="-1.92482">
        <ele>1416.22</ele>
      </trkpt>
      <trkpt lat="40.40712" lon="-1.92484">
        <ele>1415.528</ele>
      </trkpt>
      <trkpt lat="40.40723" lon="-1.92488">
        <ele>1414.175</ele>
      </trkpt>
      <trkpt lat="40.40733" lon="-1.92494">
        <ele>1412.025</ele>
      </trkpt>
      <trkpt lat="40.40747" lon="-1.92502">
        <ele>1410.191</ele>
      </trkpt>
      <trkpt lat="40.40761" lon="-1.92511">
        <ele>1411.293</ele>
      </trkpt>
      <trkpt lat="40.4077" lon="-1.92517">
        <ele>1411.644</ele>
      </trkpt>
      <trkpt lat="40.40777" lon="-1.92524">
        <ele>1411.768</ele>
      </trkpt>
      <trkpt lat="40.40784" lon="-1.92529">
        <ele>1411.64</ele>
      </trkpt>
      <trkpt lat="40.40795" lon="-1.92539">
        <ele>1410.799</ele>
      </trkpt>
      <trkpt lat="40.40802" lon="-1.92547">
        <ele>1409.72</ele>
      </trkpt>
      <trkpt lat="40.4081" lon="-1.92553">
        <ele>1408.508</ele>
      </trkpt>
      <trkpt lat="40.40818" lon="-1.92558">
        <ele>1407.127</ele>
      </trkpt>
      <trkpt lat="40.40822" lon="-1.92561">
        <ele>1406.361</ele>
      </trkpt>
      <trkpt lat="40.40826" lon="-1.92562">
        <ele>1405.777</ele>
      </trkpt>
      <trkpt lat="40.40832" lon="-1.92562">
        <ele>1405.012</ele>
      </trkpt>
      <trkpt lat="40.40838" lon="-1.92562">
        <ele>1404.528</ele>
      </trkpt>
      <trkpt lat="40.40845" lon="-1.92561">
        <ele>1404.13</ele>
      </trkpt>
      <trkpt lat="40.40853" lon="-1.92558">
        <ele>1404.121</ele>
      </trkpt>
      <trkpt lat="40.40918" lon="-1.92533">
        <ele>1404.235</ele>
      </trkpt>
      <trkpt lat="40.40929" lon="-1.9253">
        <ele>1404.347</ele>
      </trkpt>
      <trkpt lat="40.40937" lon="-1.92528">
        <ele>1404.356</ele>
      </trkpt>
      <trkpt lat="40.40945" lon="-1.92525">
        <ele>1404.597</ele>
      </trkpt>
      <trkpt lat="40.4095" lon="-1.92521">
        <ele>1404.908</ele>
      </trkpt>
      <trkpt lat="40.40958" lon="-1.92516">
        <ele>1405.317</ele>
      </trkpt>
      <trkpt lat="40.40961" lon="-1.92513">
        <ele>1405.761</ele>
      </trkpt>
      <trkpt lat="40.40964" lon="-1.9251">
        <ele>1406.048</ele>
      </trkpt>
      <trkpt lat="40.40966" lon="-1.92508">
        <ele>1406.27</ele>
      </trkpt>
      <trkpt lat="40.4097" lon="-1.92506">
        <ele>1406.216</ele>
      </trkpt>
      <trkpt lat="40.40973" lon="-1.92506">
        <ele>1406.028</ele>
      </trkpt>
      <trkpt lat="40.40975" lon="-1.92507">
        <ele>1405.749</ele>
      </trkpt>
      <trkpt lat="40.40977" lon="-1.92508">
        <ele>1405.483</ele>
      </trkpt>
      <trkpt lat="40.40979" lon="-1.92511">
        <ele>1404.955</ele>
      </trkpt>
      <trkpt lat="40.4098" lon="-1.92514">
        <ele>1404.444</ele>
      </trkpt>
      <trkpt lat="40.40981" lon="-1.92518">
        <ele>1403.795</ele>
      </trkpt>
      <trkpt lat="40.4098" lon="-1.92523">
        <ele>1403.008</ele>
      </trkpt>
      <trkpt lat="40.40979" lon="-1.9253">
        <ele>1402.005</ele>
      </trkpt>
      <trkpt lat="40.40978" lon="-1.92537">
        <ele>1401.041</ele>
      </trkpt>
      <trkpt lat="40.40977" lon="-1.92544">
        <ele>1400.021</ele>
      </trkpt>
      <trkpt lat="40.40975" lon="-1.92551">
        <ele>1399.043</ele>
      </trkpt>
      <trkpt lat="40.40974" lon="-1.9256">
        <ele>1397.639</ele>
      </trkpt>
      <trkpt lat="40.40973" lon="-1.92568">
        <ele>1396.471</ele>
      </trkpt>
      <trkpt lat="40.40972" lon="-1.92576">
        <ele>1395.152</ele>
      </trkpt>
      <trkpt lat="40.40972" lon="-1.92584">
        <ele>1394.056</ele>
      </trkpt>
      <trkpt lat="40.40974" lon="-1.92593">
        <ele>1394.058</ele>
      </trkpt>
      <trkpt lat="40.40978" lon="-1.92607">
        <ele>1393.717</ele>
      </trkpt>
      <trkpt lat="40.40981" lon="-1.92615">
        <ele>1393.488</ele>
      </trkpt>
      <trkpt lat="40.40984" lon="-1.9263">
        <ele>1392.708</ele>
      </trkpt>
      <trkpt lat="40.4099" lon="-1.92651">
        <ele>1391.008</ele>
      </trkpt>
      <trkpt lat="40.40993" lon="-1.92665">
        <ele>1389.753</ele>
      </trkpt>
      <trkpt lat="40.40995" lon="-1.92674">
        <ele>1389.352</ele>
      </trkpt>
      <trkpt lat="40.40997" lon="-1.92687">
        <ele>1388.934</ele>
      </trkpt>
      <trkpt lat="40.40999" lon="-1.92701">
        <ele>1388.38</ele>
      </trkpt>
      <trkpt lat="40.40999" lon="-1.92711">
        <ele>1388.422</ele>
      </trkpt>
      <trkpt lat="40.41001" lon="-1.92721">
        <ele>1388.263</ele>
      </trkpt>
      <trkpt lat="40.41006" lon="-1.92736">
        <ele>1389.227</ele>
      </trkpt>
      <trkpt lat="40.41013" lon="-1.9275">
        <ele>1390.259</ele>
      </trkpt>
      <trkpt lat="40.41018" lon="-1.92763">
        <ele>1391.478</ele>
      </trkpt>
      <trkpt lat="40.41021" lon="-1.92774">
        <ele>1391.919</ele>
      </trkpt>
      <trkpt lat="40.41026" lon="-1.92784">
        <ele>1392.408</ele>
      </trkpt>
      <trkpt lat="40.41035" lon="-1.92795">
        <ele>1392.719</ele>
      </trkpt>
      <trkpt lat="40.41041" lon="-1.92804">
        <ele>1392.481</ele>
      </trkpt>
      <trkpt lat="40.41047" lon="-1.92811">
        <ele>1391.967</ele>
      </trkpt>
      <trkpt lat="40.41054" lon="-1.92819">
        <ele>1391.135</ele>
      </trkpt>
      <trkpt lat="40.41062" lon="-1.92826">
        <ele>1389.931</ele>
      </trkpt>
      <trkpt lat="40.4107" lon="-1.92833">
        <ele>1388.363</ele>
      </trkpt>
      <trkpt lat="40.41075" lon="-1.92837">
        <ele>1387.614</ele>
      </trkpt>
      <trkpt lat="40.41079" lon="-1.92841">
        <ele>1387.028</ele>
      </trkpt>
      <trkpt lat="40.41084" lon="-1.92847">
        <ele>1386.42</ele>
      </trkpt>
      <trkpt lat="40.41086" lon="-1.92853">
        <ele>1386.869</ele>
      </trkpt>
      <trkpt lat="40.41088" lon="-1.92859">
        <ele>1387.12</ele>
      </trkpt>
      <trkpt lat="40.4109" lon="-1.92865">
        <ele>1387.408</ele>
      </trkpt>
      <trkpt lat="40.41091" lon="-1.92873">
        <ele>1387.127</ele>
      </trkpt>
      <trkpt lat="40.41092" lon="-1.9288">
        <ele>1386.961</ele>
      </trkpt>
      <trkpt lat="40.41093" lon="-1.92888">
        <ele>1386.777</ele>
      </trkpt>
      <trkpt lat="40.41093" lon="-1.92896">
        <ele>1386.144</ele>
      </trkpt>
      <trkpt lat="40.41093" lon="-1.92905">
        <ele>1385.43</ele>
      </trkpt>
      <trkpt lat="40.41094" lon="-1.92914">
        <ele>1385.052</ele>
      </trkpt>
      <trkpt lat="40.41097" lon="-1.92928">
        <ele>1385.263</ele>
      </trkpt>
      <trkpt lat="40.411" lon="-1.92942">
        <ele>1385.267</ele>
      </trkpt>
      <trkpt lat="40.41108" lon="-1.92966">
        <ele>1385.569</ele>
      </trkpt>
      <trkpt lat="40.41117" lon="-1.92991">
        <ele>1385.038</ele>
      </trkpt>
      <trkpt lat="40.41123" lon="-1.93006">
        <ele>1384.669</ele>
      </trkpt>
      <trkpt lat="40.41128" lon="-1.93019">
        <ele>1384.408</ele>
      </trkpt>
      <trkpt lat="40.4113" lon="-1.93027">
        <ele>1384.113</ele>
      </trkpt>
      <trkpt lat="40.41132" lon="-1.93035">
        <ele>1383.721</ele>
      </trkpt>
      <trkpt lat="40.41133" lon="-1.93043">
        <ele>1383.361</ele>
      </trkpt>
      <trkpt lat="40.41133" lon="-1.93051">
        <ele>1382.939</ele>
      </trkpt>
      <trkpt lat="40.41132" lon="-1.9306">
        <ele>1382.455</ele>
      </trkpt>
      <trkpt lat="40.4113" lon="-1.9307">
        <ele>1381.957</ele>
      </trkpt>
      <trkpt lat="40.41128" lon="-1.93078">
        <ele>1381.668</ele>
      </trkpt>
      <trkpt lat="40.41124" lon="-1.93087">
        <ele>1381.842</ele>
      </trkpt>
      <trkpt lat="40.41123" lon="-1.93094">
        <ele>1382.264</ele>
      </trkpt>
      <trkpt lat="40.41122" lon="-1.931">
        <ele>1382.763</ele>
      </trkpt>
      <trkpt lat="40.41123" lon="-1.93105">
        <ele>1382.914</ele>
      </trkpt>
      <trkpt lat="40.41124" lon="-1.93111">
        <ele>1383.108</ele>
      </trkpt>
      <trkpt lat="40.4113" lon="-1.93119">
        <ele>1382.709</ele>
      </trkpt>
      <trkpt lat="40.41135" lon="-1.93126">
        <ele>1382.354</ele>
      </trkpt>
      <trkpt lat="40.41141" lon="-1.93134">
        <ele>1381.514</ele>
      </trkpt>
      <trkpt lat="40.41151" lon="-1.93144">
        <ele>1379.857</ele>
      </trkpt>
      <trkpt lat="40.4116" lon="-1.93152">
        <ele>1377.943</ele>
      </trkpt>
      <trkpt lat="40.4117" lon="-1.93161">
        <ele>1376.855</ele>
      </trkpt>
      <trkpt lat="40.41178" lon="-1.93169">
        <ele>1378.036</ele>
      </trkpt>
      <trkpt lat="40.41183" lon="-1.9318">
        <ele>1379.41</ele>
      </trkpt>
      <trkpt lat="40.41186" lon="-1.9319">
        <ele>1380.512</ele>
      </trkpt>
      <trkpt lat="40.41188" lon="-1.93201">
        <ele>1381.381</ele>
      </trkpt>
      <trkpt lat="40.4119" lon="-1.93217">
        <ele>1382.432</ele>
      </trkpt>
      <trkpt lat="40.4119" lon="-1.9323">
        <ele>1383.108</ele>
      </trkpt>
      <trkpt lat="40.41189" lon="-1.93244">
        <ele>1383.623</ele>
      </trkpt>
      <trkpt lat="40.41188" lon="-1.9326">
        <ele>1383.449</ele>
      </trkpt>
      <trkpt lat="40.41187" lon="-1.93271">
        <ele>1382.995</ele>
      </trkpt>
      <trkpt lat="40.41185" lon="-1.93285">
        <ele>1382.07</ele>
      </trkpt>
      <trkpt lat="40.41182" lon="-1.93299">
        <ele>1381.016</ele>
      </trkpt>
      <trkpt lat="40.41176" lon="-1.93312">
        <ele>1379.548</ele>
      </trkpt>
      <trkpt lat="40.41168" lon="-1.93329">
        <ele>1377.499</ele>
      </trkpt>
      <trkpt lat="40.41157" lon="-1.93345">
        <ele>1379.873</ele>
      </trkpt>
      <trkpt lat="40.41146" lon="-1.93361">
        <ele>1383.035</ele>
      </trkpt>
      <trkpt lat="40.41135" lon="-1.93376">
        <ele>1386.364</ele>
      </trkpt>
      <trkpt lat="40.4113" lon="-1.93389">
        <ele>1387.665</ele>
      </trkpt>
      <trkpt lat="40.41127" lon="-1.93402">
        <ele>1388.208</ele>
      </trkpt>
      <trkpt lat="40.41125" lon="-1.93413">
        <ele>1388.611</ele>
      </trkpt>
      <trkpt lat="40.41125" lon="-1.93422">
        <ele>1388.883</ele>
      </trkpt>
      <trkpt lat="40.41124" lon="-1.9343">
        <ele>1389.723</ele>
      </trkpt>
      <trkpt lat="40.41125" lon="-1.93438">
        <ele>1389.822</ele>
      </trkpt>
      <trkpt lat="40.41125" lon="-1.93446">
        <ele>1390.338</ele>
      </trkpt>
      <trkpt lat="40.41126" lon="-1.93451">
        <ele>1390.28</ele>
      </trkpt>
      <trkpt lat="40.41128" lon="-1.93459">
        <ele>1389.931</ele>
      </trkpt>
      <trkpt lat="40.41132" lon="-1.93471">
        <ele>1389.025</ele>
      </trkpt>
      <trkpt lat="40.41136" lon="-1.93482">
        <ele>1388.037</ele>
      </trkpt>
      <trkpt lat="40.41141" lon="-1.93497">
        <ele>1386.626</ele>
      </trkpt>
      <trkpt lat="40.41148" lon="-1.93522">
        <ele>1385.817</ele>
      </trkpt>
      <trkpt lat="40.41155" lon="-1.93545">
        <ele>1385.208</ele>
      </trkpt>
      <trkpt lat="40.41159" lon="-1.9357">
        <ele>1386.221</ele>
      </trkpt>
      <trkpt lat="40.41163" lon="-1.93596">
        <ele>1387.129</ele>
      </trkpt>
      <trkpt lat="40.41166" lon="-1.93624">
        <ele>1388.147</ele>
      </trkpt>
      <trkpt lat="40.4117" lon="-1.93653">
        <ele>1389.882</ele>
      </trkpt>
      <trkpt lat="40.41171" lon="-1.93679">
        <ele>1390.538</ele>
      </trkpt>
      <trkpt lat="40.41175" lon="-1.93761">
        <ele>1389.16</ele>
      </trkpt>
      <trkpt lat="40.4118" lon="-1.93889">
        <ele>1397.011</ele>
      </trkpt>
      <trkpt lat="40.4118" lon="-1.93922">
        <ele>1398.635</ele>
      </trkpt>
      <trkpt lat="40.4118" lon="-1.93954">
        <ele>1400.837</ele>
      </trkpt>
      <trkpt lat="40.41181" lon="-1.93963">
        <ele>1401.496</ele>
      </trkpt>
      <trkpt lat="40.41182" lon="-1.9397">
        <ele>1401.847</ele>
      </trkpt>
      <trkpt lat="40.41185" lon="-1.93978">
        <ele>1402.108</ele>
      </trkpt>
      <trkpt lat="40.41189" lon="-1.93987">
        <ele>1402.421</ele>
      </trkpt>
      <trkpt lat="40.41193" lon="-1.93994">
        <ele>1402.629</ele>
      </trkpt>
      <trkpt lat="40.41197" lon="-1.93999">
        <ele>1402.747</ele>
      </trkpt>
      <trkpt lat="40.41207" lon="-1.94012">
        <ele>1403.17</ele>
      </trkpt>
      <trkpt lat="40.41227" lon="-1.94035">
        <ele>1403.096</ele>
      </trkpt>
      <trkpt lat="40.41243" lon="-1.94053">
        <ele>1402.418</ele>
      </trkpt>
      <trkpt lat="40.41259" lon="-1.94082">
        <ele>1404.959</ele>
      </trkpt>
      <trkpt lat="40.41275" lon="-1.94105">
        <ele>1408.833</ele>
      </trkpt>
      <trkpt lat="40.41283" lon="-1.94116">
        <ele>1410.895</ele>
      </trkpt>
      <trkpt lat="40.41287" lon="-1.94124">
        <ele>1411.884</ele>
      </trkpt>
      <trkpt lat="40.4129" lon="-1.94137">
        <ele>1412.685</ele>
      </trkpt>
      <trkpt lat="40.41292" lon="-1.9415">
        <ele>1413.308</ele>
      </trkpt>
      <trkpt lat="40.41294" lon="-1.94162">
        <ele>1413.911</ele>
      </trkpt>
      <trkpt lat="40.41297" lon="-1.94175">
        <ele>1414.647</ele>
      </trkpt>
      <trkpt lat="40.41299" lon="-1.94199">
        <ele>1415.226</ele>
      </trkpt>
      <trkpt lat="40.41301" lon="-1.94235">
        <ele>1415.732</ele>
      </trkpt>
      <trkpt lat="40.41304" lon="-1.94276">
        <ele>1417.718</ele>
      </trkpt>
      <trkpt lat="40.41304" lon="-1.94292">
        <ele>1418.75</ele>
      </trkpt>
      <trkpt lat="40.41303" lon="-1.94307">
        <ele>1419.551</ele>
      </trkpt>
      <trkpt lat="40.41301" lon="-1.94325">
        <ele>1420.465</ele>
      </trkpt>
      <trkpt lat="40.41299" lon="-1.94344">
        <ele>1421.297</ele>
      </trkpt>
      <trkpt lat="40.41297" lon="-1.94359">
        <ele>1421.826</ele>
      </trkpt>
      <trkpt lat="40.41296" lon="-1.94372">
        <ele>1422.497</ele>
      </trkpt>
      <trkpt lat="40.41295" lon="-1.94384">
        <ele>1423.008</ele>
      </trkpt>
      <trkpt lat="40.41295" lon="-1.94396">
        <ele>1423.621</ele>
      </trkpt>
      <trkpt lat="40.41297" lon="-1.94408">
        <ele>1424.429</ele>
      </trkpt>
      <trkpt lat="40.41301" lon="-1.94419">
        <ele>1425.247</ele>
      </trkpt>
      <trkpt lat="40.41306" lon="-1.94439">
        <ele>1426.459</ele>
      </trkpt>
      <trkpt lat="40.4131" lon="-1.94454">
        <ele>1427.245</ele>
      </trkpt>
      <trkpt lat="40.41328" lon="-1.94514">
        <ele>1429.117</ele>
      </trkpt>
      <trkpt lat="40.41343" lon="-1.94569">
        <ele>1433.668</ele>
      </trkpt>
      <trkpt lat="40.41351" lon="-1.946">
        <ele>1437.452</ele>
      </trkpt>
      <trkpt lat="40.4138" lon="-1.94688">
        <ele>1447.124</ele>
      </trkpt>
      <trkpt lat="40.41392" lon="-1.94723">
        <ele>1448.483</ele>
      </trkpt>
      <trkpt lat="40.41406" lon="-1.94755">
        <ele>1449.054</ele>
      </trkpt>
      <trkpt lat="40.41418" lon="-1.94783">
        <ele>1450.808</ele>
      </trkpt>
      <trkpt lat="40.41431" lon="-1.9481">
        <ele>1453.107</ele>
      </trkpt>
      <trkpt lat="40.41463" lon="-1.94861">
        <ele>1456.043</ele>
      </trkpt>
      <trkpt lat="40.4147" lon="-1.94872">
        <ele>1456.313</ele>
      </trkpt>
      <trkpt lat="40.41474" lon="-1.94879">
        <ele>1456.465</ele>
      </trkpt>
      <trkpt lat="40.4148" lon="-1.94885">
        <ele>1456.461</ele>
      </trkpt>
      <trkpt lat="40.41486" lon="-1.94889">
        <ele>1456.243</ele>
      </trkpt>
      <trkpt lat="40.41494" lon="-1.94895">
        <ele>1455.964</ele>
      </trkpt>
      <trkpt lat="40.41502" lon="-1.94903">
        <ele>1455.798</ele>
      </trkpt>
      <trkpt lat="40.41509" lon="-1.9491">
        <ele>1456.21</ele>
      </trkpt>
      <trkpt lat="40.41524" lon="-1.94923">
        <ele>1457.099</ele>
      </trkpt>
      <trkpt lat="40.41538" lon="-1.94931">
        <ele>1457.77</ele>
      </trkpt>
      <trkpt lat="40.4155" lon="-1.94941">
        <ele>1458.308</ele>
      </trkpt>
      <trkpt lat="40.41555" lon="-1.94945">
        <ele>1458.613</ele>
      </trkpt>
      <trkpt lat="40.41559" lon="-1.9495">
        <ele>1458.885</ele>
      </trkpt>
      <trkpt lat="40.41563" lon="-1.94955">
        <ele>1459.073</ele>
      </trkpt>
      <trkpt lat="40.41566" lon="-1.94961">
        <ele>1459.176</ele>
      </trkpt>
      <trkpt lat="40.41569" lon="-1.94966">
        <ele>1459.312</ele>
      </trkpt>
      <trkpt lat="40.41575" lon="-1.94977">
        <ele>1459.694</ele>
      </trkpt>
      <trkpt lat="40.41584" lon="-1.94993">
        <ele>1460.055</ele>
      </trkpt>
      <trkpt lat="40.41616" lon="-1.95048">
        <ele>1462.769</ele>
      </trkpt>
      <trkpt lat="40.41641" lon="-1.95087">
        <ele>1462.531</ele>
      </trkpt>
      <trkpt lat="40.41706" lon="-1.95183">
        <ele>1466.24</ele>
      </trkpt>
      <trkpt lat="40.41812" lon="-1.95338">
        <ele>1474.361</ele>
      </trkpt>
      <trkpt lat="40.41826" lon="-1.95354">
        <ele>1475.208</ele>
      </trkpt>
      <trkpt lat="40.41837" lon="-1.95365">
        <ele>1475.726</ele>
      </trkpt>
      <trkpt lat="40.41846" lon="-1.95378">
        <ele>1476.042</ele>
      </trkpt>
      <trkpt lat="40.41855" lon="-1.95394">
        <ele>1475.887</ele>
      </trkpt>
      <trkpt lat="40.41863" lon="-1.95407">
        <ele>1475.83</ele>
      </trkpt>
      <trkpt lat="40.41869" lon="-1.95417">
        <ele>1475.716</ele>
      </trkpt>
      <trkpt lat="40.41877" lon="-1.95434">
        <ele>1476.448</ele>
      </trkpt>
      <trkpt lat="40.41886" lon="-1.95452">
        <ele>1476.899</ele>
      </trkpt>
      <trkpt lat="40.41934" lon="-1.95553">
        <ele>1479.443</ele>
      </trkpt>
      <trkpt lat="40.42052" lon="-1.95758">
        <ele>1494.235</ele>
      </trkpt>
      <trkpt lat="40.4207" lon="-1.95792">
        <ele>1496.484</ele>
      </trkpt>
      <trkpt lat="40.42082" lon="-1.95813">
        <ele>1496.935</ele>
      </trkpt>
      <trkpt lat="40.42092" lon="-1.95827">
        <ele>1498.308</ele>
      </trkpt>
      <trkpt lat="40.42097" lon="-1.9584">
        <ele>1499.008</ele>
      </trkpt>
      <trkpt lat="40.42108" lon="-1.9587">
        <ele>1501.262</ele>
      </trkpt>
      <trkpt lat="40.42116" lon="-1.95894">
        <ele>1502.722</ele>
      </trkpt>
      <trkpt lat="40.42126" lon="-1.95919">
        <ele>1504.852</ele>
      </trkpt>
      <trkpt lat="40.4214" lon="-1.95964">
        <ele>1507.068</ele>
      </trkpt>
      <trkpt lat="40.42146" lon="-1.95984">
        <ele>1507.31</ele>
      </trkpt>
      <trkpt lat="40.4215" lon="-1.95997">
        <ele>1507.421</ele>
      </trkpt>
      <trkpt lat="40.42152" lon="-1.9601">
        <ele>1507.495</ele>
      </trkpt>
      <trkpt lat="40.42154" lon="-1.96021">
        <ele>1507.557</ele>
      </trkpt>
      <trkpt lat="40.42155" lon="-1.96037">
        <ele>1507.486</ele>
      </trkpt>
      <trkpt lat="40.42155" lon="-1.9605">
        <ele>1507.227</ele>
      </trkpt>
      <trkpt lat="40.42156" lon="-1.9607">
        <ele>1506.908</ele>
      </trkpt>
      <trkpt lat="40.42156" lon="-1.96091">
        <ele>1507.116</ele>
      </trkpt>
      <trkpt lat="40.42157" lon="-1.96121">
        <ele>1508.888</ele>
      </trkpt>
      <trkpt lat="40.42157" lon="-1.96179">
        <ele>1512.346</ele>
      </trkpt>
      <trkpt lat="40.42158" lon="-1.962">
        <ele>1513.486</ele>
      </trkpt>
      <trkpt lat="40.42159" lon="-1.96218">
        <ele>1514.342</ele>
      </trkpt>
      <trkpt lat="40.42161" lon="-1.96234">
        <ele>1514.724</ele>
      </trkpt>
      <trkpt lat="40.42163" lon="-1.96253">
        <ele>1515.375</ele>
      </trkpt>
      <trkpt lat="40.42166" lon="-1.96272">
        <ele>1515.829</ele>
      </trkpt>
      <trkpt lat="40.42168" lon="-1.96283">
        <ele>1516.291</ele>
      </trkpt>
      <trkpt lat="40.42171" lon="-1.96295">
        <ele>1516.81</ele>
      </trkpt>
      <trkpt lat="40.42174" lon="-1.96305">
        <ele>1517.161</ele>
      </trkpt>
      <trkpt lat="40.42179" lon="-1.96315">
        <ele>1517.208</ele>
      </trkpt>
      <trkpt lat="40.42185" lon="-1.96327">
        <ele>1517.217</ele>
      </trkpt>
      <trkpt lat="40.42193" lon="-1.96341">
        <ele>1517.407</ele>
      </trkpt>
      <trkpt lat="40.42217" lon="-1.96374">
        <ele>1517.084</ele>
      </trkpt>
      <trkpt lat="40.42282" lon="-1.96467">
        <ele>1515.687</ele>
      </trkpt>
      <trkpt lat="40.42296" lon="-1.96486">
        <ele>1514.923</ele>
      </trkpt>
      <trkpt lat="40.42306" lon="-1.96498">
        <ele>1513.975</ele>
      </trkpt>
      <trkpt lat="40.42316" lon="-1.9651">
        <ele>1513.856</ele>
      </trkpt>
      <trkpt lat="40.42324" lon="-1.96518">
        <ele>1513.64</ele>
      </trkpt>
      <trkpt lat="40.42335" lon="-1.96529">
        <ele>1513.582</ele>
      </trkpt>
      <trkpt lat="40.42345" lon="-1.96538">
        <ele>1514.561</ele>
      </trkpt>
      <trkpt lat="40.42358" lon="-1.96547">
        <ele>1515.292</ele>
      </trkpt>
      <trkpt lat="40.4237" lon="-1.96553">
        <ele>1515.408</ele>
      </trkpt>
      <trkpt lat="40.42379" lon="-1.96557">
        <ele>1515.523</ele>
      </trkpt>
      <trkpt lat="40.42386" lon="-1.96565">
        <ele>1515.849</ele>
      </trkpt>
      <trkpt lat="40.42392" lon="-1.96573">
        <ele>1515.995</ele>
      </trkpt>
      <trkpt lat="40.42403" lon="-1.96585">
        <ele>1515.927</ele>
      </trkpt>
      <trkpt lat="40.42411" lon="-1.96594">
        <ele>1516.143</ele>
      </trkpt>
      <trkpt lat="40.42419" lon="-1.96605">
        <ele>1516.325</ele>
      </trkpt>
      <trkpt lat="40.42426" lon="-1.96617">
        <ele>1516.986</ele>
      </trkpt>
      <trkpt lat="40.4244" lon="-1.96633">
        <ele>1517.33</ele>
      </trkpt>
      <trkpt lat="40.42452" lon="-1.96647">
        <ele>1517.272</ele>
      </trkpt>
      <trkpt lat="40.42466" lon="-1.96662">
        <ele>1516.571</ele>
      </trkpt>
      <trkpt lat="40.42486" lon="-1.9668">
        <ele>1516.082</ele>
      </trkpt>
      <trkpt lat="40.42503" lon="-1.96695">
        <ele>1515.708</ele>
      </trkpt>
      <trkpt lat="40.42512" lon="-1.96703">
        <ele>1515.921</ele>
      </trkpt>
      <trkpt lat="40.42522" lon="-1.96713">
        <ele>1516.065</ele>
      </trkpt>
      <trkpt lat="40.42531" lon="-1.96721">
        <ele>1515.893</ele>
      </trkpt>
      <trkpt lat="40.42538" lon="-1.96728">
        <ele>1515.695</ele>
      </trkpt>
      <trkpt lat="40.42545" lon="-1.96739">
        <ele>1515.271</ele>
      </trkpt>
      <trkpt lat="40.42553" lon="-1.96754">
        <ele>1514.993</ele>
      </trkpt>
      <trkpt lat="40.42561" lon="-1.96767">
        <ele>1515.114</ele>
      </trkpt>
      <trkpt lat="40.4257" lon="-1.96785">
        <ele>1515.128</ele>
      </trkpt>
      <trkpt lat="40.42576" lon="-1.96797">
        <ele>1514.95</ele>
      </trkpt>
      <trkpt lat="40.42581" lon="-1.96808">
        <ele>1514.549</ele>
      </trkpt>
      <trkpt lat="40.42588" lon="-1.96825">
        <ele>1514.75</ele>
      </trkpt>
      <trkpt lat="40.42593" lon="-1.9684">
        <ele>1515.508</ele>
      </trkpt>
      <trkpt lat="40.42599" lon="-1.9686">
        <ele>1517.127</ele>
      </trkpt>
      <trkpt lat="40.42605" lon="-1.9688">
        <ele>1518.561</ele>
      </trkpt>
      <trkpt lat="40.42611" lon="-1.969">
        <ele>1519.777</ele>
      </trkpt>
      <trkpt lat="40.42614" lon="-1.9691">
        <ele>1520.31</ele>
      </trkpt>
      <trkpt lat="40.42622" lon="-1.96931">
        <ele>1521.576</ele>
      </trkpt>
      <trkpt lat="40.42624" lon="-1.96943">
        <ele>1522.318</ele>
      </trkpt>
      <trkpt lat="40.42627" lon="-1.96955">
        <ele>1523.059</ele>
      </trkpt>
      <trkpt lat="40.42631" lon="-1.96967">
        <ele>1523.443</ele>
      </trkpt>
      <trkpt lat="40.42638" lon="-1.96983">
        <ele>1523.455</ele>
      </trkpt>
      <trkpt lat="40.42647" lon="-1.96996">
        <ele>1522.614</ele>
      </trkpt>
      <trkpt lat="40.42656" lon="-1.9701">
        <ele>1522.045</ele>
      </trkpt>
      <trkpt lat="40.42662" lon="-1.97019">
        <ele>1521.708</ele>
      </trkpt>
      <trkpt lat="40.42669" lon="-1.97031">
        <ele>1521.92</ele>
      </trkpt>
      <trkpt lat="40.42675" lon="-1.9704">
        <ele>1522.6</ele>
      </trkpt>
      <trkpt lat="40.42684" lon="-1.97057">
        <ele>1523.529</ele>
      </trkpt>
      <trkpt lat="40.42692" lon="-1.97071">
        <ele>1524.081</ele>
      </trkpt>
      <trkpt lat="40.42697" lon="-1.97084">
        <ele>1524.577</ele>
      </trkpt>
      <trkpt lat="40.42703" lon="-1.97098">
        <ele>1524.269</ele>
      </trkpt>
      <trkpt lat="40.42707" lon="-1.97108">
        <ele>1523.93</ele>
      </trkpt>
      <trkpt lat="40.4271" lon="-1.97118">
        <ele>1523.774</ele>
      </trkpt>
      <trkpt lat="40.42714" lon="-1.97134">
        <ele>1523.576</ele>
      </trkpt>
      <trkpt lat="40.42718" lon="-1.97148">
        <ele>1523.195</ele>
      </trkpt>
      <trkpt lat="40.4272" lon="-1.97159">
        <ele>1522.986</ele>
      </trkpt>
      <trkpt lat="40.42723" lon="-1.97166">
        <ele>1522.608</ele>
      </trkpt>
      <trkpt lat="40.42727" lon="-1.97172">
        <ele>1522.621</ele>
      </trkpt>
      <trkpt lat="40.42731" lon="-1.97179">
        <ele>1522.801</ele>
      </trkpt>
      <trkpt lat="40.42735" lon="-1.97187">
        <ele>1523.139</ele>
      </trkpt>
      <trkpt lat="40.42741" lon="-1.97198">
        <ele>1523.542</ele>
      </trkpt>
      <trkpt lat="40.42747" lon="-1.97207">
        <ele>1523.778</ele>
      </trkpt>
      <trkpt lat="40.42753" lon="-1.97215">
        <ele>1524.15</ele>
      </trkpt>
      <trkpt lat="40.42891" lon="-1.9743">
        <ele>1526.191</ele>
      </trkpt>
      <trkpt lat="40.42972" lon="-1.97558">
        <ele>1524.945</ele>
      </trkpt>
      <trkpt lat="40.42988" lon="-1.97583">
        <ele>1524.467</ele>
      </trkpt>
      <trkpt lat="40.43049" lon="-1.97678">
        <ele>1522.496</ele>
      </trkpt>
      <trkpt lat="40.43108" lon="-1.97773">
        <ele>1518.847</ele>
      </trkpt>
      <trkpt lat="40.43125" lon="-1.97801">
        <ele>1519.708</ele>
      </trkpt>
      <trkpt lat="40.43143" lon="-1.97832">
        <ele>1520.221</ele>
      </trkpt>
      <trkpt lat="40.43159" lon="-1.97854">
        <ele>1519.329</ele>
      </trkpt>
      <trkpt lat="40.43173" lon="-1.97872">
        <ele>1518.447</ele>
      </trkpt>
      <trkpt lat="40.43189" lon="-1.97888">
        <ele>1517.917</ele>
      </trkpt>
      <trkpt lat="40.43201" lon="-1.97899">
        <ele>1517.733</ele>
      </trkpt>
      <trkpt lat="40.43217" lon="-1.97912">
        <ele>1517.725</ele>
      </trkpt>
      <trkpt lat="40.43233" lon="-1.97924">
        <ele>1517.696</ele>
      </trkpt>
      <trkpt lat="40.43251" lon="-1.97938">
        <ele>1517.26</ele>
      </trkpt>
      <trkpt lat="40.4327" lon="-1.97951">
        <ele>1516.472</ele>
      </trkpt>
      <trkpt lat="40.43292" lon="-1.97966">
        <ele>1515.481</ele>
      </trkpt>
      <trkpt lat="40.4331" lon="-1.97977">
        <ele>1514.762</ele>
      </trkpt>
      <trkpt lat="40.43333" lon="-1.97992">
        <ele>1513.708</ele>
      </trkpt>
      <trkpt lat="40.4335" lon="-1.98006">
        <ele>1513.019</ele>
      </trkpt>
      <trkpt lat="40.4337" lon="-1.98021">
        <ele>1512.581</ele>
      </trkpt>
      <trkpt lat="40.4338" lon="-1.9803">
        <ele>1512.291</ele>
      </trkpt>
      <trkpt lat="40.43397" lon="-1.98046">
        <ele>1511.687</ele>
      </trkpt>
      <trkpt lat="40.43433" lon="-1.98081">
        <ele>1510.713</ele>
      </trkpt>
      <trkpt lat="40.43453" lon="-1.98098">
        <ele>1510.585</ele>
      </trkpt>
      <trkpt lat="40.43465" lon="-1.98107">
        <ele>1510.496</ele>
      </trkpt>
      <trkpt lat="40.43474" lon="-1.98114">
        <ele>1510.37</ele>
      </trkpt>
      <trkpt lat="40.43483" lon="-1.9812">
        <ele>1510.342</ele>
      </trkpt>
      <trkpt lat="40.43493" lon="-1.98125">
        <ele>1510.381</ele>
      </trkpt>
      <trkpt lat="40.43502" lon="-1.9813">
        <ele>1510.182</ele>
      </trkpt>
      <trkpt lat="40.43515" lon="-1.98136">
        <ele>1509.208</ele>
      </trkpt>
      <trkpt lat="40.43541" lon="-1.98148">
        <ele>1507.519</ele>
      </trkpt>
      <trkpt lat="40.43677" lon="-1.98219">
        <ele>1503.181</ele>
      </trkpt>
      <trkpt lat="40.4368" lon="-1.98221">
        <ele>1503.191</ele>
      </trkpt>
      <trkpt lat="40.43683" lon="-1.98224">
        <ele>1503.074</ele>
      </trkpt>
      <trkpt lat="40.43686" lon="-1.98227">
        <ele>1502.97</ele>
      </trkpt>
      <trkpt lat="40.43689" lon="-1.9823">
        <ele>1502.952</ele>
      </trkpt>
      <trkpt lat="40.4369" lon="-1.98233">
        <ele>1502.733</ele>
      </trkpt>
      <trkpt lat="40.43693" lon="-1.98238">
        <ele>1502.667</ele>
      </trkpt>
      <trkpt lat="40.43695" lon="-1.98243">
        <ele>1502.469</ele>
      </trkpt>
      <trkpt lat="40.43699" lon="-1.9825">
        <ele>1502.248</ele>
      </trkpt>
      <trkpt lat="40.43703" lon="-1.98259">
        <ele>1502.369</ele>
      </trkpt>
      <trkpt lat="40.43708" lon="-1.98272">
        <ele>1502.408</ele>
      </trkpt>
      <trkpt lat="40.43715" lon="-1.9829">
        <ele>1502.513</ele>
      </trkpt>
      <trkpt lat="40.4374" lon="-1.98367">
        <ele>1500.821</ele>
      </trkpt>
      <trkpt lat="40.43785" lon="-1.98493">
        <ele>1498.861</ele>
      </trkpt>
      <trkpt lat="40.43795" lon="-1.98521">
        <ele>1499.045</ele>
      </trkpt>
      <trkpt lat="40.43801" lon="-1.98538">
        <ele>1498.991</ele>
      </trkpt>
      <trkpt lat="40.43811" lon="-1.98554">
        <ele>1498.683</ele>
      </trkpt>
      <trkpt lat="40.43819" lon="-1.98569">
        <ele>1498.054</ele>
      </trkpt>
      <trkpt lat="40.43828" lon="-1.98584">
        <ele>1497.288</ele>
      </trkpt>
      <trkpt lat="40.4384" lon="-1.98607">
        <ele>1496.58</ele>
      </trkpt>
      <trkpt lat="40.43852" lon="-1.98631">
        <ele>1496.489</ele>
      </trkpt>
      <trkpt lat="40.43867" lon="-1.98655">
        <ele>1496.47</ele>
      </trkpt>
      <trkpt lat="40.43876" lon="-1.98675">
        <ele>1496.408</ele>
      </trkpt>
      <trkpt lat="40.43885" lon="-1.98692">
        <ele>1496.513</ele>
      </trkpt>
      <trkpt lat="40.43892" lon="-1.98705">
        <ele>1496.585</ele>
      </trkpt>
      <trkpt lat="40.439" lon="-1.98718">
        <ele>1496.573</ele>
      </trkpt>
      <trkpt lat="40.43907" lon="-1.98734">
        <ele>1496.352</ele>
      </trkpt>
      <trkpt lat="40.43912" lon="-1.98747">
        <ele>1496.038</ele>
      </trkpt>
      <trkpt lat="40.43915" lon="-1.9876">
        <ele>1496.11</ele>
      </trkpt>
      <trkpt lat="40.43921" lon="-1.98778">
        <ele>1496.511</ele>
      </trkpt>
      <trkpt lat="40.4395" lon="-1.98897">
        <ele>1496.145</ele>
      </trkpt>
      <trkpt lat="40.43962" lon="-1.98944">
        <ele>1496.047</ele>
      </trkpt>
      <trkpt lat="40.4397" lon="-1.98976">
        <ele>1496.336</ele>
      </trkpt>
      <trkpt lat="40.43968" lon="-1.98977">
        <ele>1496.297</ele>
      </trkpt>
      <trkpt lat="40.43973" lon="-1.98996">
        <ele>1496.408</ele>
      </trkpt>
      <trkpt lat="40.44012" lon="-1.99133">
        <ele>1500.31</ele>
      </trkpt>
      <trkpt lat="40.44016" lon="-1.99161">
        <ele>1500.964</ele>
      </trkpt>
      <trkpt lat="40.44017" lon="-1.99186">
        <ele>1500.543</ele>
      </trkpt>
      <trkpt lat="40.4402" lon="-1.99215">
        <ele>1499.933</ele>
      </trkpt>
      <trkpt lat="40.44025" lon="-1.99228">
        <ele>1500.049</ele>
      </trkpt>
      <trkpt lat="40.44057" lon="-1.99273">
        <ele>1502.361</ele>
      </trkpt>
      <trkpt lat="40.44063" lon="-1.99286">
        <ele>1502.752</ele>
      </trkpt>
      <trkpt lat="40.44067" lon="-1.993">
        <ele>1502.956</ele>
      </trkpt>
      <trkpt lat="40.44074" lon="-1.99354">
        <ele>1503.358</ele>
      </trkpt>
      <trkpt lat="40.44086" lon="-1.99423">
        <ele>1504.127</ele>
      </trkpt>
      <trkpt lat="40.44108" lon="-1.99529">
        <ele>1502.388</ele>
      </trkpt>
      <trkpt lat="40.44149" lon="-1.99655">
        <ele>1497.408</ele>
      </trkpt>
      <trkpt lat="40.44165" lon="-1.99696">
        <ele>1496.611</ele>
      </trkpt>
      <trkpt lat="40.4418" lon="-1.99726">
        <ele>1496.556</ele>
      </trkpt>
      <trkpt lat="40.44206" lon="-1.99763">
        <ele>1495.554</ele>
      </trkpt>
      <trkpt lat="40.44216" lon="-1.99775">
        <ele>1495.16</ele>
      </trkpt>
      <trkpt lat="40.44254" lon="-1.99803">
        <ele>1494.026</ele>
      </trkpt>
      <trkpt lat="40.44314" lon="-1.99843">
        <ele>1490.398</ele>
      </trkpt>
      <trkpt lat="40.44325" lon="-1.99851">
        <ele>1489.889</ele>
      </trkpt>
      <trkpt lat="40.44335" lon="-1.99864">
        <ele>1489.313</ele>
      </trkpt>
      <trkpt lat="40.44357" lon="-1.99912">
        <ele>1488.755</ele>
      </trkpt>
      <trkpt lat="40.44361" lon="-1.99934">
        <ele>1487.394</ele>
      </trkpt>
      <trkpt lat="40.44363" lon="-1.99951">
        <ele>1486.185</ele>
      </trkpt>
      <trkpt lat="40.4436" lon="-1.99981">
        <ele>1483.708</ele>
      </trkpt>
      <trkpt lat="40.44362" lon="-1.99994">
        <ele>1482.808</ele>
      </trkpt>
      <trkpt lat="40.44367" lon="-2.00002">
        <ele>1482.526</ele>
      </trkpt>
      <trkpt lat="40.44375" lon="-2.00009">
        <ele>1482.325</ele>
      </trkpt>
      <trkpt lat="40.44387" lon="-2.00026">
        <ele>1481.38</ele>
      </trkpt>
      <trkpt lat="40.44396" lon="-2.00029">
        <ele>1481.396</ele>
      </trkpt>
      <trkpt lat="40.44414" lon="-2.00029">
        <ele>1481.848</ele>
      </trkpt>
      <trkpt lat="40.44424" lon="-2.00034">
        <ele>1481.599</ele>
      </trkpt>
      <trkpt lat="40.44448" lon="-2.00066">
        <ele>1478.593</ele>
      </trkpt>
      <trkpt lat="40.44454" lon="-2.00074">
        <ele>1477.985</ele>
      </trkpt>
      <trkpt lat="40.44457" lon="-2.00085">
        <ele>1476.964</ele>
      </trkpt>
      <trkpt lat="40.44456" lon="-2.00098">
        <ele>1476.275</ele>
      </trkpt>
      <trkpt lat="40.44453" lon="-2.00106">
        <ele>1475.808</ele>
      </trkpt>
      <trkpt lat="40.44454" lon="-2.00116">
        <ele>1475.314</ele>
      </trkpt>
      <trkpt lat="40.44522" lon="-2.00221">
        <ele>1474.468</ele>
      </trkpt>
      <trkpt lat="40.44555" lon="-2.00264">
        <ele>1474.527</ele>
      </trkpt>
      <trkpt lat="40.44591" lon="-2.00299">
        <ele>1473.756</ele>
      </trkpt>
      <trkpt lat="40.44604" lon="-2.0031">
        <ele>1473.292</ele>
      </trkpt>
      <trkpt lat="40.44623" lon="-2.00321">
        <ele>1472.814</ele>
      </trkpt>
      <trkpt lat="40.44675" lon="-2.00327">
        <ele>1473.585</ele>
      </trkpt>
      <trkpt lat="40.44684" lon="-2.00333">
        <ele>1473.089</ele>
      </trkpt>
      <trkpt lat="40.44696" lon="-2.00344">
        <ele>1472.791</ele>
      </trkpt>
      <trkpt lat="40.44709" lon="-2.00349">
        <ele>1472.58</ele>
      </trkpt>
      <trkpt lat="40.44719" lon="-2.00351">
        <ele>1472.561</ele>
      </trkpt>
      <trkpt lat="40.4475" lon="-2.00352">
        <ele>1472.608</ele>
      </trkpt>
      <trkpt lat="40.44763" lon="-2.00357">
        <ele>1472.017</ele>
      </trkpt>
      <trkpt lat="40.44774" lon="-2.00367">
        <ele>1471.489</ele>
      </trkpt>
      <trkpt lat="40.44806" lon="-2.00386">
        <ele>1469.585</ele>
      </trkpt>
      <trkpt lat="40.44816" lon="-2.00396">
        <ele>1468.712</ele>
      </trkpt>
      <trkpt lat="40.44828" lon="-2.0042">
        <ele>1467.128</ele>
      </trkpt>
      <trkpt lat="40.4484" lon="-2.00437">
        <ele>1466.43</ele>
      </trkpt>
      <trkpt lat="40.44861" lon="-2.00448">
        <ele>1466.451</ele>
      </trkpt>
      <trkpt lat="40.44871" lon="-2.00457">
        <ele>1466.275</ele>
      </trkpt>
      <trkpt lat="40.44884" lon="-2.00485">
        <ele>1465.397</ele>
      </trkpt>
      <trkpt lat="40.44913" lon="-2.00525">
        <ele>1463.586</ele>
      </trkpt>
      <trkpt lat="40.44928" lon="-2.00553">
        <ele>1461.967</ele>
      </trkpt>
      <trkpt lat="40.44935" lon="-2.00562">
        <ele>1461.408</ele>
      </trkpt>
      <trkpt lat="40.44952" lon="-2.00567">
        <ele>1461.31</ele>
      </trkpt>
      <trkpt lat="40.44991" lon="-2.00564">
        <ele>1461.864</ele>
      </trkpt>
      <trkpt lat="40.45021" lon="-2.0057">
        <ele>1461.743</ele>
      </trkpt>
      <trkpt lat="40.45047" lon="-2.00585">
        <ele>1460.91</ele>
      </trkpt>
      <trkpt lat="40.45115" lon="-2.00606">
        <ele>1460.426</ele>
      </trkpt>
      <trkpt lat="40.45134" lon="-2.00614">
        <ele>1460.128</ele>
      </trkpt>
      <trkpt lat="40.45152" lon="-2.00626">
        <ele>1459.319</ele>
      </trkpt>
      <trkpt lat="40.45202" lon="-2.00653">
        <ele>1457.253</ele>
      </trkpt>
      <trkpt lat="40.45214" lon="-2.00654">
        <ele>1457.225</ele>
      </trkpt>
      <trkpt lat="40.45227" lon="-2.00653">
        <ele>1457.324</ele>
      </trkpt>
      <trkpt lat="40.45255" lon="-2.00646">
        <ele>1457.555</ele>
      </trkpt>
      <trkpt lat="40.4528" lon="-2.00644">
        <ele>1457.808</ele>
      </trkpt>
      <trkpt lat="40.45303" lon="-2.00649">
        <ele>1457.914</ele>
      </trkpt>
      <trkpt lat="40.45314" lon="-2.00655">
        <ele>1457.904</ele>
      </trkpt>
      <trkpt lat="40.45333" lon="-2.0067">
        <ele>1458.124</ele>
      </trkpt>
      <trkpt lat="40.45349" lon="-2.00687">
        <ele>1458.876</ele>
      </trkpt>
      <trkpt lat="40.45361" lon="-2.00704">
        <ele>1459.082</ele>
      </trkpt>
      <trkpt lat="40.45375" lon="-2.00717">
        <ele>1458.974</ele>
      </trkpt>
      <trkpt lat="40.454" lon="-2.00753">
        <ele>1457.775</ele>
      </trkpt>
      <trkpt lat="40.45408" lon="-2.0076">
        <ele>1457.639</ele>
      </trkpt>
      <trkpt lat="40.45426" lon="-2.00768">
        <ele>1457.241</ele>
      </trkpt>
      <trkpt lat="40.45453" lon="-2.00771">
        <ele>1456.72</ele>
      </trkpt>
      <trkpt lat="40.45509" lon="-2.00783">
        <ele>1456.191</ele>
      </trkpt>
      <trkpt lat="40.4554" lon="-2.00782">
        <ele>1455.808</ele>
      </trkpt>
      <trkpt lat="40.45553" lon="-2.00782">
        <ele>1455.717</ele>
      </trkpt>
      <trkpt lat="40.45565" lon="-2.00778">
        <ele>1455.561</ele>
      </trkpt>
      <trkpt lat="40.45593" lon="-2.00763">
        <ele>1455.081</ele>
      </trkpt>
      <trkpt lat="40.45617" lon="-2.0076">
        <ele>1454.783</ele>
      </trkpt>
      <trkpt lat="40.4564" lon="-2.0076">
        <ele>1454.469</ele>
      </trkpt>
      <trkpt lat="40.45689" lon="-2.00787">
        <ele>1452.781</ele>
      </trkpt>
      <trkpt lat="40.45704" lon="-2.00788">
        <ele>1451.882</ele>
      </trkpt>
      <trkpt lat="40.45752" lon="-2.0082">
        <ele>1447.696</ele>
      </trkpt>
      <trkpt lat="40.45786" lon="-2.0084">
        <ele>1445.918</ele>
      </trkpt>
      <trkpt lat="40.45812" lon="-2.00851">
        <ele>1445.287</ele>
      </trkpt>
      <trkpt lat="40.45841" lon="-2.00858">
        <ele>1444.798</ele>
      </trkpt>
      <trkpt lat="40.45848" lon="-2.00858">
        <ele>1444.808</ele>
      </trkpt>
      <trkpt lat="40.45865" lon="-2.00855">
        <ele>1444.914</ele>
      </trkpt>
      <trkpt lat="40.45874" lon="-2.0085">
        <ele>1444.904</ele>
      </trkpt>
      <trkpt lat="40.45882" lon="-2.00843">
        <ele>1444.853</ele>
      </trkpt>
      <trkpt lat="40.45889" lon="-2.00836">
        <ele>1444.75</ele>
      </trkpt>
      <trkpt lat="40.45918" lon="-2.00806">
        <ele>1444.716</ele>
      </trkpt>
      <trkpt lat="40.45946" lon="-2.00783">
        <ele>1443.818</ele>
      </trkpt>
      <trkpt lat="40.45968" lon="-2.00758">
        <ele>1442.999</ele>
      </trkpt>
      <trkpt lat="40.45999" lon="-2.00697">
        <ele>1442.053</ele>
      </trkpt>
      <trkpt lat="40.46025" lon="-2.00642">
        <ele>1441.375</ele>
      </trkpt>
      <trkpt lat="40.46051" lon="-2.00599">
        <ele>1440.334</ele>
      </trkpt>
      <trkpt lat="40.46073" lon="-2.00575">
        <ele>1439.275</ele>
      </trkpt>
      <trkpt lat="40.46081" lon="-2.00562">
        <ele>1438.608</ele>
      </trkpt>
      <trkpt lat="40.46086" lon="-2.00548">
        <ele>1438.108</ele>
      </trkpt>
      <trkpt lat="40.46091" lon="-2.00517">
        <ele>1437.462</ele>
      </trkpt>
      <trkpt lat="40.46094" lon="-2.00483">
        <ele>1437.422</ele>
      </trkpt>
      <trkpt lat="40.46097" lon="-2.00467">
        <ele>1437.785</ele>
      </trkpt>
      <trkpt lat="40.46102" lon="-2.0046">
        <ele>1437.761</ele>
      </trkpt>
      <trkpt lat="40.46108" lon="-2.00459">
        <ele>1437.743</ele>
      </trkpt>
      <trkpt lat="40.46116" lon="-2.00453">
        <ele>1437.794</ele>
      </trkpt>
      <trkpt lat="40.46133" lon="-2.00457">
        <ele>1437.418</ele>
      </trkpt>
      <trkpt lat="40.46155" lon="-2.00468">
        <ele>1437.11</ele>
      </trkpt>
      <trkpt lat="40.46159" lon="-2.00472">
        <ele>1437.139</ele>
      </trkpt>
      <trkpt lat="40.46157" lon="-2.00477">
        <ele>1437.14</ele>
      </trkpt>
      <trkpt lat="40.46158" lon="-2.00494">
        <ele>1437.008</ele>
      </trkpt>
      <trkpt lat="40.4616" lon="-2.00505">
        <ele>1437.114</ele>
      </trkpt>
      <trkpt lat="40.46169" lon="-2.00526">
        <ele>1437.213</ele>
      </trkpt>
      <trkpt lat="40.46195" lon="-2.00564">
        <ele>1436.072</ele>
      </trkpt>
      <trkpt lat="40.46229" lon="-2.00606">
        <ele>1433.855</ele>
      </trkpt>
      <trkpt lat="40.46264" lon="-2.0064">
        <ele>1432.121</ele>
      </trkpt>
      <trkpt lat="40.46299" lon="-2.00662">
        <ele>1431.173</ele>
      </trkpt>
      <trkpt lat="40.46338" lon="-2.00678">
        <ele>1430.294</ele>
      </trkpt>
      <trkpt lat="40.46359" lon="-2.00691">
        <ele>1430.068</ele>
      </trkpt>
      <trkpt lat="40.46368" lon="-2.007">
        <ele>1430.07</ele>
      </trkpt>
      <trkpt lat="40.46389" lon="-2.00729">
        <ele>1430.229</ele>
      </trkpt>
      <trkpt lat="40.46417" lon="-2.00785">
        <ele>1431.72</ele>
      </trkpt>
      <trkpt lat="40.46443" lon="-2.00855">
        <ele>1433.308</ele>
      </trkpt>
      <trkpt lat="40.46443" lon="-2.00855">
        <ele>1433.32</ele>
      </trkpt>
      <trkpt lat="40.46447" lon="-2.00865">
        <ele>1433.628</ele>
      </trkpt>
      <trkpt lat="40.46485" lon="-2.00954">
        <ele>1435.175</ele>
      </trkpt>
      <trkpt lat="40.46501" lon="-2.00998">
        <ele>1435.997</ele>
      </trkpt>
      <trkpt lat="40.46511" lon="-2.01042">
        <ele>1437.973</ele>
      </trkpt>
      <trkpt lat="40.46542" lon="-2.01131">
        <ele>1440.595</ele>
      </trkpt>
      <trkpt lat="40.46595" lon="-2.01269">
        <ele>1442.786</ele>
      </trkpt>
      <trkpt lat="40.46624" lon="-2.01355">
        <ele>1441.04</ele>
      </trkpt>
      <trkpt lat="40.46631" lon="-2.01381">
        <ele>1440.832</ele>
      </trkpt>
      <trkpt lat="40.46639" lon="-2.01423">
        <ele>1440.441</ele>
      </trkpt>
      <trkpt lat="40.46646" lon="-2.01444">
        <ele>1439.512</ele>
      </trkpt>
      <trkpt lat="40.46648" lon="-2.01457">
        <ele>1439.008</ele>
      </trkpt>
      <trkpt lat="40.46645" lon="-2.01465">
        <ele>1438.82</ele>
      </trkpt>
      <trkpt lat="40.46637" lon="-2.0147">
        <ele>1438.873</ele>
      </trkpt>
      <trkpt lat="40.46598" lon="-2.01473">
        <ele>1439.692</ele>
      </trkpt>
      <trkpt lat="40.46581" lon="-2.01481">
        <ele>1439.87</ele>
      </trkpt>
      <trkpt lat="40.46563" lon="-2.01499">
        <ele>1440.536</ele>
      </trkpt>
      <trkpt lat="40.46558" lon="-2.01512">
        <ele>1441.128</ele>
      </trkpt>
      <trkpt lat="40.46557" lon="-2.01524">
        <ele>1441.589</ele>
      </trkpt>
      <trkpt lat="40.46559" lon="-2.01536">
        <ele>1441.683</ele>
      </trkpt>
      <trkpt lat="40.46559" lon="-2.01554">
        <ele>1442.075</ele>
      </trkpt>
      <trkpt lat="40.46552" lon="-2.01624">
        <ele>1443.934</ele>
      </trkpt>
      <trkpt lat="40.46534" lon="-2.01729">
        <ele>1445.445</ele>
      </trkpt>
      <trkpt lat="40.46536" lon="-2.0176">
        <ele>1445.208</ele>
      </trkpt>
      <trkpt lat="40.46554" lon="-2.01803">
        <ele>1444.417</ele>
      </trkpt>
      <trkpt lat="40.46566" lon="-2.01855">
        <ele>1444.189</ele>
      </trkpt>
      <trkpt lat="40.46572" lon="-2.01866">
        <ele>1444.028</ele>
      </trkpt>
      <trkpt lat="40.46578" lon="-2.01878">
        <ele>1444.049</ele>
      </trkpt>
      <trkpt lat="40.46591" lon="-2.01888">
        <ele>1444.085</ele>
      </trkpt>
      <trkpt lat="40.46618" lon="-2.01917">
        <ele>1444.017</ele>
      </trkpt>
      <trkpt lat="40.46627" lon="-2.01931">
        <ele>1443.338</ele>
      </trkpt>
      <trkpt lat="40.46631" lon="-2.01944">
        <ele>1442.762</ele>
      </trkpt>
      <trkpt lat="40.46635" lon="-2.0196">
        <ele>1441.934</ele>
      </trkpt>
      <trkpt lat="40.46641" lon="-2.02023">
        <ele>1439.513</ele>
      </trkpt>
      <trkpt lat="40.46646" lon="-2.02039">
        <ele>1439.164</ele>
      </trkpt>
      <trkpt lat="40.46652" lon="-2.02053">
        <ele>1438.508</ele>
      </trkpt>
      <trkpt lat="40.46662" lon="-2.0207">
        <ele>1437.707</ele>
      </trkpt>
      <trkpt lat="40.46703" lon="-2.02121">
        <ele>1440.643</ele>
      </trkpt>
      <trkpt lat="40.46725" lon="-2.02152">
        <ele>1442.913</ele>
      </trkpt>
      <trkpt lat="40.46741" lon="-2.02178">
        <ele>1443.951</ele>
      </trkpt>
      <trkpt lat="40.46742" lon="-2.02177">
        <ele>1443.997</ele>
      </trkpt>
      <trkpt lat="40.46751" lon="-2.02195">
        <ele>1443.999</ele>
      </trkpt>
      <trkpt lat="40.46761" lon="-2.02215">
        <ele>1443.43</ele>
      </trkpt>
      <trkpt lat="40.46768" lon="-2.0223">
        <ele>1443.074</ele>
      </trkpt>
      <trkpt lat="40.46777" lon="-2.02244">
        <ele>1442.446</ele>
      </trkpt>
      <trkpt lat="40.46795" lon="-2.02264">
        <ele>1440.255</ele>
      </trkpt>
      <trkpt lat="40.46805" lon="-2.02282">
        <ele>1438.596</ele>
      </trkpt>
      <trkpt lat="40.46808" lon="-2.02292">
        <ele>1437.808</ele>
      </trkpt>
      <trkpt lat="40.46807" lon="-2.02299">
        <ele>1437.313</ele>
      </trkpt>
      <trkpt lat="40.46806" lon="-2.02307">
        <ele>1436.849</ele>
      </trkpt>
      <trkpt lat="40.468" lon="-2.02326">
        <ele>1435.337</ele>
      </trkpt>
      <trkpt lat="40.46796" lon="-2.02336">
        <ele>1434.387</ele>
      </trkpt>
      <trkpt lat="40.46794" lon="-2.02346">
        <ele>1432.913</ele>
      </trkpt>
      <trkpt lat="40.46791" lon="-2.02356">
        <ele>1431.555</ele>
      </trkpt>
      <trkpt lat="40.46792" lon="-2.02364">
        <ele>1430.516</ele>
      </trkpt>
      <trkpt lat="40.46796" lon="-2.02373">
        <ele>1429.67</ele>
      </trkpt>
      <trkpt lat="40.46802" lon="-2.02382">
        <ele>1429.042</ele>
      </trkpt>
      <trkpt lat="40.46814" lon="-2.02391">
        <ele>1429.261</ele>
      </trkpt>
      <trkpt lat="40.46829" lon="-2.02398">
        <ele>1430.152</ele>
      </trkpt>
      <trkpt lat="40.46842" lon="-2.02405">
        <ele>1429.608</ele>
      </trkpt>
      <trkpt lat="40.46857" lon="-2.02411">
        <ele>1428.423</ele>
      </trkpt>
      <trkpt lat="40.46869" lon="-2.02414">
        <ele>1427.649</ele>
      </trkpt>
      <trkpt lat="40.4688" lon="-2.02416">
        <ele>1426.895</ele>
      </trkpt>
      <trkpt lat="40.46892" lon="-2.02416">
        <ele>1426.383</ele>
      </trkpt>
      <trkpt lat="40.46909" lon="-2.02413">
        <ele>1425.879</ele>
      </trkpt>
      <trkpt lat="40.46964" lon="-2.02408">
        <ele>1421.431</ele>
      </trkpt>
      <trkpt lat="40.47019" lon="-2.02405">
        <ele>1418.882</ele>
      </trkpt>
      <trkpt lat="40.47043" lon="-2.02409">
        <ele>1418.496</ele>
      </trkpt>
      <trkpt lat="40.47046" lon="-2.0241">
        <ele>1418.398</ele>
      </trkpt>
      <trkpt lat="40.47048" lon="-2.02411">
        <ele>1418.177</ele>
      </trkpt>
      <trkpt lat="40.47049" lon="-2.02412">
        <ele>1418.038</ele>
      </trkpt>
      <trkpt lat="40.4705" lon="-2.02414">
        <ele>1417.708</ele>
      </trkpt>
      <trkpt lat="40.47051" lon="-2.02415">
        <ele>1417.511</ele>
      </trkpt>
      <trkpt lat="40.47052" lon="-2.02418">
        <ele>1416.901</ele>
      </trkpt>
      <trkpt lat="40.47052" lon="-2.02421">
        <ele>1416.151</ele>
      </trkpt>
      <trkpt lat="40.47052" lon="-2.02424">
        <ele>1415.256</ele>
      </trkpt>
      <trkpt lat="40.47051" lon="-2.02426">
        <ele>1414.742</ele>
      </trkpt>
      <trkpt lat="40.4705" lon="-2.02429">
        <ele>1413.844</ele>
      </trkpt>
      <trkpt lat="40.47049" lon="-2.02431">
        <ele>1413.395</ele>
      </trkpt>
      <trkpt lat="40.47045" lon="-2.02433">
        <ele>1412.659</ele>
      </trkpt>
      <trkpt lat="40.47041" lon="-2.02434">
        <ele>1412.311</ele>
      </trkpt>
      <trkpt lat="40.4703" lon="-2.02437">
        <ele>1411.37</ele>
      </trkpt>
      <trkpt lat="40.47016" lon="-2.0244">
        <ele>1410.331</ele>
      </trkpt>
      <trkpt lat="40.47" lon="-2.02445">
        <ele>1408.908</ele>
      </trkpt>
      <trkpt lat="40.4698" lon="-2.02458">
        <ele>1408.126</ele>
      </trkpt>
      <trkpt lat="40.46969" lon="-2.02467">
        <ele>1407.36</ele>
      </trkpt>
      <trkpt lat="40.46959" lon="-2.02479">
        <ele>1405.886</ele>
      </trkpt>
      <trkpt lat="40.46949" lon="-2.02488">
        <ele>1405.125</ele>
      </trkpt>
      <trkpt lat="40.46937" lon="-2.02499">
        <ele>1404.381</ele>
      </trkpt>
      <trkpt lat="40.46928" lon="-2.02511">
        <ele>1402.783</ele>
      </trkpt>
      <trkpt lat="40.46916" lon="-2.02534">
        <ele>1398.824</ele>
      </trkpt>
      <trkpt lat="40.46906" lon="-2.02562">
        <ele>1392.098</ele>
      </trkpt>
      <trkpt lat="40.46894" lon="-2.0259">
        <ele>1386.11</ele>
      </trkpt>
      <trkpt lat="40.46894" lon="-2.0259">
        <ele>1386.199</ele>
      </trkpt>
      <trkpt lat="40.46897" lon="-2.02594">
        <ele>1385.81</ele>
      </trkpt>
      <trkpt lat="40.469" lon="-2.02598">
        <ele>1385.508</ele>
      </trkpt>
      <trkpt lat="40.46904" lon="-2.02609">
        <ele>1384.621</ele>
      </trkpt>
      <trkpt lat="40.46907" lon="-2.02621">
        <ele>1383.756</ele>
      </trkpt>
      <trkpt lat="40.46908" lon="-2.02628">
        <ele>1383.174</ele>
      </trkpt>
      <trkpt lat="40.46909" lon="-2.02637">
        <ele>1382.32</ele>
      </trkpt>
      <trkpt lat="40.4691" lon="-2.02652">
        <ele>1381.156</ele>
      </trkpt>
      <trkpt lat="40.46911" lon="-2.02667">
        <ele>1379.928</ele>
      </trkpt>
      <trkpt lat="40.46913" lon="-2.02674">
        <ele>1379.949</ele>
      </trkpt>
      <trkpt lat="40.4692" lon="-2.02688">
        <ele>1379.643</ele>
      </trkpt>
      <trkpt lat="40.4693" lon="-2.02699">
        <ele>1378.485</ele>
      </trkpt>
      <trkpt lat="40.46939" lon="-2.02707">
        <ele>1377.464</ele>
      </trkpt>
      <trkpt lat="40.46948" lon="-2.02716">
        <ele>1376.615</ele>
      </trkpt>
      <trkpt lat="40.46952" lon="-2.02719">
        <ele>1376.208</ele>
      </trkpt>
      <trkpt lat="40.46977" lon="-2.0274">
        <ele>1374.508</ele>
      </trkpt>
      <trkpt lat="40.46991" lon="-2.02749">
        <ele>1373.726</ele>
      </trkpt>
      <trkpt lat="40.47004" lon="-2.02761">
        <ele>1374.425</ele>
      </trkpt>
      <trkpt lat="40.47016" lon="-2.02766">
        <ele>1374.022</ele>
      </trkpt>
      <trkpt lat="40.47034" lon="-2.02774">
        <ele>1373.418</ele>
      </trkpt>
      <trkpt lat="40.47055" lon="-2.02785">
        <ele>1372.99</ele>
      </trkpt>
      <trkpt lat="40.47067" lon="-2.0279">
        <ele>1372.581</ele>
      </trkpt>
      <trkpt lat="40.47096" lon="-2.02803">
        <ele>1370.655</ele>
      </trkpt>
      <trkpt lat="40.47135" lon="-2.02822">
        <ele>1366.397</ele>
      </trkpt>
      <trkpt lat="40.47153" lon="-2.0283">
        <ele>1364.176</ele>
      </trkpt>
      <trkpt lat="40.47177" lon="-2.02843">
        <ele>1362.077</ele>
      </trkpt>
      <trkpt lat="40.47239" lon="-2.02874">
        <ele>1355.908</ele>
      </trkpt>
      <trkpt lat="40.4727" lon="-2.02891">
        <ele>1353.216</ele>
      </trkpt>
      <trkpt lat="40.47278" lon="-2.02898">
        <ele>1352.888</ele>
      </trkpt>
      <trkpt lat="40.47287" lon="-2.02907">
        <ele>1352.246</ele>
      </trkpt>
      <trkpt lat="40.47298" lon="-2.02923">
        <ele>1352.616</ele>
      </trkpt>
      <trkpt lat="40.47312" lon="-2.02942">
        <ele>1353.682</ele>
      </trkpt>
      <trkpt lat="40.47323" lon="-2.02956">
        <ele>1353.964</ele>
      </trkpt>
      <trkpt lat="40.47334" lon="-2.02964">
        <ele>1353.185</ele>
      </trkpt>
      <trkpt lat="40.47345" lon="-2.02969">
        <ele>1353.849</ele>
      </trkpt>
      <trkpt lat="40.47376" lon="-2.02972">
        <ele>1353.811</ele>
      </trkpt>
      <trkpt lat="40.47393" lon="-2.02972">
        <ele>1353.49</ele>
      </trkpt>
      <trkpt lat="40.47401" lon="-2.0297">
        <ele>1353.051</ele>
      </trkpt>
      <trkpt lat="40.47426" lon="-2.02957">
        <ele>1350.808</ele>
      </trkpt>
      <trkpt lat="40.47433" lon="-2.02952">
        <ele>1350.126</ele>
      </trkpt>
      <trkpt lat="40.47438" lon="-2.02946">
        <ele>1349.406</ele>
      </trkpt>
      <trkpt lat="40.47443" lon="-2.02943">
        <ele>1349.289</ele>
      </trkpt>
      <trkpt lat="40.47458" lon="-2.02934">
        <ele>1348.637</ele>
      </trkpt>
      <trkpt lat="40.47468" lon="-2.0293">
        <ele>1348.573</ele>
      </trkpt>
      <trkpt lat="40.47475" lon="-2.02932">
        <ele>1348.885</ele>
      </trkpt>
      <trkpt lat="40.47481" lon="-2.02934">
        <ele>1349.156</ele>
      </trkpt>
      <trkpt lat="40.47495" lon="-2.0294">
        <ele>1349.86</ele>
      </trkpt>
      <trkpt lat="40.47518" lon="-2.02944">
        <ele>1349.512</ele>
      </trkpt>
      <trkpt lat="40.47538" lon="-2.02944">
        <ele>1349.141</ele>
      </trkpt>
      <trkpt lat="40.47555" lon="-2.02942">
        <ele>1348.512</ele>
      </trkpt>
      <trkpt lat="40.47564" lon="-2.0294">
        <ele>1348.108</ele>
      </trkpt>
      <trkpt lat="40.47604" lon="-2.02915">
        <ele>1343.72</ele>
      </trkpt>
      <trkpt lat="40.47617" lon="-2.02903">
        <ele>1342.473</ele>
      </trkpt>
      <trkpt lat="40.47635" lon="-2.02887">
        <ele>1340.392</ele>
      </trkpt>
      <trkpt lat="40.47678" lon="-2.02859">
        <ele>1336.186</ele>
      </trkpt>
      <trkpt lat="40.4769" lon="-2.02853">
        <ele>1336.172</ele>
      </trkpt>
      <trkpt lat="40.47701" lon="-2.02847">
        <ele>1336.014</ele>
      </trkpt>
      <trkpt lat="40.47734" lon="-2.02833">
        <ele>1336.415</ele>
      </trkpt>
      <trkpt lat="40.47746" lon="-2.02828">
        <ele>1336.769</ele>
      </trkpt>
      <trkpt lat="40.47764" lon="-2.02822">
        <ele>1336.851</ele>
      </trkpt>
      <trkpt lat="40.47788" lon="-2.02811">
        <ele>1337.03</ele>
      </trkpt>
      <trkpt lat="40.47851" lon="-2.02788">
        <ele>1337.061</ele>
      </trkpt>
      <trkpt lat="40.47869" lon="-2.02777">
        <ele>1335.408</ele>
      </trkpt>
      <trkpt lat="40.47881" lon="-2.02772">
        <ele>1334.226</ele>
      </trkpt>
      <trkpt lat="40.47902" lon="-2.02759">
        <ele>1331.46</ele>
      </trkpt>
      <trkpt lat="40.47955" lon="-2.02738">
        <ele>1328.186</ele>
      </trkpt>
      <trkpt lat="40.4799" lon="-2.0272">
        <ele>1325.221</ele>
      </trkpt>
      <trkpt lat="40.47997" lon="-2.02718">
        <ele>1324.487</ele>
      </trkpt>
      <trkpt lat="40.48038" lon="-2.02709">
        <ele>1322.459</ele>
      </trkpt>
      <trkpt lat="40.48073" lon="-2.02698">
        <ele>1320.18</ele>
      </trkpt>
      <trkpt lat="40.48089" lon="-2.0269">
        <ele>1318.714</ele>
      </trkpt>
      <trkpt lat="40.48097" lon="-2.02688">
        <ele>1318.366</ele>
      </trkpt>
      <trkpt lat="40.48117" lon="-2.02686">
        <ele>1317.635</ele>
      </trkpt>
      <trkpt lat="40.48144" lon="-2.02686">
        <ele>1317.066</ele>
      </trkpt>
      <trkpt lat="40.48171" lon="-2.02685">
        <ele>1316.308</ele>
      </trkpt>
      <trkpt lat="40.48217" lon="-2.02684">
        <ele>1316.113</ele>
      </trkpt>
      <trkpt lat="40.48268" lon="-2.02686">
        <ele>1314.649</ele>
      </trkpt>
      <trkpt lat="40.48285" lon="-2.02686">
        <ele>1312.937</ele>
      </trkpt>
      <trkpt lat="40.4833" lon="-2.02684">
        <ele>1308.08</ele>
      </trkpt>
      <trkpt lat="40.48354" lon="-2.02681">
        <ele>1306.356</ele>
      </trkpt>
      <trkpt lat="40.48363" lon="-2.02681">
        <ele>1305.938</ele>
      </trkpt>
      <trkpt lat="40.48379" lon="-2.02679">
        <ele>1304.939</ele>
      </trkpt>
      <trkpt lat="40.48391" lon="-2.0268">
        <ele>1304.593</ele>
      </trkpt>
      <trkpt lat="40.48398" lon="-2.02679">
        <ele>1304.035</ele>
      </trkpt>
      <trkpt lat="40.48411" lon="-2.02676">
        <ele>1302.994</ele>
      </trkpt>
      <trkpt lat="40.48425" lon="-2.02674">
        <ele>1302.025</ele>
      </trkpt>
      <trkpt lat="40.48441" lon="-2.0267">
        <ele>1300.708</ele>
      </trkpt>
      <trkpt lat="40.48456" lon="-2.02663">
        <ele>1299.005</ele>
      </trkpt>
      <trkpt lat="40.48464" lon="-2.02663">
        <ele>1298.741</ele>
      </trkpt>
      <trkpt lat="40.48472" lon="-2.02664">
        <ele>1298.621</ele>
      </trkpt>
      <trkpt lat="40.48479" lon="-2.02666">
        <ele>1298.649</ele>
      </trkpt>
      <trkpt lat="40.48502" lon="-2.02681">
        <ele>1299.845</ele>
      </trkpt>
      <trkpt lat="40.48513" lon="-2.02686">
        <ele>1299.397</ele>
      </trkpt>
      <trkpt lat="40.48563" lon="-2.02693">
        <ele>1294.788</ele>
      </trkpt>
      <trkpt lat="40.48594" lon="-2.02696">
        <ele>1293.062</ele>
      </trkpt>
      <trkpt lat="40.48631" lon="-2.02705">
        <ele>1294.784</ele>
      </trkpt>
      <trkpt lat="40.48647" lon="-2.02707">
        <ele>1295.263</ele>
      </trkpt>
      <trkpt lat="40.48655" lon="-2.02711">
        <ele>1295.864</ele>
      </trkpt>
      <trkpt lat="40.48662" lon="-2.02717">
        <ele>1296.808</ele>
      </trkpt>
      <trkpt lat="40.4867" lon="-2.0273">
        <ele>1298.207</ele>
      </trkpt>
      <trkpt lat="40.48686" lon="-2.0275">
        <ele>1298.343</ele>
      </trkpt>
      <trkpt lat="40.4869" lon="-2.02755">
        <ele>1298.113</ele>
      </trkpt>
      <trkpt lat="40.48697" lon="-2.02759">
        <ele>1297.237</ele>
      </trkpt>
      <trkpt lat="40.48711" lon="-2.02765">
        <ele>1295.553</ele>
      </trkpt>
      <trkpt lat="40.48729" lon="-2.02771">
        <ele>1293.345</ele>
      </trkpt>
      <trkpt lat="40.48745" lon="-2.02779">
        <ele>1292.086</ele>
      </trkpt>
      <trkpt lat="40.48783" lon="-2.02805">
        <ele>1293.87</ele>
      </trkpt>
      <trkpt lat="40.48798" lon="-2.02817">
        <ele>1294.832</ele>
      </trkpt>
      <trkpt lat="40.48822" lon="-2.02832">
        <ele>1295.641</ele>
      </trkpt>
      <trkpt lat="40.48838" lon="-2.02837">
        <ele>1295.212</ele>
      </trkpt>
      <trkpt lat="40.48852" lon="-2.02842">
        <ele>1294.708</ele>
      </trkpt>
      <trkpt lat="40.48862" lon="-2.02847">
        <ele>1294.319</ele>
      </trkpt>
      <trkpt lat="40.48869" lon="-2.02851">
        <ele>1294.081</ele>
      </trkpt>
      <trkpt lat="40.48895" lon="-2.0288">
        <ele>1292.591</ele>
      </trkpt>
      <trkpt lat="40.48938" lon="-2.02916">
        <ele>1286.23</ele>
      </trkpt>
      <trkpt lat="40.48947" lon="-2.02923">
        <ele>1285.326</ele>
      </trkpt>
      <trkpt lat="40.48958" lon="-2.02939">
        <ele>1284.418</ele>
      </trkpt>
      <trkpt lat="40.4896" lon="-2.02944">
        <ele>1284.289</ele>
      </trkpt>
      <trkpt lat="40.48963" lon="-2.02953">
        <ele>1284.123</ele>
      </trkpt>
      <trkpt lat="40.48962" lon="-2.02972">
        <ele>1284.925</ele>
      </trkpt>
      <trkpt lat="40.48959" lon="-2.02982">
        <ele>1285.774</ele>
      </trkpt>
      <trkpt lat="40.48954" lon="-2.02989">
        <ele>1286.945</ele>
      </trkpt>
      <trkpt lat="40.48941" lon="-2.03014">
        <ele>1287.708</ele>
      </trkpt>
      <trkpt lat="40.48934" lon="-2.03032">
        <ele>1286.411</ele>
      </trkpt>
      <trkpt lat="40.48929" lon="-2.03062">
        <ele>1283.047</ele>
      </trkpt>
      <trkpt lat="40.48928" lon="-2.03074">
        <ele>1281.426</ele>
      </trkpt>
      <trkpt lat="40.48929" lon="-2.03086">
        <ele>1280.477</ele>
      </trkpt>
      <trkpt lat="40.48931" lon="-2.03094">
        <ele>1281.523</ele>
      </trkpt>
      <trkpt lat="40.48935" lon="-2.031">
        <ele>1281.825</ele>
      </trkpt>
      <trkpt lat="40.4894" lon="-2.03105">
        <ele>1281.896</ele>
      </trkpt>
      <trkpt lat="40.48959" lon="-2.03116">
        <ele>1280.49</ele>
      </trkpt>
      <trkpt lat="40.48973" lon="-2.03122">
        <ele>1278.922</ele>
      </trkpt>
      <trkpt lat="40.48988" lon="-2.03129">
        <ele>1277.351</ele>
      </trkpt>
      <trkpt lat="40.49016" lon="-2.03137">
        <ele>1274.352</ele>
      </trkpt>
      <trkpt lat="40.49061" lon="-2.03157">
        <ele>1271.008</ele>
      </trkpt>
      <trkpt lat="40.49085" lon="-2.03165">
        <ele>1268.621</ele>
      </trkpt>
      <trkpt lat="40.49104" lon="-2.03168">
        <ele>1266.865</ele>
      </trkpt>
      <trkpt lat="40.49127" lon="-2.03173">
        <ele>1265.093</ele>
      </trkpt>
      <trkpt lat="40.49138" lon="-2.03175">
        <ele>1264.036</ele>
      </trkpt>
      <trkpt lat="40.49151" lon="-2.03178">
        <ele>1263.072</ele>
      </trkpt>
      <trkpt lat="40.49183" lon="-2.03186">
        <ele>1260.394</ele>
      </trkpt>
      <trkpt lat="40.49207" lon="-2.03195">
        <ele>1258.625</ele>
      </trkpt>
      <trkpt lat="40.49215" lon="-2.032">
        <ele>1258.459</ele>
      </trkpt>
      <trkpt lat="40.49228" lon="-2.0321">
        <ele>1258.361</ele>
      </trkpt>
      <trkpt lat="40.49253" lon="-2.0323">
        <ele>1257.95</ele>
      </trkpt>
      <trkpt lat="40.49261" lon="-2.03239">
        <ele>1257.371</ele>
      </trkpt>
      <trkpt lat="40.49271" lon="-2.03253">
        <ele>1256.708</ele>
      </trkpt>
      <trkpt lat="40.49288" lon="-2.03288">
        <ele>1254.926</ele>
      </trkpt>
      <trkpt lat="40.49293" lon="-2.03299">
        <ele>1254.506</ele>
      </trkpt>
      <trkpt lat="40.493" lon="-2.03314">
        <ele>1254.089</ele>
      </trkpt>
      <trkpt lat="40.49302" lon="-2.0332">
        <ele>1254.049</ele>
      </trkpt>
      <trkpt lat="40.49313" lon="-2.03349">
        <ele>1254.285</ele>
      </trkpt>
      <trkpt lat="40.49322" lon="-2.03374">
        <ele>1255.547</ele>
      </trkpt>
      <trkpt lat="40.49325" lon="-2.03382">
        <ele>1256.128</ele>
      </trkpt>
      <trkpt lat="40.49329" lon="-2.03389">
        <ele>1256.592</ele>
      </trkpt>
      <trkpt lat="40.49334" lon="-2.03394">
        <ele>1256.664</ele>
      </trkpt>
      <trkpt lat="40.49357" lon="-2.03418">
        <ele>1253.613</ele>
      </trkpt>
      <trkpt lat="40.494" lon="-2.03461">
        <ele>1247.734</ele>
      </trkpt>
      <trkpt lat="40.49418" lon="-2.03482">
        <ele>1246.208</ele>
      </trkpt>
      <trkpt lat="40.49432" lon="-2.03497">
        <ele>1246.015</ele>
      </trkpt>
      <trkpt lat="40.49447" lon="-2.03515">
        <ele>1246.487</ele>
      </trkpt>
      <trkpt lat="40.49456" lon="-2.03525">
        <ele>1246.417</ele>
      </trkpt>
      <trkpt lat="40.49467" lon="-2.03535">
        <ele>1246.284</ele>
      </trkpt>
      <trkpt lat="40.49482" lon="-2.0354">
        <ele>1244.43</ele>
      </trkpt>
      <trkpt lat="40.49491" lon="-2.03542">
        <ele>1243.152</ele>
      </trkpt>
      <trkpt lat="40.49502" lon="-2.03543">
        <ele>1241.463</ele>
      </trkpt>
      <trkpt lat="40.49516" lon="-2.03547">
        <ele>1240.377</ele>
      </trkpt>
      <trkpt lat="40.4953" lon="-2.03548">
        <ele>1238.619</ele>
      </trkpt>
      <trkpt lat="40.49552" lon="-2.03551">
        <ele>1236.438</ele>
      </trkpt>
      <trkpt lat="40.49579" lon="-2.03555">
        <ele>1233.869</ele>
      </trkpt>
      <trkpt lat="40.4959" lon="-2.03555">
        <ele>1231.908</ele>
      </trkpt>
      <trkpt lat="40.49601" lon="-2.03557">
        <ele>1230.019</ele>
      </trkpt>
      <trkpt lat="40.49619" lon="-2.03558">
        <ele>1226.581</ele>
      </trkpt>
      <trkpt lat="40.49628" lon="-2.03559">
        <ele>1224.967</ele>
      </trkpt>
      <trkpt lat="40.49635" lon="-2.0356">
        <ele>1223.643</ele>
      </trkpt>
      <trkpt lat="40.49641" lon="-2.03564">
        <ele>1223.119</ele>
      </trkpt>
      <trkpt lat="40.4966" lon="-2.03579">
        <ele>1221.741</ele>
      </trkpt>
      <trkpt lat="40.49665" lon="-2.03584">
        <ele>1221.532</ele>
      </trkpt>
      <trkpt lat="40.49674" lon="-2.03602">
        <ele>1222.876</ele>
      </trkpt>
      <trkpt lat="40.49684" lon="-2.03623">
        <ele>1224.548</ele>
      </trkpt>
      <trkpt lat="40.49687" lon="-2.0363">
        <ele>1225.217</ele>
      </trkpt>
      <trkpt lat="40.4969" lon="-2.03636">
        <ele>1225.688</ele>
      </trkpt>
      <trkpt lat="40.49697" lon="-2.03644">
        <ele>1225.708</ele>
      </trkpt>
      <trkpt lat="40.49712" lon="-2.0365">
        <ele>1224.017</ele>
      </trkpt>
      <trkpt lat="40.49732" lon="-2.03653">
        <ele>1220.952</ele>
      </trkpt>
      <trkpt lat="40.49784" lon="-2.03657">
        <ele>1215.258</ele>
      </trkpt>
      <trkpt lat="40.49821" lon="-2.03659">
        <ele>1212.17</ele>
      </trkpt>
      <trkpt lat="40.49825" lon="-2.03659">
        <ele>1211.746</ele>
      </trkpt>
      <trkpt lat="40.4983" lon="-2.0366">
        <ele>1211.458</ele>
      </trkpt>
      <trkpt lat="40.49841" lon="-2.03662">
        <ele>1209.789</ele>
      </trkpt>
      <trkpt lat="40.49848" lon="-2.03665">
        <ele>1208.763</ele>
      </trkpt>
      <trkpt lat="40.49855" lon="-2.03674">
        <ele>1207.945</ele>
      </trkpt>
      <trkpt lat="40.49892" lon="-2.03721">
        <ele>1202.494</ele>
      </trkpt>
      <trkpt lat="40.49906" lon="-2.03741">
        <ele>1200.615</ele>
      </trkpt>
      <trkpt lat="40.49912" lon="-2.03753">
        <ele>1200.008</ele>
      </trkpt>
      <trkpt lat="40.49944" lon="-2.03841">
        <ele>1197.808</ele>
      </trkpt>
      <trkpt lat="40.49963" lon="-2.03897">
        <ele>1199.826</ele>
      </trkpt>
      <trkpt lat="40.49967" lon="-2.03908">
        <ele>1200.025</ele>
      </trkpt>
      <trkpt lat="40.49972" lon="-2.03915">
        <ele>1199.625</ele>
      </trkpt>
      <trkpt lat="40.50014" lon="-2.03947">
        <ele>1191.871</ele>
      </trkpt>
      <trkpt lat="40.50039" lon="-2.03969">
        <ele>1187.433</ele>
      </trkpt>
      <trkpt lat="40.50051" lon="-2.03982">
        <ele>1185.524</ele>
      </trkpt>
      <trkpt lat="40.50092" lon="-2.04045">
        <ele>1181.648</ele>
      </trkpt>
      <trkpt lat="40.5014" lon="-2.04114">
        <ele>1178.02</ele>
      </trkpt>
      <trkpt lat="40.50152" lon="-2.04132">
        <ele>1177.299</ele>
      </trkpt>
      <trkpt lat="40.50159" lon="-2.04138">
        <ele>1176.71</ele>
      </trkpt>
      <trkpt lat="40.50166" lon="-2.04142">
        <ele>1176.208</ele>
      </trkpt>
      <trkpt lat="40.50171" lon="-2.04142">
        <ele>1175.82</ele>
      </trkpt>
      <trkpt lat="40.5019" lon="-2.04139">
        <ele>1174.528</ele>
      </trkpt>
      <trkpt lat="40.50201" lon="-2.04136">
        <ele>1173.675</ele>
      </trkpt>
      <trkpt lat="40.50211" lon="-2.04135">
        <ele>1172.992</ele>
      </trkpt>
      <trkpt lat="40.50219" lon="-2.04135">
        <ele>1172.458</ele>
      </trkpt>
      <trkpt lat="40.50226" lon="-2.04138">
        <ele>1172.17</ele>
      </trkpt>
      <trkpt lat="40.50231" lon="-2.04141">
        <ele>1172.091</ele>
      </trkpt>
      <trkpt lat="40.5029" lon="-2.04211">
        <ele>1177.555</ele>
      </trkpt>
      <trkpt lat="40.50294" lon="-2.04215">
        <ele>1178.047</ele>
      </trkpt>
      <trkpt lat="40.503" lon="-2.04222">
        <ele>1178.956</ele>
      </trkpt>
      <trkpt lat="40.50304" lon="-2.04227">
        <ele>1179.477</ele>
      </trkpt>
      <trkpt lat="40.50307" lon="-2.04234">
        <ele>1179.908</ele>
      </trkpt>
      <trkpt lat="40.5031" lon="-2.04241">
        <ele>1180.314</ele>
      </trkpt>
      <trkpt lat="40.50313" lon="-2.04249">
        <ele>1180.822</ele>
      </trkpt>
      <trkpt lat="40.50315" lon="-2.04256">
        <ele>1180.842</ele>
      </trkpt>
      <trkpt lat="40.50316" lon="-2.0426">
        <ele>1180.754</ele>
      </trkpt>
      <trkpt lat="40.50321" lon="-2.04287">
        <ele>1179.78</ele>
      </trkpt>
      <trkpt lat="40.50322" lon="-2.04291">
        <ele>1179.512</ele>
      </trkpt>
      <trkpt lat="40.50324" lon="-2.04297">
        <ele>1179.463</ele>
      </trkpt>
      <trkpt lat="40.50326" lon="-2.04303">
        <ele>1179.367</ele>
      </trkpt>
      <trkpt lat="40.50328" lon="-2.04307">
        <ele>1179.259</ele>
      </trkpt>
      <trkpt lat="40.5033" lon="-2.04311">
        <ele>1179.298</ele>
      </trkpt>
      <trkpt lat="40.50334" lon="-2.04317">
        <ele>1179.349</ele>
      </trkpt>
      <trkpt lat="40.50339" lon="-2.04323">
        <ele>1179.508</ele>
      </trkpt>
      <trkpt lat="40.50341" lon="-2.04326">
        <ele>1179.516</ele>
      </trkpt>
      <trkpt lat="40.5035" lon="-2.04333">
        <ele>1180.006</ele>
      </trkpt>
      <trkpt lat="40.50356" lon="-2.04336">
        <ele>1180.564</ele>
      </trkpt>
      <trkpt lat="40.5036" lon="-2.04338">
        <ele>1180.816</ele>
      </trkpt>
      <trkpt lat="40.50362" lon="-2.04339">
        <ele>1181.082</ele>
      </trkpt>
      <trkpt lat="40.50376" lon="-2.04341">
        <ele>1182.364</ele>
      </trkpt>
      <trkpt lat="40.50379" lon="-2.04341">
        <ele>1182.745</ele>
      </trkpt>
      <trkpt lat="40.50383" lon="-2.0434">
        <ele>1183.299</ele>
      </trkpt>
      <trkpt lat="40.50411" lon="-2.04333">
        <ele>1187.471</ele>
      </trkpt>
      <trkpt lat="40.5044" lon="-2.04316">
        <ele>1188.22</ele>
      </trkpt>
      <trkpt lat="40.50469" lon="-2.04296">
        <ele>1189.821</ele>
      </trkpt>
      <trkpt lat="40.50476" lon="-2.0429">
        <ele>1190.708</ele>
      </trkpt>
      <trkpt lat="40.50479" lon="-2.04286">
        <ele>1191.426</ele>
      </trkpt>
      <trkpt lat="40.50479" lon="-2.04286">
        <ele>1191.442</ele>
      </trkpt>
      <trkpt lat="40.50503" lon="-2.04298">
        <ele>1188.587</ele>
      </trkpt>
      <trkpt lat="40.50526" lon="-2.0431">
        <ele>1189.472</ele>
      </trkpt>
      <trkpt lat="40.50542" lon="-2.04323">
        <ele>1188.998</ele>
      </trkpt>
      <trkpt lat="40.50556" lon="-2.04339">
        <ele>1187.99</ele>
      </trkpt>
      <trkpt lat="40.50597" lon="-2.04381">
        <ele>1188.041</ele>
      </trkpt>
      <trkpt lat="40.5063" lon="-2.04419">
        <ele>1186.465</ele>
      </trkpt>
      <trkpt lat="40.50649" lon="-2.04438">
        <ele>1185.437</ele>
      </trkpt>
      <trkpt lat="40.50661" lon="-2.04447">
        <ele>1184.936</ele>
      </trkpt>
      <trkpt lat="40.50672" lon="-2.04452">
        <ele>1185.427</ele>
      </trkpt>
      <trkpt lat="40.50678" lon="-2.04456">
        <ele>1185.808</ele>
      </trkpt>
      <trkpt lat="40.50685" lon="-2.04463">
        <ele>1185.81</ele>
      </trkpt>
      <trkpt lat="40.50696" lon="-2.04475">
        <ele>1185.564</ele>
      </trkpt>
      <trkpt lat="40.50723" lon="-2.04501">
        <ele>1186.043</ele>
      </trkpt>
      <trkpt lat="40.50732" lon="-2.04511">
        <ele>1186.354</ele>
      </trkpt>
      <trkpt lat="40.50743" lon="-2.04524">
        <ele>1186.11</ele>
      </trkpt>
      <trkpt lat="40.50751" lon="-2.04534">
        <ele>1185.852</ele>
      </trkpt>
      <trkpt lat="40.50752" lon="-2.04535">
        <ele>1185.943</ele>
      </trkpt>
      <trkpt lat="40.50769" lon="-2.04551">
        <ele>1187.967</ele>
      </trkpt>
      <trkpt lat="40.50782" lon="-2.04565">
        <ele>1189.019</ele>
      </trkpt>
      <trkpt lat="40.50797" lon="-2.04589">
        <ele>1188.838</ele>
      </trkpt>
      <trkpt lat="40.5081" lon="-2.04607">
        <ele>1189.919</ele>
      </trkpt>
      <trkpt lat="40.50821" lon="-2.04629">
        <ele>1189.108</ele>
      </trkpt>
      <trkpt lat="40.50834" lon="-2.04658">
        <ele>1186.921</ele>
      </trkpt>
      <trkpt lat="40.50847" lon="-2.04683">
        <ele>1189.829</ele>
      </trkpt>
      <trkpt lat="40.50858" lon="-2.04709">
        <ele>1191.866</ele>
      </trkpt>
      <trkpt lat="40.50861" lon="-2.04721">
        <ele>1191.512</ele>
      </trkpt>
      <trkpt lat="40.50862" lon="-2.04733">
        <ele>1190.558</ele>
      </trkpt>
      <trkpt lat="40.50866" lon="-2.04744">
        <ele>1190.52</ele>
      </trkpt>
      <trkpt lat="40.50871" lon="-2.04752">
        <ele>1191.061</ele>
      </trkpt>
      <trkpt lat="40.50878" lon="-2.04763">
        <ele>1191.485</ele>
      </trkpt>
      <trkpt lat="40.50914" lon="-2.04802">
        <ele>1192.687</ele>
      </trkpt>
      <trkpt lat="40.50935" lon="-2.04822">
        <ele>1194.816</ele>
      </trkpt>
      <trkpt lat="40.50944" lon="-2.04834">
        <ele>1195.167</ele>
      </trkpt>
      <trkpt lat="40.50967" lon="-2.04877">
        <ele>1193.908</ele>
      </trkpt>
      <trkpt lat="40.50982" lon="-2.04898">
        <ele>1193.614</ele>
      </trkpt>
      <trkpt lat="40.50989" lon="-2.04907">
        <ele>1193.422</ele>
      </trkpt>
      <trkpt lat="40.50997" lon="-2.04915">
        <ele>1193.642</ele>
      </trkpt>
      <trkpt lat="40.51001" lon="-2.04921">
        <ele>1194.095</ele>
      </trkpt>
      <trkpt lat="40.51004" lon="-2.04927">
        <ele>1194.651</ele>
      </trkpt>
      <trkpt lat="40.51007" lon="-2.04938">
        <ele>1194.643</ele>
      </trkpt>
      <trkpt lat="40.51011" lon="-2.0495">
        <ele>1194.814</ele>
      </trkpt>
      <trkpt lat="40.5103" lon="-2.04983">
        <ele>1197.838</ele>
      </trkpt>
      <trkpt lat="40.51044" lon="-2.05009">
        <ele>1198.74</ele>
      </trkpt>
      <trkpt lat="40.51047" lon="-2.05012">
        <ele>1199.289</ele>
      </trkpt>
      <trkpt lat="40.5105" lon="-2.05014">
        <ele>1199.81</ele>
      </trkpt>
      <trkpt lat="40.51054" lon="-2.05016">
        <ele>1200.708</ele>
      </trkpt>
      <trkpt lat="40.51058" lon="-2.05018">
        <ele>1201.626</ele>
      </trkpt>
      <trkpt lat="40.51062" lon="-2.0502">
        <ele>1202.533</ele>
      </trkpt>
      <trkpt lat="40.51065" lon="-2.05022">
        <ele>1203.178</ele>
      </trkpt>
      <trkpt lat="40.51068" lon="-2.05026">
        <ele>1203.356</ele>
      </trkpt>
      <trkpt lat="40.51069" lon="-2.05029">
        <ele>1203.072</ele>
      </trkpt>
      <trkpt lat="40.5107" lon="-2.05033">
        <ele>1202.674</ele>
      </trkpt>
      <trkpt lat="40.51071" lon="-2.05036">
        <ele>1202.425</ele>
      </trkpt>
      <trkpt lat="40.51071" lon="-2.05044">
        <ele>1200.969</ele>
      </trkpt>
      <trkpt lat="40.51069" lon="-2.05056">
        <ele>1198.161</ele>
      </trkpt>
      <trkpt lat="40.51068" lon="-2.05068">
        <ele>1195.65</ele>
      </trkpt>
      <trkpt lat="40.51068" lon="-2.05079">
        <ele>1193.631</ele>
      </trkpt>
      <trkpt lat="40.5107" lon="-2.05092">
        <ele>1192.008</ele>
      </trkpt>
      <trkpt lat="40.51076" lon="-2.05107">
        <ele>1191.317</ele>
      </trkpt>
      <trkpt lat="40.51084" lon="-2.05123">
        <ele>1191.125</ele>
      </trkpt>
      <trkpt lat="40.51091" lon="-2.0514">
        <ele>1191.183</ele>
      </trkpt>
      <trkpt lat="40.51144" lon="-2.05258">
        <ele>1187.796</ele>
      </trkpt>
      <trkpt lat="40.51164" lon="-2.05295">
        <ele>1185.022</ele>
      </trkpt>
      <trkpt lat="40.51168" lon="-2.053">
        <ele>1184.794</ele>
      </trkpt>
      <trkpt lat="40.51171" lon="-2.05304">
        <ele>1184.655</ele>
      </trkpt>
      <trkpt lat="40.51179" lon="-2.0531">
        <ele>1185.179</ele>
      </trkpt>
      <trkpt lat="40.51186" lon="-2.05314">
        <ele>1185.751</ele>
      </trkpt>
      <trkpt lat="40.51196" lon="-2.05318">
        <ele>1186.74</ele>
      </trkpt>
      <trkpt lat="40.51208" lon="-2.05321">
        <ele>1188.311</ele>
      </trkpt>
      <trkpt lat="40.51217" lon="-2.05323">
        <ele>1189.408</ele>
      </trkpt>
      <trkpt lat="40.51233" lon="-2.05326">
        <ele>1191.517</ele>
      </trkpt>
      <trkpt lat="40.51246" lon="-2.05331">
        <ele>1192.125</ele>
      </trkpt>
      <trkpt lat="40.51251" lon="-2.05335">
        <ele>1192.083</ele>
      </trkpt>
      <trkpt lat="40.51256" lon="-2.05339">
        <ele>1192.81</ele>
      </trkpt>
      <trkpt lat="40.51263" lon="-2.05348">
        <ele>1193.066</ele>
      </trkpt>
      <trkpt lat="40.51271" lon="-2.05358">
        <ele>1193.338</ele>
      </trkpt>
      <trkpt lat="40.51286" lon="-2.05375">
        <ele>1193.749</ele>
      </trkpt>
      <trkpt lat="40.5132" lon="-2.05418">
        <ele>1191.633</ele>
      </trkpt>
      <trkpt lat="40.51327" lon="-2.05428">
        <ele>1191.715</ele>
      </trkpt>
      <trkpt lat="40.51335" lon="-2.05439">
        <ele>1191.394</ele>
      </trkpt>
      <trkpt lat="40.51348" lon="-2.05449">
        <ele>1191.935</ele>
      </trkpt>
      <trkpt lat="40.5136" lon="-2.05459">
        <ele>1192.008</ele>
      </trkpt>
      <trkpt lat="40.51379" lon="-2.05472">
        <ele>1192.211</ele>
      </trkpt>
      <trkpt lat="40.51397" lon="-2.05487">
        <ele>1191.183</ele>
      </trkpt>
      <trkpt lat="40.51408" lon="-2.05495">
        <ele>1190.323</ele>
      </trkpt>
      <trkpt lat="40.51419" lon="-2.05506">
        <ele>1188.836</ele>
      </trkpt>
      <trkpt lat="40.51431" lon="-2.05517">
        <ele>1187.142</ele>
      </trkpt>
      <trkpt lat="40.51435" lon="-2.05522">
        <ele>1186.174</ele>
      </trkpt>
      <trkpt lat="40.51441" lon="-2.05527">
        <ele>1185.225</ele>
      </trkpt>
      <trkpt lat="40.51452" lon="-2.05531">
        <ele>1184.919</ele>
      </trkpt>
      <trkpt lat="40.51463" lon="-2.05533">
        <ele>1185.061</ele>
      </trkpt>
      <trkpt lat="40.51476" lon="-2.05535">
        <ele>1185.36</ele>
      </trkpt>
      <trkpt lat="40.51494" lon="-2.05535">
        <ele>1186.611</ele>
      </trkpt>
      <trkpt lat="40.5151" lon="-2.05533">
        <ele>1187.208</ele>
      </trkpt>
      <trkpt lat="40.51523" lon="-2.05529">
        <ele>1187.826</ele>
      </trkpt>
      <trkpt lat="40.51534" lon="-2.05524">
        <ele>1188.506</ele>
      </trkpt>
      <trkpt lat="40.5154" lon="-2.05519">
        <ele>1189.489</ele>
      </trkpt>
      <trkpt lat="40.51549" lon="-2.05509">
        <ele>1190.96</ele>
      </trkpt>
      <trkpt lat="40.51563" lon="-2.05497">
        <ele>1191.856</ele>
      </trkpt>
      <trkpt lat="40.51577" lon="-2.05485">
        <ele>1193.188</ele>
      </trkpt>
      <trkpt lat="40.51581" lon="-2.05483">
        <ele>1193.029</ele>
      </trkpt>
      <trkpt lat="40.51586" lon="-2.05482">
        <ele>1193.543</ele>
      </trkpt>
      <trkpt lat="40.51592" lon="-2.05481">
        <ele>1194.885</ele>
      </trkpt>
      <trkpt lat="40.51599" lon="-2.05482">
        <ele>1195.954</ele>
      </trkpt>
      <trkpt lat="40.51608" lon="-2.05482">
        <ele>1197.595</ele>
      </trkpt>
      <trkpt lat="40.51617" lon="-2.0548">
        <ele>1199.608</ele>
      </trkpt>
      <trkpt lat="40.51624" lon="-2.05478">
        <ele>1201.211</ele>
      </trkpt>
      <trkpt lat="40.5163" lon="-2.05474">
        <ele>1202.883</ele>
      </trkpt>
      <trkpt lat="40.51634" lon="-2.05472">
        <ele>1203.823</ele>
      </trkpt>
      <trkpt lat="40.51636" lon="-2.05473">
        <ele>1204.04</ele>
      </trkpt>
      <trkpt lat="40.51639" lon="-2.05475">
        <ele>1204.216</ele>
      </trkpt>
      <trkpt lat="40.51642" lon="-2.05479">
        <ele>1204.238</ele>
      </trkpt>
      <trkpt lat="40.51643" lon="-2.05482">
        <ele>1203.969</ele>
      </trkpt>
      <trkpt lat="40.51642" lon="-2.05491">
        <ele>1202.693</ele>
      </trkpt>
      <trkpt lat="40.51641" lon="-2.05502">
        <ele>1200.935</ele>
      </trkpt>
      <trkpt lat="40.51639" lon="-2.05513">
        <ele>1198.914</ele>
      </trkpt>
      <trkpt lat="40.51639" lon="-2.0552">
        <ele>1197.955</ele>
      </trkpt>
      <trkpt lat="40.51639" lon="-2.05525">
        <ele>1197.208</ele>
      </trkpt>
      <trkpt lat="40.51639" lon="-2.05537">
        <ele>1195.508</ele>
      </trkpt>
      <trkpt lat="40.51646" lon="-2.05554">
        <ele>1194.762</ele>
      </trkpt>
      <trkpt lat="40.51651" lon="-2.05565">
        <ele>1194.222</ele>
      </trkpt>
      <trkpt lat="40.51657" lon="-2.0558">
        <ele>1193.414</ele>
      </trkpt>
      <trkpt lat="40.51664" lon="-2.05594">
        <ele>1192.54</ele>
      </trkpt>
      <trkpt lat="40.51674" lon="-2.05615">
        <ele>1191.862</ele>
      </trkpt>
      <trkpt lat="40.51684" lon="-2.0563">
        <ele>1192.143</ele>
      </trkpt>
      <trkpt lat="40.51694" lon="-2.05643">
        <ele>1192.377</ele>
      </trkpt>
      <trkpt lat="40.51754" lon="-2.0571">
        <ele>1192.279</ele>
      </trkpt>
      <trkpt lat="40.51829" lon="-2.05802">
        <ele>1192.168</ele>
      </trkpt>
      <trkpt lat="40.51867" lon="-2.05853">
        <ele>1190.629</ele>
      </trkpt>
      <trkpt lat="40.51892" lon="-2.05884">
        <ele>1190.408</ele>
      </trkpt>
      <trkpt lat="40.51913" lon="-2.05904">
        <ele>1189.911</ele>
      </trkpt>
      <trkpt lat="40.51929" lon="-2.05914">
        <ele>1189.683</ele>
      </trkpt>
      <trkpt lat="40.51938" lon="-2.05917">
        <ele>1189.862</ele>
      </trkpt>
      <trkpt lat="40.51948" lon="-2.05917">
        <ele>1190.699</ele>
      </trkpt>
      <trkpt lat="40.5196" lon="-2.05914">
        <ele>1192.335</ele>
      </trkpt>
      <trkpt lat="40.51992" lon="-2.05906">
        <ele>1197.197</ele>
      </trkpt>
      <trkpt lat="40.52026" lon="-2.05894">
        <ele>1201.088</ele>
      </trkpt>
      <trkpt lat="40.52062" lon="-2.05872">
        <ele>1206.882</ele>
      </trkpt>
      <trkpt lat="40.52096" lon="-2.05851">
        <ele>1212.434</ele>
      </trkpt>
      <trkpt lat="40.52122" lon="-2.05839">
        <ele>1214.373</ele>
      </trkpt>
      <trkpt lat="40.52142" lon="-2.05821">
        <ele>1217.354</ele>
      </trkpt>
      <trkpt lat="40.5216" lon="-2.05805">
        <ele>1219.308</ele>
      </trkpt>
      <trkpt lat="40.5217" lon="-2.05801">
        <ele>1220.117</ele>
      </trkpt>
      <trkpt lat="40.5218" lon="-2.05801">
        <ele>1222.798</ele>
      </trkpt>
      <trkpt lat="40.52189" lon="-2.05804">
        <ele>1224.718</ele>
      </trkpt>
      <trkpt lat="40.52194" lon="-2.05807">
        <ele>1225.761</ele>
      </trkpt>
      <trkpt lat="40.522" lon="-2.05815">
        <ele>1226.537</ele>
      </trkpt>
      <trkpt lat="40.52203" lon="-2.0582">
        <ele>1227.079</ele>
      </trkpt>
      <trkpt lat="40.52205" lon="-2.05824">
        <ele>1227.24</ele>
      </trkpt>
      <trkpt lat="40.52206" lon="-2.0584">
        <ele>1226.754</ele>
      </trkpt>
      <trkpt lat="40.52207" lon="-2.05859">
        <ele>1227.226</ele>
      </trkpt>
      <trkpt lat="40.52204" lon="-2.05882">
        <ele>1226.395</ele>
      </trkpt>
      <trkpt lat="40.52201" lon="-2.05898">
        <ele>1225.346</ele>
      </trkpt>
      <trkpt lat="40.522" lon="-2.05906">
        <ele>1224.908</ele>
      </trkpt>
      <trkpt lat="40.52199" lon="-2.05914">
        <ele>1224.61</ele>
      </trkpt>
      <trkpt lat="40.52198" lon="-2.05921">
        <ele>1225.455</ele>
      </trkpt>
      <trkpt lat="40.52195" lon="-2.05925">
        <ele>1225.234</ele>
      </trkpt>
      <trkpt lat="40.5219" lon="-2.05934">
        <ele>1225.263</ele>
      </trkpt>
      <trkpt lat="40.52188" lon="-2.0594">
        <ele>1225.679</ele>
      </trkpt>
      <trkpt lat="40.52188" lon="-2.05946">
        <ele>1226.931</ele>
      </trkpt>
      <trkpt lat="40.52189" lon="-2.0595">
        <ele>1228.322</ele>
      </trkpt>
      <trkpt lat="40.52192" lon="-2.05951">
        <ele>1230.056</ele>
      </trkpt>
      <trkpt lat="40.52196" lon="-2.05952">
        <ele>1232.348</ele>
      </trkpt>
      <trkpt lat="40.52199" lon="-2.0595">
        <ele>1233.337</ele>
      </trkpt>
      <trkpt lat="40.52204" lon="-2.05944">
        <ele>1234.198</ele>
      </trkpt>
      <trkpt lat="40.52214" lon="-2.05928">
        <ele>1233.708</ele>
      </trkpt>
      <trkpt lat="40.52227" lon="-2.05905">
        <ele>1234.614</ele>
      </trkpt>
      <trkpt lat="40.52235" lon="-2.05884">
        <ele>1237.359</ele>
      </trkpt>
      <trkpt lat="40.5224" lon="-2.0586">
        <ele>1238.856</ele>
      </trkpt>
      <trkpt lat="40.52241" lon="-2.05846">
        <ele>1239.086</ele>
      </trkpt>
      <trkpt lat="40.52242" lon="-2.0583">
        <ele>1239.242</ele>
      </trkpt>
      <trkpt lat="40.52247" lon="-2.05803">
        <ele>1240.574</ele>
      </trkpt>
      <trkpt lat="40.52251" lon="-2.05783">
        <ele>1241.345</ele>
      </trkpt>
      <trkpt lat="40.52255" lon="-2.05765">
        <ele>1242.929</ele>
      </trkpt>
      <trkpt lat="40.52259" lon="-2.05733">
        <ele>1245.281</ele>
      </trkpt>
      <trkpt lat="40.52262" lon="-2.05703">
        <ele>1247.85</ele>
      </trkpt>
      <trkpt lat="40.52267" lon="-2.05675">
        <ele>1251.561</ele>
      </trkpt>
      <trkpt lat="40.52268" lon="-2.05644">
        <ele>1253.908</ele>
      </trkpt>
      <trkpt lat="40.5227" lon="-2.05622">
        <ele>1256.126</ele>
      </trkpt>
      <trkpt lat="40.52273" lon="-2.05605">
        <ele>1258.106</ele>
      </trkpt>
      <trkpt lat="40.52274" lon="-2.05598">
        <ele>1258.889</ele>
      </trkpt>
      <trkpt lat="40.52276" lon="-2.05592">
        <ele>1259.691</ele>
      </trkpt>
      <trkpt lat="40.52286" lon="-2.05573">
        <ele>1262.537</ele>
      </trkpt>
      <trkpt lat="40.52312" lon="-2.05539">
        <ele>1265.419</ele>
      </trkpt>
      <trkpt lat="40.52324" lon="-2.05517">
        <ele>1264.21</ele>
      </trkpt>
      <trkpt lat="40.52347" lon="-2.0549">
        <ele>1266.074</ele>
      </trkpt>
      <trkpt lat="40.52362" lon="-2.05473">
        <ele>1270.956</ele>
      </trkpt>
      <trkpt lat="40.52367" lon="-2.05471">
        <ele>1271.725</ele>
      </trkpt>
      <trkpt lat="40.52378" lon="-2.05471">
        <ele>1272.876</ele>
      </trkpt>
      <trkpt lat="40.52393" lon="-2.05466">
        <ele>1274.908</ele>
      </trkpt>
      <trkpt lat="40.52401" lon="-2.0546">
        <ele>1276.114</ele>
      </trkpt>
      <trkpt lat="40.5242" lon="-2.05448">
        <ele>1278.286</ele>
      </trkpt>
      <trkpt lat="40.52425" lon="-2.05445">
        <ele>1278.535</ele>
      </trkpt>
      <trkpt lat="40.52448" lon="-2.05443">
        <ele>1279.193</ele>
      </trkpt>
      <trkpt lat="40.5248" lon="-2.05437">
        <ele>1279.369</ele>
      </trkpt>
      <trkpt lat="40.52487" lon="-2.05434">
        <ele>1279.181</ele>
      </trkpt>
      <trkpt lat="40.52494" lon="-2.05431">
        <ele>1278.752</ele>
      </trkpt>
      <trkpt lat="40.52498" lon="-2.05427">
        <ele>1278.316</ele>
      </trkpt>
      <trkpt lat="40.525" lon="-2.05424">
        <ele>1277.968</ele>
      </trkpt>
      <trkpt lat="40.52519" lon="-2.05401">
        <ele>1281.487</ele>
      </trkpt>
      <trkpt lat="40.52539" lon="-2.05379">
        <ele>1284.738</ele>
      </trkpt>
      <trkpt lat="40.52544" lon="-2.05371">
        <ele>1285.208</ele>
      </trkpt>
      <trkpt lat="40.5256" lon="-2.05343">
        <ele>1285.517</ele>
      </trkpt>
      <trkpt lat="40.52563" lon="-2.05335">
        <ele>1285.307</ele>
      </trkpt>
      <trkpt lat="40.52569" lon="-2.05318">
        <ele>1285.455</ele>
      </trkpt>
      <trkpt lat="40.52575" lon="-2.05295">
        <ele>1285.487</ele>
      </trkpt>
      <trkpt lat="40.52578" lon="-2.05288">
        <ele>1285.273</ele>
      </trkpt>
      <trkpt lat="40.52582" lon="-2.05282">
        <ele>1284.815</ele>
      </trkpt>
      <trkpt lat="40.52586" lon="-2.05279">
        <ele>1285.286</ele>
      </trkpt>
      <trkpt lat="40.52591" lon="-2.05276">
        <ele>1286.32</ele>
      </trkpt>
      <trkpt lat="40.52597" lon="-2.05276">
        <ele>1287.612</ele>
      </trkpt>
      <trkpt lat="40.52605" lon="-2.05274">
        <ele>1289.331</ele>
      </trkpt>
      <trkpt lat="40.52609" lon="-2.05273">
        <ele>1290.182</ele>
      </trkpt>
      <trkpt lat="40.52614" lon="-2.0527">
        <ele>1291.108</ele>
      </trkpt>
      <trkpt lat="40.5262" lon="-2.05266">
        <ele>1292.222</ele>
      </trkpt>
      <trkpt lat="40.52624" lon="-2.05262">
        <ele>1292.857</ele>
      </trkpt>
      <trkpt lat="40.52633" lon="-2.05252">
        <ele>1294.094</ele>
      </trkpt>
      <trkpt lat="40.52644" lon="-2.05239">
        <ele>1296.151</ele>
      </trkpt>
      <trkpt lat="40.52655" lon="-2.05222">
        <ele>1298.057</ele>
      </trkpt>
      <trkpt lat="40.5266" lon="-2.05209">
        <ele>1298.749</ele>
      </trkpt>
      <trkpt lat="40.52662" lon="-2.05204">
        <ele>1298.97</ele>
      </trkpt>
      <trkpt lat="40.52665" lon="-2.05196">
        <ele>1299.284</ele>
      </trkpt>
      <trkpt lat="40.52666" lon="-2.05192">
        <ele>1299.256</ele>
      </trkpt>
      <trkpt lat="40.52668" lon="-2.05188">
        <ele>1299.325</ele>
      </trkpt>
      <trkpt lat="40.52671" lon="-2.05184">
        <ele>1299.476</ele>
      </trkpt>
      <trkpt lat="40.52684" lon="-2.05176">
        <ele>1299.608</ele>
      </trkpt>
      <trkpt lat="40.52688" lon="-2.05174">
        <ele>1299.713</ele>
      </trkpt>
      <trkpt lat="40.52697" lon="-2.05174">
        <ele>1300.049</ele>
      </trkpt>
      <trkpt lat="40.52716" lon="-2.05175">
        <ele>1300.637</ele>
      </trkpt>
      <trkpt lat="40.52766" lon="-2.05175">
        <ele>1301.964</ele>
      </trkpt>
      <trkpt lat="40.52767" lon="-2.05175">
        <ele>1301.95</ele>
      </trkpt>
      <trkpt lat="40.52804" lon="-2.05179">
        <ele>1302.992</ele>
      </trkpt>
      <trkpt lat="40.52823" lon="-2.05176">
        <ele>1303.133</ele>
      </trkpt>
      <trkpt lat="40.52842" lon="-2.05171">
        <ele>1303.567</ele>
      </trkpt>
      <trkpt lat="40.52852" lon="-2.05167">
        <ele>1303.789</ele>
      </trkpt>
      <trkpt lat="40.52861" lon="-2.05159">
        <ele>1304.358</ele>
      </trkpt>
      <trkpt lat="40.5287" lon="-2.05154">
        <ele>1304.859</ele>
      </trkpt>
      <trkpt lat="40.5288" lon="-2.05154">
        <ele>1305.108</ele>
      </trkpt>
      <trkpt lat="40.52889" lon="-2.05156">
        <ele>1305.426</ele>
      </trkpt>
      <trkpt lat="40.52897" lon="-2.0516">
        <ele>1305.542</ele>
      </trkpt>
      <trkpt lat="40.52907" lon="-2.05165">
        <ele>1305.768</ele>
      </trkpt>
      <trkpt lat="40.52919" lon="-2.05167">
        <ele>1306.095</ele>
      </trkpt>
      <trkpt lat="40.52938" lon="-2.05168">
        <ele>1306.181</ele>
      </trkpt>
      <trkpt lat="40.52955" lon="-2.05169">
        <ele>1306.223</ele>
      </trkpt>
      <trkpt lat="40.52971" lon="-2.05168">
        <ele>1306.154</ele>
      </trkpt>
      <trkpt lat="40.52992" lon="-2.05159">
        <ele>1306.168</ele>
      </trkpt>
      <trkpt lat="40.53018" lon="-2.05152">
        <ele>1304.72</ele>
      </trkpt>
      <trkpt lat="40.53046" lon="-2.05146">
        <ele>1302.499</ele>
      </trkpt>
      <trkpt lat="40.53056" lon="-2.05146">
        <ele>1301.52</ele>
      </trkpt>
      <trkpt lat="40.53067" lon="-2.05149">
        <ele>1300.708</ele>
      </trkpt>
      <trkpt lat="40.53079" lon="-2.05153">
        <ele>1299.919</ele>
      </trkpt>
      <trkpt lat="40.53091" lon="-2.05159">
        <ele>1299.39</ele>
      </trkpt>
      <trkpt lat="40.53103" lon="-2.05163">
        <ele>1298.776</ele>
      </trkpt>
      <trkpt lat="40.53117" lon="-2.05164">
        <ele>1297.926</ele>
      </trkpt>
      <trkpt lat="40.53128" lon="-2.05164">
        <ele>1297.232</ele>
      </trkpt>
      <trkpt lat="40.53139" lon="-2.05164">
        <ele>1296.554</ele>
      </trkpt>
      <trkpt lat="40.5315" lon="-2.05166">
        <ele>1296.065</ele>
      </trkpt>
      <trkpt lat="40.53172" lon="-2.05176">
        <ele>1295.549</ele>
      </trkpt>
      <trkpt lat="40.53204" lon="-2.0519">
        <ele>1293.251</ele>
      </trkpt>
      <trkpt lat="40.53231" lon="-2.05202">
        <ele>1291.26</ele>
      </trkpt>
      <trkpt lat="40.53251" lon="-2.05215">
        <ele>1289.981</ele>
      </trkpt>
      <trkpt lat="40.5327" lon="-2.0523">
        <ele>1286.508</ele>
      </trkpt>
      <trkpt lat="40.53286" lon="-2.0524">
        <ele>1283.626</ele>
      </trkpt>
      <trkpt lat="40.53296" lon="-2.05249">
        <ele>1282.342</ele>
      </trkpt>
      <trkpt lat="40.533" lon="-2.05256">
        <ele>1281.687</ele>
      </trkpt>
      <trkpt lat="40.53305" lon="-2.05267">
        <ele>1280.723</ele>
      </trkpt>
      <trkpt lat="40.53311" lon="-2.05279">
        <ele>1279.669</ele>
      </trkpt>
      <trkpt lat="40.53319" lon="-2.05295">
        <ele>1278.431</ele>
      </trkpt>
      <trkpt lat="40.53325" lon="-2.05311">
        <ele>1277.712</ele>
      </trkpt>
      <trkpt lat="40.53328" lon="-2.05324">
        <ele>1277.766</ele>
      </trkpt>
      <trkpt lat="40.53328" lon="-2.0534">
        <ele>1278.078</ele>
      </trkpt>
      <trkpt lat="40.53327" lon="-2.05357">
        <ele>1278.227</ele>
      </trkpt>
      <trkpt lat="40.53326" lon="-2.05373">
        <ele>1278.438</ele>
      </trkpt>
      <trkpt lat="40.53326" lon="-2.0538">
        <ele>1278.308</ele>
      </trkpt>
      <trkpt lat="40.53327" lon="-2.05387">
        <ele>1278.008</ele>
      </trkpt>
      <trkpt lat="40.53329" lon="-2.05391">
        <ele>1277.553</ele>
      </trkpt>
      <trkpt lat="40.53331" lon="-2.05399">
        <ele>1276.952</ele>
      </trkpt>
      <trkpt lat="40.53333" lon="-2.05403">
        <ele>1276.347</ele>
      </trkpt>
      <trkpt lat="40.53334" lon="-2.05407">
        <ele>1276.073</ele>
      </trkpt>
      <trkpt lat="40.53338" lon="-2.05413">
        <ele>1275.195</ele>
      </trkpt>
      <trkpt lat="40.53343" lon="-2.05419">
        <ele>1274.316</ele>
      </trkpt>
      <trkpt lat="40.53361" lon="-2.05442">
        <ele>1273.43</ele>
      </trkpt>
      <trkpt lat="40.53367" lon="-2.05447">
        <ele>1272.732</ele>
      </trkpt>
      <trkpt lat="40.53373" lon="-2.05451">
        <ele>1271.881</ele>
      </trkpt>
      <trkpt lat="40.53376" lon="-2.05452">
        <ele>1271.352</ele>
      </trkpt>
      <trkpt lat="40.5338" lon="-2.05452">
        <ele>1270.408</ele>
      </trkpt>
      <trkpt lat="40.53383" lon="-2.05451">
        <ele>1269.727</ele>
      </trkpt>
      <trkpt lat="40.53385" lon="-2.05449">
        <ele>1269.007</ele>
      </trkpt>
      <trkpt lat="40.53388" lon="-2.05447">
        <ele>1268.199</ele>
      </trkpt>
      <trkpt lat="40.53407" lon="-2.0542">
        <ele>1261.312</ele>
      </trkpt>
      <trkpt lat="40.53424" lon="-2.05407">
        <ele>1258.318</ele>
      </trkpt>
      <trkpt lat="40.53428" lon="-2.05407">
        <ele>1257.77</ele>
      </trkpt>
      <trkpt lat="40.53431" lon="-2.05409">
        <ele>1257.231</ele>
      </trkpt>
      <trkpt lat="40.53433" lon="-2.05412">
        <ele>1256.985</ele>
      </trkpt>
      <trkpt lat="40.53435" lon="-2.05416">
        <ele>1256.627</ele>
      </trkpt>
      <trkpt lat="40.53437" lon="-2.05419">
        <ele>1256.526</ele>
      </trkpt>
      <trkpt lat="40.53439" lon="-2.05427">
        <ele>1256.837</ele>
      </trkpt>
      <trkpt lat="40.53442" lon="-2.0544">
        <ele>1257.308</ele>
      </trkpt>
      <trkpt lat="40.53447" lon="-2.05452">
        <ele>1257.315</ele>
      </trkpt>
      <trkpt lat="40.53455" lon="-2.05472">
        <ele>1257.105</ele>
      </trkpt>
      <trkpt lat="40.53464" lon="-2.05494">
        <ele>1256.544</ele>
      </trkpt>
      <trkpt lat="40.53473" lon="-2.0552">
        <ele>1253.097</ele>
      </trkpt>
      <trkpt lat="40.5348" lon="-2.05539">
        <ele>1249.683</ele>
      </trkpt>
      <trkpt lat="40.53492" lon="-2.05559">
        <ele>1244.665</ele>
      </trkpt>
      <trkpt lat="40.53496" lon="-2.05575">
        <ele>1241.916</ele>
      </trkpt>
      <trkpt lat="40.53496" lon="-2.0558">
        <ele>1241.47</ele>
      </trkpt>
      <trkpt lat="40.53495" lon="-2.05584">
        <ele>1241.542</ele>
      </trkpt>
      <trkpt lat="40.53492" lon="-2.0559">
        <ele>1243.951</ele>
      </trkpt>
      <trkpt lat="40.53491" lon="-2.05594">
        <ele>1245.212</ele>
      </trkpt>
      <trkpt lat="40.53491" lon="-2.05597">
        <ele>1246.008</ele>
      </trkpt>
      <trkpt lat="40.53492" lon="-2.05602">
        <ele>1247.123</ele>
      </trkpt>
      <trkpt lat="40.53493" lon="-2.05605">
        <ele>1247.749</ele>
      </trkpt>
      <trkpt lat="40.53495" lon="-2.05608">
        <ele>1248.195</ele>
      </trkpt>
      <trkpt lat="40.53499" lon="-2.0561">
        <ele>1247.975</ele>
      </trkpt>
      <trkpt lat="40.53501" lon="-2.0561">
        <ele>1247.621</ele>
      </trkpt>
      <trkpt lat="40.53506" lon="-2.05609">
        <ele>1246.923</ele>
      </trkpt>
      <trkpt lat="40.5351" lon="-2.05606">
        <ele>1245.714</ele>
      </trkpt>
      <trkpt lat="40.53513" lon="-2.05603">
        <ele>1244.578</ele>
      </trkpt>
      <trkpt lat="40.53522" lon="-2.05594">
        <ele>1241.16</ele>
      </trkpt>
      <trkpt lat="40.53526" lon="-2.0559">
        <ele>1239.519</ele>
      </trkpt>
      <trkpt lat="40.53531" lon="-2.05586">
        <ele>1237.88</ele>
      </trkpt>
      <trkpt lat="40.53538" lon="-2.05583">
        <ele>1236.408</ele>
      </trkpt>
      <trkpt lat="40.53544" lon="-2.05582">
        <ele>1235.915</ele>
      </trkpt>
      <trkpt lat="40.53551" lon="-2.05582">
        <ele>1235.241</ele>
      </trkpt>
      <trkpt lat="40.53557" lon="-2.05582">
        <ele>1234.671</ele>
      </trkpt>
      <trkpt lat="40.53564" lon="-2.05583">
        <ele>1233.955</ele>
      </trkpt>
      <trkpt lat="40.53576" lon="-2.05585">
        <ele>1233.271</ele>
      </trkpt>
      <trkpt lat="40.53585" lon="-2.05587">
        <ele>1232.883</ele>
      </trkpt>
      <trkpt lat="40.53593" lon="-2.05589">
        <ele>1231.384</ele>
      </trkpt>
      <trkpt lat="40.53604" lon="-2.05594">
        <ele>1230.118</ele>
      </trkpt>
      <trkpt lat="40.53613" lon="-2.056">
        <ele>1229.52</ele>
      </trkpt>
      <trkpt lat="40.53619" lon="-2.05605">
        <ele>1229.459</ele>
      </trkpt>
      <trkpt lat="40.53625" lon="-2.05608">
        <ele>1228.62</ele>
      </trkpt>
      <trkpt lat="40.53636" lon="-2.05614">
        <ele>1227.308</ele>
      </trkpt>
      <trkpt lat="40.53644" lon="-2.05617">
        <ele>1225.921</ele>
      </trkpt>
      <trkpt lat="40.53652" lon="-2.0562">
        <ele>1224.456</ele>
      </trkpt>
      <trkpt lat="40.53659" lon="-2.05621">
        <ele>1222.774</ele>
      </trkpt>
      <trkpt lat="40.53667" lon="-2.05622">
        <ele>1220.734</ele>
      </trkpt>
      <trkpt lat="40.53674" lon="-2.05623">
        <ele>1219.45</ele>
      </trkpt>
      <trkpt lat="40.53681" lon="-2.05624">
        <ele>1218.162</ele>
      </trkpt>
      <trkpt lat="40.53688" lon="-2.05624">
        <ele>1216.563</ele>
      </trkpt>
      <trkpt lat="40.53694" lon="-2.05627">
        <ele>1215.997</ele>
      </trkpt>
      <trkpt lat="40.53702" lon="-2.05631">
        <ele>1215.139</ele>
      </trkpt>
      <trkpt lat="40.53712" lon="-2.05633">
        <ele>1213.378</ele>
      </trkpt>
      <trkpt lat="40.5372" lon="-2.05635">
        <ele>1211.959</ele>
      </trkpt>
      <trkpt lat="40.53727" lon="-2.05637">
        <ele>1210.808</ele>
      </trkpt>
      <trkpt lat="40.53733" lon="-2.05638">
        <ele>1209.711</ele>
      </trkpt>
      <trkpt lat="40.53737" lon="-2.0564">
        <ele>1209.283</ele>
      </trkpt>
      <trkpt lat="40.53739" lon="-2.05643">
        <ele>1209.462</ele>
      </trkpt>
      <trkpt lat="40.53742" lon="-2.05646">
        <ele>1209.413</ele>
      </trkpt>
      <trkpt lat="40.53745" lon="-2.05654">
        <ele>1210.439</ele>
      </trkpt>
      <trkpt lat="40.53747" lon="-2.05661">
        <ele>1211.581</ele>
      </trkpt>
      <trkpt lat="40.53748" lon="-2.05667">
        <ele>1212.562</ele>
      </trkpt>
      <trkpt lat="40.53751" lon="-2.05672">
        <ele>1213.066</ele>
      </trkpt>
      <trkpt lat="40.53754" lon="-2.05675">
        <ele>1213.458</ele>
      </trkpt>
      <trkpt lat="40.5376" lon="-2.05676">
        <ele>1213.187</ele>
      </trkpt>
      <trkpt lat="40.53766" lon="-2.05676">
        <ele>1212.728</ele>
      </trkpt>
      <trkpt lat="40.53772" lon="-2.05675">
        <ele>1212.008</ele>
      </trkpt>
      <trkpt lat="40.53781" lon="-2.05673">
        <ele>1211.008</ele>
      </trkpt>
      <trkpt lat="40.53787" lon="-2.05669">
        <ele>1209.853</ele>
      </trkpt>
      <trkpt lat="40.53793" lon="-2.05665">
        <ele>1208.652</ele>
      </trkpt>
      <trkpt lat="40.53798" lon="-2.05662">
        <ele>1207.866</ele>
      </trkpt>
      <trkpt lat="40.53804" lon="-2.05659">
        <ele>1206.982</ele>
      </trkpt>
      <trkpt lat="40.53809" lon="-2.05653">
        <ele>1205.694</ele>
      </trkpt>
      <trkpt lat="40.53812" lon="-2.05647">
        <ele>1204.565</ele>
      </trkpt>
      <trkpt lat="40.53815" lon="-2.05639">
        <ele>1203.279</ele>
      </trkpt>
      <trkpt lat="40.53814" lon="-2.05629">
        <ele>1201.781</ele>
      </trkpt>
      <trkpt lat="40.53813" lon="-2.05618">
        <ele>1200.02</ele>
      </trkpt>
      <trkpt lat="40.53811" lon="-2.05609">
        <ele>1198.791</ele>
      </trkpt>
      <trkpt lat="40.53812" lon="-2.05596">
        <ele>1196.708</ele>
      </trkpt>
      <trkpt lat="40.53816" lon="-2.05584">
        <ele>1194.926</ele>
      </trkpt>
      <trkpt lat="40.53821" lon="-2.05574">
        <ele>1193.56</ele>
      </trkpt>
      <trkpt lat="40.53826" lon="-2.05567">
        <ele>1192.486</ele>
      </trkpt>
      <trkpt lat="40.53833" lon="-2.05561">
        <ele>1191.389</ele>
      </trkpt>
      <trkpt lat="40.53841" lon="-2.05557">
        <ele>1190.655</ele>
      </trkpt>
      <trkpt lat="40.53852" lon="-2.05552">
        <ele>1189.787</ele>
      </trkpt>
      <trkpt lat="40.53863" lon="-2.05548">
        <ele>1189.048</ele>
      </trkpt>
      <trkpt lat="40.53874" lon="-2.05545">
        <ele>1188.462</ele>
      </trkpt>
      <trkpt lat="40.53883" lon="-2.05542">
        <ele>1187.884</ele>
      </trkpt>
      <trkpt lat="40.5389" lon="-2.05542">
        <ele>1187.753</ele>
      </trkpt>
      <trkpt lat="40.539" lon="-2.0554">
        <ele>1187.334</ele>
      </trkpt>
      <trkpt lat="40.53909" lon="-2.05539">
        <ele>1187.008</ele>
      </trkpt>
      <trkpt lat="40.53915" lon="-2.05538">
        <ele>1186.819</ele>
      </trkpt>
      <trkpt lat="40.53922" lon="-2.05537">
        <ele>1186.009</ele>
      </trkpt>
      <trkpt lat="40.5393" lon="-2.05536">
        <ele>1185.019</ele>
      </trkpt>
      <trkpt lat="40.53935" lon="-2.05534">
        <ele>1184.144</ele>
      </trkpt>
      <trkpt lat="40.53942" lon="-2.05529">
        <ele>1182.59</ele>
      </trkpt>
      <trkpt lat="40.53943" lon="-2.05528">
        <ele>1182.242</ele>
      </trkpt>
      <trkpt lat="40.53943" lon="-2.05528">
        <ele>1182.233</ele>
      </trkpt>
      <trkpt lat="40.53949" lon="-2.05527">
        <ele>1181.417</ele>
      </trkpt>
      <trkpt lat="40.53958" lon="-2.05526">
        <ele>1180.449</ele>
      </trkpt>
      <trkpt lat="40.53965" lon="-2.05527">
        <ele>1179.988</ele>
      </trkpt>
      <trkpt lat="40.53971" lon="-2.05528">
        <ele>1179.539</ele>
      </trkpt>
      <trkpt lat="40.5398" lon="-2.05531">
        <ele>1179.108</ele>
      </trkpt>
      <trkpt lat="40.53987" lon="-2.05535">
        <ele>1178.926</ele>
      </trkpt>
      <trkpt lat="40.53993" lon="-2.0554">
        <ele>1179.042</ele>
      </trkpt>
      <trkpt lat="40.54" lon="-2.05549">
        <ele>1179.568</ele>
      </trkpt>
      <trkpt lat="40.54005" lon="-2.05554">
        <ele>1179.531</ele>
      </trkpt>
      <trkpt lat="40.5401" lon="-2.05561">
        <ele>1179.817</ele>
      </trkpt>
      <trkpt lat="40.54016" lon="-2.05568">
        <ele>1179.829</ele>
      </trkpt>
      <trkpt lat="40.54021" lon="-2.05572">
        <ele>1179.64</ele>
      </trkpt>
      <trkpt lat="40.54027" lon="-2.05582">
        <ele>1180.074</ele>
      </trkpt>
      <trkpt lat="40.54034" lon="-2.05593">
        <ele>1180.116</ele>
      </trkpt>
      <trkpt lat="40.54043" lon="-2.05603">
        <ele>1179.825</ele>
      </trkpt>
      <trkpt lat="40.5405" lon="-2.05609">
        <ele>1179.456</ele>
      </trkpt>
      <trkpt lat="40.54056" lon="-2.05614">
        <ele>1179.008</ele>
      </trkpt>
      <trkpt lat="40.54061" lon="-2.05617">
        <ele>1178.615</ele>
      </trkpt>
      <trkpt lat="40.54067" lon="-2.05618">
        <ele>1177.823</ele>
      </trkpt>
      <trkpt lat="40.54072" lon="-2.05617">
        <ele>1176.933</ele>
      </trkpt>
      <trkpt lat="40.54078" lon="-2.05616">
        <ele>1175.945</ele>
      </trkpt>
      <trkpt lat="40.54084" lon="-2.05616">
        <ele>1175.151</ele>
      </trkpt>
      <trkpt lat="40.54089" lon="-2.05618">
        <ele>1174.993</ele>
      </trkpt>
      <trkpt lat="40.54094" lon="-2.05623">
        <ele>1175.064</ele>
      </trkpt>
      <trkpt lat="40.54102" lon="-2.05628">
        <ele>1174.818</ele>
      </trkpt>
      <trkpt lat="40.54107" lon="-2.05633">
        <ele>1174.88</ele>
      </trkpt>
      <trkpt lat="40.54112" lon="-2.05637">
        <ele>1174.829</ele>
      </trkpt>
      <trkpt lat="40.54116" lon="-2.0564">
        <ele>1174.76</ele>
      </trkpt>
      <trkpt lat="40.54123" lon="-2.05643">
        <ele>1174.308</ele>
      </trkpt>
      <trkpt lat="40.54129" lon="-2.05643">
        <ele>1173.827</ele>
      </trkpt>
      <trkpt lat="40.54135" lon="-2.05643">
        <ele>1173.361</ele>
      </trkpt>
      <trkpt lat="40.54142" lon="-2.05644">
        <ele>1172.877</ele>
      </trkpt>
      <trkpt lat="40.54149" lon="-2.05645">
        <ele>1172.293</ele>
      </trkpt>
      <trkpt lat="40.54154" lon="-2.05647">
        <ele>1171.949</ele>
      </trkpt>
      <trkpt lat="40.54159" lon="-2.05653">
        <ele>1171.931</ele>
      </trkpt>
      <trkpt lat="40.54163" lon="-2.0566">
        <ele>1171.922</ele>
      </trkpt>
      <trkpt lat="40.54166" lon="-2.05665">
        <ele>1172.096</ele>
      </trkpt>
      <trkpt lat="40.54168" lon="-2.05672">
        <ele>1172.458</ele>
      </trkpt>
      <trkpt lat="40.54173" lon="-2.05682">
        <ele>1172.837</ele>
      </trkpt>
      <trkpt lat="40.54178" lon="-2.0569">
        <ele>1172.948</ele>
      </trkpt>
      <trkpt lat="40.54185" lon="-2.05699">
        <ele>1172.908</ele>
      </trkpt>
      <trkpt lat="40.54193" lon="-2.05709">
        <ele>1172.911</ele>
      </trkpt>
      <trkpt lat="40.54221" lon="-2.05735">
        <ele>1172.101</ele>
      </trkpt>
      <trkpt lat="40.54233" lon="-2.05745">
        <ele>1171.751</ele>
      </trkpt>
      <trkpt lat="40.54244" lon="-2.05754">
        <ele>1171.175</ele>
      </trkpt>
      <trkpt lat="40.54255" lon="-2.05763">
        <ele>1170.391</ele>
      </trkpt>
      <trkpt lat="40.54265" lon="-2.0577">
        <ele>1169.763</ele>
      </trkpt>
      <trkpt lat="40.54271" lon="-2.05776">
        <ele>1169.484</ele>
      </trkpt>
      <trkpt lat="40.54282" lon="-2.05783">
        <ele>1168.778</ele>
      </trkpt>
      <trkpt lat="40.54294" lon="-2.05794">
        <ele>1168.29</ele>
      </trkpt>
      <trkpt lat="40.54302" lon="-2.05803">
        <ele>1168.029</ele>
      </trkpt>
      <trkpt lat="40.54312" lon="-2.05813">
        <ele>1167.72</ele>
      </trkpt>
      <trkpt lat="40.54318" lon="-2.05821">
        <ele>1167.608</ele>
      </trkpt>
      <trkpt lat="40.54326" lon="-2.05829">
        <ele>1167.419</ele>
      </trkpt>
      <trkpt lat="40.54334" lon="-2.05838">
        <ele>1167.49</ele>
      </trkpt>
      <trkpt lat="40.54343" lon="-2.05846">
        <ele>1167.976</ele>
      </trkpt>
      <trkpt lat="40.54351" lon="-2.05853">
        <ele>1168.275</ele>
      </trkpt>
      <trkpt lat="40.54357" lon="-2.05858">
        <ele>1168.551</ele>
      </trkpt>
      <trkpt lat="40.54363" lon="-2.05863">
        <ele>1168.653</ele>
      </trkpt>
      <trkpt lat="40.54369" lon="-2.05866">
        <ele>1168.654</ele>
      </trkpt>
      <trkpt lat="40.54376" lon="-2.0587">
        <ele>1168.728</ele>
      </trkpt>
      <trkpt lat="40.54385" lon="-2.05873">
        <ele>1168.53</ele>
      </trkpt>
      <trkpt lat="40.54392" lon="-2.05874">
        <ele>1168.369</ele>
      </trkpt>
      <trkpt lat="40.54397" lon="-2.05875">
        <ele>1168.24</ele>
      </trkpt>
      <trkpt lat="40.54404" lon="-2.05878">
        <ele>1168.108</ele>
      </trkpt>
      <trkpt lat="40.54411" lon="-2.05881">
        <ele>1167.914</ele>
      </trkpt>
      <trkpt lat="40.54418" lon="-2.05883">
        <ele>1167.713</ele>
      </trkpt>
      <trkpt lat="40.54427" lon="-2.05887">
        <ele>1167.572</ele>
      </trkpt>
      <trkpt lat="40.54437" lon="-2.05894">
        <ele>1167.339</ele>
      </trkpt>
      <trkpt lat="40.54446" lon="-2.059">
        <ele>1167.195</ele>
      </trkpt>
      <trkpt lat="40.54454" lon="-2.05905">
        <ele>1166.987</ele>
      </trkpt>
      <trkpt lat="40.54461" lon="-2.0591">
        <ele>1166.728</ele>
      </trkpt>
      <trkpt lat="40.54463" lon="-2.05912">
        <ele>1166.692</ele>
      </trkpt>
      <trkpt lat="40.54469" lon="-2.05917">
        <ele>1166.524</ele>
      </trkpt>
      <trkpt lat="40.54478" lon="-2.05921">
        <ele>1166.213</ele>
      </trkpt>
      <trkpt lat="40.54486" lon="-2.05926">
        <ele>1166.064</ele>
      </trkpt>
      <trkpt lat="40.5449" lon="-2.05929">
        <ele>1165.908</ele>
      </trkpt>
      <trkpt lat="40.54493" lon="-2.05931">
        <ele>1165.909</ele>
      </trkpt>
      <trkpt lat="40.54498" lon="-2.05936">
        <ele>1165.854</ele>
      </trkpt>
      <trkpt lat="40.54502" lon="-2.05938">
        <ele>1165.614</ele>
      </trkpt>
      <trkpt lat="40.54512" lon="-2.05941">
        <ele>1165.133</ele>
      </trkpt>
      <trkpt lat="40.54517" lon="-2.05941">
        <ele>1164.869</ele>
      </trkpt>
      <trkpt lat="40.54521" lon="-2.05942">
        <ele>1164.611</ele>
      </trkpt>
      <trkpt lat="40.54523" lon="-2.05942">
        <ele>1164.462</ele>
      </trkpt>
      <trkpt lat="40.54528" lon="-2.05944">
        <ele>1164.246</ele>
      </trkpt>
      <trkpt lat="40.5453" lon="-2.05946">
        <ele>1164.148</ele>
      </trkpt>
      <trkpt lat="40.54533" lon="-2.05952">
        <ele>1164.227</ele>
      </trkpt>
      <trkpt lat="40.54535" lon="-2.05959">
        <ele>1164.418</ele>
      </trkpt>
      <trkpt lat="40.54536" lon="-2.05965">
        <ele>1164.608</ele>
      </trkpt>
      <trkpt lat="40.54538" lon="-2.05969">
        <ele>1164.717</ele>
      </trkpt>
      <trkpt lat="40.54541" lon="-2.05973">
        <ele>1164.707</ele>
      </trkpt>
      <trkpt lat="40.54545" lon="-2.05977">
        <ele>1164.755</ele>
      </trkpt>
      <trkpt lat="40.54549" lon="-2.0598">
        <ele>1164.633</ele>
      </trkpt>
      <trkpt lat="40.54553" lon="-2.05982">
        <ele>1164.559</ele>
      </trkpt>
      <trkpt lat="40.5456" lon="-2.05985">
        <ele>1164.311</ele>
      </trkpt>
      <trkpt lat="40.54567" lon="-2.05988">
        <ele>1164.142</ele>
      </trkpt>
      <trkpt lat="40.54573" lon="-2.05991">
        <ele>1164.086</ele>
      </trkpt>
      <trkpt lat="40.54579" lon="-2.05994">
        <ele>1163.978</ele>
      </trkpt>
      <trkpt lat="40.54585" lon="-2.05998">
        <ele>1163.837</ele>
      </trkpt>
      <trkpt lat="40.54594" lon="-2.06003">
        <ele>1163.438</ele>
      </trkpt>
      <trkpt lat="40.54599" lon="-2.06005">
        <ele>1163.208</ele>
      </trkpt>
      <trkpt lat="40.54606" lon="-2.06007">
        <ele>1162.923</ele>
      </trkpt>
      <trkpt lat="40.54611" lon="-2.06009">
        <ele>1162.603</ele>
      </trkpt>
      <trkpt lat="40.54615" lon="-2.0601">
        <ele>1162.459</ele>
      </trkpt>
      <trkpt lat="40.5462" lon="-2.06012">
        <ele>1162.241</ele>
      </trkpt>
      <trkpt lat="40.54625" lon="-2.06012">
        <ele>1161.987</ele>
      </trkpt>
      <trkpt lat="40.54625" lon="-2.06011">
        <ele>1161.919</ele>
      </trkpt>
      <trkpt lat="40.54653" lon="-2.06005">
        <ele>1160.06</ele>
      </trkpt>
      <trkpt lat="40.54667" lon="-2.06004">
        <ele>1159.234</ele>
      </trkpt>
      <trkpt lat="40.54686" lon="-2.06011">
        <ele>1160.086</ele>
      </trkpt>
      <trkpt lat="40.54721" lon="-2.06042">
        <ele>1160.775</ele>
      </trkpt>
      <trkpt lat="40.54729" lon="-2.06045">
        <ele>1160.636</ele>
      </trkpt>
      <trkpt lat="40.54751" lon="-2.0604">
        <ele>1160.508</ele>
      </trkpt>
      <trkpt lat="40.54782" lon="-2.06053">
        <ele>1159.407</ele>
      </trkpt>
      <trkpt lat="40.54812" lon="-2.06073">
        <ele>1157.461</ele>
      </trkpt>
      <trkpt lat="40.54836" lon="-2.06078">
        <ele>1156.631</ele>
      </trkpt>
      <trkpt lat="40.54881" lon="-2.06082">
        <ele>1160.06</ele>
      </trkpt>
      <trkpt lat="40.54903" lon="-2.0608">
        <ele>1161.796</ele>
      </trkpt>
      <trkpt lat="40.54928" lon="-2.06072">
        <ele>1162.268</ele>
      </trkpt>
      <trkpt lat="40.54952" lon="-2.06069">
        <ele>1162.359</ele>
      </trkpt>
      <trkpt lat="40.54997" lon="-2.06066">
        <ele>1162.853</ele>
      </trkpt>
      <trkpt lat="40.54948" lon="-2.06009">
        <ele>1160.615</ele>
      </trkpt>
      <trkpt lat="40.54934" lon="-2.05984">
        <ele>1160.324</ele>
      </trkpt>
      <trkpt lat="40.54886" lon="-2.05922">
        <ele>1163.445</ele>
      </trkpt>
      <trkpt lat="40.54851" lon="-2.0589">
        <ele>1165.508</ele>
      </trkpt>
      <trkpt lat="40.54782" lon="-2.05848">
        <ele>1162.514</ele>
      </trkpt>
      <trkpt lat="40.5473" lon="-2.05796">
        <ele>1160.468</ele>
      </trkpt>
      <trkpt lat="40.54648" lon="-2.05704">
        <ele>1161.927</ele>
      </trkpt>
      <trkpt lat="40.54626" lon="-2.05673">
        <ele>1161.584</ele>
      </trkpt>
      <trkpt lat="40.54603" lon="-2.05626">
        <ele>1160.13</ele>
      </trkpt>
      <trkpt lat="40.54577" lon="-2.05596">
        <ele>1157.242</ele>
      </trkpt>
      <trkpt lat="40.54569" lon="-2.05579">
        <ele>1157.363</ele>
      </trkpt>
      <trkpt lat="40.54559" lon="-2.0554">
        <ele>1159.467</ele>
      </trkpt>
      <trkpt lat="40.54551" lon="-2.0552">
        <ele>1160.019</ele>
      </trkpt>
      <trkpt lat="40.5452" lon="-2.05471">
        <ele>1161.438</ele>
      </trkpt>
      <trkpt lat="40.54513" lon="-2.05457">
        <ele>1162.239</ele>
      </trkpt>
      <trkpt lat="40.54503" lon="-2.05419">
        <ele>1165.208</ele>
      </trkpt>
      <trkpt lat="40.54498" lon="-2.05378">
        <ele>1164.811</ele>
      </trkpt>
      <trkpt lat="40.54497" lon="-2.0536">
        <ele>1164.783</ele>
      </trkpt>
      <trkpt lat="40.54499" lon="-2.05313">
        <ele>1163.062</ele>
      </trkpt>
      <trkpt lat="40.54502" lon="-2.05284">
        <ele>1160.729</ele>
      </trkpt>
      <trkpt lat="40.54516" lon="-2.05229">
        <ele>1160.685</ele>
      </trkpt>
      <trkpt lat="40.54534" lon="-2.05185">
        <ele>1163.967</ele>
      </trkpt>
      <trkpt lat="40.54535" lon="-2.05166">
        <ele>1163.728</ele>
      </trkpt>
      <trkpt lat="40.54535" lon="-2.05165">
        <ele>1163.642</ele>
      </trkpt>
      <trkpt lat="40.54534" lon="-2.05185">
        <ele>1163.934</ele>
      </trkpt>
      <trkpt lat="40.54516" lon="-2.05229">
        <ele>1160.623</ele>
      </trkpt>
      <trkpt lat="40.54502" lon="-2.05284">
        <ele>1160.754</ele>
      </trkpt>
      <trkpt lat="40.54499" lon="-2.05313">
        <ele>1163.008</ele>
      </trkpt>
      <trkpt lat="40.54497" lon="-2.0536">
        <ele>1164.717</ele>
      </trkpt>
      <trkpt lat="40.54498" lon="-2.05378">
        <ele>1164.898</ele>
      </trkpt>
      <trkpt lat="40.54503" lon="-2.05419">
        <ele>1165.218</ele>
      </trkpt>
      <trkpt lat="40.54513" lon="-2.05457">
        <ele>1162.29</ele>
      </trkpt>
      <trkpt lat="40.5452" lon="-2.05471">
        <ele>1161.416</ele>
      </trkpt>
      <trkpt lat="40.54551" lon="-2.0552">
        <ele>1160.098</ele>
      </trkpt>
      <trkpt lat="40.54559" lon="-2.0554">
        <ele>1159.459</ele>
      </trkpt>
      <trkpt lat="40.54569" lon="-2.05579">
        <ele>1157.333</ele>
      </trkpt>
      <trkpt lat="40.54577" lon="-2.05596">
        <ele>1157.275</ele>
      </trkpt>
      <trkpt lat="40.54603" lon="-2.05626">
        <ele>1160.154</ele>
      </trkpt>
      <trkpt lat="40.54626" lon="-2.05673">
        <ele>1161.515</ele>
      </trkpt>
      <trkpt lat="40.54648" lon="-2.05704">
        <ele>1161.908</ele>
      </trkpt>
      <trkpt lat="40.5473" lon="-2.05796">
        <ele>1160.408</ele>
      </trkpt>
      <trkpt lat="40.54782" lon="-2.05848">
        <ele>1162.526</ele>
      </trkpt>
      <trkpt lat="40.54851" lon="-2.0589">
        <ele>1165.525</ele>
      </trkpt>
      <trkpt lat="40.54886" lon="-2.05922">
        <ele>1163.48</ele>
      </trkpt>
      <trkpt lat="40.54934" lon="-2.05984">
        <ele>1160.356</ele>
      </trkpt>
      <trkpt lat="40.54948" lon="-2.06009">
        <ele>1160.678</ele>
      </trkpt>
      <trkpt lat="40.54997" lon="-2.06066">
        <ele>1162.819</ele>
      </trkpt>
      <trkpt lat="40.55015" lon="-2.06075">
        <ele>1163.163</ele>
      </trkpt>
      <trkpt lat="40.5503" lon="-2.06087">
        <ele>1163.435</ele>
      </trkpt>
      <trkpt lat="40.55039" lon="-2.06098">
        <ele>1163.624</ele>
      </trkpt>
      <trkpt lat="40.55062" lon="-2.06137">
        <ele>1163.925</ele>
      </trkpt>
      <trkpt lat="40.55083" lon="-2.0616">
        <ele>1164.108</ele>
      </trkpt>
      <trkpt lat="40.55152" lon="-2.06211">
        <ele>1163.72</ele>
      </trkpt>
      <trkpt lat="40.55192" lon="-2.0622">
        <ele>1164.1</ele>
      </trkpt>
      <trkpt lat="40.55244" lon="-2.06267">
        <ele>1163.629</ele>
      </trkpt>
      <trkpt lat="40.55271" lon="-2.06285">
        <ele>1162.394</ele>
      </trkpt>
      <trkpt lat="40.55272" lon="-2.06284">
        <ele>1162.49</ele>
      </trkpt>
      <trkpt lat="40.5529" lon="-2.06295">
        <ele>1161.722</ele>
      </trkpt>
      <trkpt lat="40.5533" lon="-2.06312">
        <ele>1161.263</ele>
      </trkpt>
      <trkpt lat="40.55431" lon="-2.06328">
        <ele>1155.747</ele>
      </trkpt>
      <trkpt lat="40.55473" lon="-2.06334">
        <ele>1156.329</ele>
      </trkpt>
      <trkpt lat="40.55546" lon="-2.06344">
        <ele>1155.578</ele>
      </trkpt>
      <trkpt lat="40.5569" lon="-2.06363">
        <ele>1155.999</ele>
      </trkpt>
      <trkpt lat="40.55764" lon="-2.06374">
        <ele>1159.008</ele>
      </trkpt>
      <trkpt lat="40.55782" lon="-2.06377">
        <ele>1160.613</ele>
      </trkpt>
      <trkpt lat="40.55815" lon="-2.06393">
        <ele>1162.521</ele>
      </trkpt>
      <trkpt lat="40.55895" lon="-2.06439">
        <ele>1166.561</ele>
      </trkpt>
      <trkpt lat="40.55934" lon="-2.06465">
        <ele>1168.337</ele>
      </trkpt>
      <trkpt lat="40.55944" lon="-2.06478">
        <ele>1168.213</ele>
      </trkpt>
      <trkpt lat="40.55948" lon="-2.06483">
        <ele>1168.265</ele>
      </trkpt>
      <trkpt lat="40.55989" lon="-2.06538">
        <ele>1169.636</ele>
      </trkpt>
      <trkpt lat="40.5601" lon="-2.06556">
        <ele>1171.49</ele>
      </trkpt>
      <trkpt lat="40.56026" lon="-2.06564">
        <ele>1172.622</ele>
      </trkpt>
      <trkpt lat="40.56048" lon="-2.06573">
        <ele>1174.061</ele>
      </trkpt>
      <trkpt lat="40.56059" lon="-2.06582">
        <ele>1174.152</ele>
      </trkpt>
      <trkpt lat="40.56075" lon="-2.06602">
        <ele>1173.108</ele>
      </trkpt>
      <trkpt lat="40.56096" lon="-2.06637">
        <ele>1172.324</ele>
      </trkpt>
      <trkpt lat="40.56125" lon="-2.06673">
        <ele>1173.131</ele>
      </trkpt>
      <trkpt lat="40.56155" lon="-2.06711">
        <ele>1171.996</ele>
      </trkpt>
      <trkpt lat="40.56168" lon="-2.0672">
        <ele>1171.992</ele>
      </trkpt>
      <trkpt lat="40.56179" lon="-2.06726">
        <ele>1172.178</ele>
      </trkpt>
      <trkpt lat="40.56192" lon="-2.0673">
        <ele>1172.85</ele>
      </trkpt>
      <trkpt lat="40.56192" lon="-2.0673">
        <ele>1172.871</ele>
      </trkpt>
      <trkpt lat="40.56221" lon="-2.06738">
        <ele>1174.535</ele>
      </trkpt>
      <trkpt lat="40.56262" lon="-2.0675">
        <ele>1175.417</ele>
      </trkpt>
      <trkpt lat="40.5631" lon="-2.06755">
        <ele>1176.496</ele>
      </trkpt>
      <trkpt lat="40.5633" lon="-2.06753">
        <ele>1177.437</ele>
      </trkpt>
      <trkpt lat="40.56355" lon="-2.06747">
        <ele>1182.308</ele>
      </trkpt>
      <trkpt lat="40.56368" lon="-2.06746">
        <ele>1184.71</ele>
      </trkpt>
      <trkpt lat="40.56381" lon="-2.06749">
        <ele>1186.264</ele>
      </trkpt>
      <trkpt lat="40.56444" lon="-2.06788">
        <ele>1189.743</ele>
      </trkpt>
      <trkpt lat="40.56483" lon="-2.06813">
        <ele>1191.354</ele>
      </trkpt>
      <trkpt lat="40.56511" lon="-2.06838">
        <ele>1191.27</ele>
      </trkpt>
      <trkpt lat="40.56557" lon="-2.06879">
        <ele>1195.292</ele>
      </trkpt>
      <trkpt lat="40.5657" lon="-2.06894">
        <ele>1195.173</ele>
      </trkpt>
      <trkpt lat="40.56599" lon="-2.06922">
        <ele>1196.777</ele>
      </trkpt>
      <trkpt lat="40.56643" lon="-2.06956">
        <ele>1201.629</ele>
      </trkpt>
      <trkpt lat="40.56662" lon="-2.0697">
        <ele>1202.698</ele>
      </trkpt>
      <trkpt lat="40.56679" lon="-2.06988">
        <ele>1201.949</ele>
      </trkpt>
      <trkpt lat="40.56691" lon="-2.07002">
        <ele>1200.808</ele>
      </trkpt>
      <trkpt lat="40.56698" lon="-2.07009">
        <ele>1200.724</ele>
      </trkpt>
      <trkpt lat="40.56707" lon="-2.07015">
        <ele>1201.304</ele>
      </trkpt>
      <trkpt lat="40.56718" lon="-2.07021">
        <ele>1202.269</ele>
      </trkpt>
      <trkpt lat="40.56728" lon="-2.07027">
        <ele>1202.997</ele>
      </trkpt>
      <trkpt lat="40.56739" lon="-2.07034">
        <ele>1203.653</ele>
      </trkpt>
      <trkpt lat="40.56748" lon="-2.07037">
        <ele>1204.785</ele>
      </trkpt>
      <trkpt lat="40.56758" lon="-2.07039">
        <ele>1206.226</ele>
      </trkpt>
      <trkpt lat="40.56762" lon="-2.0704">
        <ele>1206.78</ele>
      </trkpt>
      <trkpt lat="40.56767" lon="-2.0704">
        <ele>1207.772</ele>
      </trkpt>
      <trkpt lat="40.56777" lon="-2.0704">
        <ele>1209.661</ele>
      </trkpt>
      <trkpt lat="40.56777" lon="-2.0704">
        <ele>1209.692</ele>
      </trkpt>
      <trkpt lat="40.5678" lon="-2.07047">
        <ele>1208.308</ele>
      </trkpt>
      <trkpt lat="40.56782" lon="-2.07049">
        <ele>1208.222</ele>
      </trkpt>
      <trkpt lat="40.56787" lon="-2.07052">
        <ele>1208.357</ele>
      </trkpt>
      <trkpt lat="40.56798" lon="-2.07056">
        <ele>1209.294</ele>
      </trkpt>
      <trkpt lat="40.56811" lon="-2.07058">
        <ele>1210.961</ele>
      </trkpt>
      <trkpt lat="40.56821" lon="-2.07061">
        <ele>1211.867</ele>
      </trkpt>
      <trkpt lat="40.56833" lon="-2.07069">
        <ele>1211.469</ele>
      </trkpt>
      <trkpt lat="40.56837" lon="-2.07073">
        <ele>1211.41</ele>
      </trkpt>
      <trkpt lat="40.56841" lon="-2.07078">
        <ele>1211.114</ele>
      </trkpt>
      <trkpt lat="40.56843" lon="-2.07083">
        <ele>1210.156</ele>
      </trkpt>
      <trkpt lat="40.56845" lon="-2.07089">
        <ele>1210.185</ele>
      </trkpt>
      <trkpt lat="40.56845" lon="-2.0709">
        <ele>1210.096</ele>
      </trkpt>
      <trkpt lat="40.56845" lon="-2.07091">
        <ele>1209.908</ele>
      </trkpt>
      <trkpt lat="40.56845" lon="-2.07092">
        <ele>1209.807</ele>
      </trkpt>
      <trkpt lat="40.56843" lon="-2.07099">
        <ele>1208.661</ele>
      </trkpt>
      <trkpt lat="40.56841" lon="-2.07104">
        <ele>1207.631</ele>
      </trkpt>
      <trkpt lat="40.56839" lon="-2.07106">
        <ele>1206.951</ele>
      </trkpt>
      <trkpt lat="40.56828" lon="-2.07115">
        <ele>1203.777</ele>
      </trkpt>
      <trkpt lat="40.56821" lon="-2.07127">
        <ele>1201.279</ele>
      </trkpt>
      <trkpt lat="40.56819" lon="-2.07134">
        <ele>1200.29</ele>
      </trkpt>
      <trkpt lat="40.56817" lon="-2.07147">
        <ele>1198.584</ele>
      </trkpt>
      <trkpt lat="40.56818" lon="-2.07156">
        <ele>1197.956</ele>
      </trkpt>
      <trkpt lat="40.56822" lon="-2.07168">
        <ele>1197.875</ele>
      </trkpt>
      <trkpt lat="40.56833" lon="-2.07185">
        <ele>1198.756</ele>
      </trkpt>
      <trkpt lat="40.5685" lon="-2.07205">
        <ele>1199.008</ele>
      </trkpt>
      <trkpt lat="40.56874" lon="-2.0723">
        <ele>1200.317</ele>
      </trkpt>
      <trkpt lat="40.56901" lon="-2.07258">
        <ele>1202.07</ele>
      </trkpt>
      <trkpt lat="40.56914" lon="-2.07272">
        <ele>1202.438</ele>
      </trkpt>
      <trkpt lat="40.56948" lon="-2.07304">
        <ele>1206.154</ele>
      </trkpt>
      <trkpt lat="40.56952" lon="-2.07306">
        <ele>1206.81</ele>
      </trkpt>
      <trkpt lat="40.56962" lon="-2.07314">
        <ele>1208.042</ele>
      </trkpt>
      <trkpt lat="40.56962" lon="-2.07313">
        <ele>1208.253</ele>
      </trkpt>
      <trkpt lat="40.56968" lon="-2.07318">
        <ele>1208.997</ele>
      </trkpt>
      <trkpt lat="40.56968" lon="-2.07318">
        <ele>1208.969</ele>
      </trkpt>
      <trkpt lat="40.56968" lon="-2.07319">
        <ele>1208.768</ele>
      </trkpt>
      <trkpt lat="40.56981" lon="-2.0734">
        <ele>1207.839</ele>
      </trkpt>
      <trkpt lat="40.57022" lon="-2.07377">
        <ele>1208.008</ele>
      </trkpt>
      <trkpt lat="40.57051" lon="-2.0741">
        <ele>1207.116</ele>
      </trkpt>
      <trkpt lat="40.57049" lon="-2.07413">
        <ele>1205.906</ele>
      </trkpt>
      <trkpt lat="40.57064" lon="-2.07432">
        <ele>1208.164</ele>
      </trkpt>
      <trkpt lat="40.57091" lon="-2.0745">
        <ele>1213.886</ele>
      </trkpt>
      <trkpt lat="40.57096" lon="-2.07456">
        <ele>1214.382</ele>
      </trkpt>
      <trkpt lat="40.57097" lon="-2.07464">
        <ele>1214.194</ele>
      </trkpt>
      <trkpt lat="40.57096" lon="-2.07477">
        <ele>1213.445</ele>
      </trkpt>
      <trkpt lat="40.57129" lon="-2.07497">
        <ele>1216.139</ele>
      </trkpt>
      <trkpt lat="40.57178" lon="-2.07516">
        <ele>1220.561</ele>
      </trkpt>
      <trkpt lat="40.57194" lon="-2.07526">
        <ele>1221.02</ele>
      </trkpt>
      <trkpt lat="40.57211" lon="-2.07535">
        <ele>1221.581</ele>
      </trkpt>
      <trkpt lat="40.57217" lon="-2.07536">
        <ele>1221.608</ele>
      </trkpt>
      <trkpt lat="40.57235" lon="-2.07546">
        <ele>1221.917</ele>
      </trkpt>
      <trkpt lat="40.57223" lon="-2.07619">
        <ele>1215.661</ele>
      </trkpt>
      <trkpt lat="40.57238" lon="-2.07624">
        <ele>1215.881</ele>
      </trkpt>
      <trkpt lat="40.57243" lon="-2.07625">
        <ele>1216.047</ele>
      </trkpt>
      <trkpt lat="40.57321" lon="-2.07653">
        <ele>1209.933</ele>
      </trkpt>
      <trkpt lat="40.57329" lon="-2.07661">
        <ele>1208.825</ele>
      </trkpt>
      <trkpt lat="40.5733" lon="-2.07666">
        <ele>1208.296</ele>
      </trkpt>
      <trkpt lat="40.57329" lon="-2.07684">
        <ele>1203.74</ele>
      </trkpt>
      <trkpt lat="40.57329" lon="-2.07683">
        <ele>1204.072</ele>
      </trkpt>
      <trkpt lat="40.57329" lon="-2.07692">
        <ele>1201.661</ele>
      </trkpt>
      <trkpt lat="40.5733" lon="-2.07702">
        <ele>1199.112</ele>
      </trkpt>
      <trkpt lat="40.57332" lon="-2.07707">
        <ele>1197.808</ele>
      </trkpt>
      <trkpt lat="40.57335" lon="-2.07709">
        <ele>1197.02</ele>
      </trkpt>
      <trkpt lat="40.57343" lon="-2.07708">
        <ele>1195.873</ele>
      </trkpt>
      <trkpt lat="40.57347" lon="-2.07704">
        <ele>1196.092</ele>
      </trkpt>
      <trkpt lat="40.5736" lon="-2.07668">
        <ele>1201.67</ele>
      </trkpt>
      <trkpt lat="40.5736" lon="-2.07667">
        <ele>1201.896</ele>
      </trkpt>
      <trkpt lat="40.57367" lon="-2.07647">
        <ele>1203.348</ele>
      </trkpt>
      <trkpt lat="40.57374" lon="-2.0764">
        <ele>1203.019</ele>
      </trkpt>
      <trkpt lat="40.57381" lon="-2.07642">
        <ele>1201.443</ele>
      </trkpt>
      <trkpt lat="40.57383" lon="-2.07645">
        <ele>1200.555</ele>
      </trkpt>
      <trkpt lat="40.57384" lon="-2.07648">
        <ele>1199.724</ele>
      </trkpt>
      <trkpt lat="40.57383" lon="-2.07656">
        <ele>1198.595</ele>
      </trkpt>
      <trkpt lat="40.57372" lon="-2.07698">
        <ele>1192.508</ele>
      </trkpt>
      <trkpt lat="40.57374" lon="-2.07707">
        <ele>1190.214</ele>
      </trkpt>
      <trkpt lat="40.57381" lon="-2.07713">
        <ele>1187.704</ele>
      </trkpt>
      <trkpt lat="40.57384" lon="-2.07714">
        <ele>1186.924</ele>
      </trkpt>
      <trkpt lat="40.57395" lon="-2.0771">
        <ele>1185.71</ele>
      </trkpt>
      <trkpt lat="40.57401" lon="-2.07704">
        <ele>1185.736</ele>
      </trkpt>
      <trkpt lat="40.57408" lon="-2.07689">
        <ele>1187.058</ele>
      </trkpt>
      <trkpt lat="40.57423" lon="-2.07664">
        <ele>1188.169</ele>
      </trkpt>
      <trkpt lat="40.5743" lon="-2.07655">
        <ele>1188.423</ele>
      </trkpt>
      <trkpt lat="40.57467" lon="-2.07633">
        <ele>1182.575</ele>
      </trkpt>
      <trkpt lat="40.57477" lon="-2.07633">
        <ele>1179.774</ele>
      </trkpt>
      <trkpt lat="40.57484" lon="-2.07638">
        <ele>1177.135</ele>
      </trkpt>
      <trkpt lat="40.57486" lon="-2.07656">
        <ele>1174.508</ele>
      </trkpt>
      <trkpt lat="40.5748" lon="-2.07677">
        <ele>1173.014</ele>
      </trkpt>
      <trkpt lat="40.5747" lon="-2.07693">
        <ele>1172.804</ele>
      </trkpt>
      <trkpt lat="40.57445" lon="-2.07719">
        <ele>1174.224</ele>
      </trkpt>
      <trkpt lat="40.57435" lon="-2.07734">
        <ele>1173.944</ele>
      </trkpt>
      <trkpt lat="40.57404" lon="-2.07824">
        <ele>1163.82</ele>
      </trkpt>
      <trkpt lat="40.57387" lon="-2.07857">
        <ele>1160.712</ele>
      </trkpt>
      <trkpt lat="40.57393" lon="-2.07871">
        <ele>1159.963</ele>
      </trkpt>
      <trkpt lat="40.57402" lon="-2.07881">
        <ele>1159.757</ele>
      </trkpt>
      <trkpt lat="40.57489" lon="-2.07976">
        <ele>1149.029</ele>
      </trkpt>
      <trkpt lat="40.57499" lon="-2.07983">
        <ele>1148.318</ele>
      </trkpt>
      <trkpt lat="40.57514" lon="-2.07985">
        <ele>1146.989</ele>
      </trkpt>
      <trkpt lat="40.5752" lon="-2.07981">
        <ele>1146.108</ele>
      </trkpt>
      <trkpt lat="40.57524" lon="-2.07973">
        <ele>1145.526</ele>
      </trkpt>
      <trkpt lat="40.57527" lon="-2.07961">
        <ele>1144.842</ele>
      </trkpt>
      <trkpt lat="40.57541" lon="-2.07838">
        <ele>1145.468</ele>
      </trkpt>
      <trkpt lat="40.57552" lon="-2.07807">
        <ele>1146.393</ele>
      </trkpt>
      <trkpt lat="40.57565" lon="-2.078">
        <ele>1145.339</ele>
      </trkpt>
      <trkpt lat="40.57594" lon="-2.07793">
        <ele>1143.451</ele>
      </trkpt>
      <trkpt lat="40.57616" lon="-2.07789">
        <ele>1143.452</ele>
      </trkpt>
      <trkpt lat="40.57627" lon="-2.0779">
        <ele>1143.356</ele>
      </trkpt>
      <trkpt lat="40.5764" lon="-2.07797">
        <ele>1143.068</ele>
      </trkpt>
      <trkpt lat="40.57672" lon="-2.07847">
        <ele>1141.847</ele>
      </trkpt>
      <trkpt lat="40.57698" lon="-2.0787">
        <ele>1142.498</ele>
      </trkpt>
      <trkpt lat="40.57728" lon="-2.07894">
        <ele>1142.308</ele>
      </trkpt>
      <trkpt lat="40.57755" lon="-2.07912">
        <ele>1141.923</ele>
      </trkpt>
      <trkpt lat="40.5778" lon="-2.07924">
        <ele>1143.003</ele>
      </trkpt>
      <trkpt lat="40.57843" lon="-2.0794">
        <ele>1145.459</ele>
      </trkpt>
      <trkpt lat="40.57882" lon="-2.0794">
        <ele>1145.026</ele>
      </trkpt>
      <trkpt lat="40.57896" lon="-2.07943">
        <ele>1144.632</ele>
      </trkpt>
      <trkpt lat="40.57907" lon="-2.0795">
        <ele>1144.014</ele>
      </trkpt>
      <trkpt lat="40.57919" lon="-2.0796">
        <ele>1143.685</ele>
      </trkpt>
      <trkpt lat="40.57967" lon="-2.08007">
        <ele>1145.249</ele>
      </trkpt>
      <trkpt lat="40.58004" lon="-2.08047">
        <ele>1148.371</ele>
      </trkpt>
      <trkpt lat="40.58018" lon="-2.08065">
        <ele>1149.51</ele>
      </trkpt>
      <trkpt lat="40.58058" lon="-2.08104">
        <ele>1152.091</ele>
      </trkpt>
      <trkpt lat="40.58081" lon="-2.08143">
        <ele>1152.008</ele>
      </trkpt>
      <trkpt lat="40.58123" lon="-2.08224">
        <ele>1150.326</ele>
      </trkpt>
      <trkpt lat="40.58135" lon="-2.08263">
        <ele>1149.86</ele>
      </trkpt>
      <trkpt lat="40.58149" lon="-2.08421">
        <ele>1144.786</ele>
      </trkpt>
      <trkpt lat="40.58164" lon="-2.08526">
        <ele>1147.15</ele>
      </trkpt>
      <trkpt lat="40.58183" lon="-2.08589">
        <ele>1150.846</ele>
      </trkpt>
      <trkpt lat="40.58204" lon="-2.08656">
        <ele>1150.848</ele>
      </trkpt>
      <trkpt lat="40.58225" lon="-2.08705">
        <ele>1150.579</ele>
      </trkpt>
      <trkpt lat="40.58238" lon="-2.08733">
        <ele>1150.463</ele>
      </trkpt>
      <trkpt lat="40.58277" lon="-2.08799">
        <ele>1150.375</ele>
      </trkpt>
      <trkpt lat="40.58352" lon="-2.08969">
        <ele>1141.684</ele>
      </trkpt>
      <trkpt lat="40.58416" lon="-2.09104">
        <ele>1140.275</ele>
      </trkpt>
      <trkpt lat="40.5844" lon="-2.09142">
        <ele>1139.208</ele>
      </trkpt>
      <trkpt lat="40.58456" lon="-2.09164">
        <ele>1139.011</ele>
      </trkpt>
      <trkpt lat="40.58494" lon="-2.09203">
        <ele>1139.183</ele>
      </trkpt>
      <trkpt lat="40.58558" lon="-2.09242">
        <ele>1140.323</ele>
      </trkpt>
      <trkpt lat="40.58576" lon="-2.09249">
        <ele>1140.693</ele>
      </trkpt>
      <trkpt lat="40.58614" lon="-2.09254">
        <ele>1139.319</ele>
      </trkpt>
      <trkpt lat="40.58704" lon="-2.09254">
        <ele>1135.141</ele>
      </trkpt>
      <trkpt lat="40.58747" lon="-2.09263">
        <ele>1132.752</ele>
      </trkpt>
      <trkpt lat="40.58864" lon="-2.09298">
        <ele>1142.826</ele>
      </trkpt>
      <trkpt lat="40.58937" lon="-2.09331">
        <ele>1142.898</ele>
      </trkpt>
      <trkpt lat="40.59019" lon="-2.09371">
        <ele>1148.157</ele>
      </trkpt>
      <trkpt lat="40.59088" lon="-2.09398">
        <ele>1151.268</ele>
      </trkpt>
      <trkpt lat="40.59117" lon="-2.09405">
        <ele>1150.908</ele>
      </trkpt>
      <trkpt lat="40.5917" lon="-2.09408">
        <ele>1151.117</ele>
      </trkpt>
      <trkpt lat="40.59187" lon="-2.09406">
        <ele>1151.752</ele>
      </trkpt>
      <trkpt lat="40.59209" lon="-2.09399">
        <ele>1153.558</ele>
      </trkpt>
      <trkpt lat="40.59274" lon="-2.09369">
        <ele>1158.777</ele>
      </trkpt>
      <trkpt lat="40.59447" lon="-2.09314">
        <ele>1168.343</ele>
      </trkpt>
      <trkpt lat="40.5947" lon="-2.09304">
        <ele>1170.715</ele>
      </trkpt>
      <trkpt lat="40.59516" lon="-2.09281">
        <ele>1175.076</ele>
      </trkpt>
      <trkpt lat="40.59607" lon="-2.0924">
        <ele>1174.98</ele>
      </trkpt>
      <trkpt lat="40.59689" lon="-2.09228">
        <ele>1173.242</ele>
      </trkpt>
      <trkpt lat="40.5973" lon="-2.09209">
        <ele>1176.461</ele>
      </trkpt>
      <trkpt lat="40.59992" lon="-2.09069">
        <ele>1168.842</ele>
      </trkpt>
      <trkpt lat="40.60016" lon="-2.09059">
        <ele>1169.908</ele>
      </trkpt>
      <trkpt lat="40.60049" lon="-2.09057">
        <ele>1171.325</ele>
      </trkpt>
      <trkpt lat="40.60067" lon="-2.0906">
        <ele>1171.323</ele>
      </trkpt>
      <trkpt lat="40.60209" lon="-2.09095">
        <ele>1179.097</ele>
      </trkpt>
      <trkpt lat="40.6024" lon="-2.09098">
        <ele>1181.913</ele>
      </trkpt>
      <trkpt lat="40.60276" lon="-2.09091">
        <ele>1186.439</ele>
      </trkpt>
      <trkpt lat="40.60371" lon="-2.09079">
        <ele>1192.211</ele>
      </trkpt>
      <trkpt lat="40.60402" lon="-2.09071">
        <ele>1193.292</ele>
      </trkpt>
      <trkpt lat="40.6048" lon="-2.09031">
        <ele>1191.696</ele>
      </trkpt>
      <trkpt lat="40.60523" lon="-2.09014">
        <ele>1189.278</ele>
      </trkpt>
      <trkpt lat="40.60599" lon="-2.08994">
        <ele>1186.477</ele>
      </trkpt>
      <trkpt lat="40.60657" lon="-2.08991">
        <ele>1185.078</ele>
      </trkpt>
      <trkpt lat="40.60657" lon="-2.08991">
        <ele>1185.008</ele>
      </trkpt>
      <trkpt lat="40.6076" lon="-2.08998">
        <ele>1185.82</ele>
      </trkpt>
      <trkpt lat="40.60799" lon="-2.08992">
        <ele>1188.4</ele>
      </trkpt>
      <trkpt lat="40.60926" lon="-2.08951">
        <ele>1185.657</ele>
      </trkpt>
      <trkpt lat="40.60957" lon="-2.08951">
        <ele>1184.666</ele>
      </trkpt>
      <trkpt lat="40.60991" lon="-2.08957">
        <ele>1183.342</ele>
      </trkpt>
      <trkpt lat="40.61218" lon="-2.09021">
        <ele>1191.574</ele>
      </trkpt>
      <trkpt lat="40.61228" lon="-2.09025">
        <ele>1192.465</ele>
      </trkpt>
      <trkpt lat="40.61255" lon="-2.09039">
        <ele>1194.659</ele>
      </trkpt>
      <trkpt lat="40.61283" lon="-2.09064">
        <ele>1197.151</ele>
      </trkpt>
      <trkpt lat="40.61334" lon="-2.0912">
        <ele>1197.84</ele>
      </trkpt>
      <trkpt lat="40.61361" lon="-2.09144">
        <ele>1198.871</ele>
      </trkpt>
      <trkpt lat="40.61379" lon="-2.09156">
        <ele>1199.808</ele>
      </trkpt>
      <trkpt lat="40.614" lon="-2.09166">
        <ele>1201.517</ele>
      </trkpt>
      <trkpt lat="40.6149" lon="-2.09191">
        <ele>1209.207</ele>
      </trkpt>
      <trkpt lat="40.61539" lon="-2.09211">
        <ele>1214.184</ele>
      </trkpt>
      <trkpt lat="40.61575" lon="-2.09234">
        <ele>1216.472</ele>
      </trkpt>
      <trkpt lat="40.61607" lon="-2.09262">
        <ele>1217.628</ele>
      </trkpt>
      <trkpt lat="40.61632" lon="-2.09287">
        <ele>1218.47</ele>
      </trkpt>
      <trkpt lat="40.6166" lon="-2.09325">
        <ele>1218.071</ele>
      </trkpt>
      <trkpt lat="40.61688" lon="-2.09334">
        <ele>1219.745</ele>
      </trkpt>
      <trkpt lat="40.61718" lon="-2.0933">
        <ele>1222.957</ele>
      </trkpt>
      <trkpt lat="40.61737" lon="-2.09334">
        <ele>1223.896</ele>
      </trkpt>
      <trkpt lat="40.61755" lon="-2.09349">
        <ele>1222.577</ele>
      </trkpt>
      <trkpt lat="40.61766" lon="-2.09364">
        <ele>1221.008</ele>
      </trkpt>
      <trkpt lat="40.61782" lon="-2.09377">
        <ele>1220.516</ele>
      </trkpt>
      <trkpt lat="40.61801" lon="-2.09402">
        <ele>1217.888</ele>
      </trkpt>
      <trkpt lat="40.61818" lon="-2.09438">
        <ele>1213.846</ele>
      </trkpt>
      <trkpt lat="40.61831" lon="-2.09444">
        <ele>1214.589</ele>
      </trkpt>
      <trkpt lat="40.61853" lon="-2.09449">
        <ele>1215.735</ele>
      </trkpt>
      <trkpt lat="40.61871" lon="-2.09461">
        <ele>1215.287</ele>
      </trkpt>
      <trkpt lat="40.61883" lon="-2.09488">
        <ele>1211.248</ele>
      </trkpt>
      <trkpt lat="40.61901" lon="-2.09546">
        <ele>1207.142</ele>
      </trkpt>
      <trkpt lat="40.61905" lon="-2.09575">
        <ele>1205.374</ele>
      </trkpt>
      <trkpt lat="40.61904" lon="-2.09588">
        <ele>1205.163</ele>
      </trkpt>
      <trkpt lat="40.61902" lon="-2.09598">
        <ele>1205.844</ele>
      </trkpt>
      <trkpt lat="40.61902" lon="-2.09597">
        <ele>1205.708</ele>
      </trkpt>
      <trkpt lat="40.619" lon="-2.09607">
        <ele>1206.509</ele>
      </trkpt>
      <trkpt lat="40.61897" lon="-2.09616">
        <ele>1207.354</ele>
      </trkpt>
      <trkpt lat="40.61892" lon="-2.09623">
        <ele>1208.114</ele>
      </trkpt>
      <trkpt lat="40.61842" lon="-2.09638">
        <ele>1211.811</ele>
      </trkpt>
      <trkpt lat="40.61816" lon="-2.09641">
        <ele>1213.587</ele>
      </trkpt>
      <trkpt lat="40.61808" lon="-2.09645">
        <ele>1214.679</ele>
      </trkpt>
      <trkpt lat="40.61803" lon="-2.0965">
        <ele>1215.85</ele>
      </trkpt>
      <trkpt lat="40.61802" lon="-2.09657">
        <ele>1217.134</ele>
      </trkpt>
      <trkpt lat="40.61803" lon="-2.09666">
        <ele>1218.796</ele>
      </trkpt>
      <trkpt lat="40.61814" lon="-2.0968">
        <ele>1221.145</ele>
      </trkpt>
      <trkpt lat="40.61815" lon="-2.09687">
        <ele>1222.616</ele>
      </trkpt>
      <trkpt lat="40.61808" lon="-2.09699">
        <ele>1225.708</ele>
      </trkpt>
      <trkpt lat="40.61801" lon="-2.09702">
        <ele>1226.917</ele>
      </trkpt>
      <trkpt lat="40.61741" lon="-2.09712">
        <ele>1234.17</ele>
      </trkpt>
      <trkpt lat="40.61736" lon="-2.09715">
        <ele>1235.638</ele>
      </trkpt>
      <trkpt lat="40.61733" lon="-2.09721">
        <ele>1237.557</ele>
      </trkpt>
      <trkpt lat="40.61732" lon="-2.09727">
        <ele>1239.263</ele>
      </trkpt>
      <trkpt lat="40.61736" lon="-2.09735">
        <ele>1240.615</ele>
      </trkpt>
      <trkpt lat="40.61784" lon="-2.0977">
        <ele>1245.196</ele>
      </trkpt>
      <trkpt lat="40.61815" lon="-2.09789">
        <ele>1247.32</ele>
      </trkpt>
      <trkpt lat="40.61853" lon="-2.09825">
        <ele>1250.542</ele>
      </trkpt>
      <trkpt lat="40.61867" lon="-2.09834">
        <ele>1249.591</ele>
      </trkpt>
      <trkpt lat="40.61879" lon="-2.09845">
        <ele>1249.152</ele>
      </trkpt>
      <trkpt lat="40.61897" lon="-2.09874">
        <ele>1251.508</ele>
      </trkpt>
      <trkpt lat="40.61939" lon="-2.09919">
        <ele>1253.723</ele>
      </trkpt>
      <trkpt lat="40.6197" lon="-2.0997">
        <ele>1260.149</ele>
      </trkpt>
      <trkpt lat="40.61987" lon="-2.10007">
        <ele>1266.295</ele>
      </trkpt>
      <trkpt lat="40.61998" lon="-2.10022">
        <ele>1268.025</ele>
      </trkpt>
      <trkpt lat="40.62045" lon="-2.1007">
        <ele>1269.041</ele>
      </trkpt>
      <trkpt lat="40.62058" lon="-2.10085">
        <ele>1269.573</ele>
      </trkpt>
      <trkpt lat="40.62066" lon="-2.10103">
        <ele>1271.864</ele>
      </trkpt>
      <trkpt lat="40.62084" lon="-2.10134">
        <ele>1274.888</ele>
      </trkpt>
      <trkpt lat="40.62092" lon="-2.10144">
        <ele>1275.67</ele>
      </trkpt>
      <trkpt lat="40.62171" lon="-2.10197">
        <ele>1276.489</ele>
      </trkpt>
      <trkpt lat="40.62206" lon="-2.10218">
        <ele>1276.99</ele>
      </trkpt>
      <trkpt lat="40.62221" lon="-2.10229">
        <ele>1277.608</ele>
      </trkpt>
      <trkpt lat="40.62245" lon="-2.10259">
        <ele>1282.42</ele>
      </trkpt>
      <trkpt lat="40.62262" lon="-2.10275">
        <ele>1284.128</ele>
      </trkpt>
      <trkpt lat="40.62287" lon="-2.1031">
        <ele>1289.375</ele>
      </trkpt>
      <trkpt lat="40.62366" lon="-2.10379">
        <ele>1294.843</ele>
      </trkpt>
      <trkpt lat="40.62412" lon="-2.10424">
        <ele>1297.199</ele>
      </trkpt>
      <trkpt lat="40.62453" lon="-2.10455">
        <ele>1291.211</ele>
      </trkpt>
      <trkpt lat="40.62463" lon="-2.10468">
        <ele>1290.642</ele>
      </trkpt>
      <trkpt lat="40.62468" lon="-2.10484">
        <ele>1291.896</ele>
      </trkpt>
      <trkpt lat="40.62469" lon="-2.105">
        <ele>1294.228</ele>
      </trkpt>
      <trkpt lat="40.62467" lon="-2.10511">
        <ele>1294.867</ele>
      </trkpt>
      <trkpt lat="40.62455" lon="-2.10534">
        <ele>1298.078</ele>
      </trkpt>
      <trkpt lat="40.62442" lon="-2.10573">
        <ele>1300.908</ele>
      </trkpt>
      <trkpt lat="40.62439" lon="-2.1058">
        <ele>1301.511</ele>
      </trkpt>
      <trkpt lat="40.62404" lon="-2.10601">
        <ele>1308.001</ele>
      </trkpt>
      <trkpt lat="40.62369" lon="-2.10615">
        <ele>1313.351</ele>
      </trkpt>
      <trkpt lat="40.62358" lon="-2.10623">
        <ele>1314.462</ele>
      </trkpt>
      <trkpt lat="40.62337" lon="-2.10653">
        <ele>1314.938</ele>
      </trkpt>
      <trkpt lat="40.62325" lon="-2.10667">
        <ele>1314.88</ele>
      </trkpt>
      <trkpt lat="40.62291" lon="-2.10694">
        <ele>1318.221</ele>
      </trkpt>
      <trkpt lat="40.62265" lon="-2.1073">
        <ele>1318.355</ele>
      </trkpt>
      <trkpt lat="40.62216" lon="-2.10829">
        <ele>1326.667</ele>
      </trkpt>
      <trkpt lat="40.62212" lon="-2.10841">
        <ele>1327.526</ele>
      </trkpt>
      <trkpt lat="40.62211" lon="-2.10873">
        <ele>1329.857</ele>
      </trkpt>
      <trkpt lat="40.62213" lon="-2.10915">
        <ele>1332.508</ele>
      </trkpt>
      <trkpt lat="40.62213" lon="-2.10947">
        <ele>1333.514</ele>
      </trkpt>
      <trkpt lat="40.62215" lon="-2.11002">
        <ele>1334.922</ele>
      </trkpt>
      <trkpt lat="40.62223" lon="-2.11023">
        <ele>1334.942</ele>
      </trkpt>
      <trkpt lat="40.62256" lon="-2.11073">
        <ele>1335.729</ele>
      </trkpt>
      <trkpt lat="40.62281" lon="-2.11122">
        <ele>1337.545</ele>
      </trkpt>
      <trkpt lat="40.62332" lon="-2.11212">
        <ele>1343.597</ele>
      </trkpt>
      <trkpt lat="40.62337" lon="-2.11227">
        <ele>1344.948</ele>
      </trkpt>
      <trkpt lat="40.62339" lon="-2.11244">
        <ele>1345.862</ele>
      </trkpt>
      <trkpt lat="40.62339" lon="-2.11256">
        <ele>1346.724</ele>
      </trkpt>
      <trkpt lat="40.62336" lon="-2.11269">
        <ele>1347.723</ele>
      </trkpt>
      <trkpt lat="40.62312" lon="-2.11325">
        <ele>1350.474</ele>
      </trkpt>
      <trkpt lat="40.62308" lon="-2.11341">
        <ele>1350.608</ele>
      </trkpt>
      <trkpt lat="40.62306" lon="-2.11358">
        <ele>1350.607</ele>
      </trkpt>
      <trkpt lat="40.62312" lon="-2.11456">
        <ele>1353.943</ele>
      </trkpt>
      <trkpt lat="40.62317" lon="-2.11469">
        <ele>1355.013</ele>
      </trkpt>
      <trkpt lat="40.62322" lon="-2.11476">
        <ele>1355.866</ele>
      </trkpt>
      <trkpt lat="40.62337" lon="-2.11481">
        <ele>1357.482</ele>
      </trkpt>
      <trkpt lat="40.62373" lon="-2.11469">
        <ele>1356.014</ele>
      </trkpt>
      <trkpt lat="40.62384" lon="-2.11468">
        <ele>1355.725</ele>
      </trkpt>
      <trkpt lat="40.62423" lon="-2.11474">
        <ele>1354.099</ele>
      </trkpt>
      <trkpt lat="40.62436" lon="-2.11474">
        <ele>1353.791</ele>
      </trkpt>
      <trkpt lat="40.62452" lon="-2.11468">
        <ele>1353.52</ele>
      </trkpt>
      <trkpt lat="40.62479" lon="-2.11449">
        <ele>1353.131</ele>
      </trkpt>
      <trkpt lat="40.62486" lon="-2.11439">
        <ele>1352.908</ele>
      </trkpt>
      <trkpt lat="40.62498" lon="-2.11414">
        <ele>1352.417</ele>
      </trkpt>
      <trkpt lat="40.62505" lon="-2.11394">
        <ele>1354.125</ele>
      </trkpt>
      <trkpt lat="40.62517" lon="-2.11377">
        <ele>1355.183</ele>
      </trkpt>
      <trkpt lat="40.62535" lon="-2.11356">
        <ele>1355.761</ele>
      </trkpt>
      <trkpt lat="40.62552" lon="-2.1134">
        <ele>1355.377</ele>
      </trkpt>
      <trkpt lat="40.62584" lon="-2.11318">
        <ele>1354.769</ele>
      </trkpt>
      <trkpt lat="40.62607" lon="-2.11295">
        <ele>1356.96</ele>
      </trkpt>
      <trkpt lat="40.62671" lon="-2.11248">
        <ele>1357.144</ele>
      </trkpt>
      <trkpt lat="40.62694" lon="-2.11237">
        <ele>1358.086</ele>
      </trkpt>
      <trkpt lat="40.62747" lon="-2.11216">
        <ele>1361.315</ele>
      </trkpt>
      <trkpt lat="40.62767" lon="-2.11211">
        <ele>1361.216</ele>
      </trkpt>
      <trkpt lat="40.6282" lon="-2.11217">
        <ele>1359.608</ele>
      </trkpt>
      <trkpt lat="40.62841" lon="-2.11222">
        <ele>1359.21</ele>
      </trkpt>
      <trkpt lat="40.62862" lon="-2.1123">
        <ele>1359.055</ele>
      </trkpt>
      <trkpt lat="40.6288" lon="-2.11244">
        <ele>1358.434</ele>
      </trkpt>
      <trkpt lat="40.62889" lon="-2.1126">
        <ele>1358.495</ele>
      </trkpt>
      <trkpt lat="40.62907" lon="-2.11312">
        <ele>1360.731</ele>
      </trkpt>
      <trkpt lat="40.62999" lon="-2.11471">
        <ele>1361.393</ele>
      </trkpt>
      <trkpt lat="40.63052" lon="-2.11557">
        <ele>1366.844</ele>
      </trkpt>
      <trkpt lat="40.63101" lon="-2.11645">
        <ele>1372.168</ele>
      </trkpt>
      <trkpt lat="40.63118" lon="-2.11668">
        <ele>1372.99</ele>
      </trkpt>
      <trkpt lat="40.63131" lon="-2.11701">
        <ele>1374.149</ele>
      </trkpt>
      <trkpt lat="40.63137" lon="-2.11723">
        <ele>1374.74</ele>
      </trkpt>
      <trkpt lat="40.63143" lon="-2.11784">
        <ele>1379.508</ele>
      </trkpt>
      <trkpt lat="40.63147" lon="-2.11791">
        <ele>1380.415</ele>
      </trkpt>
      <trkpt lat="40.63154" lon="-2.11795">
        <ele>1380.941</ele>
      </trkpt>
      <trkpt lat="40.63162" lon="-2.11796">
        <ele>1381.171</ele>
      </trkpt>
      <trkpt lat="40.63185" lon="-2.11795">
        <ele>1381.396</ele>
      </trkpt>
      <trkpt lat="40.63196" lon="-2.11802">
        <ele>1382.352</ele>
      </trkpt>
      <trkpt lat="40.63203" lon="-2.11809">
        <ele>1383.334</ele>
      </trkpt>
      <trkpt lat="40.63208" lon="-2.11819">
        <ele>1384.775</ele>
      </trkpt>
      <trkpt lat="40.63213" lon="-2.11882">
        <ele>1393.349</ele>
      </trkpt>
      <trkpt lat="40.63211" lon="-2.11922">
        <ele>1398.421</ele>
      </trkpt>
      <trkpt lat="40.63206" lon="-2.11952">
        <ele>1400.36</ele>
      </trkpt>
      <trkpt lat="40.63205" lon="-2.11988">
        <ele>1402.741</ele>
      </trkpt>
      <trkpt lat="40.63206" lon="-2.1202">
        <ele>1404.608</ele>
      </trkpt>
      <trkpt lat="40.63222" lon="-2.12087">
        <ele>1407.226</ele>
      </trkpt>
      <trkpt lat="40.63237" lon="-2.12134">
        <ele>1408.806</ele>
      </trkpt>
      <trkpt lat="40.63275" lon="-2.12226">
        <ele>1409.889</ele>
      </trkpt>
      <trkpt lat="40.63289" lon="-2.12274">
        <ele>1408.595</ele>
      </trkpt>
      <trkpt lat="40.63296" lon="-2.12363">
        <ele>1405.721</ele>
      </trkpt>
      <trkpt lat="40.63298" lon="-2.1242">
        <ele>1403.723</ele>
      </trkpt>
      <trkpt lat="40.63302" lon="-2.12456">
        <ele>1403.654</ele>
      </trkpt>
      <trkpt lat="40.63309" lon="-2.12477">
        <ele>1403.668</ele>
      </trkpt>
      <trkpt lat="40.63329" lon="-2.1253">
        <ele>1403.95</ele>
      </trkpt>
      <trkpt lat="40.6334" lon="-2.1257">
        <ele>1403.839</ele>
      </trkpt>
      <trkpt lat="40.63343" lon="-2.12605">
        <ele>1402.97</ele>
      </trkpt>
      <trkpt lat="40.63354" lon="-2.12658">
        <ele>1400.808</ele>
      </trkpt>
      <trkpt lat="40.63376" lon="-2.12716">
        <ele>1395.527</ele>
      </trkpt>
      <trkpt lat="40.63381" lon="-2.12738">
        <ele>1393.561</ele>
      </trkpt>
      <trkpt lat="40.63382" lon="-2.12769">
        <ele>1391.677</ele>
      </trkpt>
      <trkpt lat="40.63397" lon="-2.12816">
        <ele>1389.794</ele>
      </trkpt>
      <trkpt lat="40.63402" lon="-2.1284">
        <ele>1388.95</ele>
      </trkpt>
      <trkpt lat="40.63406" lon="-2.12865">
        <ele>1388.612</ele>
      </trkpt>
      <trkpt lat="40.6341" lon="-2.12893">
        <ele>1388.363</ele>
      </trkpt>
      <trkpt lat="40.63411" lon="-2.1296">
        <ele>1386.397</ele>
      </trkpt>
      <trkpt lat="40.63418" lon="-2.12999">
        <ele>1385.029</ele>
      </trkpt>
      <trkpt lat="40.63425" lon="-2.13021">
        <ele>1383.498</ele>
      </trkpt>
      <trkpt lat="40.63434" lon="-2.13046">
        <ele>1381.719</ele>
      </trkpt>
      <trkpt lat="40.63443" lon="-2.1306">
        <ele>1381.008</ele>
      </trkpt>
      <trkpt lat="40.63453" lon="-2.13072">
        <ele>1380.513</ele>
      </trkpt>
      <trkpt lat="40.63466" lon="-2.13081">
        <ele>1380.321</ele>
      </trkpt>
      <trkpt lat="40.63475" lon="-2.13083">
        <ele>1380.461</ele>
      </trkpt>
      <trkpt lat="40.63485" lon="-2.13083">
        <ele>1380.749</ele>
      </trkpt>
      <trkpt lat="40.6349" lon="-2.13076">
        <ele>1381.095</ele>
      </trkpt>
      <trkpt lat="40.63498" lon="-2.13062">
        <ele>1381.597</ele>
      </trkpt>
      <trkpt lat="40.6353" lon="-2.13008">
        <ele>1381.938</ele>
      </trkpt>
      <trkpt lat="40.63541" lon="-2.12995">
        <ele>1381.562</ele>
      </trkpt>
      <trkpt lat="40.63565" lon="-2.1298">
        <ele>1380.964</ele>
      </trkpt>
      <trkpt lat="40.63598" lon="-2.12954">
        <ele>1381.743</ele>
      </trkpt>
      <trkpt lat="40.63669" lon="-2.12902">
        <ele>1383.284</ele>
      </trkpt>
      <trkpt lat="40.63688" lon="-2.12886">
        <ele>1383.808</ele>
      </trkpt>
      <trkpt lat="40.6369" lon="-2.12892">
        <ele>1383.811</ele>
      </trkpt>
      <trkpt lat="40.63714" lon="-2.12949">
        <ele>1385.465</ele>
      </trkpt>
      <trkpt lat="40.6377" lon="-2.13019">
        <ele>1387.815</ele>
      </trkpt>
      <trkpt lat="40.6379" lon="-2.13038">
        <ele>1388.724</ele>
      </trkpt>
      <trkpt lat="40.63843" lon="-2.13102">
        <ele>1390.51</ele>
      </trkpt>
      <trkpt lat="40.63886" lon="-2.13123">
        <ele>1389.372</ele>
      </trkpt>
      <trkpt lat="40.63908" lon="-2.13147">
        <ele>1388.463</ele>
      </trkpt>
      <trkpt lat="40.63944" lon="-2.132">
        <ele>1388.717</ele>
      </trkpt>
      <trkpt lat="40.63949" lon="-2.13214">
        <ele>1388.759</ele>
      </trkpt>
      <trkpt lat="40.63966" lon="-2.13228">
        <ele>1388.668</ele>
      </trkpt>
      <trkpt lat="40.63974" lon="-2.13231">
        <ele>1388.699</ele>
      </trkpt>
      <trkpt lat="40.63991" lon="-2.13251">
        <ele>1388.108</ele>
      </trkpt>
      <trkpt lat="40.63996" lon="-2.1326">
        <ele>1388.021</ele>
      </trkpt>
      <trkpt lat="40.64009" lon="-2.13273">
        <ele>1388.129</ele>
      </trkpt>
      <trkpt lat="40.64044" lon="-2.13298">
        <ele>1388.566</ele>
      </trkpt>
      <trkpt lat="40.64069" lon="-2.13329">
        <ele>1388.839</ele>
      </trkpt>
      <trkpt lat="40.64113" lon="-2.1337">
        <ele>1389.485</ele>
      </trkpt>
      <trkpt lat="40.64118" lon="-2.13379">
        <ele>1389.567</ele>
      </trkpt>
      <trkpt lat="40.64119" lon="-2.1339">
        <ele>1389.788</ele>
      </trkpt>
      <trkpt lat="40.64114" lon="-2.13426">
        <ele>1390.322</ele>
      </trkpt>
      <trkpt lat="40.64113" lon="-2.13439">
        <ele>1390.774</ele>
      </trkpt>
      <trkpt lat="40.64115" lon="-2.13459">
        <ele>1391.343</ele>
      </trkpt>
      <trkpt lat="40.64137" lon="-2.13532">
        <ele>1392.744</ele>
      </trkpt>
      <trkpt lat="40.64137" lon="-2.13572">
        <ele>1393.208</ele>
      </trkpt>
      <trkpt lat="40.64141" lon="-2.13593">
        <ele>1393.911</ele>
      </trkpt>
      <trkpt lat="40.64164" lon="-2.13627">
        <ele>1396.565</ele>
      </trkpt>
      <trkpt lat="40.6418" lon="-2.13664">
        <ele>1398.815</ele>
      </trkpt>
      <trkpt lat="40.64192" lon="-2.1368">
        <ele>1398.989</ele>
      </trkpt>
      <trkpt lat="40.64204" lon="-2.13699">
        <ele>1398.875</ele>
      </trkpt>
      <trkpt lat="40.64237" lon="-2.13763">
        <ele>1398.657</ele>
      </trkpt>
      <trkpt lat="40.64247" lon="-2.13786">
        <ele>1398.158</ele>
      </trkpt>
      <trkpt lat="40.6425" lon="-2.13818">
        <ele>1397.492</ele>
      </trkpt>
      <trkpt lat="40.64262" lon="-2.13879">
        <ele>1397.284</ele>
      </trkpt>
      <trkpt lat="40.64321" lon="-2.13977">
        <ele>1395.933</ele>
      </trkpt>
      <trkpt lat="40.64336" lon="-2.14015">
        <ele>1394.794</ele>
      </trkpt>
      <trkpt lat="40.64374" lon="-2.14053">
        <ele>1394.408</ele>
      </trkpt>
      <trkpt lat="40.64394" lon="-2.14091">
        <ele>1393.507</ele>
      </trkpt>
      <trkpt lat="40.64428" lon="-2.14163">
        <ele>1390.943</ele>
      </trkpt>
      <trkpt lat="40.64454" lon="-2.14198">
        <ele>1389.913</ele>
      </trkpt>
      <trkpt lat="40.64475" lon="-2.14238">
        <ele>1389.097</ele>
      </trkpt>
      <trkpt lat="40.64499" lon="-2.14267">
        <ele>1388.493</ele>
      </trkpt>
      <trkpt lat="40.64534" lon="-2.14302">
        <ele>1389.145</ele>
      </trkpt>
      <trkpt lat="40.64545" lon="-2.14325">
        <ele>1389.786</ele>
      </trkpt>
      <trkpt lat="40.64552" lon="-2.14353">
        <ele>1389.84</ele>
      </trkpt>
      <trkpt lat="40.64562" lon="-2.14377">
        <ele>1389.722</ele>
      </trkpt>
      <trkpt lat="40.64571" lon="-2.14418">
        <ele>1389.681</ele>
      </trkpt>
      <trkpt lat="40.64584" lon="-2.14489">
        <ele>1385.742</ele>
      </trkpt>
      <trkpt lat="40.64597" lon="-2.14523">
        <ele>1387.308</ele>
      </trkpt>
      <trkpt lat="40.64607" lon="-2.14535">
        <ele>1388.62</ele>
      </trkpt>
      <trkpt lat="40.64619" lon="-2.14544">
        <ele>1389.773</ele>
      </trkpt>
      <trkpt lat="40.64622" lon="-2.14562">
        <ele>1390.692</ele>
      </trkpt>
      <trkpt lat="40.64622" lon="-2.14599">
        <ele>1391.282</ele>
      </trkpt>
      <trkpt lat="40.64628" lon="-2.14625">
        <ele>1391.118</ele>
      </trkpt>
      <trkpt lat="40.64629" lon="-2.14651">
        <ele>1390.85</ele>
      </trkpt>
      <trkpt lat="40.64637" lon="-2.14686">
        <ele>1390.781</ele>
      </trkpt>
      <trkpt lat="40.6464" lon="-2.14718">
        <ele>1390.935</ele>
      </trkpt>
      <trkpt lat="40.6464" lon="-2.14725">
        <ele>1390.927</ele>
      </trkpt>
      <trkpt lat="40.64652" lon="-2.14797">
        <ele>1390.386</ele>
      </trkpt>
      <trkpt lat="40.64654" lon="-2.14822">
        <ele>1390.037</ele>
      </trkpt>
    </trkseg>
  </trk>
</gpx>
